<?xml version="1.0" encoding="UTF-8" standalone="no" ?>
<gpx xmlns="http://www.topografix.com/GPX/1/1" xmlns:xsi="http://www.w3.org/2001/XMLSchema-instance" xsi:schemaLocation="http://www.topografix.com/GPX/1/1 http://www.topografix.com/GPX/1/1/gpx.xsd" version="1.1" creator="VisuGPX - https://www.visugpx.com">
  <metadata>
    <name>Jour 4 : 2016.05.05.Droisy /Les Baux de Breteuil</name>
    <desc><![CDATA[Le centre équestre Des baux de Breteuil, nous propose deux très grands paddocks et nous mettrons nos tentes juste à côté! (sanitaire !)
Les voisins viendront nous proposer café et jus de fruit le lendemain matin ! Nous partons également avec des %u0153ufs (de leurs poules) et tomates !]]></desc>
  </metadata>
  <trk>
    <name><![CDATA[Droisy / Baux de Breteuil]]></name>
    <trkseg>
      <trkpt lat="48.80773" lon="1.14092">
        <ele>148.60000610352</ele>
        <time>2016-05-05T06:57:11.000Z</time>
      </trkpt>
      <trkpt lat="48.80776" lon="1.14093">
        <ele>148.60000610352</ele>
        <time>2016-05-05T06:57:12.000Z</time>
      </trkpt>
      <trkpt lat="48.80778" lon="1.1409">
        <ele>148.60000610352</ele>
        <time>2016-05-05T06:57:16.000Z</time>
      </trkpt>
      <trkpt lat="48.80777" lon="1.14078">
        <ele>148.80000305176</ele>
        <time>2016-05-05T06:57:23.000Z</time>
      </trkpt>
      <trkpt lat="48.80775" lon="1.14067">
        <ele>148.80000305176</ele>
        <time>2016-05-05T06:57:30.000Z</time>
      </trkpt>
      <trkpt lat="48.80775" lon="1.14065">
        <ele>149</ele>
        <time>2016-05-05T06:57:34.000Z</time>
      </trkpt>
      <trkpt lat="48.80774" lon="1.14048">
        <ele>149.19999694824</ele>
        <time>2016-05-05T06:57:44.000Z</time>
      </trkpt>
      <trkpt lat="48.80776" lon="1.14034">
        <ele>149.39999389648</ele>
        <time>2016-05-05T06:57:50.000Z</time>
      </trkpt>
      <trkpt lat="48.80776" lon="1.14032">
        <ele>149.39999389648</ele>
        <time>2016-05-05T06:57:51.000Z</time>
      </trkpt>
      <trkpt lat="48.80775" lon="1.1403">
        <ele>149.39999389648</ele>
        <time>2016-05-05T06:57:52.000Z</time>
      </trkpt>
      <trkpt lat="48.80774" lon="1.14025">
        <ele>149.39999389648</ele>
        <time>2016-05-05T06:57:55.000Z</time>
      </trkpt>
      <trkpt lat="48.80774" lon="1.14023">
        <ele>149.39999389648</ele>
        <time>2016-05-05T06:57:56.000Z</time>
      </trkpt>
      <trkpt lat="48.80773" lon="1.14015">
        <ele>149.60000610352</ele>
        <time>2016-05-05T06:58:00.000Z</time>
      </trkpt>
      <trkpt lat="48.80773" lon="1.14012">
        <ele>149.60000610352</ele>
        <time>2016-05-05T06:58:03.000Z</time>
      </trkpt>
      <trkpt lat="48.8077" lon="1.14002">
        <ele>149.60000610352</ele>
        <time>2016-05-05T06:58:26.000Z</time>
      </trkpt>
      <trkpt lat="48.80769" lon="1.14001">
        <ele>149.60000610352</ele>
        <time>2016-05-05T06:58:27.000Z</time>
      </trkpt>
      <trkpt lat="48.80768" lon="1.13987">
        <ele>149.80000305176</ele>
        <time>2016-05-05T06:58:34.000Z</time>
      </trkpt>
      <trkpt lat="48.80768" lon="1.13983">
        <ele>149.80000305176</ele>
        <time>2016-05-05T06:58:37.000Z</time>
      </trkpt>
      <trkpt lat="48.80768" lon="1.13983">
        <ele>149.80000305176</ele>
        <time>2016-05-05T06:58:38.000Z</time>
      </trkpt>
      <trkpt lat="48.80769" lon="1.13912">
        <ele>149.19999694824</ele>
        <time>2016-05-05T07:01:02.000Z</time>
      </trkpt>
      <trkpt lat="48.80769" lon="1.1391">
        <ele>149</ele>
        <time>2016-05-05T07:01:03.000Z</time>
      </trkpt>
      <trkpt lat="48.80767" lon="1.13892">
        <ele>148.80000305176</ele>
        <time>2016-05-05T07:01:13.000Z</time>
      </trkpt>
      <trkpt lat="48.80768" lon="1.1388">
        <ele>149.19999694824</ele>
        <time>2016-05-05T07:01:20.000Z</time>
      </trkpt>
      <trkpt lat="48.80767" lon="1.13877">
        <ele>149.19999694824</ele>
        <time>2016-05-05T07:01:21.000Z</time>
      </trkpt>
      <trkpt lat="48.80767" lon="1.13867">
        <ele>149.39999389648</ele>
        <time>2016-05-05T07:01:26.000Z</time>
      </trkpt>
      <trkpt lat="48.80767" lon="1.13856">
        <ele>149.60000610352</ele>
        <time>2016-05-05T07:01:32.000Z</time>
      </trkpt>
      <trkpt lat="48.80766" lon="1.13852">
        <ele>149.80000305176</ele>
        <time>2016-05-05T07:01:34.000Z</time>
      </trkpt>
      <trkpt lat="48.80767" lon="1.13846">
        <ele>149.80000305176</ele>
        <time>2016-05-05T07:01:37.000Z</time>
      </trkpt>
      <trkpt lat="48.80767" lon="1.13841">
        <ele>150</ele>
        <time>2016-05-05T07:01:40.000Z</time>
      </trkpt>
      <trkpt lat="48.80766" lon="1.13828">
        <ele>150.19999694824</ele>
        <time>2016-05-05T07:01:47.000Z</time>
      </trkpt>
      <trkpt lat="48.80765" lon="1.13827">
        <ele>150.19999694824</ele>
        <time>2016-05-05T07:01:48.000Z</time>
      </trkpt>
      <trkpt lat="48.80764" lon="1.13819">
        <ele>150.39999389648</ele>
        <time>2016-05-05T07:01:52.000Z</time>
      </trkpt>
      <trkpt lat="48.80764" lon="1.13817">
        <ele>150.39999389648</ele>
        <time>2016-05-05T07:01:53.000Z</time>
      </trkpt>
      <trkpt lat="48.80763" lon="1.13804">
        <ele>150.60000610352</ele>
        <time>2016-05-05T07:02:00.000Z</time>
      </trkpt>
      <trkpt lat="48.80762" lon="1.1379">
        <ele>150.60000610352</ele>
        <time>2016-05-05T07:02:07.000Z</time>
      </trkpt>
      <trkpt lat="48.80761" lon="1.13777">
        <ele>150.39999389648</ele>
        <time>2016-05-05T07:02:14.000Z</time>
      </trkpt>
      <trkpt lat="48.80759" lon="1.13763">
        <ele>150.19999694824</ele>
        <time>2016-05-05T07:02:21.000Z</time>
      </trkpt>
      <trkpt lat="48.80758" lon="1.13752">
        <ele>150</ele>
        <time>2016-05-05T07:02:27.000Z</time>
      </trkpt>
      <trkpt lat="48.80758" lon="1.1375">
        <ele>150</ele>
        <time>2016-05-05T07:02:28.000Z</time>
      </trkpt>
      <trkpt lat="48.80758" lon="1.13743">
        <ele>149.80000305176</ele>
        <time>2016-05-05T07:02:32.000Z</time>
      </trkpt>
      <trkpt lat="48.80758" lon="1.13742">
        <ele>149.80000305176</ele>
        <time>2016-05-05T07:02:33.000Z</time>
      </trkpt>
      <trkpt lat="48.80758" lon="1.13734">
        <ele>149.80000305176</ele>
        <time>2016-05-05T07:02:38.000Z</time>
      </trkpt>
      <trkpt lat="48.80758" lon="1.13728">
        <ele>149.60000610352</ele>
        <time>2016-05-05T07:02:41.000Z</time>
      </trkpt>
      <trkpt lat="48.80755" lon="1.13717">
        <ele>149.60000610352</ele>
        <time>2016-05-05T07:02:47.000Z</time>
      </trkpt>
      <trkpt lat="48.80754" lon="1.13711">
        <ele>149.60000610352</ele>
        <time>2016-05-05T07:02:50.000Z</time>
      </trkpt>
      <trkpt lat="48.80753" lon="1.13703">
        <ele>149.39999389648</ele>
        <time>2016-05-05T07:02:55.000Z</time>
      </trkpt>
      <trkpt lat="48.8075" lon="1.13687">
        <ele>148.80000305176</ele>
        <time>2016-05-05T07:03:04.000Z</time>
      </trkpt>
      <trkpt lat="48.80749" lon="1.13683">
        <ele>148.60000610352</ele>
        <time>2016-05-05T07:03:06.000Z</time>
      </trkpt>
      <trkpt lat="48.80749" lon="1.13679">
        <ele>148.60000610352</ele>
        <time>2016-05-05T07:03:09.000Z</time>
      </trkpt>
      <trkpt lat="48.80747" lon="1.13675">
        <ele>148.39999389648</ele>
        <time>2016-05-05T07:03:12.000Z</time>
      </trkpt>
      <trkpt lat="48.80746" lon="1.1367">
        <ele>148.19999694824</ele>
        <time>2016-05-05T07:03:15.000Z</time>
      </trkpt>
      <trkpt lat="48.80745" lon="1.13664">
        <ele>148</ele>
        <time>2016-05-05T07:03:19.000Z</time>
      </trkpt>
      <trkpt lat="48.80745" lon="1.13663">
        <ele>148</ele>
        <time>2016-05-05T07:03:20.000Z</time>
      </trkpt>
      <trkpt lat="48.80744" lon="1.1365">
        <ele>147.60000610352</ele>
        <time>2016-05-05T07:03:27.000Z</time>
      </trkpt>
      <trkpt lat="48.80741" lon="1.1364">
        <ele>147.39999389648</ele>
        <time>2016-05-05T07:03:33.000Z</time>
      </trkpt>
      <trkpt lat="48.8074" lon="1.1363">
        <ele>147.39999389648</ele>
        <time>2016-05-05T07:03:38.000Z</time>
      </trkpt>
      <trkpt lat="48.80737" lon="1.13608">
        <ele>147.39999389648</ele>
        <time>2016-05-05T07:03:49.000Z</time>
      </trkpt>
      <trkpt lat="48.80734" lon="1.13594">
        <ele>147.39999389648</ele>
        <time>2016-05-05T07:03:57.000Z</time>
      </trkpt>
      <trkpt lat="48.80734" lon="1.13591">
        <ele>147.39999389648</ele>
        <time>2016-05-05T07:03:59.000Z</time>
      </trkpt>
      <trkpt lat="48.80733" lon="1.13586">
        <ele>147.39999389648</ele>
        <time>2016-05-05T07:04:02.000Z</time>
      </trkpt>
      <trkpt lat="48.80733" lon="1.13578">
        <ele>147.39999389648</ele>
        <time>2016-05-05T07:04:06.000Z</time>
      </trkpt>
      <trkpt lat="48.8073" lon="1.13557">
        <ele>147.60000610352</ele>
        <time>2016-05-05T07:04:18.000Z</time>
      </trkpt>
      <trkpt lat="48.80728" lon="1.13537">
        <ele>147.60000610352</ele>
        <time>2016-05-05T07:04:31.000Z</time>
      </trkpt>
      <trkpt lat="48.80724" lon="1.13435">
        <ele>148.39999389648</ele>
        <time>2016-05-05T07:06:47.000Z</time>
      </trkpt>
      <trkpt lat="48.80723" lon="1.13431">
        <ele>148.39999389648</ele>
        <time>2016-05-05T07:06:50.000Z</time>
      </trkpt>
      <trkpt lat="48.80723" lon="1.13431">
        <ele>148.39999389648</ele>
        <time>2016-05-05T07:06:51.000Z</time>
      </trkpt>
      <trkpt lat="48.80721" lon="1.1339">
        <ele>148.39999389648</ele>
        <time>2016-05-05T07:07:19.000Z</time>
      </trkpt>
      <trkpt lat="48.80721" lon="1.13384">
        <ele>148.39999389648</ele>
        <time>2016-05-05T07:07:22.000Z</time>
      </trkpt>
      <trkpt lat="48.80721" lon="1.13379">
        <ele>148.39999389648</ele>
        <time>2016-05-05T07:07:27.000Z</time>
      </trkpt>
      <trkpt lat="48.80719" lon="1.13354">
        <ele>148.39999389648</ele>
        <time>2016-05-05T07:07:41.000Z</time>
      </trkpt>
      <trkpt lat="48.80719" lon="1.13348">
        <ele>148.39999389648</ele>
        <time>2016-05-05T07:07:44.000Z</time>
      </trkpt>
      <trkpt lat="48.80718" lon="1.13331">
        <ele>148.19999694824</ele>
        <time>2016-05-05T07:07:53.000Z</time>
      </trkpt>
      <trkpt lat="48.80718" lon="1.13317">
        <ele>148</ele>
        <time>2016-05-05T07:08:01.000Z</time>
      </trkpt>
      <trkpt lat="48.80717" lon="1.13306">
        <ele>148</ele>
        <time>2016-05-05T07:08:08.000Z</time>
      </trkpt>
      <trkpt lat="48.80715" lon="1.13286">
        <ele>148</ele>
        <time>2016-05-05T07:08:18.000Z</time>
      </trkpt>
      <trkpt lat="48.80715" lon="1.13272">
        <ele>148</ele>
        <time>2016-05-05T07:08:25.000Z</time>
      </trkpt>
      <trkpt lat="48.80714" lon="1.13271">
        <ele>148</ele>
        <time>2016-05-05T07:08:26.000Z</time>
      </trkpt>
      <trkpt lat="48.80713" lon="1.13263">
        <ele>148</ele>
        <time>2016-05-05T07:08:30.000Z</time>
      </trkpt>
      <trkpt lat="48.80712" lon="1.13248">
        <ele>148</ele>
        <time>2016-05-05T07:08:39.000Z</time>
      </trkpt>
      <trkpt lat="48.80712" lon="1.13241">
        <ele>148</ele>
        <time>2016-05-05T07:08:43.000Z</time>
      </trkpt>
      <trkpt lat="48.80712" lon="1.13238">
        <ele>148</ele>
        <time>2016-05-05T07:08:45.000Z</time>
      </trkpt>
      <trkpt lat="48.80713" lon="1.13225">
        <ele>148</ele>
        <time>2016-05-05T07:08:52.000Z</time>
      </trkpt>
      <trkpt lat="48.80714" lon="1.13216">
        <ele>148.19999694824</ele>
        <time>2016-05-05T07:08:57.000Z</time>
      </trkpt>
      <trkpt lat="48.80714" lon="1.13215">
        <ele>148.19999694824</ele>
        <time>2016-05-05T07:08:58.000Z</time>
      </trkpt>
      <trkpt lat="48.80715" lon="1.13212">
        <ele>148.19999694824</ele>
        <time>2016-05-05T07:09:00.000Z</time>
      </trkpt>
      <trkpt lat="48.80717" lon="1.13205">
        <ele>148.19999694824</ele>
        <time>2016-05-05T07:09:04.000Z</time>
      </trkpt>
      <trkpt lat="48.80716" lon="1.13205">
        <ele>148.19999694824</ele>
        <time>2016-05-05T07:09:05.000Z</time>
      </trkpt>
      <trkpt lat="48.80717" lon="1.13201">
        <ele>148.39999389648</ele>
        <time>2016-05-05T07:09:08.000Z</time>
      </trkpt>
      <trkpt lat="48.80717" lon="1.13199">
        <ele>148.39999389648</ele>
        <time>2016-05-05T07:09:09.000Z</time>
      </trkpt>
      <trkpt lat="48.80718" lon="1.13197">
        <ele>148.39999389648</ele>
        <time>2016-05-05T07:09:13.000Z</time>
      </trkpt>
      <trkpt lat="48.80725" lon="1.13142">
        <ele>149.39999389648</ele>
        <time>2016-05-05T07:10:18.000Z</time>
      </trkpt>
      <trkpt lat="48.80726" lon="1.13136">
        <ele>149.39999389648</ele>
        <time>2016-05-05T07:10:21.000Z</time>
      </trkpt>
      <trkpt lat="48.80729" lon="1.13118">
        <ele>149.39999389648</ele>
        <time>2016-05-05T07:10:31.000Z</time>
      </trkpt>
      <trkpt lat="48.80731" lon="1.13102">
        <ele>149.39999389648</ele>
        <time>2016-05-05T07:10:40.000Z</time>
      </trkpt>
      <trkpt lat="48.80736" lon="1.13089">
        <ele>149.39999389648</ele>
        <time>2016-05-05T07:10:48.000Z</time>
      </trkpt>
      <trkpt lat="48.80737" lon="1.13087">
        <ele>149.39999389648</ele>
        <time>2016-05-05T07:10:49.000Z</time>
      </trkpt>
      <trkpt lat="48.80741" lon="1.13085">
        <ele>149.19999694824</ele>
        <time>2016-05-05T07:10:54.000Z</time>
      </trkpt>
      <trkpt lat="48.80748" lon="1.13081">
        <ele>149.19999694824</ele>
        <time>2016-05-05T07:11:02.000Z</time>
      </trkpt>
      <trkpt lat="48.80757" lon="1.13076">
        <ele>149.19999694824</ele>
        <time>2016-05-05T07:11:10.000Z</time>
      </trkpt>
      <trkpt lat="48.8077" lon="1.1307">
        <ele>149.19999694824</ele>
        <time>2016-05-05T07:11:21.000Z</time>
      </trkpt>
      <trkpt lat="48.8078" lon="1.13065">
        <ele>149</ele>
        <time>2016-05-05T07:11:29.000Z</time>
      </trkpt>
      <trkpt lat="48.80792" lon="1.13059">
        <ele>149</ele>
        <time>2016-05-05T07:11:38.000Z</time>
      </trkpt>
      <trkpt lat="48.808" lon="1.13055">
        <ele>149</ele>
        <time>2016-05-05T07:11:45.000Z</time>
      </trkpt>
      <trkpt lat="48.80805" lon="1.13053">
        <ele>149</ele>
        <time>2016-05-05T07:11:49.000Z</time>
      </trkpt>
      <trkpt lat="48.80806" lon="1.13052">
        <ele>149</ele>
        <time>2016-05-05T07:11:50.000Z</time>
      </trkpt>
      <trkpt lat="48.80813" lon="1.13049">
        <ele>149</ele>
        <time>2016-05-05T07:11:56.000Z</time>
      </trkpt>
      <trkpt lat="48.80815" lon="1.13049">
        <ele>149</ele>
        <time>2016-05-05T07:11:57.000Z</time>
      </trkpt>
      <trkpt lat="48.8082" lon="1.13046">
        <ele>149</ele>
        <time>2016-05-05T07:12:01.000Z</time>
      </trkpt>
      <trkpt lat="48.80822" lon="1.13044">
        <ele>149</ele>
        <time>2016-05-05T07:12:03.000Z</time>
      </trkpt>
      <trkpt lat="48.80826" lon="1.13043">
        <ele>149</ele>
        <time>2016-05-05T07:12:08.000Z</time>
      </trkpt>
      <trkpt lat="48.80827" lon="1.13043">
        <ele>149</ele>
        <time>2016-05-05T07:12:09.000Z</time>
      </trkpt>
      <trkpt lat="48.80827" lon="1.13042">
        <ele>149</ele>
        <time>2016-05-05T07:12:10.000Z</time>
      </trkpt>
      <trkpt lat="48.80836" lon="1.13038">
        <ele>149</ele>
        <time>2016-05-05T07:12:18.000Z</time>
      </trkpt>
      <trkpt lat="48.80837" lon="1.13037">
        <ele>149</ele>
        <time>2016-05-05T07:12:19.000Z</time>
      </trkpt>
      <trkpt lat="48.80847" lon="1.13031">
        <ele>149</ele>
        <time>2016-05-05T07:12:27.000Z</time>
      </trkpt>
      <trkpt lat="48.80857" lon="1.13027">
        <ele>149</ele>
        <time>2016-05-05T07:12:35.000Z</time>
      </trkpt>
      <trkpt lat="48.80857" lon="1.13026">
        <ele>149</ele>
        <time>2016-05-05T07:12:36.000Z</time>
      </trkpt>
      <trkpt lat="48.80861" lon="1.13024">
        <ele>149</ele>
        <time>2016-05-05T07:12:39.000Z</time>
      </trkpt>
      <trkpt lat="48.80868" lon="1.1302">
        <ele>149</ele>
        <time>2016-05-05T07:12:44.000Z</time>
      </trkpt>
      <trkpt lat="48.80877" lon="1.13015">
        <ele>149</ele>
        <time>2016-05-05T07:12:51.000Z</time>
      </trkpt>
      <trkpt lat="48.80885" lon="1.1301">
        <ele>149</ele>
        <time>2016-05-05T07:12:58.000Z</time>
      </trkpt>
      <trkpt lat="48.80888" lon="1.13008">
        <ele>149</ele>
        <time>2016-05-05T07:13:01.000Z</time>
      </trkpt>
      <trkpt lat="48.80893" lon="1.13006">
        <ele>148.80000305176</ele>
        <time>2016-05-05T07:13:05.000Z</time>
      </trkpt>
      <trkpt lat="48.80901" lon="1.13001">
        <ele>148.80000305176</ele>
        <time>2016-05-05T07:13:12.000Z</time>
      </trkpt>
      <trkpt lat="48.80909" lon="1.12997">
        <ele>148.60000610352</ele>
        <time>2016-05-05T07:13:18.000Z</time>
      </trkpt>
      <trkpt lat="48.80917" lon="1.12992">
        <ele>148.39999389648</ele>
        <time>2016-05-05T07:13:24.000Z</time>
      </trkpt>
      <trkpt lat="48.80929" lon="1.12988">
        <ele>148.19999694824</ele>
        <time>2016-05-05T07:13:33.000Z</time>
      </trkpt>
      <trkpt lat="48.80937" lon="1.12981">
        <ele>148</ele>
        <time>2016-05-05T07:13:40.000Z</time>
      </trkpt>
      <trkpt lat="48.80941" lon="1.12978">
        <ele>148</ele>
        <time>2016-05-05T07:13:44.000Z</time>
      </trkpt>
      <trkpt lat="48.80943" lon="1.12977">
        <ele>148</ele>
        <time>2016-05-05T07:13:46.000Z</time>
      </trkpt>
      <trkpt lat="48.80947" lon="1.12975">
        <ele>148.19999694824</ele>
        <time>2016-05-05T07:13:49.000Z</time>
      </trkpt>
      <trkpt lat="48.80947" lon="1.12976">
        <ele>148.19999694824</ele>
        <time>2016-05-05T07:13:51.000Z</time>
      </trkpt>
      <trkpt lat="48.80947" lon="1.12976">
        <ele>148.19999694824</ele>
        <time>2016-05-05T07:13:52.000Z</time>
      </trkpt>
      <trkpt lat="48.80968" lon="1.12967">
        <ele>148.39999389648</ele>
        <time>2016-05-05T07:14:59.000Z</time>
      </trkpt>
      <trkpt lat="48.80973" lon="1.12964">
        <ele>148.60000610352</ele>
        <time>2016-05-05T07:15:03.000Z</time>
      </trkpt>
      <trkpt lat="48.80983" lon="1.12957">
        <ele>148.80000305176</ele>
        <time>2016-05-05T07:15:11.000Z</time>
      </trkpt>
      <trkpt lat="48.80984" lon="1.12956">
        <ele>148.80000305176</ele>
        <time>2016-05-05T07:15:12.000Z</time>
      </trkpt>
      <trkpt lat="48.80992" lon="1.12952">
        <ele>149</ele>
        <time>2016-05-05T07:15:18.000Z</time>
      </trkpt>
      <trkpt lat="48.81001" lon="1.12945">
        <ele>148.80000305176</ele>
        <time>2016-05-05T07:15:26.000Z</time>
      </trkpt>
      <trkpt lat="48.81012" lon="1.12938">
        <ele>148.60000610352</ele>
        <time>2016-05-05T07:15:35.000Z</time>
      </trkpt>
      <trkpt lat="48.81017" lon="1.12935">
        <ele>148.60000610352</ele>
        <time>2016-05-05T07:15:42.000Z</time>
      </trkpt>
      <trkpt lat="48.81035" lon="1.12921">
        <ele>148.39999389648</ele>
        <time>2016-05-05T07:16:24.000Z</time>
      </trkpt>
      <trkpt lat="48.81039" lon="1.12918">
        <ele>148.19999694824</ele>
        <time>2016-05-05T07:16:28.000Z</time>
      </trkpt>
      <trkpt lat="48.81046" lon="1.12913">
        <ele>148.19999694824</ele>
        <time>2016-05-05T07:16:35.000Z</time>
      </trkpt>
      <trkpt lat="48.81047" lon="1.12913">
        <ele>148.39999389648</ele>
        <time>2016-05-05T07:16:36.000Z</time>
      </trkpt>
      <trkpt lat="48.81047" lon="1.12913">
        <ele>148.19999694824</ele>
        <time>2016-05-05T07:16:37.000Z</time>
      </trkpt>
      <trkpt lat="48.81063" lon="1.12901">
        <ele>148.39999389648</ele>
        <time>2016-05-05T07:16:52.000Z</time>
      </trkpt>
      <trkpt lat="48.81065" lon="1.129">
        <ele>148.60000610352</ele>
        <time>2016-05-05T07:16:54.000Z</time>
      </trkpt>
      <trkpt lat="48.81072" lon="1.12895">
        <ele>148.60000610352</ele>
        <time>2016-05-05T07:17:00.000Z</time>
      </trkpt>
      <trkpt lat="48.81084" lon="1.12887">
        <ele>148.80000305176</ele>
        <time>2016-05-05T07:17:10.000Z</time>
      </trkpt>
      <trkpt lat="48.81094" lon="1.12879">
        <ele>148.80000305176</ele>
        <time>2016-05-05T07:17:19.000Z</time>
      </trkpt>
      <trkpt lat="48.81102" lon="1.12875">
        <ele>148.80000305176</ele>
        <time>2016-05-05T07:17:25.000Z</time>
      </trkpt>
      <trkpt lat="48.81115" lon="1.12865">
        <ele>148.80000305176</ele>
        <time>2016-05-05T07:17:36.000Z</time>
      </trkpt>
      <trkpt lat="48.81128" lon="1.12857">
        <ele>148.80000305176</ele>
        <time>2016-05-05T07:17:47.000Z</time>
      </trkpt>
      <trkpt lat="48.81135" lon="1.12851">
        <ele>148.80000305176</ele>
        <time>2016-05-05T07:17:53.000Z</time>
      </trkpt>
      <trkpt lat="48.81136" lon="1.1285">
        <ele>148.80000305176</ele>
        <time>2016-05-05T07:17:54.000Z</time>
      </trkpt>
      <trkpt lat="48.81139" lon="1.12847">
        <ele>148.80000305176</ele>
        <time>2016-05-05T07:17:57.000Z</time>
      </trkpt>
      <trkpt lat="48.81142" lon="1.12845">
        <ele>148.80000305176</ele>
        <time>2016-05-05T07:18:00.000Z</time>
      </trkpt>
      <trkpt lat="48.81145" lon="1.12839">
        <ele>149</ele>
        <time>2016-05-05T07:18:04.000Z</time>
      </trkpt>
      <trkpt lat="48.81151" lon="1.12836">
        <ele>149.19999694824</ele>
        <time>2016-05-05T07:18:09.000Z</time>
      </trkpt>
      <trkpt lat="48.81153" lon="1.12834">
        <ele>149.19999694824</ele>
        <time>2016-05-05T07:18:11.000Z</time>
      </trkpt>
      <trkpt lat="48.81156" lon="1.12832">
        <ele>149.19999694824</ele>
        <time>2016-05-05T07:18:13.000Z</time>
      </trkpt>
      <trkpt lat="48.81159" lon="1.12829">
        <ele>149.19999694824</ele>
        <time>2016-05-05T07:18:16.000Z</time>
      </trkpt>
      <trkpt lat="48.81161" lon="1.12827">
        <ele>149.39999389648</ele>
        <time>2016-05-05T07:18:18.000Z</time>
      </trkpt>
      <trkpt lat="48.81168" lon="1.12822">
        <ele>149.60000610352</ele>
        <time>2016-05-05T07:18:24.000Z</time>
      </trkpt>
      <trkpt lat="48.8118" lon="1.12813">
        <ele>149.80000305176</ele>
        <time>2016-05-05T07:18:34.000Z</time>
      </trkpt>
      <trkpt lat="48.81189" lon="1.12807">
        <ele>150</ele>
        <time>2016-05-05T07:18:42.000Z</time>
      </trkpt>
      <trkpt lat="48.81199" lon="1.12802">
        <ele>150</ele>
        <time>2016-05-05T07:18:49.000Z</time>
      </trkpt>
      <trkpt lat="48.812" lon="1.12801">
        <ele>150</ele>
        <time>2016-05-05T07:18:50.000Z</time>
      </trkpt>
      <trkpt lat="48.81204" lon="1.12798">
        <ele>150</ele>
        <time>2016-05-05T07:18:54.000Z</time>
      </trkpt>
      <trkpt lat="48.81211" lon="1.12795">
        <ele>150</ele>
        <time>2016-05-05T07:19:01.000Z</time>
      </trkpt>
      <trkpt lat="48.8121" lon="1.12796">
        <ele>150</ele>
        <time>2016-05-05T07:19:04.000Z</time>
      </trkpt>
      <trkpt lat="48.81223" lon="1.12783">
        <ele>150</ele>
        <time>2016-05-05T07:19:24.000Z</time>
      </trkpt>
      <trkpt lat="48.81227" lon="1.12779">
        <ele>150</ele>
        <time>2016-05-05T07:19:29.000Z</time>
      </trkpt>
      <trkpt lat="48.81236" lon="1.12773">
        <ele>150</ele>
        <time>2016-05-05T07:19:36.000Z</time>
      </trkpt>
      <trkpt lat="48.81246" lon="1.12766">
        <ele>150</ele>
        <time>2016-05-05T07:19:44.000Z</time>
      </trkpt>
      <trkpt lat="48.81247" lon="1.12765">
        <ele>150</ele>
        <time>2016-05-05T07:19:45.000Z</time>
      </trkpt>
      <trkpt lat="48.81251" lon="1.12762">
        <ele>150</ele>
        <time>2016-05-05T07:19:49.000Z</time>
      </trkpt>
      <trkpt lat="48.8126" lon="1.12756">
        <ele>150</ele>
        <time>2016-05-05T07:19:56.000Z</time>
      </trkpt>
      <trkpt lat="48.81268" lon="1.12749">
        <ele>150</ele>
        <time>2016-05-05T07:20:03.000Z</time>
      </trkpt>
      <trkpt lat="48.81275" lon="1.12744">
        <ele>150</ele>
        <time>2016-05-05T07:20:09.000Z</time>
      </trkpt>
      <trkpt lat="48.81285" lon="1.12736">
        <ele>150</ele>
        <time>2016-05-05T07:20:18.000Z</time>
      </trkpt>
      <trkpt lat="48.81293" lon="1.12731">
        <ele>150</ele>
        <time>2016-05-05T07:20:25.000Z</time>
      </trkpt>
      <trkpt lat="48.81294" lon="1.1273">
        <ele>150</ele>
        <time>2016-05-05T07:20:27.000Z</time>
      </trkpt>
      <trkpt lat="48.81296" lon="1.12728">
        <ele>150</ele>
        <time>2016-05-05T07:20:30.000Z</time>
      </trkpt>
      <trkpt lat="48.81302" lon="1.12724">
        <ele>150</ele>
        <time>2016-05-05T07:20:35.000Z</time>
      </trkpt>
      <trkpt lat="48.81306" lon="1.12722">
        <ele>150</ele>
        <time>2016-05-05T07:20:38.000Z</time>
      </trkpt>
      <trkpt lat="48.81312" lon="1.12718">
        <ele>150.19999694824</ele>
        <time>2016-05-05T07:20:43.000Z</time>
      </trkpt>
      <trkpt lat="48.81315" lon="1.12716">
        <ele>150.19999694824</ele>
        <time>2016-05-05T07:20:46.000Z</time>
      </trkpt>
      <trkpt lat="48.8132" lon="1.12713">
        <ele>150.19999694824</ele>
        <time>2016-05-05T07:20:50.000Z</time>
      </trkpt>
      <trkpt lat="48.81322" lon="1.12711">
        <ele>150.19999694824</ele>
        <time>2016-05-05T07:20:52.000Z</time>
      </trkpt>
      <trkpt lat="48.8133" lon="1.12706">
        <ele>150.19999694824</ele>
        <time>2016-05-05T07:20:59.000Z</time>
      </trkpt>
      <trkpt lat="48.81342" lon="1.12699">
        <ele>150.39999389648</ele>
        <time>2016-05-05T07:21:09.000Z</time>
      </trkpt>
      <trkpt lat="48.81348" lon="1.12694">
        <ele>150.39999389648</ele>
        <time>2016-05-05T07:21:14.000Z</time>
      </trkpt>
      <trkpt lat="48.81353" lon="1.12691">
        <ele>150.39999389648</ele>
        <time>2016-05-05T07:21:18.000Z</time>
      </trkpt>
      <trkpt lat="48.81359" lon="1.12687">
        <ele>150.39999389648</ele>
        <time>2016-05-05T07:21:23.000Z</time>
      </trkpt>
      <trkpt lat="48.81369" lon="1.1268">
        <ele>150.60000610352</ele>
        <time>2016-05-05T07:21:31.000Z</time>
      </trkpt>
      <trkpt lat="48.81378" lon="1.12674">
        <ele>150.60000610352</ele>
        <time>2016-05-05T07:21:39.000Z</time>
      </trkpt>
      <trkpt lat="48.81385" lon="1.12669">
        <ele>150.60000610352</ele>
        <time>2016-05-05T07:21:45.000Z</time>
      </trkpt>
      <trkpt lat="48.81389" lon="1.12667">
        <ele>150.60000610352</ele>
        <time>2016-05-05T07:21:48.000Z</time>
      </trkpt>
      <trkpt lat="48.81392" lon="1.12665">
        <ele>150.60000610352</ele>
        <time>2016-05-05T07:21:50.000Z</time>
      </trkpt>
      <trkpt lat="48.81399" lon="1.12659">
        <ele>150.39999389648</ele>
        <time>2016-05-05T07:21:57.000Z</time>
      </trkpt>
      <trkpt lat="48.81407" lon="1.12652">
        <ele>150.39999389648</ele>
        <time>2016-05-05T07:22:03.000Z</time>
      </trkpt>
      <trkpt lat="48.81414" lon="1.12646">
        <ele>150.19999694824</ele>
        <time>2016-05-05T07:22:09.000Z</time>
      </trkpt>
      <trkpt lat="48.8142" lon="1.12641">
        <ele>150.19999694824</ele>
        <time>2016-05-05T07:22:14.000Z</time>
      </trkpt>
      <trkpt lat="48.81425" lon="1.12637">
        <ele>150.19999694824</ele>
        <time>2016-05-05T07:22:18.000Z</time>
      </trkpt>
      <trkpt lat="48.81427" lon="1.12637">
        <ele>150.19999694824</ele>
        <time>2016-05-05T07:22:19.000Z</time>
      </trkpt>
      <trkpt lat="48.81432" lon="1.12634">
        <ele>150</ele>
        <time>2016-05-05T07:22:23.000Z</time>
      </trkpt>
      <trkpt lat="48.81439" lon="1.12628">
        <ele>150</ele>
        <time>2016-05-05T07:22:30.000Z</time>
      </trkpt>
      <trkpt lat="48.8144" lon="1.12627">
        <ele>150</ele>
        <time>2016-05-05T07:22:31.000Z</time>
      </trkpt>
      <trkpt lat="48.81447" lon="1.1262">
        <ele>150</ele>
        <time>2016-05-05T07:22:37.000Z</time>
      </trkpt>
      <trkpt lat="48.81455" lon="1.12615">
        <ele>150</ele>
        <time>2016-05-05T07:22:43.000Z</time>
      </trkpt>
      <trkpt lat="48.81464" lon="1.12609">
        <ele>150</ele>
        <time>2016-05-05T07:22:50.000Z</time>
      </trkpt>
      <trkpt lat="48.81472" lon="1.12603">
        <ele>150</ele>
        <time>2016-05-05T07:22:56.000Z</time>
      </trkpt>
      <trkpt lat="48.81481" lon="1.12595">
        <ele>149.80000305176</ele>
        <time>2016-05-05T07:23:03.000Z</time>
      </trkpt>
      <trkpt lat="48.81486" lon="1.12593">
        <ele>149.60000610352</ele>
        <time>2016-05-05T07:23:08.000Z</time>
      </trkpt>
      <trkpt lat="48.81486" lon="1.12593">
        <ele>149.60000610352</ele>
        <time>2016-05-05T07:23:10.000Z</time>
      </trkpt>
      <trkpt lat="48.81506" lon="1.12581">
        <ele>148.80000305176</ele>
        <time>2016-05-05T07:23:54.000Z</time>
      </trkpt>
      <trkpt lat="48.81509" lon="1.12579">
        <ele>148.80000305176</ele>
        <time>2016-05-05T07:23:57.000Z</time>
      </trkpt>
      <trkpt lat="48.8151" lon="1.12579">
        <ele>148.80000305176</ele>
        <time>2016-05-05T07:23:58.000Z</time>
      </trkpt>
      <trkpt lat="48.81516" lon="1.12574">
        <ele>148.39999389648</ele>
        <time>2016-05-05T07:24:03.000Z</time>
      </trkpt>
      <trkpt lat="48.81518" lon="1.12573">
        <ele>148.39999389648</ele>
        <time>2016-05-05T07:24:05.000Z</time>
      </trkpt>
      <trkpt lat="48.81525" lon="1.12567">
        <ele>148.19999694824</ele>
        <time>2016-05-05T07:24:11.000Z</time>
      </trkpt>
      <trkpt lat="48.81526" lon="1.12566">
        <ele>148</ele>
        <time>2016-05-05T07:24:12.000Z</time>
      </trkpt>
      <trkpt lat="48.81533" lon="1.12561">
        <ele>148</ele>
        <time>2016-05-05T07:24:17.000Z</time>
      </trkpt>
      <trkpt lat="48.81539" lon="1.12558">
        <ele>148</ele>
        <time>2016-05-05T07:24:23.000Z</time>
      </trkpt>
      <trkpt lat="48.81546" lon="1.12555">
        <ele>148</ele>
        <time>2016-05-05T07:24:30.000Z</time>
      </trkpt>
      <trkpt lat="48.81546" lon="1.12554">
        <ele>148</ele>
        <time>2016-05-05T07:24:31.000Z</time>
      </trkpt>
      <trkpt lat="48.8155" lon="1.12551">
        <ele>148</ele>
        <time>2016-05-05T07:24:35.000Z</time>
      </trkpt>
      <trkpt lat="48.81554" lon="1.1255">
        <ele>148</ele>
        <time>2016-05-05T07:24:40.000Z</time>
      </trkpt>
      <trkpt lat="48.81558" lon="1.12545">
        <ele>148</ele>
        <time>2016-05-05T07:24:44.000Z</time>
      </trkpt>
      <trkpt lat="48.81559" lon="1.12544">
        <ele>148</ele>
        <time>2016-05-05T07:24:45.000Z</time>
      </trkpt>
      <trkpt lat="48.81559" lon="1.12542">
        <ele>148</ele>
        <time>2016-05-05T07:24:47.000Z</time>
      </trkpt>
      <trkpt lat="48.81563" lon="1.12539">
        <ele>148</ele>
        <time>2016-05-05T07:24:50.000Z</time>
      </trkpt>
      <trkpt lat="48.8157" lon="1.12534">
        <ele>148</ele>
        <time>2016-05-05T07:24:56.000Z</time>
      </trkpt>
      <trkpt lat="48.81576" lon="1.12528">
        <ele>148</ele>
        <time>2016-05-05T07:25:02.000Z</time>
      </trkpt>
      <trkpt lat="48.81577" lon="1.12528">
        <ele>148</ele>
        <time>2016-05-05T07:25:03.000Z</time>
      </trkpt>
      <trkpt lat="48.8158" lon="1.12526">
        <ele>148.19999694824</ele>
        <time>2016-05-05T07:25:06.000Z</time>
      </trkpt>
      <trkpt lat="48.81582" lon="1.12523">
        <ele>148.19999694824</ele>
        <time>2016-05-05T07:25:08.000Z</time>
      </trkpt>
      <trkpt lat="48.81586" lon="1.1252">
        <ele>148.19999694824</ele>
        <time>2016-05-05T07:25:11.000Z</time>
      </trkpt>
      <trkpt lat="48.81592" lon="1.12516">
        <ele>148.39999389648</ele>
        <time>2016-05-05T07:25:16.000Z</time>
      </trkpt>
      <trkpt lat="48.81594" lon="1.12515">
        <ele>148.39999389648</ele>
        <time>2016-05-05T07:25:18.000Z</time>
      </trkpt>
      <trkpt lat="48.81597" lon="1.12513">
        <ele>148.39999389648</ele>
        <time>2016-05-05T07:25:20.000Z</time>
      </trkpt>
      <trkpt lat="48.81603" lon="1.1251">
        <ele>148.60000610352</ele>
        <time>2016-05-05T07:25:25.000Z</time>
      </trkpt>
      <trkpt lat="48.81605" lon="1.12508">
        <ele>148.60000610352</ele>
        <time>2016-05-05T07:25:27.000Z</time>
      </trkpt>
      <trkpt lat="48.81612" lon="1.12504">
        <ele>149</ele>
        <time>2016-05-05T07:25:32.000Z</time>
      </trkpt>
      <trkpt lat="48.81613" lon="1.12503">
        <ele>149</ele>
        <time>2016-05-05T07:25:33.000Z</time>
      </trkpt>
      <trkpt lat="48.81615" lon="1.125">
        <ele>149</ele>
        <time>2016-05-05T07:25:35.000Z</time>
      </trkpt>
      <trkpt lat="48.81621" lon="1.12498">
        <ele>149.39999389648</ele>
        <time>2016-05-05T07:25:39.000Z</time>
      </trkpt>
      <trkpt lat="48.81624" lon="1.12495">
        <ele>149.39999389648</ele>
        <time>2016-05-05T07:25:42.000Z</time>
      </trkpt>
      <trkpt lat="48.81627" lon="1.12493">
        <ele>149.39999389648</ele>
        <time>2016-05-05T07:25:44.000Z</time>
      </trkpt>
      <trkpt lat="48.81631" lon="1.12489">
        <ele>149.39999389648</ele>
        <time>2016-05-05T07:25:47.000Z</time>
      </trkpt>
      <trkpt lat="48.81634" lon="1.12486">
        <ele>149.39999389648</ele>
        <time>2016-05-05T07:25:50.000Z</time>
      </trkpt>
      <trkpt lat="48.8164" lon="1.12482">
        <ele>149.39999389648</ele>
        <time>2016-05-05T07:25:55.000Z</time>
      </trkpt>
      <trkpt lat="48.81642" lon="1.12482">
        <ele>149.39999389648</ele>
        <time>2016-05-05T07:25:56.000Z</time>
      </trkpt>
      <trkpt lat="48.81649" lon="1.12475">
        <ele>149.60000610352</ele>
        <time>2016-05-05T07:26:03.000Z</time>
      </trkpt>
      <trkpt lat="48.81657" lon="1.1247">
        <ele>149.80000305176</ele>
        <time>2016-05-05T07:26:09.000Z</time>
      </trkpt>
      <trkpt lat="48.81662" lon="1.12466">
        <ele>149.80000305176</ele>
        <time>2016-05-05T07:26:14.000Z</time>
      </trkpt>
      <trkpt lat="48.81668" lon="1.12461">
        <ele>150</ele>
        <time>2016-05-05T07:26:20.000Z</time>
      </trkpt>
      <trkpt lat="48.81677" lon="1.12452">
        <ele>149.80000305176</ele>
        <time>2016-05-05T07:26:29.000Z</time>
      </trkpt>
      <trkpt lat="48.81688" lon="1.1244">
        <ele>149.60000610352</ele>
        <time>2016-05-05T07:26:39.000Z</time>
      </trkpt>
      <trkpt lat="48.81696" lon="1.1243">
        <ele>149.60000610352</ele>
        <time>2016-05-05T07:26:48.000Z</time>
      </trkpt>
      <trkpt lat="48.81707" lon="1.12417">
        <ele>149.39999389648</ele>
        <time>2016-05-05T07:26:59.000Z</time>
      </trkpt>
      <trkpt lat="48.81708" lon="1.12416">
        <ele>149.39999389648</ele>
        <time>2016-05-05T07:27:01.000Z</time>
      </trkpt>
      <trkpt lat="48.81711" lon="1.12412">
        <ele>149.39999389648</ele>
        <time>2016-05-05T07:27:05.000Z</time>
      </trkpt>
      <trkpt lat="48.81712" lon="1.12411">
        <ele>149.39999389648</ele>
        <time>2016-05-05T07:27:06.000Z</time>
      </trkpt>
      <trkpt lat="48.81719" lon="1.12403">
        <ele>149.39999389648</ele>
        <time>2016-05-05T07:27:13.000Z</time>
      </trkpt>
      <trkpt lat="48.81723" lon="1.12397">
        <ele>149.39999389648</ele>
        <time>2016-05-05T07:27:20.000Z</time>
      </trkpt>
      <trkpt lat="48.81737" lon="1.12382">
        <ele>149.60000610352</ele>
        <time>2016-05-05T07:27:42.000Z</time>
      </trkpt>
      <trkpt lat="48.81747" lon="1.1237">
        <ele>149.80000305176</ele>
        <time>2016-05-05T07:27:52.000Z</time>
      </trkpt>
      <trkpt lat="48.81754" lon="1.12362">
        <ele>149.80000305176</ele>
        <time>2016-05-05T07:27:59.000Z</time>
      </trkpt>
      <trkpt lat="48.81763" lon="1.12352">
        <ele>149.80000305176</ele>
        <time>2016-05-05T07:28:08.000Z</time>
      </trkpt>
      <trkpt lat="48.81773" lon="1.1234">
        <ele>150</ele>
        <time>2016-05-05T07:28:18.000Z</time>
      </trkpt>
      <trkpt lat="48.81784" lon="1.12326">
        <ele>150</ele>
        <time>2016-05-05T07:28:29.000Z</time>
      </trkpt>
      <trkpt lat="48.81795" lon="1.12314">
        <ele>150.19999694824</ele>
        <time>2016-05-05T07:28:39.000Z</time>
      </trkpt>
      <trkpt lat="48.81806" lon="1.12301">
        <ele>150.60000610352</ele>
        <time>2016-05-05T07:28:50.000Z</time>
      </trkpt>
      <trkpt lat="48.81815" lon="1.12291">
        <ele>150.80000305176</ele>
        <time>2016-05-05T07:28:59.000Z</time>
      </trkpt>
      <trkpt lat="48.81822" lon="1.12286">
        <ele>150.80000305176</ele>
        <time>2016-05-05T07:29:08.000Z</time>
      </trkpt>
      <trkpt lat="48.81814" lon="1.12182">
        <ele>152</ele>
        <time>2016-05-05T07:30:55.000Z</time>
      </trkpt>
      <trkpt lat="48.81813" lon="1.12177">
        <ele>152</ele>
        <time>2016-05-05T07:30:58.000Z</time>
      </trkpt>
      <trkpt lat="48.8181" lon="1.12163">
        <ele>151.80000305176</ele>
        <time>2016-05-05T07:31:06.000Z</time>
      </trkpt>
      <trkpt lat="48.81808" lon="1.12151">
        <ele>151.60000610352</ele>
        <time>2016-05-05T07:31:13.000Z</time>
      </trkpt>
      <trkpt lat="48.81806" lon="1.1214">
        <ele>151.60000610352</ele>
        <time>2016-05-05T07:31:19.000Z</time>
      </trkpt>
      <trkpt lat="48.81804" lon="1.1213">
        <ele>151.39999389648</ele>
        <time>2016-05-05T07:31:25.000Z</time>
      </trkpt>
      <trkpt lat="48.81803" lon="1.12128">
        <ele>151.39999389648</ele>
        <time>2016-05-05T07:31:26.000Z</time>
      </trkpt>
      <trkpt lat="48.81802" lon="1.12123">
        <ele>151.39999389648</ele>
        <time>2016-05-05T07:31:29.000Z</time>
      </trkpt>
      <trkpt lat="48.818" lon="1.12113">
        <ele>151.19999694824</ele>
        <time>2016-05-05T07:31:35.000Z</time>
      </trkpt>
      <trkpt lat="48.81796" lon="1.12095">
        <ele>151.19999694824</ele>
        <time>2016-05-05T07:31:45.000Z</time>
      </trkpt>
      <trkpt lat="48.81792" lon="1.12081">
        <ele>151</ele>
        <time>2016-05-05T07:31:54.000Z</time>
      </trkpt>
      <trkpt lat="48.8179" lon="1.12074">
        <ele>151</ele>
        <time>2016-05-05T07:32:00.000Z</time>
      </trkpt>
      <trkpt lat="48.81787" lon="1.12066">
        <ele>150.80000305176</ele>
        <time>2016-05-05T07:32:05.000Z</time>
      </trkpt>
      <trkpt lat="48.81785" lon="1.12062">
        <ele>150.80000305176</ele>
        <time>2016-05-05T07:32:09.000Z</time>
      </trkpt>
      <trkpt lat="48.81784" lon="1.12061">
        <ele>150.80000305176</ele>
        <time>2016-05-05T07:32:10.000Z</time>
      </trkpt>
      <trkpt lat="48.81782" lon="1.12051">
        <ele>150.80000305176</ele>
        <time>2016-05-05T07:32:15.000Z</time>
      </trkpt>
      <trkpt lat="48.81781" lon="1.12047">
        <ele>150.80000305176</ele>
        <time>2016-05-05T07:32:17.000Z</time>
      </trkpt>
      <trkpt lat="48.81778" lon="1.12031">
        <ele>151</ele>
        <time>2016-05-05T07:32:26.000Z</time>
      </trkpt>
      <trkpt lat="48.81774" lon="1.12014">
        <ele>151</ele>
        <time>2016-05-05T07:32:36.000Z</time>
      </trkpt>
      <trkpt lat="48.81774" lon="1.12012">
        <ele>151</ele>
        <time>2016-05-05T07:32:38.000Z</time>
      </trkpt>
      <trkpt lat="48.81771" lon="1.12006">
        <ele>151</ele>
        <time>2016-05-05T07:32:42.000Z</time>
      </trkpt>
      <trkpt lat="48.81771" lon="1.11999">
        <ele>151</ele>
        <time>2016-05-05T07:32:46.000Z</time>
      </trkpt>
      <trkpt lat="48.81769" lon="1.11992">
        <ele>151</ele>
        <time>2016-05-05T07:32:50.000Z</time>
      </trkpt>
      <trkpt lat="48.81767" lon="1.11985">
        <ele>151</ele>
        <time>2016-05-05T07:32:54.000Z</time>
      </trkpt>
      <trkpt lat="48.81764" lon="1.11974">
        <ele>151</ele>
        <time>2016-05-05T07:33:00.000Z</time>
      </trkpt>
      <trkpt lat="48.8176" lon="1.11958">
        <ele>151.19999694824</ele>
        <time>2016-05-05T07:33:09.000Z</time>
      </trkpt>
      <trkpt lat="48.81755" lon="1.1194">
        <ele>151.19999694824</ele>
        <time>2016-05-05T07:33:19.000Z</time>
      </trkpt>
      <trkpt lat="48.81751" lon="1.11923">
        <ele>151.19999694824</ele>
        <time>2016-05-05T07:33:29.000Z</time>
      </trkpt>
      <trkpt lat="48.81744" lon="1.11903">
        <ele>151.39999389648</ele>
        <time>2016-05-05T07:33:40.000Z</time>
      </trkpt>
      <trkpt lat="48.81738" lon="1.11881">
        <ele>151.19999694824</ele>
        <time>2016-05-05T07:33:53.000Z</time>
      </trkpt>
      <trkpt lat="48.81733" lon="1.11864">
        <ele>150.80000305176</ele>
        <time>2016-05-05T07:34:03.000Z</time>
      </trkpt>
      <trkpt lat="48.81732" lon="1.1186">
        <ele>150.60000610352</ele>
        <time>2016-05-05T07:34:07.000Z</time>
      </trkpt>
      <trkpt lat="48.8175" lon="1.11835">
        <ele>150.19999694824</ele>
        <time>2016-05-05T07:34:57.000Z</time>
      </trkpt>
      <trkpt lat="48.81751" lon="1.11834">
        <ele>150.19999694824</ele>
        <time>2016-05-05T07:34:58.000Z</time>
      </trkpt>
      <trkpt lat="48.81756" lon="1.1183">
        <ele>150.19999694824</ele>
        <time>2016-05-05T07:35:03.000Z</time>
      </trkpt>
      <trkpt lat="48.81764" lon="1.11824">
        <ele>150.19999694824</ele>
        <time>2016-05-05T07:35:10.000Z</time>
      </trkpt>
      <trkpt lat="48.81769" lon="1.1182">
        <ele>150.19999694824</ele>
        <time>2016-05-05T07:35:15.000Z</time>
      </trkpt>
      <trkpt lat="48.81773" lon="1.11817">
        <ele>150</ele>
        <time>2016-05-05T07:35:19.000Z</time>
      </trkpt>
      <trkpt lat="48.81776" lon="1.11815">
        <ele>150</ele>
        <time>2016-05-05T07:35:21.000Z</time>
      </trkpt>
      <trkpt lat="48.8178" lon="1.11812">
        <ele>150</ele>
        <time>2016-05-05T07:35:25.000Z</time>
      </trkpt>
      <trkpt lat="48.81781" lon="1.11811">
        <ele>149.80000305176</ele>
        <time>2016-05-05T07:35:27.000Z</time>
      </trkpt>
      <trkpt lat="48.81782" lon="1.1181">
        <ele>149.80000305176</ele>
        <time>2016-05-05T07:35:28.000Z</time>
      </trkpt>
      <trkpt lat="48.81783" lon="1.11811">
        <ele>149.80000305176</ele>
        <time>2016-05-05T07:35:30.000Z</time>
      </trkpt>
      <trkpt lat="48.81801" lon="1.11793">
        <ele>149.80000305176</ele>
        <time>2016-05-05T07:35:56.000Z</time>
      </trkpt>
      <trkpt lat="48.81802" lon="1.11793">
        <ele>149.80000305176</ele>
        <time>2016-05-05T07:35:57.000Z</time>
      </trkpt>
      <trkpt lat="48.81811" lon="1.11786">
        <ele>149.80000305176</ele>
        <time>2016-05-05T07:36:05.000Z</time>
      </trkpt>
      <trkpt lat="48.81818" lon="1.11779">
        <ele>149.80000305176</ele>
        <time>2016-05-05T07:36:11.000Z</time>
      </trkpt>
      <trkpt lat="48.81821" lon="1.11777">
        <ele>149.80000305176</ele>
        <time>2016-05-05T07:36:16.000Z</time>
      </trkpt>
      <trkpt lat="48.81836" lon="1.11765">
        <ele>150</ele>
        <time>2016-05-05T07:36:31.000Z</time>
      </trkpt>
      <trkpt lat="48.81838" lon="1.11763">
        <ele>150.19999694824</ele>
        <time>2016-05-05T07:36:33.000Z</time>
      </trkpt>
      <trkpt lat="48.8184" lon="1.1176">
        <ele>150.19999694824</ele>
        <time>2016-05-05T07:36:36.000Z</time>
      </trkpt>
      <trkpt lat="48.81841" lon="1.11759">
        <ele>150.19999694824</ele>
        <time>2016-05-05T07:36:37.000Z</time>
      </trkpt>
      <trkpt lat="48.81844" lon="1.11757">
        <ele>150.19999694824</ele>
        <time>2016-05-05T07:36:39.000Z</time>
      </trkpt>
      <trkpt lat="48.81848" lon="1.11754">
        <ele>150.39999389648</ele>
        <time>2016-05-05T07:36:42.000Z</time>
      </trkpt>
      <trkpt lat="48.81853" lon="1.11749">
        <ele>150.39999389648</ele>
        <time>2016-05-05T07:36:46.000Z</time>
      </trkpt>
      <trkpt lat="48.81857" lon="1.11746">
        <ele>150.60000610352</ele>
        <time>2016-05-05T07:36:49.000Z</time>
      </trkpt>
      <trkpt lat="48.81866" lon="1.11738">
        <ele>150.80000305176</ele>
        <time>2016-05-05T07:36:57.000Z</time>
      </trkpt>
      <trkpt lat="48.81875" lon="1.1173">
        <ele>150.60000610352</ele>
        <time>2016-05-05T07:37:05.000Z</time>
      </trkpt>
      <trkpt lat="48.81884" lon="1.11721">
        <ele>150.19999694824</ele>
        <time>2016-05-05T07:37:13.000Z</time>
      </trkpt>
      <trkpt lat="48.81891" lon="1.11714">
        <ele>150</ele>
        <time>2016-05-05T07:37:20.000Z</time>
      </trkpt>
      <trkpt lat="48.81899" lon="1.11706">
        <ele>149.80000305176</ele>
        <time>2016-05-05T07:37:27.000Z</time>
      </trkpt>
      <trkpt lat="48.819" lon="1.11706">
        <ele>149.60000610352</ele>
        <time>2016-05-05T07:37:28.000Z</time>
      </trkpt>
      <trkpt lat="48.81905" lon="1.11702">
        <ele>149.60000610352</ele>
        <time>2016-05-05T07:37:32.000Z</time>
      </trkpt>
      <trkpt lat="48.81911" lon="1.11697">
        <ele>149.39999389648</ele>
        <time>2016-05-05T07:37:38.000Z</time>
      </trkpt>
      <trkpt lat="48.81912" lon="1.11693">
        <ele>149.39999389648</ele>
        <time>2016-05-05T07:37:40.000Z</time>
      </trkpt>
      <trkpt lat="48.81914" lon="1.11693">
        <ele>149.39999389648</ele>
        <time>2016-05-05T07:37:41.000Z</time>
      </trkpt>
      <trkpt lat="48.8192" lon="1.11686">
        <ele>149.19999694824</ele>
        <time>2016-05-05T07:37:47.000Z</time>
      </trkpt>
      <trkpt lat="48.8193" lon="1.1168">
        <ele>149.19999694824</ele>
        <time>2016-05-05T07:37:55.000Z</time>
      </trkpt>
      <trkpt lat="48.81939" lon="1.11671">
        <ele>149</ele>
        <time>2016-05-05T07:38:03.000Z</time>
      </trkpt>
      <trkpt lat="48.81949" lon="1.11661">
        <ele>149.19999694824</ele>
        <time>2016-05-05T07:38:11.000Z</time>
      </trkpt>
      <trkpt lat="48.81953" lon="1.1166">
        <ele>149.19999694824</ele>
        <time>2016-05-05T07:38:14.000Z</time>
      </trkpt>
      <trkpt lat="48.81955" lon="1.11656">
        <ele>149.19999694824</ele>
        <time>2016-05-05T07:38:17.000Z</time>
      </trkpt>
      <trkpt lat="48.81963" lon="1.11649">
        <ele>149.60000610352</ele>
        <time>2016-05-05T07:38:24.000Z</time>
      </trkpt>
      <trkpt lat="48.81967" lon="1.11645">
        <ele>149.60000610352</ele>
        <time>2016-05-05T07:38:28.000Z</time>
      </trkpt>
      <trkpt lat="48.81971" lon="1.11642">
        <ele>149.80000305176</ele>
        <time>2016-05-05T07:38:31.000Z</time>
      </trkpt>
      <trkpt lat="48.81978" lon="1.11635">
        <ele>150</ele>
        <time>2016-05-05T07:38:38.000Z</time>
      </trkpt>
      <trkpt lat="48.81981" lon="1.11631">
        <ele>150</ele>
        <time>2016-05-05T07:38:42.000Z</time>
      </trkpt>
      <trkpt lat="48.81983" lon="1.11628">
        <ele>150</ele>
        <time>2016-05-05T07:38:44.000Z</time>
      </trkpt>
      <trkpt lat="48.8199" lon="1.11622">
        <ele>150.19999694824</ele>
        <time>2016-05-05T07:38:49.000Z</time>
      </trkpt>
      <trkpt lat="48.81993" lon="1.11618">
        <ele>150.19999694824</ele>
        <time>2016-05-05T07:38:54.000Z</time>
      </trkpt>
      <trkpt lat="48.81996" lon="1.11615">
        <ele>150.39999389648</ele>
        <time>2016-05-05T07:38:58.000Z</time>
      </trkpt>
      <trkpt lat="48.81998" lon="1.11612">
        <ele>150.60000610352</ele>
        <time>2016-05-05T07:39:00.000Z</time>
      </trkpt>
      <trkpt lat="48.82001" lon="1.11608">
        <ele>151</ele>
        <time>2016-05-05T07:39:04.000Z</time>
      </trkpt>
      <trkpt lat="48.82002" lon="1.11607">
        <ele>151.19999694824</ele>
        <time>2016-05-05T07:39:05.000Z</time>
      </trkpt>
      <trkpt lat="48.82008" lon="1.116">
        <ele>151.80000305176</ele>
        <time>2016-05-05T07:39:12.000Z</time>
      </trkpt>
      <trkpt lat="48.82008" lon="1.11598">
        <ele>151.80000305176</ele>
        <time>2016-05-05T07:39:13.000Z</time>
      </trkpt>
      <trkpt lat="48.82011" lon="1.11591">
        <ele>152.19999694824</ele>
        <time>2016-05-05T07:39:18.000Z</time>
      </trkpt>
      <trkpt lat="48.82011" lon="1.11588">
        <ele>152.39999389648</ele>
        <time>2016-05-05T07:39:20.000Z</time>
      </trkpt>
      <trkpt lat="48.82013" lon="1.11576">
        <ele>153</ele>
        <time>2016-05-05T07:39:27.000Z</time>
      </trkpt>
      <trkpt lat="48.82015" lon="1.11561">
        <ele>153.60000610352</ele>
        <time>2016-05-05T07:39:34.000Z</time>
      </trkpt>
      <trkpt lat="48.82015" lon="1.11543">
        <ele>153.39999389648</ele>
        <time>2016-05-05T07:39:42.000Z</time>
      </trkpt>
      <trkpt lat="48.82015" lon="1.11536">
        <ele>153.39999389648</ele>
        <time>2016-05-05T07:39:45.000Z</time>
      </trkpt>
      <trkpt lat="48.82015" lon="1.11532">
        <ele>153.39999389648</ele>
        <time>2016-05-05T07:39:47.000Z</time>
      </trkpt>
      <trkpt lat="48.82016" lon="1.11526">
        <ele>153.19999694824</ele>
        <time>2016-05-05T07:39:51.000Z</time>
      </trkpt>
      <trkpt lat="48.82016" lon="1.11522">
        <ele>153.19999694824</ele>
        <time>2016-05-05T07:39:53.000Z</time>
      </trkpt>
      <trkpt lat="48.82018" lon="1.11517">
        <ele>153.19999694824</ele>
        <time>2016-05-05T07:39:56.000Z</time>
      </trkpt>
      <trkpt lat="48.8202" lon="1.1151">
        <ele>153.19999694824</ele>
        <time>2016-05-05T07:40:00.000Z</time>
      </trkpt>
      <trkpt lat="48.82021" lon="1.11505">
        <ele>153.19999694824</ele>
        <time>2016-05-05T07:40:03.000Z</time>
      </trkpt>
      <trkpt lat="48.82023" lon="1.11501">
        <ele>153.39999389648</ele>
        <time>2016-05-05T07:40:05.000Z</time>
      </trkpt>
      <trkpt lat="48.82025" lon="1.11496">
        <ele>153.39999389648</ele>
        <time>2016-05-05T07:40:08.000Z</time>
      </trkpt>
      <trkpt lat="48.82027" lon="1.11492">
        <ele>153.39999389648</ele>
        <time>2016-05-05T07:40:10.000Z</time>
      </trkpt>
      <trkpt lat="48.82033" lon="1.11478">
        <ele>153.19999694824</ele>
        <time>2016-05-05T07:40:18.000Z</time>
      </trkpt>
      <trkpt lat="48.82034" lon="1.11476">
        <ele>153.19999694824</ele>
        <time>2016-05-05T07:40:19.000Z</time>
      </trkpt>
      <trkpt lat="48.82037" lon="1.11471">
        <ele>153</ele>
        <time>2016-05-05T07:40:23.000Z</time>
      </trkpt>
      <trkpt lat="48.82043" lon="1.1146">
        <ele>152.60000610352</ele>
        <time>2016-05-05T07:40:29.000Z</time>
      </trkpt>
      <trkpt lat="48.82044" lon="1.11459">
        <ele>152.60000610352</ele>
        <time>2016-05-05T07:40:30.000Z</time>
      </trkpt>
      <trkpt lat="48.82047" lon="1.11454">
        <ele>152.39999389648</ele>
        <time>2016-05-05T07:40:34.000Z</time>
      </trkpt>
      <trkpt lat="48.8205" lon="1.11449">
        <ele>152.39999389648</ele>
        <time>2016-05-05T07:40:37.000Z</time>
      </trkpt>
      <trkpt lat="48.82055" lon="1.11443">
        <ele>152.19999694824</ele>
        <time>2016-05-05T07:40:43.000Z</time>
      </trkpt>
      <trkpt lat="48.82055" lon="1.11442">
        <ele>152.19999694824</ele>
        <time>2016-05-05T07:40:44.000Z</time>
      </trkpt>
      <trkpt lat="48.82059" lon="1.11435">
        <ele>152</ele>
        <time>2016-05-05T07:40:49.000Z</time>
      </trkpt>
      <trkpt lat="48.82062" lon="1.11432">
        <ele>151.80000305176</ele>
        <time>2016-05-05T07:40:51.000Z</time>
      </trkpt>
      <trkpt lat="48.82067" lon="1.11423">
        <ele>151.60000610352</ele>
        <time>2016-05-05T07:40:56.000Z</time>
      </trkpt>
      <trkpt lat="48.82074" lon="1.11412">
        <ele>151.19999694824</ele>
        <time>2016-05-05T07:41:03.000Z</time>
      </trkpt>
      <trkpt lat="48.8208" lon="1.11402">
        <ele>151</ele>
        <time>2016-05-05T07:41:09.000Z</time>
      </trkpt>
      <trkpt lat="48.82082" lon="1.11395">
        <ele>150.80000305176</ele>
        <time>2016-05-05T07:41:13.000Z</time>
      </trkpt>
      <trkpt lat="48.82083" lon="1.11393">
        <ele>150.80000305176</ele>
        <time>2016-05-05T07:41:14.000Z</time>
      </trkpt>
      <trkpt lat="48.82088" lon="1.11387">
        <ele>150.80000305176</ele>
        <time>2016-05-05T07:41:18.000Z</time>
      </trkpt>
      <trkpt lat="48.82091" lon="1.11386">
        <ele>150.80000305176</ele>
        <time>2016-05-05T07:41:20.000Z</time>
      </trkpt>
      <trkpt lat="48.82091" lon="1.11384">
        <ele>150.80000305176</ele>
        <time>2016-05-05T07:41:21.000Z</time>
      </trkpt>
      <trkpt lat="48.82096" lon="1.11375">
        <ele>150.80000305176</ele>
        <time>2016-05-05T07:41:27.000Z</time>
      </trkpt>
      <trkpt lat="48.82097" lon="1.11374">
        <ele>151</ele>
        <time>2016-05-05T07:41:28.000Z</time>
      </trkpt>
      <trkpt lat="48.82102" lon="1.11364">
        <ele>151</ele>
        <time>2016-05-05T07:41:34.000Z</time>
      </trkpt>
      <trkpt lat="48.82104" lon="1.11364">
        <ele>151</ele>
        <time>2016-05-05T07:41:35.000Z</time>
      </trkpt>
      <trkpt lat="48.82106" lon="1.1136">
        <ele>151</ele>
        <time>2016-05-05T07:41:38.000Z</time>
      </trkpt>
      <trkpt lat="48.82114" lon="1.11352">
        <ele>151.39999389648</ele>
        <time>2016-05-05T07:41:44.000Z</time>
      </trkpt>
      <trkpt lat="48.82118" lon="1.11346">
        <ele>151.60000610352</ele>
        <time>2016-05-05T07:41:50.000Z</time>
      </trkpt>
      <trkpt lat="48.82125" lon="1.11336">
        <ele>152</ele>
        <time>2016-05-05T07:41:57.000Z</time>
      </trkpt>
      <trkpt lat="48.82131" lon="1.11328">
        <ele>152.19999694824</ele>
        <time>2016-05-05T07:42:03.000Z</time>
      </trkpt>
      <trkpt lat="48.82134" lon="1.11326">
        <ele>152.39999389648</ele>
        <time>2016-05-05T07:42:06.000Z</time>
      </trkpt>
      <trkpt lat="48.82136" lon="1.11323">
        <ele>152.39999389648</ele>
        <time>2016-05-05T07:42:08.000Z</time>
      </trkpt>
      <trkpt lat="48.82144" lon="1.11316">
        <ele>152.80000305176</ele>
        <time>2016-05-05T07:42:15.000Z</time>
      </trkpt>
      <trkpt lat="48.82149" lon="1.11311">
        <ele>153</ele>
        <time>2016-05-05T07:42:21.000Z</time>
      </trkpt>
      <trkpt lat="48.82153" lon="1.11306">
        <ele>153.19999694824</ele>
        <time>2016-05-05T07:42:26.000Z</time>
      </trkpt>
      <trkpt lat="48.82154" lon="1.11305">
        <ele>153.39999389648</ele>
        <time>2016-05-05T07:42:27.000Z</time>
      </trkpt>
      <trkpt lat="48.82157" lon="1.11302">
        <ele>153.39999389648</ele>
        <time>2016-05-05T07:42:31.000Z</time>
      </trkpt>
      <trkpt lat="48.82161" lon="1.11296">
        <ele>153.60000610352</ele>
        <time>2016-05-05T07:42:37.000Z</time>
      </trkpt>
      <trkpt lat="48.82163" lon="1.11295">
        <ele>153.80000305176</ele>
        <time>2016-05-05T07:42:39.000Z</time>
      </trkpt>
      <trkpt lat="48.82165" lon="1.11294">
        <ele>153.80000305176</ele>
        <time>2016-05-05T07:42:41.000Z</time>
      </trkpt>
      <trkpt lat="48.82171" lon="1.11287">
        <ele>154.19999694824</ele>
        <time>2016-05-05T07:42:48.000Z</time>
      </trkpt>
      <trkpt lat="48.82172" lon="1.11286">
        <ele>154.19999694824</ele>
        <time>2016-05-05T07:42:49.000Z</time>
      </trkpt>
      <trkpt lat="48.8218" lon="1.11281">
        <ele>154.60000610352</ele>
        <time>2016-05-05T07:42:55.000Z</time>
      </trkpt>
      <trkpt lat="48.82182" lon="1.11279">
        <ele>154.60000610352</ele>
        <time>2016-05-05T07:42:57.000Z</time>
      </trkpt>
      <trkpt lat="48.82182" lon="1.11278">
        <ele>154.60000610352</ele>
        <time>2016-05-05T07:42:58.000Z</time>
      </trkpt>
      <trkpt lat="48.82187" lon="1.11274">
        <ele>155</ele>
        <time>2016-05-05T07:43:02.000Z</time>
      </trkpt>
      <trkpt lat="48.82189" lon="1.11272">
        <ele>155</ele>
        <time>2016-05-05T07:43:04.000Z</time>
      </trkpt>
      <trkpt lat="48.82196" lon="1.11267">
        <ele>155</ele>
        <time>2016-05-05T07:43:10.000Z</time>
      </trkpt>
      <trkpt lat="48.82203" lon="1.1126">
        <ele>155.19999694824</ele>
        <time>2016-05-05T07:43:17.000Z</time>
      </trkpt>
      <trkpt lat="48.82211" lon="1.11253">
        <ele>155.19999694824</ele>
        <time>2016-05-05T07:43:24.000Z</time>
      </trkpt>
      <trkpt lat="48.82218" lon="1.11249">
        <ele>155.19999694824</ele>
        <time>2016-05-05T07:43:30.000Z</time>
      </trkpt>
      <trkpt lat="48.82225" lon="1.11243">
        <ele>155</ele>
        <time>2016-05-05T07:43:36.000Z</time>
      </trkpt>
      <trkpt lat="48.82233" lon="1.11236">
        <ele>154.60000610352</ele>
        <time>2016-05-05T07:43:43.000Z</time>
      </trkpt>
      <trkpt lat="48.82243" lon="1.11226">
        <ele>154.39999389648</ele>
        <time>2016-05-05T07:43:52.000Z</time>
      </trkpt>
      <trkpt lat="48.82245" lon="1.11223">
        <ele>154.19999694824</ele>
        <time>2016-05-05T07:43:57.000Z</time>
      </trkpt>
      <trkpt lat="48.82262" lon="1.11206">
        <ele>153.39999389648</ele>
        <time>2016-05-05T07:44:24.000Z</time>
      </trkpt>
      <trkpt lat="48.82271" lon="1.11196">
        <ele>153.19999694824</ele>
        <time>2016-05-05T07:44:33.000Z</time>
      </trkpt>
      <trkpt lat="48.82282" lon="1.11185">
        <ele>153.19999694824</ele>
        <time>2016-05-05T07:44:43.000Z</time>
      </trkpt>
      <trkpt lat="48.82291" lon="1.11176">
        <ele>153.19999694824</ele>
        <time>2016-05-05T07:44:52.000Z</time>
      </trkpt>
      <trkpt lat="48.82297" lon="1.11165">
        <ele>153.19999694824</ele>
        <time>2016-05-05T07:45:00.000Z</time>
      </trkpt>
      <trkpt lat="48.82302" lon="1.1116">
        <ele>153.19999694824</ele>
        <time>2016-05-05T07:45:06.000Z</time>
      </trkpt>
      <trkpt lat="48.82316" lon="1.11142">
        <ele>153</ele>
        <time>2016-05-05T07:45:23.000Z</time>
      </trkpt>
      <trkpt lat="48.82317" lon="1.1114">
        <ele>153</ele>
        <time>2016-05-05T07:45:24.000Z</time>
      </trkpt>
      <trkpt lat="48.82326" lon="1.11129">
        <ele>153</ele>
        <time>2016-05-05T07:45:33.000Z</time>
      </trkpt>
      <trkpt lat="48.82337" lon="1.11113">
        <ele>153</ele>
        <time>2016-05-05T07:45:45.000Z</time>
      </trkpt>
      <trkpt lat="48.8234" lon="1.1111">
        <ele>153</ele>
        <time>2016-05-05T07:45:50.000Z</time>
      </trkpt>
      <trkpt lat="48.82344" lon="1.11106">
        <ele>153.19999694824</ele>
        <time>2016-05-05T07:45:54.000Z</time>
      </trkpt>
      <trkpt lat="48.82346" lon="1.11103">
        <ele>153.19999694824</ele>
        <time>2016-05-05T07:45:57.000Z</time>
      </trkpt>
      <trkpt lat="48.82348" lon="1.11101">
        <ele>153.19999694824</ele>
        <time>2016-05-05T07:45:59.000Z</time>
      </trkpt>
      <trkpt lat="48.82349" lon="1.11098">
        <ele>153.19999694824</ele>
        <time>2016-05-05T07:46:01.000Z</time>
      </trkpt>
      <trkpt lat="48.82352" lon="1.11094">
        <ele>153.19999694824</ele>
        <time>2016-05-05T07:46:04.000Z</time>
      </trkpt>
      <trkpt lat="48.82356" lon="1.11089">
        <ele>153.39999389648</ele>
        <time>2016-05-05T07:46:08.000Z</time>
      </trkpt>
      <trkpt lat="48.82362" lon="1.11084">
        <ele>153.39999389648</ele>
        <time>2016-05-05T07:46:13.000Z</time>
      </trkpt>
      <trkpt lat="48.82364" lon="1.11081">
        <ele>153.39999389648</ele>
        <time>2016-05-05T07:46:15.000Z</time>
      </trkpt>
      <trkpt lat="48.82367" lon="1.11078">
        <ele>153.39999389648</ele>
        <time>2016-05-05T07:46:18.000Z</time>
      </trkpt>
      <trkpt lat="48.82372" lon="1.11071">
        <ele>153.60000610352</ele>
        <time>2016-05-05T07:46:23.000Z</time>
      </trkpt>
      <trkpt lat="48.82374" lon="1.11066">
        <ele>153.60000610352</ele>
        <time>2016-05-05T07:46:26.000Z</time>
      </trkpt>
      <trkpt lat="48.82376" lon="1.11064">
        <ele>153.80000305176</ele>
        <time>2016-05-05T07:46:28.000Z</time>
      </trkpt>
      <trkpt lat="48.82378" lon="1.11061">
        <ele>153.80000305176</ele>
        <time>2016-05-05T07:46:30.000Z</time>
      </trkpt>
      <trkpt lat="48.82384" lon="1.11053">
        <ele>153.80000305176</ele>
        <time>2016-05-05T07:46:37.000Z</time>
      </trkpt>
      <trkpt lat="48.82391" lon="1.11041">
        <ele>153.80000305176</ele>
        <time>2016-05-05T07:46:46.000Z</time>
      </trkpt>
      <trkpt lat="48.82398" lon="1.11029">
        <ele>153.80000305176</ele>
        <time>2016-05-05T07:46:55.000Z</time>
      </trkpt>
      <trkpt lat="48.82406" lon="1.11017">
        <ele>153.60000610352</ele>
        <time>2016-05-05T07:47:04.000Z</time>
      </trkpt>
      <trkpt lat="48.82407" lon="1.11015">
        <ele>153.60000610352</ele>
        <time>2016-05-05T07:47:08.000Z</time>
      </trkpt>
      <trkpt lat="48.82424" lon="1.10998">
        <ele>153.39999389648</ele>
        <time>2016-05-05T07:48:05.000Z</time>
      </trkpt>
      <trkpt lat="48.8243" lon="1.10995">
        <ele>153.39999389648</ele>
        <time>2016-05-05T07:48:10.000Z</time>
      </trkpt>
      <trkpt lat="48.82432" lon="1.10993">
        <ele>153.39999389648</ele>
        <time>2016-05-05T07:48:12.000Z</time>
      </trkpt>
      <trkpt lat="48.82437" lon="1.1099">
        <ele>153.39999389648</ele>
        <time>2016-05-05T07:48:16.000Z</time>
      </trkpt>
      <trkpt lat="48.82444" lon="1.10984">
        <ele>153.39999389648</ele>
        <time>2016-05-05T07:48:22.000Z</time>
      </trkpt>
      <trkpt lat="48.82452" lon="1.1098">
        <ele>153.60000610352</ele>
        <time>2016-05-05T07:48:28.000Z</time>
      </trkpt>
      <trkpt lat="48.82455" lon="1.10977">
        <ele>153.80000305176</ele>
        <time>2016-05-05T07:48:31.000Z</time>
      </trkpt>
      <trkpt lat="48.82457" lon="1.10975">
        <ele>153.80000305176</ele>
        <time>2016-05-05T07:48:33.000Z</time>
      </trkpt>
      <trkpt lat="48.82459" lon="1.10974">
        <ele>154</ele>
        <time>2016-05-05T07:48:35.000Z</time>
      </trkpt>
      <trkpt lat="48.8247" lon="1.10963">
        <ele>154.39999389648</ele>
        <time>2016-05-05T07:48:46.000Z</time>
      </trkpt>
      <trkpt lat="48.82478" lon="1.10955">
        <ele>154.60000610352</ele>
        <time>2016-05-05T07:48:54.000Z</time>
      </trkpt>
      <trkpt lat="48.82483" lon="1.10948">
        <ele>154.80000305176</ele>
        <time>2016-05-05T07:49:01.000Z</time>
      </trkpt>
      <trkpt lat="48.82489" lon="1.10937">
        <ele>154.80000305176</ele>
        <time>2016-05-05T07:49:08.000Z</time>
      </trkpt>
      <trkpt lat="48.82495" lon="1.10928">
        <ele>154.60000610352</ele>
        <time>2016-05-05T07:49:15.000Z</time>
      </trkpt>
      <trkpt lat="48.82501" lon="1.10919">
        <ele>154.39999389648</ele>
        <time>2016-05-05T07:49:22.000Z</time>
      </trkpt>
      <trkpt lat="48.82507" lon="1.10908">
        <ele>154.19999694824</ele>
        <time>2016-05-05T07:49:29.000Z</time>
      </trkpt>
      <trkpt lat="48.82508" lon="1.10906">
        <ele>154.19999694824</ele>
        <time>2016-05-05T07:49:31.000Z</time>
      </trkpt>
      <trkpt lat="48.82513" lon="1.10902">
        <ele>154</ele>
        <time>2016-05-05T07:49:35.000Z</time>
      </trkpt>
      <trkpt lat="48.82516" lon="1.10897">
        <ele>154</ele>
        <time>2016-05-05T07:49:39.000Z</time>
      </trkpt>
      <trkpt lat="48.82519" lon="1.10893">
        <ele>154</ele>
        <time>2016-05-05T07:49:42.000Z</time>
      </trkpt>
      <trkpt lat="48.82525" lon="1.10885">
        <ele>154</ele>
        <time>2016-05-05T07:49:48.000Z</time>
      </trkpt>
      <trkpt lat="48.82533" lon="1.10873">
        <ele>154</ele>
        <time>2016-05-05T07:49:57.000Z</time>
      </trkpt>
      <trkpt lat="48.8254" lon="1.10862">
        <ele>154.19999694824</ele>
        <time>2016-05-05T07:50:05.000Z</time>
      </trkpt>
      <trkpt lat="48.8255" lon="1.10848">
        <ele>154.19999694824</ele>
        <time>2016-05-05T07:50:15.000Z</time>
      </trkpt>
      <trkpt lat="48.82551" lon="1.10846">
        <ele>154.19999694824</ele>
        <time>2016-05-05T07:50:16.000Z</time>
      </trkpt>
      <trkpt lat="48.82559" lon="1.10834">
        <ele>154.39999389648</ele>
        <time>2016-05-05T07:50:25.000Z</time>
      </trkpt>
      <trkpt lat="48.82564" lon="1.10829">
        <ele>154.39999389648</ele>
        <time>2016-05-05T07:50:30.000Z</time>
      </trkpt>
      <trkpt lat="48.82571" lon="1.10821">
        <ele>154.60000610352</ele>
        <time>2016-05-05T07:50:38.000Z</time>
      </trkpt>
      <trkpt lat="48.82572" lon="1.10821">
        <ele>154.60000610352</ele>
        <time>2016-05-05T07:50:39.000Z</time>
      </trkpt>
      <trkpt lat="48.82584" lon="1.10806">
        <ele>155</ele>
        <time>2016-05-05T07:50:54.000Z</time>
      </trkpt>
      <trkpt lat="48.82585" lon="1.10803">
        <ele>155</ele>
        <time>2016-05-05T07:50:56.000Z</time>
      </trkpt>
      <trkpt lat="48.82586" lon="1.10801">
        <ele>155</ele>
        <time>2016-05-05T07:50:57.000Z</time>
      </trkpt>
      <trkpt lat="48.82589" lon="1.10795">
        <ele>155</ele>
        <time>2016-05-05T07:51:01.000Z</time>
      </trkpt>
      <trkpt lat="48.82591" lon="1.1079">
        <ele>155</ele>
        <time>2016-05-05T07:51:04.000Z</time>
      </trkpt>
      <trkpt lat="48.82597" lon="1.10779">
        <ele>155</ele>
        <time>2016-05-05T07:51:11.000Z</time>
      </trkpt>
      <trkpt lat="48.82602" lon="1.10775">
        <ele>155</ele>
        <time>2016-05-05T07:51:15.000Z</time>
      </trkpt>
      <trkpt lat="48.82602" lon="1.10773">
        <ele>155</ele>
        <time>2016-05-05T07:51:16.000Z</time>
      </trkpt>
      <trkpt lat="48.82602" lon="1.10771">
        <ele>155</ele>
        <time>2016-05-05T07:51:17.000Z</time>
      </trkpt>
      <trkpt lat="48.82605" lon="1.10768">
        <ele>155</ele>
        <time>2016-05-05T07:51:20.000Z</time>
      </trkpt>
      <trkpt lat="48.82606" lon="1.10766">
        <ele>155</ele>
        <time>2016-05-05T07:51:21.000Z</time>
      </trkpt>
      <trkpt lat="48.82609" lon="1.10759">
        <ele>155</ele>
        <time>2016-05-05T07:51:25.000Z</time>
      </trkpt>
      <trkpt lat="48.8261" lon="1.10754">
        <ele>154.80000305176</ele>
        <time>2016-05-05T07:51:27.000Z</time>
      </trkpt>
      <trkpt lat="48.82613" lon="1.1075">
        <ele>154.80000305176</ele>
        <time>2016-05-05T07:51:30.000Z</time>
      </trkpt>
      <trkpt lat="48.82614" lon="1.10746">
        <ele>154.80000305176</ele>
        <time>2016-05-05T07:51:32.000Z</time>
      </trkpt>
      <trkpt lat="48.82623" lon="1.10734">
        <ele>155</ele>
        <time>2016-05-05T07:51:42.000Z</time>
      </trkpt>
      <trkpt lat="48.82627" lon="1.10723">
        <ele>155</ele>
        <time>2016-05-05T07:51:49.000Z</time>
      </trkpt>
      <trkpt lat="48.82631" lon="1.10714">
        <ele>155.19999694824</ele>
        <time>2016-05-05T07:51:55.000Z</time>
      </trkpt>
      <trkpt lat="48.82632" lon="1.10713">
        <ele>155.19999694824</ele>
        <time>2016-05-05T07:51:56.000Z</time>
      </trkpt>
      <trkpt lat="48.82636" lon="1.10706">
        <ele>155.39999389648</ele>
        <time>2016-05-05T07:52:01.000Z</time>
      </trkpt>
      <trkpt lat="48.82638" lon="1.10703">
        <ele>155.60000610352</ele>
        <time>2016-05-05T07:52:03.000Z</time>
      </trkpt>
      <trkpt lat="48.82644" lon="1.10689">
        <ele>155.80000305176</ele>
        <time>2016-05-05T07:52:12.000Z</time>
      </trkpt>
      <trkpt lat="48.82649" lon="1.1068">
        <ele>156</ele>
        <time>2016-05-05T07:52:18.000Z</time>
      </trkpt>
      <trkpt lat="48.82649" lon="1.10678">
        <ele>156.19999694824</ele>
        <time>2016-05-05T07:52:19.000Z</time>
      </trkpt>
      <trkpt lat="48.82653" lon="1.10664">
        <ele>156.19999694824</ele>
        <time>2016-05-05T07:52:27.000Z</time>
      </trkpt>
      <trkpt lat="48.82654" lon="1.10663">
        <ele>156.39999389648</ele>
        <time>2016-05-05T07:52:28.000Z</time>
      </trkpt>
      <trkpt lat="48.82657" lon="1.10655">
        <ele>156.39999389648</ele>
        <time>2016-05-05T07:52:33.000Z</time>
      </trkpt>
      <trkpt lat="48.82659" lon="1.10652">
        <ele>156.60000610352</ele>
        <time>2016-05-05T07:52:36.000Z</time>
      </trkpt>
      <trkpt lat="48.8266" lon="1.10645">
        <ele>156.60000610352</ele>
        <time>2016-05-05T07:52:40.000Z</time>
      </trkpt>
      <trkpt lat="48.82662" lon="1.10643">
        <ele>156.60000610352</ele>
        <time>2016-05-05T07:52:42.000Z</time>
      </trkpt>
      <trkpt lat="48.82663" lon="1.1064">
        <ele>156.80000305176</ele>
        <time>2016-05-05T07:52:44.000Z</time>
      </trkpt>
      <trkpt lat="48.82664" lon="1.10631">
        <ele>156.60000610352</ele>
        <time>2016-05-05T07:52:49.000Z</time>
      </trkpt>
      <trkpt lat="48.82665" lon="1.10616">
        <ele>156.39999389648</ele>
        <time>2016-05-05T07:52:56.000Z</time>
      </trkpt>
      <trkpt lat="48.82665" lon="1.10615">
        <ele>156.39999389648</ele>
        <time>2016-05-05T07:52:57.000Z</time>
      </trkpt>
      <trkpt lat="48.82666" lon="1.10608">
        <ele>156.39999389648</ele>
        <time>2016-05-05T07:53:01.000Z</time>
      </trkpt>
      <trkpt lat="48.82666" lon="1.106">
        <ele>156.19999694824</ele>
        <time>2016-05-05T07:53:05.000Z</time>
      </trkpt>
      <trkpt lat="48.82666" lon="1.10589">
        <ele>155.80000305176</ele>
        <time>2016-05-05T07:53:10.000Z</time>
      </trkpt>
      <trkpt lat="48.82666" lon="1.10583">
        <ele>155.80000305176</ele>
        <time>2016-05-05T07:53:13.000Z</time>
      </trkpt>
      <trkpt lat="48.82669" lon="1.10568">
        <ele>155.39999389648</ele>
        <time>2016-05-05T07:53:21.000Z</time>
      </trkpt>
      <trkpt lat="48.8267" lon="1.10564">
        <ele>155.39999389648</ele>
        <time>2016-05-05T07:53:25.000Z</time>
      </trkpt>
      <trkpt lat="48.82662" lon="1.10539">
        <ele>154.80000305176</ele>
        <time>2016-05-05T07:53:43.000Z</time>
      </trkpt>
      <trkpt lat="48.82661" lon="1.10538">
        <ele>154.80000305176</ele>
        <time>2016-05-05T07:53:44.000Z</time>
      </trkpt>
      <trkpt lat="48.82658" lon="1.10523">
        <ele>154.39999389648</ele>
        <time>2016-05-05T07:53:52.000Z</time>
      </trkpt>
      <trkpt lat="48.82655" lon="1.10511">
        <ele>154.19999694824</ele>
        <time>2016-05-05T07:53:59.000Z</time>
      </trkpt>
      <trkpt lat="48.82652" lon="1.10501">
        <ele>154</ele>
        <time>2016-05-05T07:54:05.000Z</time>
      </trkpt>
      <trkpt lat="48.82649" lon="1.10491">
        <ele>153.80000305176</ele>
        <time>2016-05-05T07:54:11.000Z</time>
      </trkpt>
      <trkpt lat="48.82645" lon="1.10478">
        <ele>153.39999389648</ele>
        <time>2016-05-05T07:54:18.000Z</time>
      </trkpt>
      <trkpt lat="48.82641" lon="1.10463">
        <ele>153.19999694824</ele>
        <time>2016-05-05T07:54:26.000Z</time>
      </trkpt>
      <trkpt lat="48.82638" lon="1.10448">
        <ele>152.80000305176</ele>
        <time>2016-05-05T07:54:34.000Z</time>
      </trkpt>
      <trkpt lat="48.82635" lon="1.10429">
        <ele>152.39999389648</ele>
        <time>2016-05-05T07:54:44.000Z</time>
      </trkpt>
      <trkpt lat="48.82631" lon="1.10411">
        <ele>152.19999694824</ele>
        <time>2016-05-05T07:54:54.000Z</time>
      </trkpt>
      <trkpt lat="48.82626" lon="1.10391">
        <ele>151.80000305176</ele>
        <time>2016-05-05T07:55:06.000Z</time>
      </trkpt>
      <trkpt lat="48.82625" lon="1.10389">
        <ele>151.80000305176</ele>
        <time>2016-05-05T07:55:08.000Z</time>
      </trkpt>
      <trkpt lat="48.8262" lon="1.10364">
        <ele>151.60000610352</ele>
        <time>2016-05-05T07:55:28.000Z</time>
      </trkpt>
      <trkpt lat="48.82619" lon="1.10362">
        <ele>151.39999389648</ele>
        <time>2016-05-05T07:55:29.000Z</time>
      </trkpt>
      <trkpt lat="48.82618" lon="1.10354">
        <ele>151.39999389648</ele>
        <time>2016-05-05T07:55:35.000Z</time>
      </trkpt>
      <trkpt lat="48.82613" lon="1.10321">
        <ele>151.19999694824</ele>
        <time>2016-05-05T08:03:43.000Z</time>
      </trkpt>
      <trkpt lat="48.82616" lon="1.10314">
        <ele>151.39999389648</ele>
        <time>2016-05-05T08:03:48.000Z</time>
      </trkpt>
      <trkpt lat="48.82617" lon="1.10312">
        <ele>151.39999389648</ele>
        <time>2016-05-05T08:03:49.000Z</time>
      </trkpt>
      <trkpt lat="48.82622" lon="1.10306">
        <ele>151.39999389648</ele>
        <time>2016-05-05T08:03:54.000Z</time>
      </trkpt>
      <trkpt lat="48.82623" lon="1.10304">
        <ele>151.60000610352</ele>
        <time>2016-05-05T08:03:56.000Z</time>
      </trkpt>
      <trkpt lat="48.82631" lon="1.10295">
        <ele>151.80000305176</ele>
        <time>2016-05-05T08:04:03.000Z</time>
      </trkpt>
      <trkpt lat="48.82635" lon="1.10288">
        <ele>152</ele>
        <time>2016-05-05T08:04:09.000Z</time>
      </trkpt>
      <trkpt lat="48.82642" lon="1.10279">
        <ele>152.19999694824</ele>
        <time>2016-05-05T08:04:16.000Z</time>
      </trkpt>
      <trkpt lat="48.8265" lon="1.10271">
        <ele>152.60000610352</ele>
        <time>2016-05-05T08:04:24.000Z</time>
      </trkpt>
      <trkpt lat="48.82657" lon="1.10265">
        <ele>152.60000610352</ele>
        <time>2016-05-05T08:04:31.000Z</time>
      </trkpt>
      <trkpt lat="48.82666" lon="1.10256">
        <ele>152.80000305176</ele>
        <time>2016-05-05T08:04:40.000Z</time>
      </trkpt>
      <trkpt lat="48.82669" lon="1.10253">
        <ele>152.80000305176</ele>
        <time>2016-05-05T08:04:43.000Z</time>
      </trkpt>
      <trkpt lat="48.82671" lon="1.10251">
        <ele>152.80000305176</ele>
        <time>2016-05-05T08:04:46.000Z</time>
      </trkpt>
      <trkpt lat="48.82673" lon="1.1025">
        <ele>152.80000305176</ele>
        <time>2016-05-05T08:04:48.000Z</time>
      </trkpt>
      <trkpt lat="48.82678" lon="1.10249">
        <ele>152.80000305176</ele>
        <time>2016-05-05T08:04:53.000Z</time>
      </trkpt>
      <trkpt lat="48.82679" lon="1.10249">
        <ele>152.80000305176</ele>
        <time>2016-05-05T08:04:54.000Z</time>
      </trkpt>
      <trkpt lat="48.82681" lon="1.10249">
        <ele>153</ele>
        <time>2016-05-05T08:04:55.000Z</time>
      </trkpt>
      <trkpt lat="48.82686" lon="1.10247">
        <ele>153</ele>
        <time>2016-05-05T08:04:59.000Z</time>
      </trkpt>
      <trkpt lat="48.82688" lon="1.10246">
        <ele>153</ele>
        <time>2016-05-05T08:05:01.000Z</time>
      </trkpt>
      <trkpt lat="48.82692" lon="1.10242">
        <ele>153</ele>
        <time>2016-05-05T08:05:05.000Z</time>
      </trkpt>
      <trkpt lat="48.82697" lon="1.10238">
        <ele>153</ele>
        <time>2016-05-05T08:05:09.000Z</time>
      </trkpt>
      <trkpt lat="48.82699" lon="1.10237">
        <ele>153.19999694824</ele>
        <time>2016-05-05T08:05:11.000Z</time>
      </trkpt>
      <trkpt lat="48.82701" lon="1.10235">
        <ele>153</ele>
        <time>2016-05-05T08:05:13.000Z</time>
      </trkpt>
      <trkpt lat="48.82712" lon="1.10225">
        <ele>152.80000305176</ele>
        <time>2016-05-05T08:05:24.000Z</time>
      </trkpt>
      <trkpt lat="48.82717" lon="1.10221">
        <ele>152.80000305176</ele>
        <time>2016-05-05T08:05:30.000Z</time>
      </trkpt>
      <trkpt lat="48.82722" lon="1.10215">
        <ele>152.80000305176</ele>
        <time>2016-05-05T08:05:35.000Z</time>
      </trkpt>
      <trkpt lat="48.82731" lon="1.10201">
        <ele>152.80000305176</ele>
        <time>2016-05-05T08:05:46.000Z</time>
      </trkpt>
      <trkpt lat="48.82738" lon="1.10192">
        <ele>152.80000305176</ele>
        <time>2016-05-05T08:05:53.000Z</time>
      </trkpt>
      <trkpt lat="48.82742" lon="1.10184">
        <ele>153</ele>
        <time>2016-05-05T08:06:00.000Z</time>
      </trkpt>
      <trkpt lat="48.82749" lon="1.10172">
        <ele>153.39999389648</ele>
        <time>2016-05-05T08:06:08.000Z</time>
      </trkpt>
      <trkpt lat="48.82755" lon="1.10159">
        <ele>153.60000610352</ele>
        <time>2016-05-05T08:06:17.000Z</time>
      </trkpt>
      <trkpt lat="48.82757" lon="1.10156">
        <ele>153.80000305176</ele>
        <time>2016-05-05T08:06:19.000Z</time>
      </trkpt>
      <trkpt lat="48.82759" lon="1.10149">
        <ele>153.80000305176</ele>
        <time>2016-05-05T08:06:23.000Z</time>
      </trkpt>
      <trkpt lat="48.82765" lon="1.10135">
        <ele>154</ele>
        <time>2016-05-05T08:06:32.000Z</time>
      </trkpt>
      <trkpt lat="48.82771" lon="1.10121">
        <ele>154.19999694824</ele>
        <time>2016-05-05T08:06:41.000Z</time>
      </trkpt>
      <trkpt lat="48.82775" lon="1.10109">
        <ele>154.39999389648</ele>
        <time>2016-05-05T08:06:48.000Z</time>
      </trkpt>
      <trkpt lat="48.82782" lon="1.10094">
        <ele>154.80000305176</ele>
        <time>2016-05-05T08:06:58.000Z</time>
      </trkpt>
      <trkpt lat="48.82784" lon="1.10087">
        <ele>155</ele>
        <time>2016-05-05T08:07:02.000Z</time>
      </trkpt>
      <trkpt lat="48.82784" lon="1.10086">
        <ele>155</ele>
        <time>2016-05-05T08:07:03.000Z</time>
      </trkpt>
      <trkpt lat="48.82786" lon="1.10079">
        <ele>155.19999694824</ele>
        <time>2016-05-05T08:07:07.000Z</time>
      </trkpt>
      <trkpt lat="48.82788" lon="1.10075">
        <ele>155.19999694824</ele>
        <time>2016-05-05T08:07:10.000Z</time>
      </trkpt>
      <trkpt lat="48.82789" lon="1.10072">
        <ele>155.19999694824</ele>
        <time>2016-05-05T08:07:12.000Z</time>
      </trkpt>
      <trkpt lat="48.82791" lon="1.10063">
        <ele>155.39999389648</ele>
        <time>2016-05-05T08:07:17.000Z</time>
      </trkpt>
      <trkpt lat="48.82794" lon="1.10052">
        <ele>155.60000610352</ele>
        <time>2016-05-05T08:07:24.000Z</time>
      </trkpt>
      <trkpt lat="48.82798" lon="1.10037">
        <ele>155.60000610352</ele>
        <time>2016-05-05T08:07:32.000Z</time>
      </trkpt>
      <trkpt lat="48.82802" lon="1.10022">
        <ele>155.80000305176</ele>
        <time>2016-05-05T08:07:41.000Z</time>
      </trkpt>
      <trkpt lat="48.82804" lon="1.10014">
        <ele>155.80000305176</ele>
        <time>2016-05-05T08:07:45.000Z</time>
      </trkpt>
      <trkpt lat="48.82805" lon="1.10011">
        <ele>155.80000305176</ele>
        <time>2016-05-05T08:07:47.000Z</time>
      </trkpt>
      <trkpt lat="48.82808" lon="1.10002">
        <ele>155.80000305176</ele>
        <time>2016-05-05T08:07:52.000Z</time>
      </trkpt>
      <trkpt lat="48.82812" lon="1.09988">
        <ele>156</ele>
        <time>2016-05-05T08:08:00.000Z</time>
      </trkpt>
      <trkpt lat="48.82817" lon="1.09977">
        <ele>156</ele>
        <time>2016-05-05T08:08:07.000Z</time>
      </trkpt>
      <trkpt lat="48.82819" lon="1.09964">
        <ele>156.19999694824</ele>
        <time>2016-05-05T08:08:14.000Z</time>
      </trkpt>
      <trkpt lat="48.82826" lon="1.0995">
        <ele>156.19999694824</ele>
        <time>2016-05-05T08:08:23.000Z</time>
      </trkpt>
      <trkpt lat="48.82829" lon="1.09941">
        <ele>156.39999389648</ele>
        <time>2016-05-05T08:08:29.000Z</time>
      </trkpt>
      <trkpt lat="48.82833" lon="1.09928">
        <ele>156.39999389648</ele>
        <time>2016-05-05T08:08:36.000Z</time>
      </trkpt>
      <trkpt lat="48.82837" lon="1.09915">
        <ele>156.60000610352</ele>
        <time>2016-05-05T08:08:44.000Z</time>
      </trkpt>
      <trkpt lat="48.82837" lon="1.09913">
        <ele>156.60000610352</ele>
        <time>2016-05-05T08:08:45.000Z</time>
      </trkpt>
      <trkpt lat="48.82839" lon="1.09908">
        <ele>156.60000610352</ele>
        <time>2016-05-05T08:08:48.000Z</time>
      </trkpt>
      <trkpt lat="48.82841" lon="1.09901">
        <ele>156.60000610352</ele>
        <time>2016-05-05T08:08:52.000Z</time>
      </trkpt>
      <trkpt lat="48.82845" lon="1.09888">
        <ele>156.80000305176</ele>
        <time>2016-05-05T08:08:59.000Z</time>
      </trkpt>
      <trkpt lat="48.82849" lon="1.09876">
        <ele>156.80000305176</ele>
        <time>2016-05-05T08:09:06.000Z</time>
      </trkpt>
      <trkpt lat="48.82854" lon="1.09859">
        <ele>157</ele>
        <time>2016-05-05T08:09:16.000Z</time>
      </trkpt>
      <trkpt lat="48.82858" lon="1.09849">
        <ele>157</ele>
        <time>2016-05-05T08:09:22.000Z</time>
      </trkpt>
      <trkpt lat="48.82861" lon="1.09835">
        <ele>157</ele>
        <time>2016-05-05T08:09:31.000Z</time>
      </trkpt>
      <trkpt lat="48.82865" lon="1.09819">
        <ele>156.80000305176</ele>
        <time>2016-05-05T08:09:40.000Z</time>
      </trkpt>
      <trkpt lat="48.82866" lon="1.09814">
        <ele>156.80000305176</ele>
        <time>2016-05-05T08:09:43.000Z</time>
      </trkpt>
      <trkpt lat="48.82866" lon="1.09808">
        <ele>156.80000305176</ele>
        <time>2016-05-05T08:09:46.000Z</time>
      </trkpt>
      <trkpt lat="48.82867" lon="1.09799">
        <ele>156.80000305176</ele>
        <time>2016-05-05T08:09:50.000Z</time>
      </trkpt>
      <trkpt lat="48.82867" lon="1.09795">
        <ele>156.60000610352</ele>
        <time>2016-05-05T08:09:52.000Z</time>
      </trkpt>
      <trkpt lat="48.8287" lon="1.09781">
        <ele>156.39999389648</ele>
        <time>2016-05-05T08:10:00.000Z</time>
      </trkpt>
      <trkpt lat="48.82873" lon="1.09771">
        <ele>156.39999389648</ele>
        <time>2016-05-05T08:10:06.000Z</time>
      </trkpt>
      <trkpt lat="48.82874" lon="1.09768">
        <ele>156.19999694824</ele>
        <time>2016-05-05T08:10:08.000Z</time>
      </trkpt>
      <trkpt lat="48.82877" lon="1.09754">
        <ele>156</ele>
        <time>2016-05-05T08:10:16.000Z</time>
      </trkpt>
      <trkpt lat="48.82879" lon="1.09744">
        <ele>156</ele>
        <time>2016-05-05T08:10:23.000Z</time>
      </trkpt>
      <trkpt lat="48.82881" lon="1.09734">
        <ele>155.80000305176</ele>
        <time>2016-05-05T08:10:27.000Z</time>
      </trkpt>
      <trkpt lat="48.82881" lon="1.0973">
        <ele>155.80000305176</ele>
        <time>2016-05-05T08:10:29.000Z</time>
      </trkpt>
      <trkpt lat="48.82883" lon="1.09715">
        <ele>155.80000305176</ele>
        <time>2016-05-05T08:10:37.000Z</time>
      </trkpt>
      <trkpt lat="48.82884" lon="1.09709">
        <ele>155.80000305176</ele>
        <time>2016-05-05T08:10:41.000Z</time>
      </trkpt>
      <trkpt lat="48.82885" lon="1.09704">
        <ele>156</ele>
        <time>2016-05-05T08:10:43.000Z</time>
      </trkpt>
      <trkpt lat="48.82887" lon="1.09697">
        <ele>156</ele>
        <time>2016-05-05T08:10:49.000Z</time>
      </trkpt>
      <trkpt lat="48.82911" lon="1.09605">
        <ele>156.39999389648</ele>
        <time>2016-05-05T08:12:28.000Z</time>
      </trkpt>
      <trkpt lat="48.82915" lon="1.09586">
        <ele>156.19999694824</ele>
        <time>2016-05-05T08:12:39.000Z</time>
      </trkpt>
      <trkpt lat="48.82919" lon="1.0957">
        <ele>156.19999694824</ele>
        <time>2016-05-05T08:12:49.000Z</time>
      </trkpt>
      <trkpt lat="48.82923" lon="1.09553">
        <ele>156.19999694824</ele>
        <time>2016-05-05T08:12:59.000Z</time>
      </trkpt>
      <trkpt lat="48.82927" lon="1.09537">
        <ele>156</ele>
        <time>2016-05-05T08:13:09.000Z</time>
      </trkpt>
      <trkpt lat="48.82928" lon="1.0953">
        <ele>156</ele>
        <time>2016-05-05T08:13:15.000Z</time>
      </trkpt>
      <trkpt lat="48.8294" lon="1.09465">
        <ele>155.80000305176</ele>
        <time>2016-05-05T08:14:11.000Z</time>
      </trkpt>
      <trkpt lat="48.8294" lon="1.09462">
        <ele>155.80000305176</ele>
        <time>2016-05-05T08:14:15.000Z</time>
      </trkpt>
      <trkpt lat="48.82945" lon="1.09436">
        <ele>155.39999389648</ele>
        <time>2016-05-05T08:14:38.000Z</time>
      </trkpt>
      <trkpt lat="48.82945" lon="1.09434">
        <ele>155.39999389648</ele>
        <time>2016-05-05T08:14:39.000Z</time>
      </trkpt>
      <trkpt lat="48.82946" lon="1.09432">
        <ele>155.39999389648</ele>
        <time>2016-05-05T08:14:41.000Z</time>
      </trkpt>
      <trkpt lat="48.82948" lon="1.09425">
        <ele>155.19999694824</ele>
        <time>2016-05-05T08:14:45.000Z</time>
      </trkpt>
      <trkpt lat="48.82949" lon="1.09413">
        <ele>155.19999694824</ele>
        <time>2016-05-05T08:14:51.000Z</time>
      </trkpt>
      <trkpt lat="48.82952" lon="1.09402">
        <ele>155.19999694824</ele>
        <time>2016-05-05T08:14:57.000Z</time>
      </trkpt>
      <trkpt lat="48.82953" lon="1.09398">
        <ele>155.19999694824</ele>
        <time>2016-05-05T08:14:59.000Z</time>
      </trkpt>
      <trkpt lat="48.82953" lon="1.09393">
        <ele>155.39999389648</ele>
        <time>2016-05-05T08:15:02.000Z</time>
      </trkpt>
      <trkpt lat="48.82954" lon="1.09389">
        <ele>155.39999389648</ele>
        <time>2016-05-05T08:15:04.000Z</time>
      </trkpt>
      <trkpt lat="48.82956" lon="1.09379">
        <ele>155.60000610352</ele>
        <time>2016-05-05T08:15:10.000Z</time>
      </trkpt>
      <trkpt lat="48.82957" lon="1.09376">
        <ele>155.60000610352</ele>
        <time>2016-05-05T08:15:12.000Z</time>
      </trkpt>
      <trkpt lat="48.82957" lon="1.09372">
        <ele>155.60000610352</ele>
        <time>2016-05-05T08:15:15.000Z</time>
      </trkpt>
      <trkpt lat="48.82958" lon="1.0937">
        <ele>155.80000305176</ele>
        <time>2016-05-05T08:15:16.000Z</time>
      </trkpt>
      <trkpt lat="48.82958" lon="1.09369">
        <ele>155.80000305176</ele>
        <time>2016-05-05T08:15:17.000Z</time>
      </trkpt>
      <trkpt lat="48.82959" lon="1.09368">
        <ele>155.80000305176</ele>
        <time>2016-05-05T08:15:19.000Z</time>
      </trkpt>
      <trkpt lat="48.82967" lon="1.09335">
        <ele>156.39999389648</ele>
        <time>2016-05-05T08:15:45.000Z</time>
      </trkpt>
      <trkpt lat="48.82967" lon="1.09333">
        <ele>156.19999694824</ele>
        <time>2016-05-05T08:15:46.000Z</time>
      </trkpt>
      <trkpt lat="48.82967" lon="1.09332">
        <ele>156.19999694824</ele>
        <time>2016-05-05T08:15:47.000Z</time>
      </trkpt>
      <trkpt lat="48.82968" lon="1.09323">
        <ele>156.19999694824</ele>
        <time>2016-05-05T08:15:52.000Z</time>
      </trkpt>
      <trkpt lat="48.8297" lon="1.09316">
        <ele>156</ele>
        <time>2016-05-05T08:15:56.000Z</time>
      </trkpt>
      <trkpt lat="48.8297" lon="1.09315">
        <ele>156</ele>
        <time>2016-05-05T08:15:57.000Z</time>
      </trkpt>
      <trkpt lat="48.8297" lon="1.09312">
        <ele>156</ele>
        <time>2016-05-05T08:15:59.000Z</time>
      </trkpt>
      <trkpt lat="48.82972" lon="1.09305">
        <ele>156</ele>
        <time>2016-05-05T08:16:04.000Z</time>
      </trkpt>
      <trkpt lat="48.82974" lon="1.09295">
        <ele>156</ele>
        <time>2016-05-05T08:16:10.000Z</time>
      </trkpt>
      <trkpt lat="48.82976" lon="1.09282">
        <ele>156</ele>
        <time>2016-05-05T08:16:17.000Z</time>
      </trkpt>
      <trkpt lat="48.82979" lon="1.0927">
        <ele>156</ele>
        <time>2016-05-05T08:16:24.000Z</time>
      </trkpt>
      <trkpt lat="48.82979" lon="1.09266">
        <ele>156</ele>
        <time>2016-05-05T08:16:26.000Z</time>
      </trkpt>
      <trkpt lat="48.8298" lon="1.09262">
        <ele>156</ele>
        <time>2016-05-05T08:16:28.000Z</time>
      </trkpt>
      <trkpt lat="48.82981" lon="1.09258">
        <ele>155.80000305176</ele>
        <time>2016-05-05T08:16:30.000Z</time>
      </trkpt>
      <trkpt lat="48.82983" lon="1.09249">
        <ele>155.80000305176</ele>
        <time>2016-05-05T08:16:35.000Z</time>
      </trkpt>
      <trkpt lat="48.82983" lon="1.0925">
        <ele>155.80000305176</ele>
        <time>2016-05-05T08:16:37.000Z</time>
      </trkpt>
      <trkpt lat="48.82986" lon="1.09223">
        <ele>155.39999389648</ele>
        <time>2016-05-05T08:17:05.000Z</time>
      </trkpt>
      <trkpt lat="48.82987" lon="1.09221">
        <ele>155.39999389648</ele>
        <time>2016-05-05T08:17:06.000Z</time>
      </trkpt>
      <trkpt lat="48.82988" lon="1.09212">
        <ele>155.39999389648</ele>
        <time>2016-05-05T08:17:12.000Z</time>
      </trkpt>
      <trkpt lat="48.8299" lon="1.092">
        <ele>155.39999389648</ele>
        <time>2016-05-05T08:17:18.000Z</time>
      </trkpt>
      <trkpt lat="48.82993" lon="1.09183">
        <ele>155.60000610352</ele>
        <time>2016-05-05T08:17:27.000Z</time>
      </trkpt>
      <trkpt lat="48.82995" lon="1.09172">
        <ele>155.60000610352</ele>
        <time>2016-05-05T08:17:34.000Z</time>
      </trkpt>
      <trkpt lat="48.82997" lon="1.0916">
        <ele>155.80000305176</ele>
        <time>2016-05-05T08:17:40.000Z</time>
      </trkpt>
      <trkpt lat="48.82997" lon="1.09159">
        <ele>155.80000305176</ele>
        <time>2016-05-05T08:17:41.000Z</time>
      </trkpt>
      <trkpt lat="48.82999" lon="1.09144">
        <ele>156</ele>
        <time>2016-05-05T08:17:48.000Z</time>
      </trkpt>
      <trkpt lat="48.83001" lon="1.09129">
        <ele>156.19999694824</ele>
        <time>2016-05-05T08:17:56.000Z</time>
      </trkpt>
      <trkpt lat="48.83003" lon="1.09121">
        <ele>156.19999694824</ele>
        <time>2016-05-05T08:18:01.000Z</time>
      </trkpt>
      <trkpt lat="48.83003" lon="1.0912">
        <ele>156.19999694824</ele>
        <time>2016-05-05T08:18:02.000Z</time>
      </trkpt>
      <trkpt lat="48.83005" lon="1.0911">
        <ele>156.19999694824</ele>
        <time>2016-05-05T08:18:08.000Z</time>
      </trkpt>
      <trkpt lat="48.83007" lon="1.09098">
        <ele>156.19999694824</ele>
        <time>2016-05-05T08:18:15.000Z</time>
      </trkpt>
      <trkpt lat="48.83009" lon="1.09094">
        <ele>156.19999694824</ele>
        <time>2016-05-05T08:18:21.000Z</time>
      </trkpt>
      <trkpt lat="48.83027" lon="1.09003">
        <ele>156.60000610352</ele>
        <time>2016-05-05T08:19:16.000Z</time>
      </trkpt>
      <trkpt lat="48.83032" lon="1.08982">
        <ele>157</ele>
        <time>2016-05-05T08:19:28.000Z</time>
      </trkpt>
      <trkpt lat="48.83036" lon="1.08966">
        <ele>157.19999694824</ele>
        <time>2016-05-05T08:19:38.000Z</time>
      </trkpt>
      <trkpt lat="48.83038" lon="1.08951">
        <ele>157.39999389648</ele>
        <time>2016-05-05T08:19:47.000Z</time>
      </trkpt>
      <trkpt lat="48.83038" lon="1.08948">
        <ele>157.39999389648</ele>
        <time>2016-05-05T08:19:49.000Z</time>
      </trkpt>
      <trkpt lat="48.8304" lon="1.08943">
        <ele>157.39999389648</ele>
        <time>2016-05-05T08:19:52.000Z</time>
      </trkpt>
      <trkpt lat="48.83043" lon="1.08933">
        <ele>157.60000610352</ele>
        <time>2016-05-05T08:19:58.000Z</time>
      </trkpt>
      <trkpt lat="48.83044" lon="1.08927">
        <ele>157.60000610352</ele>
        <time>2016-05-05T08:20:01.000Z</time>
      </trkpt>
      <trkpt lat="48.83046" lon="1.08917">
        <ele>157.80000305176</ele>
        <time>2016-05-05T08:20:07.000Z</time>
      </trkpt>
      <trkpt lat="48.8305" lon="1.08901">
        <ele>157.60000610352</ele>
        <time>2016-05-05T08:20:16.000Z</time>
      </trkpt>
      <trkpt lat="48.83054" lon="1.08883">
        <ele>157.60000610352</ele>
        <time>2016-05-05T08:20:26.000Z</time>
      </trkpt>
      <trkpt lat="48.83058" lon="1.08864">
        <ele>157.60000610352</ele>
        <time>2016-05-05T08:20:36.000Z</time>
      </trkpt>
      <trkpt lat="48.83062" lon="1.08843">
        <ele>157.60000610352</ele>
        <time>2016-05-05T08:20:47.000Z</time>
      </trkpt>
      <trkpt lat="48.83066" lon="1.08827">
        <ele>157.39999389648</ele>
        <time>2016-05-05T08:20:56.000Z</time>
      </trkpt>
      <trkpt lat="48.8307" lon="1.08813">
        <ele>157.39999389648</ele>
        <time>2016-05-05T08:21:04.000Z</time>
      </trkpt>
      <trkpt lat="48.83072" lon="1.08801">
        <ele>157.60000610352</ele>
        <time>2016-05-05T08:21:11.000Z</time>
      </trkpt>
      <trkpt lat="48.83073" lon="1.08801">
        <ele>157.39999389648</ele>
        <time>2016-05-05T08:21:12.000Z</time>
      </trkpt>
      <trkpt lat="48.83073" lon="1.08801">
        <ele>157.39999389648</ele>
        <time>2016-05-05T08:21:14.000Z</time>
      </trkpt>
      <trkpt lat="48.83084" lon="1.0875">
        <ele>158</ele>
        <time>2016-05-05T08:21:46.000Z</time>
      </trkpt>
      <trkpt lat="48.83084" lon="1.08748">
        <ele>158</ele>
        <time>2016-05-05T08:21:47.000Z</time>
      </trkpt>
      <trkpt lat="48.83087" lon="1.08733">
        <ele>158.19999694824</ele>
        <time>2016-05-05T08:21:55.000Z</time>
      </trkpt>
      <trkpt lat="48.8309" lon="1.08724">
        <ele>158.19999694824</ele>
        <time>2016-05-05T08:22:01.000Z</time>
      </trkpt>
      <trkpt lat="48.8309" lon="1.08723">
        <ele>158.19999694824</ele>
        <time>2016-05-05T08:22:02.000Z</time>
      </trkpt>
      <trkpt lat="48.83092" lon="1.08715">
        <ele>158.19999694824</ele>
        <time>2016-05-05T08:22:08.000Z</time>
      </trkpt>
      <trkpt lat="48.83092" lon="1.08713">
        <ele>158.19999694824</ele>
        <time>2016-05-05T08:22:09.000Z</time>
      </trkpt>
      <trkpt lat="48.83094" lon="1.08705">
        <ele>158</ele>
        <time>2016-05-05T08:22:13.000Z</time>
      </trkpt>
      <trkpt lat="48.83094" lon="1.08702">
        <ele>158</ele>
        <time>2016-05-05T08:22:15.000Z</time>
      </trkpt>
      <trkpt lat="48.83094" lon="1.087">
        <ele>158</ele>
        <time>2016-05-05T08:22:16.000Z</time>
      </trkpt>
      <trkpt lat="48.83094" lon="1.08693">
        <ele>157.80000305176</ele>
        <time>2016-05-05T08:22:20.000Z</time>
      </trkpt>
      <trkpt lat="48.83095" lon="1.08683">
        <ele>157.80000305176</ele>
        <time>2016-05-05T08:22:25.000Z</time>
      </trkpt>
      <trkpt lat="48.83096" lon="1.08681">
        <ele>157.60000610352</ele>
        <time>2016-05-05T08:22:27.000Z</time>
      </trkpt>
      <trkpt lat="48.83098" lon="1.0867">
        <ele>157.39999389648</ele>
        <time>2016-05-05T08:22:33.000Z</time>
      </trkpt>
      <trkpt lat="48.83098" lon="1.08668">
        <ele>157.39999389648</ele>
        <time>2016-05-05T08:22:34.000Z</time>
      </trkpt>
      <trkpt lat="48.83099" lon="1.08662">
        <ele>157.39999389648</ele>
        <time>2016-05-05T08:22:38.000Z</time>
      </trkpt>
      <trkpt lat="48.831" lon="1.08653">
        <ele>157.19999694824</ele>
        <time>2016-05-05T08:22:42.000Z</time>
      </trkpt>
      <trkpt lat="48.831" lon="1.0865">
        <ele>157.19999694824</ele>
        <time>2016-05-05T08:22:44.000Z</time>
      </trkpt>
      <trkpt lat="48.83103" lon="1.08637">
        <ele>157.19999694824</ele>
        <time>2016-05-05T08:22:51.000Z</time>
      </trkpt>
      <trkpt lat="48.83104" lon="1.08636">
        <ele>157.19999694824</ele>
        <time>2016-05-05T08:22:52.000Z</time>
      </trkpt>
      <trkpt lat="48.83106" lon="1.08624">
        <ele>157.39999389648</ele>
        <time>2016-05-05T08:22:58.000Z</time>
      </trkpt>
      <trkpt lat="48.83108" lon="1.08616">
        <ele>157.60000610352</ele>
        <time>2016-05-05T08:23:03.000Z</time>
      </trkpt>
      <trkpt lat="48.83109" lon="1.08611">
        <ele>157.80000305176</ele>
        <time>2016-05-05T08:23:05.000Z</time>
      </trkpt>
      <trkpt lat="48.8311" lon="1.08604">
        <ele>158</ele>
        <time>2016-05-05T08:23:09.000Z</time>
      </trkpt>
      <trkpt lat="48.83112" lon="1.08595">
        <ele>158.19999694824</ele>
        <time>2016-05-05T08:23:14.000Z</time>
      </trkpt>
      <trkpt lat="48.83115" lon="1.08587">
        <ele>158.39999389648</ele>
        <time>2016-05-05T08:23:19.000Z</time>
      </trkpt>
      <trkpt lat="48.83116" lon="1.08583">
        <ele>158.60000610352</ele>
        <time>2016-05-05T08:23:22.000Z</time>
      </trkpt>
      <trkpt lat="48.83116" lon="1.08583">
        <ele>158.60000610352</ele>
        <time>2016-05-05T08:23:23.000Z</time>
      </trkpt>
      <trkpt lat="48.83116" lon="1.08583">
        <ele>158.60000610352</ele>
        <time>2016-05-05T08:23:24.000Z</time>
      </trkpt>
      <trkpt lat="48.83128" lon="1.08508">
        <ele>158.80000305176</ele>
        <time>2016-05-05T08:24:58.000Z</time>
      </trkpt>
      <trkpt lat="48.83129" lon="1.08505">
        <ele>158.80000305176</ele>
        <time>2016-05-05T08:25:00.000Z</time>
      </trkpt>
      <trkpt lat="48.83131" lon="1.08493">
        <ele>158.80000305176</ele>
        <time>2016-05-05T08:25:07.000Z</time>
      </trkpt>
      <trkpt lat="48.83134" lon="1.08475">
        <ele>159</ele>
        <time>2016-05-05T08:25:17.000Z</time>
      </trkpt>
      <trkpt lat="48.83138" lon="1.08456">
        <ele>159</ele>
        <time>2016-05-05T08:25:27.000Z</time>
      </trkpt>
      <trkpt lat="48.83142" lon="1.08436">
        <ele>159</ele>
        <time>2016-05-05T08:25:38.000Z</time>
      </trkpt>
      <trkpt lat="48.83147" lon="1.08414">
        <ele>159</ele>
        <time>2016-05-05T08:25:50.000Z</time>
      </trkpt>
      <trkpt lat="48.8315" lon="1.084">
        <ele>159</ele>
        <time>2016-05-05T08:25:59.000Z</time>
      </trkpt>
      <trkpt lat="48.8315" lon="1.08399">
        <ele>159</ele>
        <time>2016-05-05T08:26:00.000Z</time>
      </trkpt>
      <trkpt lat="48.8315" lon="1.08395">
        <ele>159</ele>
        <time>2016-05-05T08:26:05.000Z</time>
      </trkpt>
      <trkpt lat="48.83156" lon="1.08368">
        <ele>159.39999389648</ele>
        <time>2016-05-05T08:26:53.000Z</time>
      </trkpt>
      <trkpt lat="48.83156" lon="1.08362">
        <ele>159.39999389648</ele>
        <time>2016-05-05T08:26:56.000Z</time>
      </trkpt>
      <trkpt lat="48.83159" lon="1.08345">
        <ele>159.60000610352</ele>
        <time>2016-05-05T08:27:05.000Z</time>
      </trkpt>
      <trkpt lat="48.83162" lon="1.08328">
        <ele>159.80000305176</ele>
        <time>2016-05-05T08:27:15.000Z</time>
      </trkpt>
      <trkpt lat="48.83165" lon="1.0831">
        <ele>160</ele>
        <time>2016-05-05T08:27:25.000Z</time>
      </trkpt>
      <trkpt lat="48.83167" lon="1.08299">
        <ele>160</ele>
        <time>2016-05-05T08:27:31.000Z</time>
      </trkpt>
      <trkpt lat="48.8317" lon="1.08285">
        <ele>160</ele>
        <time>2016-05-05T08:27:39.000Z</time>
      </trkpt>
      <trkpt lat="48.8317" lon="1.08283">
        <ele>160</ele>
        <time>2016-05-05T08:27:40.000Z</time>
      </trkpt>
      <trkpt lat="48.8317" lon="1.08278">
        <ele>160</ele>
        <time>2016-05-05T08:27:43.000Z</time>
      </trkpt>
      <trkpt lat="48.8317" lon="1.08275">
        <ele>160</ele>
        <time>2016-05-05T08:27:45.000Z</time>
      </trkpt>
      <trkpt lat="48.83173" lon="1.08263">
        <ele>160</ele>
        <time>2016-05-05T08:27:51.000Z</time>
      </trkpt>
      <trkpt lat="48.83175" lon="1.0825">
        <ele>160</ele>
        <time>2016-05-05T08:27:59.000Z</time>
      </trkpt>
      <trkpt lat="48.83179" lon="1.08237">
        <ele>160</ele>
        <time>2016-05-05T08:28:07.000Z</time>
      </trkpt>
      <trkpt lat="48.83183" lon="1.08218">
        <ele>160</ele>
        <time>2016-05-05T08:28:19.000Z</time>
      </trkpt>
      <trkpt lat="48.83186" lon="1.08202">
        <ele>160.19999694824</ele>
        <time>2016-05-05T08:28:29.000Z</time>
      </trkpt>
      <trkpt lat="48.83188" lon="1.08192">
        <ele>160.39999389648</ele>
        <time>2016-05-05T08:28:35.000Z</time>
      </trkpt>
      <trkpt lat="48.83188" lon="1.08191">
        <ele>160.39999389648</ele>
        <time>2016-05-05T08:28:36.000Z</time>
      </trkpt>
      <trkpt lat="48.83188" lon="1.08189">
        <ele>160.39999389648</ele>
        <time>2016-05-05T08:28:37.000Z</time>
      </trkpt>
      <trkpt lat="48.83189" lon="1.0818">
        <ele>160.60000610352</ele>
        <time>2016-05-05T08:28:42.000Z</time>
      </trkpt>
      <trkpt lat="48.83192" lon="1.08166">
        <ele>160.80000305176</ele>
        <time>2016-05-05T08:28:50.000Z</time>
      </trkpt>
      <trkpt lat="48.83194" lon="1.08154">
        <ele>160.80000305176</ele>
        <time>2016-05-05T08:28:56.000Z</time>
      </trkpt>
      <trkpt lat="48.83195" lon="1.08149">
        <ele>161</ele>
        <time>2016-05-05T08:28:59.000Z</time>
      </trkpt>
      <trkpt lat="48.83198" lon="1.08133">
        <ele>161.19999694824</ele>
        <time>2016-05-05T08:29:08.000Z</time>
      </trkpt>
      <trkpt lat="48.83201" lon="1.0812">
        <ele>161.19999694824</ele>
        <time>2016-05-05T08:29:16.000Z</time>
      </trkpt>
      <trkpt lat="48.83204" lon="1.08106">
        <ele>161.19999694824</ele>
        <time>2016-05-05T08:29:24.000Z</time>
      </trkpt>
      <trkpt lat="48.83207" lon="1.08089">
        <ele>161.19999694824</ele>
        <time>2016-05-05T08:29:33.000Z</time>
      </trkpt>
      <trkpt lat="48.8321" lon="1.08073">
        <ele>161.19999694824</ele>
        <time>2016-05-05T08:29:42.000Z</time>
      </trkpt>
      <trkpt lat="48.83211" lon="1.08066">
        <ele>161</ele>
        <time>2016-05-05T08:29:47.000Z</time>
      </trkpt>
      <trkpt lat="48.83213" lon="1.08054">
        <ele>161</ele>
        <time>2016-05-05T08:29:53.000Z</time>
      </trkpt>
      <trkpt lat="48.83216" lon="1.08043">
        <ele>161.19999694824</ele>
        <time>2016-05-05T08:30:00.000Z</time>
      </trkpt>
      <trkpt lat="48.8322" lon="1.08025">
        <ele>161.39999389648</ele>
        <time>2016-05-05T08:30:10.000Z</time>
      </trkpt>
      <trkpt lat="48.83223" lon="1.0801">
        <ele>161.60000610352</ele>
        <time>2016-05-05T08:30:19.000Z</time>
      </trkpt>
      <trkpt lat="48.83226" lon="1.07994">
        <ele>161.60000610352</ele>
        <time>2016-05-05T08:30:27.000Z</time>
      </trkpt>
      <trkpt lat="48.83227" lon="1.07992">
        <ele>161.60000610352</ele>
        <time>2016-05-05T08:30:29.000Z</time>
      </trkpt>
      <trkpt lat="48.83227" lon="1.07989">
        <ele>161.60000610352</ele>
        <time>2016-05-05T08:30:32.000Z</time>
      </trkpt>
      <trkpt lat="48.83229" lon="1.07981">
        <ele>161.60000610352</ele>
        <time>2016-05-05T08:30:38.000Z</time>
      </trkpt>
      <trkpt lat="48.83233" lon="1.07973">
        <ele>161.39999389648</ele>
        <time>2016-05-05T08:30:46.000Z</time>
      </trkpt>
      <trkpt lat="48.83249" lon="1.07949">
        <ele>161.19999694824</ele>
        <time>2016-05-05T08:31:56.000Z</time>
      </trkpt>
      <trkpt lat="48.83261" lon="1.07928">
        <ele>161.19999694824</ele>
        <time>2016-05-05T08:32:10.000Z</time>
      </trkpt>
      <trkpt lat="48.83267" lon="1.07916">
        <ele>161</ele>
        <time>2016-05-05T08:32:18.000Z</time>
      </trkpt>
      <trkpt lat="48.83278" lon="1.07897">
        <ele>161</ele>
        <time>2016-05-05T08:32:31.000Z</time>
      </trkpt>
      <trkpt lat="48.83287" lon="1.07883">
        <ele>161</ele>
        <time>2016-05-05T08:32:41.000Z</time>
      </trkpt>
      <trkpt lat="48.83297" lon="1.07867">
        <ele>161</ele>
        <time>2016-05-05T08:32:52.000Z</time>
      </trkpt>
      <trkpt lat="48.83306" lon="1.07851">
        <ele>161</ele>
        <time>2016-05-05T08:33:03.000Z</time>
      </trkpt>
      <trkpt lat="48.83317" lon="1.07832">
        <ele>161</ele>
        <time>2016-05-05T08:33:16.000Z</time>
      </trkpt>
      <trkpt lat="48.83326" lon="1.07815">
        <ele>161</ele>
        <time>2016-05-05T08:33:27.000Z</time>
      </trkpt>
      <trkpt lat="48.83331" lon="1.07807">
        <ele>161</ele>
        <time>2016-05-05T08:33:34.000Z</time>
      </trkpt>
      <trkpt lat="48.83331" lon="1.07806">
        <ele>161</ele>
        <time>2016-05-05T08:33:35.000Z</time>
      </trkpt>
      <trkpt lat="48.83341" lon="1.0778">
        <ele>160.60000610352</ele>
        <time>2016-05-05T08:34:40.000Z</time>
      </trkpt>
      <trkpt lat="48.83344" lon="1.07776">
        <ele>160.60000610352</ele>
        <time>2016-05-05T08:34:44.000Z</time>
      </trkpt>
      <trkpt lat="48.8335" lon="1.07764">
        <ele>160.39999389648</ele>
        <time>2016-05-05T08:34:52.000Z</time>
      </trkpt>
      <trkpt lat="48.83351" lon="1.07761">
        <ele>160.39999389648</ele>
        <time>2016-05-05T08:34:54.000Z</time>
      </trkpt>
      <trkpt lat="48.83356" lon="1.07754">
        <ele>160.39999389648</ele>
        <time>2016-05-05T08:34:59.000Z</time>
      </trkpt>
      <trkpt lat="48.8336" lon="1.07745">
        <ele>160.19999694824</ele>
        <time>2016-05-05T08:35:05.000Z</time>
      </trkpt>
      <trkpt lat="48.83361" lon="1.07743">
        <ele>160</ele>
        <time>2016-05-05T08:35:06.000Z</time>
      </trkpt>
      <trkpt lat="48.83368" lon="1.07735">
        <ele>159.80000305176</ele>
        <time>2016-05-05T08:35:13.000Z</time>
      </trkpt>
      <trkpt lat="48.83369" lon="1.07733">
        <ele>159.80000305176</ele>
        <time>2016-05-05T08:35:14.000Z</time>
      </trkpt>
      <trkpt lat="48.83381" lon="1.07714">
        <ele>159.60000610352</ele>
        <time>2016-05-05T08:35:27.000Z</time>
      </trkpt>
      <trkpt lat="48.83391" lon="1.07697">
        <ele>159.19999694824</ele>
        <time>2016-05-05T08:35:39.000Z</time>
      </trkpt>
      <trkpt lat="48.83392" lon="1.07696">
        <ele>159.19999694824</ele>
        <time>2016-05-05T08:35:42.000Z</time>
      </trkpt>
      <trkpt lat="48.83414" lon="1.07653">
        <ele>159</ele>
        <time>2016-05-05T08:36:42.000Z</time>
      </trkpt>
      <trkpt lat="48.83415" lon="1.07651">
        <ele>159</ele>
        <time>2016-05-05T08:36:43.000Z</time>
      </trkpt>
      <trkpt lat="48.83418" lon="1.07644">
        <ele>159</ele>
        <time>2016-05-05T08:36:50.000Z</time>
      </trkpt>
      <trkpt lat="48.83431" lon="1.07617">
        <ele>159</ele>
        <time>2016-05-05T08:37:14.000Z</time>
      </trkpt>
      <trkpt lat="48.83441" lon="1.07596">
        <ele>159</ele>
        <time>2016-05-05T08:37:28.000Z</time>
      </trkpt>
      <trkpt lat="48.83441" lon="1.07595">
        <ele>159</ele>
        <time>2016-05-05T08:37:31.000Z</time>
      </trkpt>
      <trkpt lat="48.8346" lon="1.07551">
        <ele>159</ele>
        <time>2016-05-05T08:38:24.000Z</time>
      </trkpt>
      <trkpt lat="48.83461" lon="1.07549">
        <ele>159</ele>
        <time>2016-05-05T08:38:26.000Z</time>
      </trkpt>
      <trkpt lat="48.83466" lon="1.07538">
        <ele>159</ele>
        <time>2016-05-05T08:38:33.000Z</time>
      </trkpt>
      <trkpt lat="48.83474" lon="1.07517">
        <ele>159</ele>
        <time>2016-05-05T08:38:46.000Z</time>
      </trkpt>
      <trkpt lat="48.83483" lon="1.07496">
        <ele>158.80000305176</ele>
        <time>2016-05-05T08:38:59.000Z</time>
      </trkpt>
      <trkpt lat="48.8349" lon="1.07478">
        <ele>158.39999389648</ele>
        <time>2016-05-05T08:39:10.000Z</time>
      </trkpt>
      <trkpt lat="48.83497" lon="1.07462">
        <ele>158.19999694824</ele>
        <time>2016-05-05T08:39:20.000Z</time>
      </trkpt>
      <trkpt lat="48.83504" lon="1.07444">
        <ele>158</ele>
        <time>2016-05-05T08:39:31.000Z</time>
      </trkpt>
      <trkpt lat="48.8351" lon="1.07429">
        <ele>158</ele>
        <time>2016-05-05T08:39:40.000Z</time>
      </trkpt>
      <trkpt lat="48.83516" lon="1.07415">
        <ele>158</ele>
        <time>2016-05-05T08:39:49.000Z</time>
      </trkpt>
      <trkpt lat="48.83523" lon="1.07399">
        <ele>158</ele>
        <time>2016-05-05T08:40:00.000Z</time>
      </trkpt>
      <trkpt lat="48.83529" lon="1.07386">
        <ele>158</ele>
        <time>2016-05-05T08:40:09.000Z</time>
      </trkpt>
      <trkpt lat="48.83535" lon="1.07371">
        <ele>157.80000305176</ele>
        <time>2016-05-05T08:40:18.000Z</time>
      </trkpt>
      <trkpt lat="48.83542" lon="1.07352">
        <ele>157.60000610352</ele>
        <time>2016-05-05T08:40:30.000Z</time>
      </trkpt>
      <trkpt lat="48.83548" lon="1.07337">
        <ele>157.39999389648</ele>
        <time>2016-05-05T08:40:39.000Z</time>
      </trkpt>
      <trkpt lat="48.83552" lon="1.07325">
        <ele>157.39999389648</ele>
        <time>2016-05-05T08:40:47.000Z</time>
      </trkpt>
      <trkpt lat="48.83558" lon="1.07311">
        <ele>157.39999389648</ele>
        <time>2016-05-05T08:40:56.000Z</time>
      </trkpt>
      <trkpt lat="48.83564" lon="1.07296">
        <ele>157.80000305176</ele>
        <time>2016-05-05T08:41:05.000Z</time>
      </trkpt>
      <trkpt lat="48.8357" lon="1.07278">
        <ele>158.39999389648</ele>
        <time>2016-05-05T08:41:16.000Z</time>
      </trkpt>
      <trkpt lat="48.83577" lon="1.07262">
        <ele>158.39999389648</ele>
        <time>2016-05-05T08:41:27.000Z</time>
      </trkpt>
      <trkpt lat="48.8358" lon="1.07255">
        <ele>158.39999389648</ele>
        <time>2016-05-05T08:41:33.000Z</time>
      </trkpt>
      <trkpt lat="48.8358" lon="1.07255">
        <ele>158.39999389648</ele>
        <time>2016-05-05T08:41:34.000Z</time>
      </trkpt>
      <trkpt lat="48.83591" lon="1.07224">
        <ele>158.19999694824</ele>
        <time>2016-05-05T08:42:38.000Z</time>
      </trkpt>
      <trkpt lat="48.83593" lon="1.07219">
        <ele>158.19999694824</ele>
        <time>2016-05-05T08:42:41.000Z</time>
      </trkpt>
      <trkpt lat="48.83598" lon="1.07207">
        <ele>158</ele>
        <time>2016-05-05T08:42:49.000Z</time>
      </trkpt>
      <trkpt lat="48.83601" lon="1.072">
        <ele>158</ele>
        <time>2016-05-05T08:42:54.000Z</time>
      </trkpt>
      <trkpt lat="48.83606" lon="1.07189">
        <ele>158</ele>
        <time>2016-05-05T08:43:02.000Z</time>
      </trkpt>
      <trkpt lat="48.83635" lon="1.07117">
        <ele>158.60000610352</ele>
        <time>2016-05-05T08:49:28.000Z</time>
      </trkpt>
      <trkpt lat="48.83638" lon="1.07109">
        <ele>158.80000305176</ele>
        <time>2016-05-05T08:49:34.000Z</time>
      </trkpt>
      <trkpt lat="48.83639" lon="1.07108">
        <ele>158.80000305176</ele>
        <time>2016-05-05T08:49:35.000Z</time>
      </trkpt>
      <trkpt lat="48.83643" lon="1.07098">
        <ele>159</ele>
        <time>2016-05-05T08:49:42.000Z</time>
      </trkpt>
      <trkpt lat="48.83644" lon="1.07095">
        <ele>159</ele>
        <time>2016-05-05T08:49:44.000Z</time>
      </trkpt>
      <trkpt lat="48.83648" lon="1.07086">
        <ele>159</ele>
        <time>2016-05-05T08:49:50.000Z</time>
      </trkpt>
      <trkpt lat="48.83648" lon="1.07085">
        <ele>159</ele>
        <time>2016-05-05T08:49:51.000Z</time>
      </trkpt>
      <trkpt lat="48.8365" lon="1.0708">
        <ele>159</ele>
        <time>2016-05-05T08:49:54.000Z</time>
      </trkpt>
      <trkpt lat="48.83654" lon="1.07072">
        <ele>159</ele>
        <time>2016-05-05T08:50:00.000Z</time>
      </trkpt>
      <trkpt lat="48.83658" lon="1.07063">
        <ele>159</ele>
        <time>2016-05-05T08:50:06.000Z</time>
      </trkpt>
      <trkpt lat="48.83661" lon="1.07056">
        <ele>159</ele>
        <time>2016-05-05T08:50:13.000Z</time>
      </trkpt>
      <trkpt lat="48.83672" lon="1.07031">
        <ele>159.19999694824</ele>
        <time>2016-05-05T08:50:53.000Z</time>
      </trkpt>
      <trkpt lat="48.83673" lon="1.07027">
        <ele>159.19999694824</ele>
        <time>2016-05-05T08:50:56.000Z</time>
      </trkpt>
      <trkpt lat="48.83679" lon="1.07012">
        <ele>159.39999389648</ele>
        <time>2016-05-05T08:51:05.000Z</time>
      </trkpt>
      <trkpt lat="48.8368" lon="1.07011">
        <ele>159.39999389648</ele>
        <time>2016-05-05T08:51:06.000Z</time>
      </trkpt>
      <trkpt lat="48.83687" lon="1.06995">
        <ele>159.80000305176</ele>
        <time>2016-05-05T08:51:17.000Z</time>
      </trkpt>
      <trkpt lat="48.83693" lon="1.06982">
        <ele>160</ele>
        <time>2016-05-05T08:51:26.000Z</time>
      </trkpt>
      <trkpt lat="48.837" lon="1.06964">
        <ele>160</ele>
        <time>2016-05-05T08:51:37.000Z</time>
      </trkpt>
      <trkpt lat="48.83706" lon="1.06947">
        <ele>160</ele>
        <time>2016-05-05T08:51:47.000Z</time>
      </trkpt>
      <trkpt lat="48.83715" lon="1.06926">
        <ele>160</ele>
        <time>2016-05-05T08:52:00.000Z</time>
      </trkpt>
      <trkpt lat="48.83724" lon="1.06904">
        <ele>160</ele>
        <time>2016-05-05T08:52:13.000Z</time>
      </trkpt>
      <trkpt lat="48.83732" lon="1.06884">
        <ele>160.19999694824</ele>
        <time>2016-05-05T08:52:25.000Z</time>
      </trkpt>
      <trkpt lat="48.83738" lon="1.0687">
        <ele>160.19999694824</ele>
        <time>2016-05-05T08:52:34.000Z</time>
      </trkpt>
      <trkpt lat="48.83743" lon="1.06856">
        <ele>160.39999389648</ele>
        <time>2016-05-05T08:52:43.000Z</time>
      </trkpt>
      <trkpt lat="48.83748" lon="1.06844">
        <ele>160.19999694824</ele>
        <time>2016-05-05T08:52:51.000Z</time>
      </trkpt>
      <trkpt lat="48.83754" lon="1.06829">
        <ele>160.19999694824</ele>
        <time>2016-05-05T08:53:01.000Z</time>
      </trkpt>
      <trkpt lat="48.83758" lon="1.06816">
        <ele>160.19999694824</ele>
        <time>2016-05-05T08:53:09.000Z</time>
      </trkpt>
      <trkpt lat="48.83759" lon="1.06812">
        <ele>160.19999694824</ele>
        <time>2016-05-05T08:53:13.000Z</time>
      </trkpt>
      <trkpt lat="48.83761" lon="1.06806">
        <ele>160.19999694824</ele>
        <time>2016-05-05T08:53:17.000Z</time>
      </trkpt>
      <trkpt lat="48.83766" lon="1.06788">
        <ele>160</ele>
        <time>2016-05-05T08:53:27.000Z</time>
      </trkpt>
      <trkpt lat="48.8377" lon="1.06771">
        <ele>159.60000610352</ele>
        <time>2016-05-05T08:53:37.000Z</time>
      </trkpt>
      <trkpt lat="48.83774" lon="1.06756">
        <ele>159.39999389648</ele>
        <time>2016-05-05T08:53:46.000Z</time>
      </trkpt>
      <trkpt lat="48.83778" lon="1.0674">
        <ele>159.19999694824</ele>
        <time>2016-05-05T08:53:55.000Z</time>
      </trkpt>
      <trkpt lat="48.83779" lon="1.06739">
        <ele>159</ele>
        <time>2016-05-05T08:53:56.000Z</time>
      </trkpt>
      <trkpt lat="48.83779" lon="1.06739">
        <ele>159</ele>
        <time>2016-05-05T08:53:58.000Z</time>
      </trkpt>
      <trkpt lat="48.83784" lon="1.06716">
        <ele>159.19999694824</ele>
        <time>2016-05-05T08:54:12.000Z</time>
      </trkpt>
      <trkpt lat="48.83784" lon="1.06715">
        <ele>159.19999694824</ele>
        <time>2016-05-05T08:54:13.000Z</time>
      </trkpt>
      <trkpt lat="48.83787" lon="1.06701">
        <ele>159.39999389648</ele>
        <time>2016-05-05T08:54:21.000Z</time>
      </trkpt>
      <trkpt lat="48.83791" lon="1.06686">
        <ele>159.80000305176</ele>
        <time>2016-05-05T08:54:30.000Z</time>
      </trkpt>
      <trkpt lat="48.83795" lon="1.06667">
        <ele>160</ele>
        <time>2016-05-05T08:54:41.000Z</time>
      </trkpt>
      <trkpt lat="48.83798" lon="1.06654">
        <ele>159.80000305176</ele>
        <time>2016-05-05T08:54:49.000Z</time>
      </trkpt>
      <trkpt lat="48.83801" lon="1.06642">
        <ele>159.60000610352</ele>
        <time>2016-05-05T08:54:56.000Z</time>
      </trkpt>
      <trkpt lat="48.83805" lon="1.06627">
        <ele>160</ele>
        <time>2016-05-05T08:55:05.000Z</time>
      </trkpt>
      <trkpt lat="48.8381" lon="1.06608">
        <ele>160.39999389648</ele>
        <time>2016-05-05T08:55:16.000Z</time>
      </trkpt>
      <trkpt lat="48.83814" lon="1.06592">
        <ele>160.80000305176</ele>
        <time>2016-05-05T08:55:25.000Z</time>
      </trkpt>
      <trkpt lat="48.83818" lon="1.06576">
        <ele>161</ele>
        <time>2016-05-05T08:55:34.000Z</time>
      </trkpt>
      <trkpt lat="48.83822" lon="1.0656">
        <ele>161.39999389648</ele>
        <time>2016-05-05T08:55:44.000Z</time>
      </trkpt>
      <trkpt lat="48.83838" lon="1.06495">
        <ele>161.80000305176</ele>
        <time>2016-05-05T08:56:52.000Z</time>
      </trkpt>
      <trkpt lat="48.83839" lon="1.0649">
        <ele>161.80000305176</ele>
        <time>2016-05-05T08:56:55.000Z</time>
      </trkpt>
      <trkpt lat="48.83842" lon="1.06474">
        <ele>162</ele>
        <time>2016-05-05T08:57:04.000Z</time>
      </trkpt>
      <trkpt lat="48.83847" lon="1.06451">
        <ele>162.19999694824</ele>
        <time>2016-05-05T08:57:17.000Z</time>
      </trkpt>
      <trkpt lat="48.83848" lon="1.06445">
        <ele>162.39999389648</ele>
        <time>2016-05-05T08:57:22.000Z</time>
      </trkpt>
      <trkpt lat="48.83861" lon="1.06401">
        <ele>162.80000305176</ele>
        <time>2016-05-05T08:58:11.000Z</time>
      </trkpt>
      <trkpt lat="48.83862" lon="1.064">
        <ele>162.80000305176</ele>
        <time>2016-05-05T08:58:12.000Z</time>
      </trkpt>
      <trkpt lat="48.83863" lon="1.06397">
        <ele>162.80000305176</ele>
        <time>2016-05-05T08:58:15.000Z</time>
      </trkpt>
      <trkpt lat="48.83863" lon="1.06397">
        <ele>162.60000610352</ele>
        <time>2016-05-05T08:58:17.000Z</time>
      </trkpt>
      <trkpt lat="48.83888" lon="1.06321">
        <ele>161.60000610352</ele>
        <time>2016-05-05T09:00:04.000Z</time>
      </trkpt>
      <trkpt lat="48.83889" lon="1.06316">
        <ele>161.60000610352</ele>
        <time>2016-05-05T09:00:07.000Z</time>
      </trkpt>
      <trkpt lat="48.83897" lon="1.06294">
        <ele>161.19999694824</ele>
        <time>2016-05-05T09:00:20.000Z</time>
      </trkpt>
      <trkpt lat="48.83902" lon="1.06277">
        <ele>160.60000610352</ele>
        <time>2016-05-05T09:00:29.000Z</time>
      </trkpt>
      <trkpt lat="48.83906" lon="1.06264">
        <ele>160.60000610352</ele>
        <time>2016-05-05T09:00:37.000Z</time>
      </trkpt>
      <trkpt lat="48.83911" lon="1.06248">
        <ele>160.80000305176</ele>
        <time>2016-05-05T09:00:46.000Z</time>
      </trkpt>
      <trkpt lat="48.83917" lon="1.06233">
        <ele>161</ele>
        <time>2016-05-05T09:00:55.000Z</time>
      </trkpt>
      <trkpt lat="48.83924" lon="1.06214">
        <ele>161</ele>
        <time>2016-05-05T09:01:06.000Z</time>
      </trkpt>
      <trkpt lat="48.83929" lon="1.06199">
        <ele>161.19999694824</ele>
        <time>2016-05-05T09:01:15.000Z</time>
      </trkpt>
      <trkpt lat="48.83933" lon="1.06187">
        <ele>161.39999389648</ele>
        <time>2016-05-05T09:01:22.000Z</time>
      </trkpt>
      <trkpt lat="48.83939" lon="1.06169">
        <ele>161.60000610352</ele>
        <time>2016-05-05T09:01:33.000Z</time>
      </trkpt>
      <trkpt lat="48.83944" lon="1.06153">
        <ele>161.80000305176</ele>
        <time>2016-05-05T09:01:43.000Z</time>
      </trkpt>
      <trkpt lat="48.83949" lon="1.06138">
        <ele>162</ele>
        <time>2016-05-05T09:01:53.000Z</time>
      </trkpt>
      <trkpt lat="48.83951" lon="1.06132">
        <ele>162</ele>
        <time>2016-05-05T09:01:58.000Z</time>
      </trkpt>
      <trkpt lat="48.8396" lon="1.06104">
        <ele>162.19999694824</ele>
        <time>2016-05-05T09:02:21.000Z</time>
      </trkpt>
      <trkpt lat="48.83967" lon="1.06086">
        <ele>162.39999389648</ele>
        <time>2016-05-05T09:02:32.000Z</time>
      </trkpt>
      <trkpt lat="48.83972" lon="1.06072">
        <ele>162.19999694824</ele>
        <time>2016-05-05T09:02:41.000Z</time>
      </trkpt>
      <trkpt lat="48.83978" lon="1.06056">
        <ele>162</ele>
        <time>2016-05-05T09:02:51.000Z</time>
      </trkpt>
      <trkpt lat="48.83985" lon="1.06038">
        <ele>161.19999694824</ele>
        <time>2016-05-05T09:03:02.000Z</time>
      </trkpt>
      <trkpt lat="48.83992" lon="1.0602">
        <ele>160.60000610352</ele>
        <time>2016-05-05T09:03:13.000Z</time>
      </trkpt>
      <trkpt lat="48.83998" lon="1.06002">
        <ele>160.39999389648</ele>
        <time>2016-05-05T09:03:24.000Z</time>
      </trkpt>
      <trkpt lat="48.84005" lon="1.05983">
        <ele>160</ele>
        <time>2016-05-05T09:03:36.000Z</time>
      </trkpt>
      <trkpt lat="48.84011" lon="1.05967">
        <ele>160</ele>
        <time>2016-05-05T09:03:46.000Z</time>
      </trkpt>
      <trkpt lat="48.84018" lon="1.05947">
        <ele>159.80000305176</ele>
        <time>2016-05-05T09:03:59.000Z</time>
      </trkpt>
      <trkpt lat="48.84025" lon="1.0593">
        <ele>159.39999389648</ele>
        <time>2016-05-05T09:04:10.000Z</time>
      </trkpt>
      <trkpt lat="48.84028" lon="1.0592">
        <ele>159.19999694824</ele>
        <time>2016-05-05T09:04:17.000Z</time>
      </trkpt>
      <trkpt lat="48.84033" lon="1.05906">
        <ele>159</ele>
        <time>2016-05-05T09:04:26.000Z</time>
      </trkpt>
      <trkpt lat="48.84039" lon="1.0589">
        <ele>159</ele>
        <time>2016-05-05T09:04:36.000Z</time>
      </trkpt>
      <trkpt lat="48.84041" lon="1.05883">
        <ele>159</ele>
        <time>2016-05-05T09:04:41.000Z</time>
      </trkpt>
      <trkpt lat="48.84042" lon="1.05883">
        <ele>159</ele>
        <time>2016-05-05T09:04:42.000Z</time>
      </trkpt>
      <trkpt lat="48.8406" lon="1.05832">
        <ele>158.80000305176</ele>
        <time>2016-05-05T09:05:30.000Z</time>
      </trkpt>
      <trkpt lat="48.84062" lon="1.05825">
        <ele>158.80000305176</ele>
        <time>2016-05-05T09:05:34.000Z</time>
      </trkpt>
      <trkpt lat="48.84069" lon="1.05809">
        <ele>158.39999389648</ele>
        <time>2016-05-05T09:05:44.000Z</time>
      </trkpt>
      <trkpt lat="48.84069" lon="1.05807">
        <ele>158.39999389648</ele>
        <time>2016-05-05T09:05:45.000Z</time>
      </trkpt>
      <trkpt lat="48.84072" lon="1.05799">
        <ele>158.39999389648</ele>
        <time>2016-05-05T09:05:50.000Z</time>
      </trkpt>
      <trkpt lat="48.84073" lon="1.05797">
        <ele>158.39999389648</ele>
        <time>2016-05-05T09:05:51.000Z</time>
      </trkpt>
      <trkpt lat="48.84078" lon="1.05783">
        <ele>158.39999389648</ele>
        <time>2016-05-05T09:06:00.000Z</time>
      </trkpt>
      <trkpt lat="48.84083" lon="1.0577">
        <ele>158</ele>
        <time>2016-05-05T09:06:08.000Z</time>
      </trkpt>
      <trkpt lat="48.84089" lon="1.05754">
        <ele>157.80000305176</ele>
        <time>2016-05-05T09:06:18.000Z</time>
      </trkpt>
      <trkpt lat="48.84093" lon="1.05743">
        <ele>157.60000610352</ele>
        <time>2016-05-05T09:06:25.000Z</time>
      </trkpt>
      <trkpt lat="48.841" lon="1.05725">
        <ele>157.19999694824</ele>
        <time>2016-05-05T09:06:36.000Z</time>
      </trkpt>
      <trkpt lat="48.84105" lon="1.05709">
        <ele>157.39999389648</ele>
        <time>2016-05-05T09:06:46.000Z</time>
      </trkpt>
      <trkpt lat="48.84111" lon="1.05693">
        <ele>158</ele>
        <time>2016-05-05T09:06:56.000Z</time>
      </trkpt>
      <trkpt lat="48.84115" lon="1.0568">
        <ele>158.39999389648</ele>
        <time>2016-05-05T09:07:04.000Z</time>
      </trkpt>
      <trkpt lat="48.8412" lon="1.05663">
        <ele>158.80000305176</ele>
        <time>2016-05-05T09:07:14.000Z</time>
      </trkpt>
      <trkpt lat="48.84123" lon="1.05651">
        <ele>159</ele>
        <time>2016-05-05T09:07:20.000Z</time>
      </trkpt>
      <trkpt lat="48.84124" lon="1.05643">
        <ele>159</ele>
        <time>2016-05-05T09:07:24.000Z</time>
      </trkpt>
      <trkpt lat="48.84126" lon="1.05639">
        <ele>159</ele>
        <time>2016-05-05T09:07:27.000Z</time>
      </trkpt>
      <trkpt lat="48.84127" lon="1.05635">
        <ele>159</ele>
        <time>2016-05-05T09:07:29.000Z</time>
      </trkpt>
      <trkpt lat="48.84132" lon="1.05623">
        <ele>159</ele>
        <time>2016-05-05T09:07:37.000Z</time>
      </trkpt>
      <trkpt lat="48.84135" lon="1.05612">
        <ele>159</ele>
        <time>2016-05-05T09:07:44.000Z</time>
      </trkpt>
      <trkpt lat="48.8414" lon="1.05599">
        <ele>159</ele>
        <time>2016-05-05T09:07:52.000Z</time>
      </trkpt>
      <trkpt lat="48.84144" lon="1.05589">
        <ele>159.19999694824</ele>
        <time>2016-05-05T09:07:58.000Z</time>
      </trkpt>
      <trkpt lat="48.84146" lon="1.05584">
        <ele>159.19999694824</ele>
        <time>2016-05-05T09:08:03.000Z</time>
      </trkpt>
      <trkpt lat="48.84161" lon="1.05549">
        <ele>159.60000610352</ele>
        <time>2016-05-05T09:09:04.000Z</time>
      </trkpt>
      <trkpt lat="48.84167" lon="1.05532">
        <ele>159.60000610352</ele>
        <time>2016-05-05T09:09:15.000Z</time>
      </trkpt>
      <trkpt lat="48.84171" lon="1.05521">
        <ele>159.60000610352</ele>
        <time>2016-05-05T09:09:22.000Z</time>
      </trkpt>
      <trkpt lat="48.84177" lon="1.0551">
        <ele>159.39999389648</ele>
        <time>2016-05-05T09:09:29.000Z</time>
      </trkpt>
      <trkpt lat="48.84178" lon="1.05506">
        <ele>159.39999389648</ele>
        <time>2016-05-05T09:09:32.000Z</time>
      </trkpt>
      <trkpt lat="48.8418" lon="1.05502">
        <ele>159.39999389648</ele>
        <time>2016-05-05T09:09:36.000Z</time>
      </trkpt>
      <trkpt lat="48.84194" lon="1.05468">
        <ele>159</ele>
        <time>2016-05-05T09:10:03.000Z</time>
      </trkpt>
      <trkpt lat="48.84195" lon="1.05465">
        <ele>159</ele>
        <time>2016-05-05T09:10:05.000Z</time>
      </trkpt>
      <trkpt lat="48.84201" lon="1.05452">
        <ele>159.19999694824</ele>
        <time>2016-05-05T09:10:15.000Z</time>
      </trkpt>
      <trkpt lat="48.84201" lon="1.05451">
        <ele>159.19999694824</ele>
        <time>2016-05-05T09:10:16.000Z</time>
      </trkpt>
      <trkpt lat="48.84204" lon="1.05446">
        <ele>159.19999694824</ele>
        <time>2016-05-05T09:10:21.000Z</time>
      </trkpt>
      <trkpt lat="48.84207" lon="1.05437">
        <ele>159.19999694824</ele>
        <time>2016-05-05T09:10:27.000Z</time>
      </trkpt>
      <trkpt lat="48.8421" lon="1.05431">
        <ele>159.19999694824</ele>
        <time>2016-05-05T09:10:31.000Z</time>
      </trkpt>
      <trkpt lat="48.84212" lon="1.05424">
        <ele>159.19999694824</ele>
        <time>2016-05-05T09:10:35.000Z</time>
      </trkpt>
      <trkpt lat="48.84214" lon="1.0541">
        <ele>159.19999694824</ele>
        <time>2016-05-05T09:10:43.000Z</time>
      </trkpt>
      <trkpt lat="48.84215" lon="1.05402">
        <ele>159.39999389648</ele>
        <time>2016-05-05T09:10:48.000Z</time>
      </trkpt>
      <trkpt lat="48.84216" lon="1.05395">
        <ele>159.39999389648</ele>
        <time>2016-05-05T09:10:53.000Z</time>
      </trkpt>
      <trkpt lat="48.84216" lon="1.05393">
        <ele>159.39999389648</ele>
        <time>2016-05-05T09:10:55.000Z</time>
      </trkpt>
      <trkpt lat="48.84216" lon="1.05392">
        <ele>159.39999389648</ele>
        <time>2016-05-05T09:10:56.000Z</time>
      </trkpt>
      <trkpt lat="48.8422" lon="1.05329">
        <ele>160</ele>
        <time>2016-05-05T09:11:48.000Z</time>
      </trkpt>
      <trkpt lat="48.8422" lon="1.05326">
        <ele>160</ele>
        <time>2016-05-05T09:11:49.000Z</time>
      </trkpt>
      <trkpt lat="48.8422" lon="1.05313">
        <ele>160</ele>
        <time>2016-05-05T09:11:56.000Z</time>
      </trkpt>
      <trkpt lat="48.8422" lon="1.05307">
        <ele>160</ele>
        <time>2016-05-05T09:11:59.000Z</time>
      </trkpt>
      <trkpt lat="48.8422" lon="1.05303">
        <ele>160.19999694824</ele>
        <time>2016-05-05T09:12:01.000Z</time>
      </trkpt>
      <trkpt lat="48.8422" lon="1.05291">
        <ele>160.39999389648</ele>
        <time>2016-05-05T09:12:07.000Z</time>
      </trkpt>
      <trkpt lat="48.8422" lon="1.05276">
        <ele>160.80000305176</ele>
        <time>2016-05-05T09:12:16.000Z</time>
      </trkpt>
      <trkpt lat="48.84221" lon="1.05268">
        <ele>161</ele>
        <time>2016-05-05T09:12:20.000Z</time>
      </trkpt>
      <trkpt lat="48.84222" lon="1.05263">
        <ele>161</ele>
        <time>2016-05-05T09:12:24.000Z</time>
      </trkpt>
      <trkpt lat="48.84221" lon="1.0526">
        <ele>161.19999694824</ele>
        <time>2016-05-05T09:12:26.000Z</time>
      </trkpt>
      <trkpt lat="48.8422" lon="1.05256">
        <ele>161.19999694824</ele>
        <time>2016-05-05T09:12:28.000Z</time>
      </trkpt>
      <trkpt lat="48.8422" lon="1.05255">
        <ele>161.39999389648</ele>
        <time>2016-05-05T09:12:30.000Z</time>
      </trkpt>
      <trkpt lat="48.84219" lon="1.05253">
        <ele>161.39999389648</ele>
        <time>2016-05-05T09:12:31.000Z</time>
      </trkpt>
      <trkpt lat="48.8422" lon="1.05249">
        <ele>161.60000610352</ele>
        <time>2016-05-05T09:12:34.000Z</time>
      </trkpt>
      <trkpt lat="48.84221" lon="1.05245">
        <ele>161.60000610352</ele>
        <time>2016-05-05T09:12:36.000Z</time>
      </trkpt>
      <trkpt lat="48.84221" lon="1.05237">
        <ele>162</ele>
        <time>2016-05-05T09:12:42.000Z</time>
      </trkpt>
      <trkpt lat="48.84222" lon="1.05189">
        <ele>162</ele>
        <time>2016-05-05T09:13:22.000Z</time>
      </trkpt>
      <trkpt lat="48.84221" lon="1.05174">
        <ele>161.80000305176</ele>
        <time>2016-05-05T09:13:30.000Z</time>
      </trkpt>
      <trkpt lat="48.84222" lon="1.05153">
        <ele>161.80000305176</ele>
        <time>2016-05-05T09:13:41.000Z</time>
      </trkpt>
      <trkpt lat="48.84222" lon="1.05132">
        <ele>161.80000305176</ele>
        <time>2016-05-05T09:13:52.000Z</time>
      </trkpt>
      <trkpt lat="48.84222" lon="1.05118">
        <ele>161.80000305176</ele>
        <time>2016-05-05T09:14:00.000Z</time>
      </trkpt>
      <trkpt lat="48.84222" lon="1.05099">
        <ele>161.80000305176</ele>
        <time>2016-05-05T09:14:10.000Z</time>
      </trkpt>
      <trkpt lat="48.84222" lon="1.05085">
        <ele>161.80000305176</ele>
        <time>2016-05-05T09:14:18.000Z</time>
      </trkpt>
      <trkpt lat="48.84223" lon="1.05072">
        <ele>161.60000610352</ele>
        <time>2016-05-05T09:14:25.000Z</time>
      </trkpt>
      <trkpt lat="48.84223" lon="1.05071">
        <ele>161.60000610352</ele>
        <time>2016-05-05T09:14:26.000Z</time>
      </trkpt>
      <trkpt lat="48.84224" lon="1.05061">
        <ele>161.39999389648</ele>
        <time>2016-05-05T09:14:32.000Z</time>
      </trkpt>
      <trkpt lat="48.84224" lon="1.05044">
        <ele>161.60000610352</ele>
        <time>2016-05-05T09:14:41.000Z</time>
      </trkpt>
      <trkpt lat="48.84223" lon="1.05029">
        <ele>161.80000305176</ele>
        <time>2016-05-05T09:14:50.000Z</time>
      </trkpt>
      <trkpt lat="48.84223" lon="1.05028">
        <ele>161.80000305176</ele>
        <time>2016-05-05T09:14:51.000Z</time>
      </trkpt>
      <trkpt lat="48.84225" lon="1.05021">
        <ele>161.80000305176</ele>
        <time>2016-05-05T09:14:55.000Z</time>
      </trkpt>
      <trkpt lat="48.84226" lon="1.05014">
        <ele>162</ele>
        <time>2016-05-05T09:14:59.000Z</time>
      </trkpt>
      <trkpt lat="48.84227" lon="1.05011">
        <ele>162</ele>
        <time>2016-05-05T09:15:01.000Z</time>
      </trkpt>
      <trkpt lat="48.84228" lon="1.05001">
        <ele>162</ele>
        <time>2016-05-05T09:15:06.000Z</time>
      </trkpt>
      <trkpt lat="48.84228" lon="1.05">
        <ele>162</ele>
        <time>2016-05-05T09:15:07.000Z</time>
      </trkpt>
      <trkpt lat="48.84229" lon="1.04988">
        <ele>162</ele>
        <time>2016-05-05T09:15:14.000Z</time>
      </trkpt>
      <trkpt lat="48.8423" lon="1.04975">
        <ele>162</ele>
        <time>2016-05-05T09:15:21.000Z</time>
      </trkpt>
      <trkpt lat="48.84231" lon="1.04973">
        <ele>162.19999694824</ele>
        <time>2016-05-05T09:15:22.000Z</time>
      </trkpt>
      <trkpt lat="48.84233" lon="1.04966">
        <ele>162.60000610352</ele>
        <time>2016-05-05T09:15:26.000Z</time>
      </trkpt>
      <trkpt lat="48.84236" lon="1.04954">
        <ele>163.60000610352</ele>
        <time>2016-05-05T09:15:33.000Z</time>
      </trkpt>
      <trkpt lat="48.84238" lon="1.04943">
        <ele>164.39999389648</ele>
        <time>2016-05-05T09:15:40.000Z</time>
      </trkpt>
      <trkpt lat="48.84239" lon="1.04942">
        <ele>164.39999389648</ele>
        <time>2016-05-05T09:15:41.000Z</time>
      </trkpt>
      <trkpt lat="48.8424" lon="1.04935">
        <ele>164.60000610352</ele>
        <time>2016-05-05T09:15:46.000Z</time>
      </trkpt>
      <trkpt lat="48.84242" lon="1.04924">
        <ele>165</ele>
        <time>2016-05-05T09:15:53.000Z</time>
      </trkpt>
      <trkpt lat="48.84242" lon="1.04923">
        <ele>165</ele>
        <time>2016-05-05T09:15:54.000Z</time>
      </trkpt>
      <trkpt lat="48.84245" lon="1.04911">
        <ele>165.39999389648</ele>
        <time>2016-05-05T09:16:01.000Z</time>
      </trkpt>
      <trkpt lat="48.84245" lon="1.04909">
        <ele>165.39999389648</ele>
        <time>2016-05-05T09:16:02.000Z</time>
      </trkpt>
      <trkpt lat="48.84247" lon="1.04897">
        <ele>165.80000305176</ele>
        <time>2016-05-05T09:16:08.000Z</time>
      </trkpt>
      <trkpt lat="48.84248" lon="1.04886">
        <ele>165.80000305176</ele>
        <time>2016-05-05T09:16:14.000Z</time>
      </trkpt>
      <trkpt lat="48.84249" lon="1.04883">
        <ele>165.80000305176</ele>
        <time>2016-05-05T09:16:16.000Z</time>
      </trkpt>
      <trkpt lat="48.8425" lon="1.04877">
        <ele>165.80000305176</ele>
        <time>2016-05-05T09:16:19.000Z</time>
      </trkpt>
      <trkpt lat="48.84253" lon="1.04867">
        <ele>165.80000305176</ele>
        <time>2016-05-05T09:16:25.000Z</time>
      </trkpt>
      <trkpt lat="48.84256" lon="1.04857">
        <ele>165.80000305176</ele>
        <time>2016-05-05T09:16:31.000Z</time>
      </trkpt>
      <trkpt lat="48.84261" lon="1.04844">
        <ele>165.80000305176</ele>
        <time>2016-05-05T09:16:38.000Z</time>
      </trkpt>
      <trkpt lat="48.84264" lon="1.04828">
        <ele>166</ele>
        <time>2016-05-05T09:16:46.000Z</time>
      </trkpt>
      <trkpt lat="48.84269" lon="1.04814">
        <ele>166</ele>
        <time>2016-05-05T09:16:54.000Z</time>
      </trkpt>
      <trkpt lat="48.84275" lon="1.04799">
        <ele>165.60000610352</ele>
        <time>2016-05-05T09:17:03.000Z</time>
      </trkpt>
      <trkpt lat="48.84277" lon="1.04792">
        <ele>165.39999389648</ele>
        <time>2016-05-05T09:17:08.000Z</time>
      </trkpt>
      <trkpt lat="48.84278" lon="1.0479">
        <ele>165.39999389648</ele>
        <time>2016-05-05T09:17:09.000Z</time>
      </trkpt>
      <trkpt lat="48.84281" lon="1.04778">
        <ele>165</ele>
        <time>2016-05-05T09:17:16.000Z</time>
      </trkpt>
      <trkpt lat="48.84285" lon="1.04766">
        <ele>164.60000610352</ele>
        <time>2016-05-05T09:17:23.000Z</time>
      </trkpt>
      <trkpt lat="48.84285" lon="1.04765">
        <ele>164.39999389648</ele>
        <time>2016-05-05T09:17:25.000Z</time>
      </trkpt>
      <trkpt lat="48.84297" lon="1.04742">
        <ele>163.80000305176</ele>
        <time>2016-05-05T09:17:48.000Z</time>
      </trkpt>
      <trkpt lat="48.84298" lon="1.0474">
        <ele>163.60000610352</ele>
        <time>2016-05-05T09:17:49.000Z</time>
      </trkpt>
      <trkpt lat="48.84302" lon="1.04733">
        <ele>163.60000610352</ele>
        <time>2016-05-05T09:17:53.000Z</time>
      </trkpt>
      <trkpt lat="48.84303" lon="1.0473">
        <ele>163.60000610352</ele>
        <time>2016-05-05T09:17:55.000Z</time>
      </trkpt>
      <trkpt lat="48.84311" lon="1.04719">
        <ele>163.60000610352</ele>
        <time>2016-05-05T09:18:03.000Z</time>
      </trkpt>
      <trkpt lat="48.84313" lon="1.04715">
        <ele>163.60000610352</ele>
        <time>2016-05-05T09:18:06.000Z</time>
      </trkpt>
      <trkpt lat="48.84316" lon="1.0471">
        <ele>163.39999389648</ele>
        <time>2016-05-05T09:18:09.000Z</time>
      </trkpt>
      <trkpt lat="48.84321" lon="1.04703">
        <ele>163.39999389648</ele>
        <time>2016-05-05T09:18:14.000Z</time>
      </trkpt>
      <trkpt lat="48.84325" lon="1.04697">
        <ele>163.39999389648</ele>
        <time>2016-05-05T09:18:19.000Z</time>
      </trkpt>
      <trkpt lat="48.84332" lon="1.0469">
        <ele>163</ele>
        <time>2016-05-05T09:18:25.000Z</time>
      </trkpt>
      <trkpt lat="48.84338" lon="1.04684">
        <ele>162.60000610352</ele>
        <time>2016-05-05T09:18:31.000Z</time>
      </trkpt>
      <trkpt lat="48.84344" lon="1.04678">
        <ele>162.19999694824</ele>
        <time>2016-05-05T09:18:36.000Z</time>
      </trkpt>
      <trkpt lat="48.84353" lon="1.04669">
        <ele>161.80000305176</ele>
        <time>2016-05-05T09:18:44.000Z</time>
      </trkpt>
      <trkpt lat="48.84355" lon="1.04668">
        <ele>161.60000610352</ele>
        <time>2016-05-05T09:18:47.000Z</time>
      </trkpt>
      <trkpt lat="48.84355" lon="1.04668">
        <ele>161.60000610352</ele>
        <time>2016-05-05T09:18:49.000Z</time>
      </trkpt>
      <trkpt lat="48.84371" lon="1.04654">
        <ele>160.80000305176</ele>
        <time>2016-05-05T09:19:18.000Z</time>
      </trkpt>
      <trkpt lat="48.84372" lon="1.04653">
        <ele>160.80000305176</ele>
        <time>2016-05-05T09:19:19.000Z</time>
      </trkpt>
      <trkpt lat="48.84375" lon="1.04649">
        <ele>160.39999389648</ele>
        <time>2016-05-05T09:19:22.000Z</time>
      </trkpt>
      <trkpt lat="48.84378" lon="1.04645">
        <ele>160</ele>
        <time>2016-05-05T09:19:25.000Z</time>
      </trkpt>
      <trkpt lat="48.84383" lon="1.04639">
        <ele>159.60000610352</ele>
        <time>2016-05-05T09:19:30.000Z</time>
      </trkpt>
      <trkpt lat="48.84391" lon="1.04631">
        <ele>159.19999694824</ele>
        <time>2016-05-05T09:19:38.000Z</time>
      </trkpt>
      <trkpt lat="48.84399" lon="1.0462">
        <ele>158.60000610352</ele>
        <time>2016-05-05T09:19:46.000Z</time>
      </trkpt>
      <trkpt lat="48.84405" lon="1.04612">
        <ele>158.19999694824</ele>
        <time>2016-05-05T09:19:52.000Z</time>
      </trkpt>
      <trkpt lat="48.84406" lon="1.04611">
        <ele>158.19999694824</ele>
        <time>2016-05-05T09:19:53.000Z</time>
      </trkpt>
      <trkpt lat="48.84413" lon="1.04602">
        <ele>157.19999694824</ele>
        <time>2016-05-05T09:20:00.000Z</time>
      </trkpt>
      <trkpt lat="48.8442" lon="1.04593">
        <ele>156.19999694824</ele>
        <time>2016-05-05T09:20:07.000Z</time>
      </trkpt>
      <trkpt lat="48.84429" lon="1.04582">
        <ele>155</ele>
        <time>2016-05-05T09:20:16.000Z</time>
      </trkpt>
      <trkpt lat="48.84439" lon="1.04568">
        <ele>153.39999389648</ele>
        <time>2016-05-05T09:20:27.000Z</time>
      </trkpt>
      <trkpt lat="48.84439" lon="1.04567">
        <ele>153.39999389648</ele>
        <time>2016-05-05T09:20:28.000Z</time>
      </trkpt>
      <trkpt lat="48.84442" lon="1.04561">
        <ele>152.80000305176</ele>
        <time>2016-05-05T09:20:32.000Z</time>
      </trkpt>
      <trkpt lat="48.84451" lon="1.04549">
        <ele>151</ele>
        <time>2016-05-05T09:20:41.000Z</time>
      </trkpt>
      <trkpt lat="48.84456" lon="1.0454">
        <ele>149.80000305176</ele>
        <time>2016-05-05T09:20:48.000Z</time>
      </trkpt>
      <trkpt lat="48.8446" lon="1.04534">
        <ele>149</ele>
        <time>2016-05-05T09:20:54.000Z</time>
      </trkpt>
      <trkpt lat="48.84474" lon="1.04511">
        <ele>145.80000305176</ele>
        <time>2016-05-05T09:21:22.000Z</time>
      </trkpt>
      <trkpt lat="48.84476" lon="1.04507">
        <ele>145.60000610352</ele>
        <time>2016-05-05T09:21:25.000Z</time>
      </trkpt>
      <trkpt lat="48.84483" lon="1.04498">
        <ele>145.19999694824</ele>
        <time>2016-05-05T09:21:32.000Z</time>
      </trkpt>
      <trkpt lat="48.84487" lon="1.04493">
        <ele>145</ele>
        <time>2016-05-05T09:21:36.000Z</time>
      </trkpt>
      <trkpt lat="48.84489" lon="1.04487">
        <ele>144.80000305176</ele>
        <time>2016-05-05T09:21:40.000Z</time>
      </trkpt>
      <trkpt lat="48.84492" lon="1.04482">
        <ele>144.60000610352</ele>
        <time>2016-05-05T09:21:44.000Z</time>
      </trkpt>
      <trkpt lat="48.84497" lon="1.04471">
        <ele>144</ele>
        <time>2016-05-05T09:21:50.000Z</time>
      </trkpt>
      <trkpt lat="48.84498" lon="1.0447">
        <ele>143.80000305176</ele>
        <time>2016-05-05T09:21:51.000Z</time>
      </trkpt>
      <trkpt lat="48.84502" lon="1.04462">
        <ele>143.39999389648</ele>
        <time>2016-05-05T09:21:56.000Z</time>
      </trkpt>
      <trkpt lat="48.84506" lon="1.04456">
        <ele>143</ele>
        <time>2016-05-05T09:22:00.000Z</time>
      </trkpt>
      <trkpt lat="48.84508" lon="1.04454">
        <ele>143</ele>
        <time>2016-05-05T09:22:02.000Z</time>
      </trkpt>
      <trkpt lat="48.84514" lon="1.04448">
        <ele>142.80000305176</ele>
        <time>2016-05-05T09:22:08.000Z</time>
      </trkpt>
      <trkpt lat="48.84514" lon="1.04448">
        <ele>142.80000305176</ele>
        <time>2016-05-05T09:22:09.000Z</time>
      </trkpt>
      <trkpt lat="48.84537" lon="1.04411">
        <ele>141.80000305176</ele>
        <time>2016-05-05T09:23:02.000Z</time>
      </trkpt>
      <trkpt lat="48.84539" lon="1.04408">
        <ele>141.80000305176</ele>
        <time>2016-05-05T09:23:04.000Z</time>
      </trkpt>
      <trkpt lat="48.84544" lon="1.04404">
        <ele>141.80000305176</ele>
        <time>2016-05-05T09:23:09.000Z</time>
      </trkpt>
      <trkpt lat="48.84547" lon="1.04401">
        <ele>141.80000305176</ele>
        <time>2016-05-05T09:23:13.000Z</time>
      </trkpt>
      <trkpt lat="48.84548" lon="1.044">
        <ele>142</ele>
        <time>2016-05-05T09:23:15.000Z</time>
      </trkpt>
      <trkpt lat="48.84549" lon="1.044">
        <ele>142</ele>
        <time>2016-05-05T09:23:16.000Z</time>
      </trkpt>
      <trkpt lat="48.84593" lon="1.04337">
        <ele>141.80000305176</ele>
        <time>2016-05-05T10:02:55.000Z</time>
      </trkpt>
      <trkpt lat="48.84594" lon="1.04336">
        <ele>141.80000305176</ele>
        <time>2016-05-05T10:02:56.000Z</time>
      </trkpt>
      <trkpt lat="48.84599" lon="1.04331">
        <ele>142</ele>
        <time>2016-05-05T10:03:01.000Z</time>
      </trkpt>
      <trkpt lat="48.84605" lon="1.04325">
        <ele>142</ele>
        <time>2016-05-05T10:03:06.000Z</time>
      </trkpt>
      <trkpt lat="48.84606" lon="1.04324">
        <ele>142</ele>
        <time>2016-05-05T10:03:07.000Z</time>
      </trkpt>
      <trkpt lat="48.84612" lon="1.04314">
        <ele>141.80000305176</ele>
        <time>2016-05-05T10:03:14.000Z</time>
      </trkpt>
      <trkpt lat="48.84616" lon="1.04308">
        <ele>142.19999694824</ele>
        <time>2016-05-05T10:03:18.000Z</time>
      </trkpt>
      <trkpt lat="48.84618" lon="1.04308">
        <ele>142.19999694824</ele>
        <time>2016-05-05T10:03:19.000Z</time>
      </trkpt>
      <trkpt lat="48.8462" lon="1.04304">
        <ele>142.19999694824</ele>
        <time>2016-05-05T10:03:22.000Z</time>
      </trkpt>
      <trkpt lat="48.84621" lon="1.04304">
        <ele>142.39999389648</ele>
        <time>2016-05-05T10:03:23.000Z</time>
      </trkpt>
      <trkpt lat="48.84624" lon="1.04302">
        <ele>142.39999389648</ele>
        <time>2016-05-05T10:03:25.000Z</time>
      </trkpt>
      <trkpt lat="48.84629" lon="1.04298">
        <ele>142.60000610352</ele>
        <time>2016-05-05T10:03:29.000Z</time>
      </trkpt>
      <trkpt lat="48.84632" lon="1.04296">
        <ele>142.60000610352</ele>
        <time>2016-05-05T10:03:32.000Z</time>
      </trkpt>
      <trkpt lat="48.84636" lon="1.04293">
        <ele>142.80000305176</ele>
        <time>2016-05-05T10:03:36.000Z</time>
      </trkpt>
      <trkpt lat="48.84638" lon="1.04291">
        <ele>142.80000305176</ele>
        <time>2016-05-05T10:03:38.000Z</time>
      </trkpt>
      <trkpt lat="48.84643" lon="1.04289">
        <ele>143</ele>
        <time>2016-05-05T10:03:43.000Z</time>
      </trkpt>
      <trkpt lat="48.84649" lon="1.04288">
        <ele>143</ele>
        <time>2016-05-05T10:03:48.000Z</time>
      </trkpt>
      <trkpt lat="48.84656" lon="1.04285">
        <ele>143.19999694824</ele>
        <time>2016-05-05T10:03:54.000Z</time>
      </trkpt>
      <trkpt lat="48.84658" lon="1.04285">
        <ele>143.19999694824</ele>
        <time>2016-05-05T10:03:55.000Z</time>
      </trkpt>
      <trkpt lat="48.84664" lon="1.04284">
        <ele>143.39999389648</ele>
        <time>2016-05-05T10:04:00.000Z</time>
      </trkpt>
      <trkpt lat="48.84673" lon="1.04281">
        <ele>143.60000610352</ele>
        <time>2016-05-05T10:04:08.000Z</time>
      </trkpt>
      <trkpt lat="48.84681" lon="1.0428">
        <ele>143.80000305176</ele>
        <time>2016-05-05T10:04:15.000Z</time>
      </trkpt>
      <trkpt lat="48.84691" lon="1.04279">
        <ele>144.19999694824</ele>
        <time>2016-05-05T10:04:23.000Z</time>
      </trkpt>
      <trkpt lat="48.847" lon="1.04274">
        <ele>144.60000610352</ele>
        <time>2016-05-05T10:04:31.000Z</time>
      </trkpt>
      <trkpt lat="48.84708" lon="1.04269">
        <ele>144.80000305176</ele>
        <time>2016-05-05T10:04:39.000Z</time>
      </trkpt>
      <trkpt lat="48.84712" lon="1.04266">
        <ele>145</ele>
        <time>2016-05-05T10:04:43.000Z</time>
      </trkpt>
      <trkpt lat="48.84714" lon="1.04263">
        <ele>145.19999694824</ele>
        <time>2016-05-05T10:04:46.000Z</time>
      </trkpt>
      <trkpt lat="48.84716" lon="1.04261">
        <ele>145.39999389648</ele>
        <time>2016-05-05T10:04:48.000Z</time>
      </trkpt>
      <trkpt lat="48.84717" lon="1.0426">
        <ele>145.39999389648</ele>
        <time>2016-05-05T10:04:49.000Z</time>
      </trkpt>
      <trkpt lat="48.8472" lon="1.04258">
        <ele>145.60000610352</ele>
        <time>2016-05-05T10:04:52.000Z</time>
      </trkpt>
      <trkpt lat="48.84728" lon="1.04246">
        <ele>146.39999389648</ele>
        <time>2016-05-05T10:05:01.000Z</time>
      </trkpt>
      <trkpt lat="48.84734" lon="1.04235">
        <ele>147.19999694824</ele>
        <time>2016-05-05T10:05:10.000Z</time>
      </trkpt>
      <trkpt lat="48.84737" lon="1.04232">
        <ele>147.39999389648</ele>
        <time>2016-05-05T10:05:13.000Z</time>
      </trkpt>
      <trkpt lat="48.8474" lon="1.04226">
        <ele>147.80000305176</ele>
        <time>2016-05-05T10:05:17.000Z</time>
      </trkpt>
      <trkpt lat="48.84742" lon="1.04224">
        <ele>147.80000305176</ele>
        <time>2016-05-05T10:05:19.000Z</time>
      </trkpt>
      <trkpt lat="48.84744" lon="1.04219">
        <ele>148</ele>
        <time>2016-05-05T10:05:23.000Z</time>
      </trkpt>
      <trkpt lat="48.84745" lon="1.04218">
        <ele>148</ele>
        <time>2016-05-05T10:05:24.000Z</time>
      </trkpt>
      <trkpt lat="48.84751" lon="1.04212">
        <ele>148.19999694824</ele>
        <time>2016-05-05T10:05:32.000Z</time>
      </trkpt>
      <trkpt lat="48.84755" lon="1.0421">
        <ele>148.39999389648</ele>
        <time>2016-05-05T10:05:38.000Z</time>
      </trkpt>
      <trkpt lat="48.84757" lon="1.04211">
        <ele>148.39999389648</ele>
        <time>2016-05-05T10:05:41.000Z</time>
      </trkpt>
      <trkpt lat="48.8482" lon="1.04219">
        <ele>150.80000305176</ele>
        <time>2016-05-05T10:12:04.000Z</time>
      </trkpt>
      <trkpt lat="48.84824" lon="1.04221">
        <ele>151</ele>
        <time>2016-05-05T10:12:07.000Z</time>
      </trkpt>
      <trkpt lat="48.84827" lon="1.04228">
        <ele>151</ele>
        <time>2016-05-05T10:12:11.000Z</time>
      </trkpt>
      <trkpt lat="48.84831" lon="1.04233">
        <ele>151</ele>
        <time>2016-05-05T10:12:15.000Z</time>
      </trkpt>
      <trkpt lat="48.84841" lon="1.04239">
        <ele>151.19999694824</ele>
        <time>2016-05-05T10:12:22.000Z</time>
      </trkpt>
      <trkpt lat="48.84851" lon="1.04244">
        <ele>151.39999389648</ele>
        <time>2016-05-05T10:12:29.000Z</time>
      </trkpt>
      <trkpt lat="48.84863" lon="1.04242">
        <ele>151.60000610352</ele>
        <time>2016-05-05T10:12:37.000Z</time>
      </trkpt>
      <trkpt lat="48.84871" lon="1.04241">
        <ele>151.80000305176</ele>
        <time>2016-05-05T10:12:43.000Z</time>
      </trkpt>
      <trkpt lat="48.8488" lon="1.0424">
        <ele>152</ele>
        <time>2016-05-05T10:12:49.000Z</time>
      </trkpt>
      <trkpt lat="48.8489" lon="1.04238">
        <ele>152.19999694824</ele>
        <time>2016-05-05T10:12:56.000Z</time>
      </trkpt>
      <trkpt lat="48.84898" lon="1.04237">
        <ele>152.19999694824</ele>
        <time>2016-05-05T10:13:01.000Z</time>
      </trkpt>
      <trkpt lat="48.84908" lon="1.04235">
        <ele>152.39999389648</ele>
        <time>2016-05-05T10:13:09.000Z</time>
      </trkpt>
      <trkpt lat="48.84919" lon="1.04237">
        <ele>152.39999389648</ele>
        <time>2016-05-05T10:13:17.000Z</time>
      </trkpt>
      <trkpt lat="48.8493" lon="1.0424">
        <ele>152.60000610352</ele>
        <time>2016-05-05T10:13:26.000Z</time>
      </trkpt>
      <trkpt lat="48.84939" lon="1.04236">
        <ele>152.80000305176</ele>
        <time>2016-05-05T10:13:33.000Z</time>
      </trkpt>
      <trkpt lat="48.84941" lon="1.04236">
        <ele>152.80000305176</ele>
        <time>2016-05-05T10:13:34.000Z</time>
      </trkpt>
      <trkpt lat="48.84945" lon="1.04235">
        <ele>153</ele>
        <time>2016-05-05T10:13:37.000Z</time>
      </trkpt>
      <trkpt lat="48.84953" lon="1.04233">
        <ele>153.19999694824</ele>
        <time>2016-05-05T10:13:42.000Z</time>
      </trkpt>
      <trkpt lat="48.84955" lon="1.04232">
        <ele>153.19999694824</ele>
        <time>2016-05-05T10:13:44.000Z</time>
      </trkpt>
      <trkpt lat="48.8496" lon="1.04231">
        <ele>153.39999389648</ele>
        <time>2016-05-05T10:13:48.000Z</time>
      </trkpt>
      <trkpt lat="48.84963" lon="1.04229">
        <ele>153.60000610352</ele>
        <time>2016-05-05T10:13:50.000Z</time>
      </trkpt>
      <trkpt lat="48.84964" lon="1.04229">
        <ele>153.60000610352</ele>
        <time>2016-05-05T10:13:51.000Z</time>
      </trkpt>
      <trkpt lat="48.8497" lon="1.04227">
        <ele>153.80000305176</ele>
        <time>2016-05-05T10:13:55.000Z</time>
      </trkpt>
      <trkpt lat="48.84979" lon="1.0423">
        <ele>154</ele>
        <time>2016-05-05T10:14:01.000Z</time>
      </trkpt>
      <trkpt lat="48.84991" lon="1.04233">
        <ele>154.19999694824</ele>
        <time>2016-05-05T10:14:09.000Z</time>
      </trkpt>
      <trkpt lat="48.85004" lon="1.04233">
        <ele>154.39999389648</ele>
        <time>2016-05-05T10:14:18.000Z</time>
      </trkpt>
      <trkpt lat="48.8501" lon="1.04233">
        <ele>154.60000610352</ele>
        <time>2016-05-05T10:14:22.000Z</time>
      </trkpt>
      <trkpt lat="48.85015" lon="1.04233">
        <ele>154.80000305176</ele>
        <time>2016-05-05T10:14:25.000Z</time>
      </trkpt>
      <trkpt lat="48.85025" lon="1.04231">
        <ele>155</ele>
        <time>2016-05-05T10:14:32.000Z</time>
      </trkpt>
      <trkpt lat="48.85035" lon="1.04227">
        <ele>154.80000305176</ele>
        <time>2016-05-05T10:14:39.000Z</time>
      </trkpt>
      <trkpt lat="48.85043" lon="1.04222">
        <ele>154.39999389648</ele>
        <time>2016-05-05T10:14:45.000Z</time>
      </trkpt>
      <trkpt lat="48.85052" lon="1.04215">
        <ele>154.19999694824</ele>
        <time>2016-05-05T10:14:52.000Z</time>
      </trkpt>
      <trkpt lat="48.85058" lon="1.04206">
        <ele>154</ele>
        <time>2016-05-05T10:14:58.000Z</time>
      </trkpt>
      <trkpt lat="48.8506" lon="1.04203">
        <ele>153.80000305176</ele>
        <time>2016-05-05T10:15:00.000Z</time>
      </trkpt>
      <trkpt lat="48.85062" lon="1.04198">
        <ele>153.80000305176</ele>
        <time>2016-05-05T10:15:03.000Z</time>
      </trkpt>
      <trkpt lat="48.85066" lon="1.04192">
        <ele>153.60000610352</ele>
        <time>2016-05-05T10:15:07.000Z</time>
      </trkpt>
      <trkpt lat="48.85072" lon="1.04185">
        <ele>153.39999389648</ele>
        <time>2016-05-05T10:15:12.000Z</time>
      </trkpt>
      <trkpt lat="48.85079" lon="1.04175">
        <ele>153.39999389648</ele>
        <time>2016-05-05T10:15:19.000Z</time>
      </trkpt>
      <trkpt lat="48.85083" lon="1.04171">
        <ele>153.19999694824</ele>
        <time>2016-05-05T10:15:22.000Z</time>
      </trkpt>
      <trkpt lat="48.85092" lon="1.04162">
        <ele>153.19999694824</ele>
        <time>2016-05-05T10:15:30.000Z</time>
      </trkpt>
      <trkpt lat="48.85099" lon="1.0415">
        <ele>153</ele>
        <time>2016-05-05T10:15:37.000Z</time>
      </trkpt>
      <trkpt lat="48.851" lon="1.04149">
        <ele>153</ele>
        <time>2016-05-05T10:15:38.000Z</time>
      </trkpt>
      <trkpt lat="48.85101" lon="1.04149">
        <ele>153</ele>
        <time>2016-05-05T10:15:40.000Z</time>
      </trkpt>
      <trkpt lat="48.85105" lon="1.04142">
        <ele>153</ele>
        <time>2016-05-05T10:15:47.000Z</time>
      </trkpt>
      <trkpt lat="48.85106" lon="1.04141">
        <ele>153</ele>
        <time>2016-05-05T10:15:48.000Z</time>
      </trkpt>
      <trkpt lat="48.85112" lon="1.04129">
        <ele>153.39999389648</ele>
        <time>2016-05-05T10:15:55.000Z</time>
      </trkpt>
      <trkpt lat="48.85122" lon="1.04112">
        <ele>153.80000305176</ele>
        <time>2016-05-05T10:16:05.000Z</time>
      </trkpt>
      <trkpt lat="48.85127" lon="1.04099">
        <ele>154</ele>
        <time>2016-05-05T10:16:13.000Z</time>
      </trkpt>
      <trkpt lat="48.85134" lon="1.04085">
        <ele>154.39999389648</ele>
        <time>2016-05-05T10:16:22.000Z</time>
      </trkpt>
      <trkpt lat="48.85141" lon="1.0407">
        <ele>154.39999389648</ele>
        <time>2016-05-05T10:16:30.000Z</time>
      </trkpt>
      <trkpt lat="48.8515" lon="1.04052">
        <ele>154.39999389648</ele>
        <time>2016-05-05T10:16:41.000Z</time>
      </trkpt>
      <trkpt lat="48.85153" lon="1.04039">
        <ele>154.39999389648</ele>
        <time>2016-05-05T10:16:48.000Z</time>
      </trkpt>
      <trkpt lat="48.85165" lon="1.04016">
        <ele>154.60000610352</ele>
        <time>2016-05-05T10:17:02.000Z</time>
      </trkpt>
      <trkpt lat="48.85175" lon="1.03995">
        <ele>155.19999694824</ele>
        <time>2016-05-05T10:17:14.000Z</time>
      </trkpt>
      <trkpt lat="48.85177" lon="1.03989">
        <ele>155.39999389648</ele>
        <time>2016-05-05T10:17:17.000Z</time>
      </trkpt>
      <trkpt lat="48.85179" lon="1.03984">
        <ele>155.60000610352</ele>
        <time>2016-05-05T10:17:20.000Z</time>
      </trkpt>
      <trkpt lat="48.85188" lon="1.03967">
        <ele>156</ele>
        <time>2016-05-05T10:17:30.000Z</time>
      </trkpt>
      <trkpt lat="48.85193" lon="1.03954">
        <ele>156.19999694824</ele>
        <time>2016-05-05T10:17:37.000Z</time>
      </trkpt>
      <trkpt lat="48.852" lon="1.03935">
        <ele>156.60000610352</ele>
        <time>2016-05-05T10:17:47.000Z</time>
      </trkpt>
      <trkpt lat="48.85208" lon="1.03909">
        <ele>156.80000305176</ele>
        <time>2016-05-05T10:18:00.000Z</time>
      </trkpt>
      <trkpt lat="48.85212" lon="1.03891">
        <ele>156.80000305176</ele>
        <time>2016-05-05T10:18:09.000Z</time>
      </trkpt>
      <trkpt lat="48.85216" lon="1.03866">
        <ele>157</ele>
        <time>2016-05-05T10:18:21.000Z</time>
      </trkpt>
      <trkpt lat="48.85218" lon="1.03851">
        <ele>157</ele>
        <time>2016-05-05T10:18:28.000Z</time>
      </trkpt>
      <trkpt lat="48.85222" lon="1.03834">
        <ele>157</ele>
        <time>2016-05-05T10:18:37.000Z</time>
      </trkpt>
      <trkpt lat="48.85223" lon="1.0383">
        <ele>157</ele>
        <time>2016-05-05T10:18:39.000Z</time>
      </trkpt>
      <trkpt lat="48.85225" lon="1.03822">
        <ele>156.80000305176</ele>
        <time>2016-05-05T10:18:43.000Z</time>
      </trkpt>
      <trkpt lat="48.85225" lon="1.0382">
        <ele>156.60000610352</ele>
        <time>2016-05-05T10:18:44.000Z</time>
      </trkpt>
      <trkpt lat="48.85229" lon="1.03801">
        <ele>156.39999389648</ele>
        <time>2016-05-05T10:18:53.000Z</time>
      </trkpt>
      <trkpt lat="48.85233" lon="1.03778">
        <ele>156.60000610352</ele>
        <time>2016-05-05T10:19:05.000Z</time>
      </trkpt>
      <trkpt lat="48.85238" lon="1.03757">
        <ele>156.60000610352</ele>
        <time>2016-05-05T10:19:16.000Z</time>
      </trkpt>
      <trkpt lat="48.85244" lon="1.03734">
        <ele>156.60000610352</ele>
        <time>2016-05-05T10:19:28.000Z</time>
      </trkpt>
      <trkpt lat="48.8525" lon="1.03717">
        <ele>157</ele>
        <time>2016-05-05T10:19:37.000Z</time>
      </trkpt>
      <trkpt lat="48.85252" lon="1.03708">
        <ele>157.19999694824</ele>
        <time>2016-05-05T10:19:42.000Z</time>
      </trkpt>
      <trkpt lat="48.85258" lon="1.03689">
        <ele>158</ele>
        <time>2016-05-05T10:19:52.000Z</time>
      </trkpt>
      <trkpt lat="48.85263" lon="1.03672">
        <ele>158.60000610352</ele>
        <time>2016-05-05T10:20:01.000Z</time>
      </trkpt>
      <trkpt lat="48.85272" lon="1.03653">
        <ele>159.60000610352</ele>
        <time>2016-05-05T10:20:12.000Z</time>
      </trkpt>
      <trkpt lat="48.85279" lon="1.0364">
        <ele>160.19999694824</ele>
        <time>2016-05-05T10:20:20.000Z</time>
      </trkpt>
      <trkpt lat="48.85286" lon="1.03627">
        <ele>160.39999389648</ele>
        <time>2016-05-05T10:20:28.000Z</time>
      </trkpt>
      <trkpt lat="48.85295" lon="1.03615">
        <ele>160.60000610352</ele>
        <time>2016-05-05T10:20:36.000Z</time>
      </trkpt>
      <trkpt lat="48.85307" lon="1.03602">
        <ele>160.80000305176</ele>
        <time>2016-05-05T10:20:46.000Z</time>
      </trkpt>
      <trkpt lat="48.85317" lon="1.0359">
        <ele>161.19999694824</ele>
        <time>2016-05-05T10:20:56.000Z</time>
      </trkpt>
      <trkpt lat="48.85323" lon="1.03584">
        <ele>161.39999389648</ele>
        <time>2016-05-05T10:21:02.000Z</time>
      </trkpt>
      <trkpt lat="48.85326" lon="1.0358">
        <ele>161.39999389648</ele>
        <time>2016-05-05T10:21:05.000Z</time>
      </trkpt>
      <trkpt lat="48.85326" lon="1.03574">
        <ele>161.39999389648</ele>
        <time>2016-05-05T10:21:08.000Z</time>
      </trkpt>
      <trkpt lat="48.85327" lon="1.03561">
        <ele>161.60000610352</ele>
        <time>2016-05-05T10:21:15.000Z</time>
      </trkpt>
      <trkpt lat="48.85326" lon="1.0356">
        <ele>161.60000610352</ele>
        <time>2016-05-05T10:21:16.000Z</time>
      </trkpt>
      <trkpt lat="48.85323" lon="1.0355">
        <ele>161.80000305176</ele>
        <time>2016-05-05T10:21:21.000Z</time>
      </trkpt>
      <trkpt lat="48.85318" lon="1.03531">
        <ele>161.80000305176</ele>
        <time>2016-05-05T10:21:31.000Z</time>
      </trkpt>
      <trkpt lat="48.85314" lon="1.03516">
        <ele>162</ele>
        <time>2016-05-05T10:21:39.000Z</time>
      </trkpt>
      <trkpt lat="48.85308" lon="1.03494">
        <ele>162</ele>
        <time>2016-05-05T10:21:51.000Z</time>
      </trkpt>
      <trkpt lat="48.85303" lon="1.03474">
        <ele>162</ele>
        <time>2016-05-05T10:22:02.000Z</time>
      </trkpt>
      <trkpt lat="48.85297" lon="1.03452">
        <ele>161.80000305176</ele>
        <time>2016-05-05T10:22:13.000Z</time>
      </trkpt>
      <trkpt lat="48.85293" lon="1.03434">
        <ele>161.39999389648</ele>
        <time>2016-05-05T10:22:23.000Z</time>
      </trkpt>
      <trkpt lat="48.85286" lon="1.03412">
        <ele>161.19999694824</ele>
        <time>2016-05-05T10:22:35.000Z</time>
      </trkpt>
      <trkpt lat="48.85281" lon="1.0339">
        <ele>161.19999694824</ele>
        <time>2016-05-05T10:22:47.000Z</time>
      </trkpt>
      <trkpt lat="48.85279" lon="1.03383">
        <ele>161.19999694824</ele>
        <time>2016-05-05T10:22:52.000Z</time>
      </trkpt>
      <trkpt lat="48.85277" lon="1.03381">
        <ele>161.19999694824</ele>
        <time>2016-05-05T10:22:53.000Z</time>
      </trkpt>
      <trkpt lat="48.85275" lon="1.03375">
        <ele>161</ele>
        <time>2016-05-05T10:22:57.000Z</time>
      </trkpt>
      <trkpt lat="48.85274" lon="1.0337">
        <ele>161</ele>
        <time>2016-05-05T10:23:00.000Z</time>
      </trkpt>
      <trkpt lat="48.85269" lon="1.03357">
        <ele>160.80000305176</ele>
        <time>2016-05-05T10:23:08.000Z</time>
      </trkpt>
      <trkpt lat="48.85261" lon="1.03339">
        <ele>160.60000610352</ele>
        <time>2016-05-05T10:23:18.000Z</time>
      </trkpt>
      <trkpt lat="48.85261" lon="1.03335">
        <ele>160.60000610352</ele>
        <time>2016-05-05T10:23:20.000Z</time>
      </trkpt>
      <trkpt lat="48.85261" lon="1.03329">
        <ele>160.60000610352</ele>
        <time>2016-05-05T10:23:23.000Z</time>
      </trkpt>
      <trkpt lat="48.8526" lon="1.03326">
        <ele>160.60000610352</ele>
        <time>2016-05-05T10:23:24.000Z</time>
      </trkpt>
      <trkpt lat="48.85258" lon="1.03313">
        <ele>160.39999389648</ele>
        <time>2016-05-05T10:23:31.000Z</time>
      </trkpt>
      <trkpt lat="48.85257" lon="1.03307">
        <ele>160.39999389648</ele>
        <time>2016-05-05T10:23:37.000Z</time>
      </trkpt>
      <trkpt lat="48.85255" lon="1.03293">
        <ele>159.60000610352</ele>
        <time>2016-05-05T10:23:44.000Z</time>
      </trkpt>
      <trkpt lat="48.85255" lon="1.0329">
        <ele>159.60000610352</ele>
        <time>2016-05-05T10:23:49.000Z</time>
      </trkpt>
      <trkpt lat="48.85247" lon="1.03268">
        <ele>158.60000610352</ele>
        <time>2016-05-05T10:24:29.000Z</time>
      </trkpt>
      <trkpt lat="48.85243" lon="1.0325">
        <ele>157.80000305176</ele>
        <time>2016-05-05T10:24:39.000Z</time>
      </trkpt>
      <trkpt lat="48.85239" lon="1.0324">
        <ele>157.39999389648</ele>
        <time>2016-05-05T10:24:47.000Z</time>
      </trkpt>
      <trkpt lat="48.85232" lon="1.03218">
        <ele>156.60000610352</ele>
        <time>2016-05-05T10:25:02.000Z</time>
      </trkpt>
      <trkpt lat="48.85225" lon="1.03193">
        <ele>156.60000610352</ele>
        <time>2016-05-05T10:25:15.000Z</time>
      </trkpt>
      <trkpt lat="48.85221" lon="1.03174">
        <ele>156.60000610352</ele>
        <time>2016-05-05T10:25:24.000Z</time>
      </trkpt>
      <trkpt lat="48.8522" lon="1.03173">
        <ele>156.39999389648</ele>
        <time>2016-05-05T10:25:25.000Z</time>
      </trkpt>
      <trkpt lat="48.85218" lon="1.03166">
        <ele>156.19999694824</ele>
        <time>2016-05-05T10:25:29.000Z</time>
      </trkpt>
      <trkpt lat="48.85213" lon="1.03149">
        <ele>155.80000305176</ele>
        <time>2016-05-05T10:25:38.000Z</time>
      </trkpt>
      <trkpt lat="48.8521" lon="1.03136">
        <ele>155.60000610352</ele>
        <time>2016-05-05T10:25:45.000Z</time>
      </trkpt>
      <trkpt lat="48.85205" lon="1.03115">
        <ele>155.80000305176</ele>
        <time>2016-05-05T10:25:56.000Z</time>
      </trkpt>
      <trkpt lat="48.85202" lon="1.03106">
        <ele>155.80000305176</ele>
        <time>2016-05-05T10:26:02.000Z</time>
      </trkpt>
      <trkpt lat="48.85202" lon="1.0309">
        <ele>156</ele>
        <time>2016-05-05T10:26:10.000Z</time>
      </trkpt>
      <trkpt lat="48.85202" lon="1.03073">
        <ele>156.19999694824</ele>
        <time>2016-05-05T10:26:18.000Z</time>
      </trkpt>
      <trkpt lat="48.85204" lon="1.0306">
        <ele>156.19999694824</ele>
        <time>2016-05-05T10:26:25.000Z</time>
      </trkpt>
      <trkpt lat="48.85207" lon="1.03046">
        <ele>156</ele>
        <time>2016-05-05T10:26:34.000Z</time>
      </trkpt>
      <trkpt lat="48.85207" lon="1.03046">
        <ele>156</ele>
        <time>2016-05-05T10:26:35.000Z</time>
      </trkpt>
      <trkpt lat="48.85204" lon="1.03055">
        <ele>156</ele>
        <time>2016-05-05T10:27:51.000Z</time>
      </trkpt>
      <trkpt lat="48.85203" lon="1.03061">
        <ele>156.19999694824</ele>
        <time>2016-05-05T10:27:54.000Z</time>
      </trkpt>
      <trkpt lat="48.85201" lon="1.03077">
        <ele>156</ele>
        <time>2016-05-05T10:28:02.000Z</time>
      </trkpt>
      <trkpt lat="48.85201" lon="1.03098">
        <ele>155.80000305176</ele>
        <time>2016-05-05T10:28:11.000Z</time>
      </trkpt>
      <trkpt lat="48.85202" lon="1.03112">
        <ele>155.60000610352</ele>
        <time>2016-05-05T10:28:18.000Z</time>
      </trkpt>
      <trkpt lat="48.8521" lon="1.03133">
        <ele>155.60000610352</ele>
        <time>2016-05-05T10:28:27.000Z</time>
      </trkpt>
      <trkpt lat="48.85209" lon="1.03134">
        <ele>155.60000610352</ele>
        <time>2016-05-05T10:28:28.000Z</time>
      </trkpt>
      <trkpt lat="48.8521" lon="1.03139">
        <ele>155.60000610352</ele>
        <time>2016-05-05T10:28:30.000Z</time>
      </trkpt>
      <trkpt lat="48.85213" lon="1.03157">
        <ele>156</ele>
        <time>2016-05-05T10:28:38.000Z</time>
      </trkpt>
      <trkpt lat="48.85217" lon="1.03166">
        <ele>156.19999694824</ele>
        <time>2016-05-05T10:28:43.000Z</time>
      </trkpt>
      <trkpt lat="48.85219" lon="1.03167">
        <ele>156.39999389648</ele>
        <time>2016-05-05T10:28:44.000Z</time>
      </trkpt>
      <trkpt lat="48.85222" lon="1.03176">
        <ele>156.60000610352</ele>
        <time>2016-05-05T10:28:48.000Z</time>
      </trkpt>
      <trkpt lat="48.85223" lon="1.0318">
        <ele>156.60000610352</ele>
        <time>2016-05-05T10:28:50.000Z</time>
      </trkpt>
      <trkpt lat="48.8523" lon="1.03204">
        <ele>156.60000610352</ele>
        <time>2016-05-05T10:29:01.000Z</time>
      </trkpt>
      <trkpt lat="48.85234" lon="1.03219">
        <ele>156.80000305176</ele>
        <time>2016-05-05T10:29:08.000Z</time>
      </trkpt>
      <trkpt lat="48.85237" lon="1.03231">
        <ele>157</ele>
        <time>2016-05-05T10:29:14.000Z</time>
      </trkpt>
      <trkpt lat="48.85243" lon="1.03247">
        <ele>157.80000305176</ele>
        <time>2016-05-05T10:29:23.000Z</time>
      </trkpt>
      <trkpt lat="48.85247" lon="1.0326">
        <ele>158.19999694824</ele>
        <time>2016-05-05T10:29:29.000Z</time>
      </trkpt>
      <trkpt lat="48.85251" lon="1.03273">
        <ele>158.80000305176</ele>
        <time>2016-05-05T10:29:34.000Z</time>
      </trkpt>
      <trkpt lat="48.85255" lon="1.03294">
        <ele>159.60000610352</ele>
        <time>2016-05-05T10:29:41.000Z</time>
      </trkpt>
      <trkpt lat="48.85257" lon="1.03304">
        <ele>160.19999694824</ele>
        <time>2016-05-05T10:29:46.000Z</time>
      </trkpt>
      <trkpt lat="48.85252" lon="1.03317">
        <ele>160.19999694824</ele>
        <time>2016-05-05T10:29:53.000Z</time>
      </trkpt>
      <trkpt lat="48.85251" lon="1.03317">
        <ele>160.19999694824</ele>
        <time>2016-05-05T10:29:54.000Z</time>
      </trkpt>
      <trkpt lat="48.85246" lon="1.03313">
        <ele>160</ele>
        <time>2016-05-05T10:29:58.000Z</time>
      </trkpt>
      <trkpt lat="48.85241" lon="1.03309">
        <ele>159.80000305176</ele>
        <time>2016-05-05T10:30:03.000Z</time>
      </trkpt>
      <trkpt lat="48.85239" lon="1.03308">
        <ele>159.80000305176</ele>
        <time>2016-05-05T10:30:04.000Z</time>
      </trkpt>
      <trkpt lat="48.8523" lon="1.033">
        <ele>159</ele>
        <time>2016-05-05T10:30:10.000Z</time>
      </trkpt>
      <trkpt lat="48.85228" lon="1.03295">
        <ele>158.80000305176</ele>
        <time>2016-05-05T10:30:13.000Z</time>
      </trkpt>
      <trkpt lat="48.85226" lon="1.03291">
        <ele>158.39999389648</ele>
        <time>2016-05-05T10:30:16.000Z</time>
      </trkpt>
      <trkpt lat="48.85221" lon="1.03287">
        <ele>158</ele>
        <time>2016-05-05T10:30:20.000Z</time>
      </trkpt>
      <trkpt lat="48.85217" lon="1.03284">
        <ele>157.80000305176</ele>
        <time>2016-05-05T10:30:23.000Z</time>
      </trkpt>
      <trkpt lat="48.85205" lon="1.03278">
        <ele>157</ele>
        <time>2016-05-05T10:30:32.000Z</time>
      </trkpt>
      <trkpt lat="48.85197" lon="1.03281">
        <ele>157</ele>
        <time>2016-05-05T10:30:38.000Z</time>
      </trkpt>
      <trkpt lat="48.85184" lon="1.03291">
        <ele>156.80000305176</ele>
        <time>2016-05-05T10:30:46.000Z</time>
      </trkpt>
      <trkpt lat="48.8517" lon="1.03302">
        <ele>155.80000305176</ele>
        <time>2016-05-05T10:30:56.000Z</time>
      </trkpt>
      <trkpt lat="48.8516" lon="1.03308">
        <ele>154.80000305176</ele>
        <time>2016-05-05T10:31:04.000Z</time>
      </trkpt>
      <trkpt lat="48.8515" lon="1.03308">
        <ele>153.80000305176</ele>
        <time>2016-05-05T10:31:11.000Z</time>
      </trkpt>
      <trkpt lat="48.85142" lon="1.03297">
        <ele>152.80000305176</ele>
        <time>2016-05-05T10:31:18.000Z</time>
      </trkpt>
      <trkpt lat="48.85138" lon="1.03279">
        <ele>152.19999694824</ele>
        <time>2016-05-05T10:31:27.000Z</time>
      </trkpt>
      <trkpt lat="48.85136" lon="1.03267">
        <ele>151.80000305176</ele>
        <time>2016-05-05T10:31:33.000Z</time>
      </trkpt>
      <trkpt lat="48.85131" lon="1.03254">
        <ele>151</ele>
        <time>2016-05-05T10:31:40.000Z</time>
      </trkpt>
      <trkpt lat="48.8513" lon="1.03239">
        <ele>150.39999389648</ele>
        <time>2016-05-05T10:31:48.000Z</time>
      </trkpt>
      <trkpt lat="48.85131" lon="1.03227">
        <ele>150</ele>
        <time>2016-05-05T10:31:54.000Z</time>
      </trkpt>
      <trkpt lat="48.85133" lon="1.03224">
        <ele>150</ele>
        <time>2016-05-05T10:31:56.000Z</time>
      </trkpt>
      <trkpt lat="48.85134" lon="1.0322">
        <ele>150</ele>
        <time>2016-05-05T10:31:58.000Z</time>
      </trkpt>
      <trkpt lat="48.85134" lon="1.03211">
        <ele>150.19999694824</ele>
        <time>2016-05-05T10:32:02.000Z</time>
      </trkpt>
      <trkpt lat="48.85135" lon="1.03196">
        <ele>150.39999389648</ele>
        <time>2016-05-05T10:32:09.000Z</time>
      </trkpt>
      <trkpt lat="48.85135" lon="1.03193">
        <ele>150.39999389648</ele>
        <time>2016-05-05T10:32:10.000Z</time>
      </trkpt>
      <trkpt lat="48.85134" lon="1.03177">
        <ele>150.60000610352</ele>
        <time>2016-05-05T10:32:17.000Z</time>
      </trkpt>
      <trkpt lat="48.85133" lon="1.03164">
        <ele>150.80000305176</ele>
        <time>2016-05-05T10:32:23.000Z</time>
      </trkpt>
      <trkpt lat="48.85131" lon="1.03149">
        <ele>150.60000610352</ele>
        <time>2016-05-05T10:32:30.000Z</time>
      </trkpt>
      <trkpt lat="48.85125" lon="1.03136">
        <ele>150.39999389648</ele>
        <time>2016-05-05T10:32:38.000Z</time>
      </trkpt>
      <trkpt lat="48.85121" lon="1.03128">
        <ele>150.19999694824</ele>
        <time>2016-05-05T10:32:43.000Z</time>
      </trkpt>
      <trkpt lat="48.85117" lon="1.03125">
        <ele>150</ele>
        <time>2016-05-05T10:32:47.000Z</time>
      </trkpt>
      <trkpt lat="48.85107" lon="1.03119">
        <ele>149.39999389648</ele>
        <time>2016-05-05T10:32:55.000Z</time>
      </trkpt>
      <trkpt lat="48.85097" lon="1.03109">
        <ele>148.80000305176</ele>
        <time>2016-05-05T10:33:04.000Z</time>
      </trkpt>
      <trkpt lat="48.85094" lon="1.03095">
        <ele>148.80000305176</ele>
        <time>2016-05-05T10:33:11.000Z</time>
      </trkpt>
      <trkpt lat="48.85091" lon="1.03079">
        <ele>148.60000610352</ele>
        <time>2016-05-05T10:33:19.000Z</time>
      </trkpt>
      <trkpt lat="48.85089" lon="1.03063">
        <ele>148.80000305176</ele>
        <time>2016-05-05T10:33:26.000Z</time>
      </trkpt>
      <trkpt lat="48.85083" lon="1.03044">
        <ele>148.60000610352</ele>
        <time>2016-05-05T10:33:36.000Z</time>
      </trkpt>
      <trkpt lat="48.85078" lon="1.03028">
        <ele>148.39999389648</ele>
        <time>2016-05-05T10:33:44.000Z</time>
      </trkpt>
      <trkpt lat="48.85073" lon="1.03005">
        <ele>148</ele>
        <time>2016-05-05T10:33:55.000Z</time>
      </trkpt>
      <trkpt lat="48.85069" lon="1.02991">
        <ele>147.80000305176</ele>
        <time>2016-05-05T10:34:02.000Z</time>
      </trkpt>
      <trkpt lat="48.85066" lon="1.02967">
        <ele>147.60000610352</ele>
        <time>2016-05-05T10:34:13.000Z</time>
      </trkpt>
      <trkpt lat="48.85066" lon="1.02949">
        <ele>147.60000610352</ele>
        <time>2016-05-05T10:34:22.000Z</time>
      </trkpt>
      <trkpt lat="48.85063" lon="1.02929">
        <ele>147.39999389648</ele>
        <time>2016-05-05T10:34:31.000Z</time>
      </trkpt>
      <trkpt lat="48.85062" lon="1.02925">
        <ele>147.39999389648</ele>
        <time>2016-05-05T10:34:33.000Z</time>
      </trkpt>
      <trkpt lat="48.8506" lon="1.02917">
        <ele>147.19999694824</ele>
        <time>2016-05-05T10:34:37.000Z</time>
      </trkpt>
      <trkpt lat="48.85058" lon="1.029">
        <ele>147.19999694824</ele>
        <time>2016-05-05T10:34:45.000Z</time>
      </trkpt>
      <trkpt lat="48.85051" lon="1.02885">
        <ele>146.80000305176</ele>
        <time>2016-05-05T10:34:53.000Z</time>
      </trkpt>
      <trkpt lat="48.85044" lon="1.02872">
        <ele>146.60000610352</ele>
        <time>2016-05-05T10:35:00.000Z</time>
      </trkpt>
      <trkpt lat="48.85038" lon="1.02861">
        <ele>146.39999389648</ele>
        <time>2016-05-05T10:35:06.000Z</time>
      </trkpt>
      <trkpt lat="48.85033" lon="1.02847">
        <ele>146.19999694824</ele>
        <time>2016-05-05T10:35:13.000Z</time>
      </trkpt>
      <trkpt lat="48.85027" lon="1.02831">
        <ele>146</ele>
        <time>2016-05-05T10:35:21.000Z</time>
      </trkpt>
      <trkpt lat="48.85022" lon="1.02816">
        <ele>145.80000305176</ele>
        <time>2016-05-05T10:35:29.000Z</time>
      </trkpt>
      <trkpt lat="48.85018" lon="1.02804">
        <ele>146</ele>
        <time>2016-05-05T10:35:35.000Z</time>
      </trkpt>
      <trkpt lat="48.85013" lon="1.02789">
        <ele>146.39999389648</ele>
        <time>2016-05-05T10:35:43.000Z</time>
      </trkpt>
      <trkpt lat="48.85008" lon="1.02775">
        <ele>146.60000610352</ele>
        <time>2016-05-05T10:35:50.000Z</time>
      </trkpt>
      <trkpt lat="48.85003" lon="1.02759">
        <ele>147</ele>
        <time>2016-05-05T10:35:58.000Z</time>
      </trkpt>
      <trkpt lat="48.84999" lon="1.02746">
        <ele>147.39999389648</ele>
        <time>2016-05-05T10:36:05.000Z</time>
      </trkpt>
      <trkpt lat="48.84992" lon="1.02725">
        <ele>148</ele>
        <time>2016-05-05T10:36:16.000Z</time>
      </trkpt>
      <trkpt lat="48.84985" lon="1.02705">
        <ele>148.39999389648</ele>
        <time>2016-05-05T10:36:26.000Z</time>
      </trkpt>
      <trkpt lat="48.84977" lon="1.0268">
        <ele>149</ele>
        <time>2016-05-05T10:36:39.000Z</time>
      </trkpt>
      <trkpt lat="48.84971" lon="1.02662">
        <ele>149.39999389648</ele>
        <time>2016-05-05T10:36:48.000Z</time>
      </trkpt>
      <trkpt lat="48.84963" lon="1.02641">
        <ele>150</ele>
        <time>2016-05-05T10:36:59.000Z</time>
      </trkpt>
      <trkpt lat="48.84961" lon="1.02633">
        <ele>150.19999694824</ele>
        <time>2016-05-05T10:37:03.000Z</time>
      </trkpt>
      <trkpt lat="48.84959" lon="1.02629">
        <ele>150.39999389648</ele>
        <time>2016-05-05T10:37:05.000Z</time>
      </trkpt>
      <trkpt lat="48.84953" lon="1.0261">
        <ele>151.39999389648</ele>
        <time>2016-05-05T10:37:15.000Z</time>
      </trkpt>
      <trkpt lat="48.84949" lon="1.02599">
        <ele>152</ele>
        <time>2016-05-05T10:37:21.000Z</time>
      </trkpt>
      <trkpt lat="48.84943" lon="1.02581">
        <ele>152.80000305176</ele>
        <time>2016-05-05T10:37:31.000Z</time>
      </trkpt>
      <trkpt lat="48.84936" lon="1.02563">
        <ele>153.60000610352</ele>
        <time>2016-05-05T10:37:41.000Z</time>
      </trkpt>
      <trkpt lat="48.84929" lon="1.02543">
        <ele>154.39999389648</ele>
        <time>2016-05-05T10:37:52.000Z</time>
      </trkpt>
      <trkpt lat="48.84928" lon="1.02541">
        <ele>154.39999389648</ele>
        <time>2016-05-05T10:37:53.000Z</time>
      </trkpt>
      <trkpt lat="48.84926" lon="1.02535">
        <ele>154.60000610352</ele>
        <time>2016-05-05T10:37:56.000Z</time>
      </trkpt>
      <trkpt lat="48.8492" lon="1.02515">
        <ele>155.19999694824</ele>
        <time>2016-05-05T10:38:07.000Z</time>
      </trkpt>
      <trkpt lat="48.84915" lon="1.02498">
        <ele>155.60000610352</ele>
        <time>2016-05-05T10:38:16.000Z</time>
      </trkpt>
      <trkpt lat="48.8491" lon="1.02483">
        <ele>156</ele>
        <time>2016-05-05T10:38:25.000Z</time>
      </trkpt>
      <trkpt lat="48.84905" lon="1.02464">
        <ele>156.60000610352</ele>
        <time>2016-05-05T10:38:35.000Z</time>
      </trkpt>
      <trkpt lat="48.84898" lon="1.0244">
        <ele>157.19999694824</ele>
        <time>2016-05-05T10:38:48.000Z</time>
      </trkpt>
      <trkpt lat="48.84897" lon="1.02426">
        <ele>157.60000610352</ele>
        <time>2016-05-05T10:38:56.000Z</time>
      </trkpt>
      <trkpt lat="48.84894" lon="1.0241">
        <ele>158</ele>
        <time>2016-05-05T10:39:04.000Z</time>
      </trkpt>
      <trkpt lat="48.84889" lon="1.02385">
        <ele>158.60000610352</ele>
        <time>2016-05-05T10:39:16.000Z</time>
      </trkpt>
      <trkpt lat="48.84885" lon="1.02364">
        <ele>159.39999389648</ele>
        <time>2016-05-05T10:39:26.000Z</time>
      </trkpt>
      <trkpt lat="48.8488" lon="1.02345">
        <ele>160</ele>
        <time>2016-05-05T10:39:36.000Z</time>
      </trkpt>
      <trkpt lat="48.84879" lon="1.02333">
        <ele>160.39999389648</ele>
        <time>2016-05-05T10:39:42.000Z</time>
      </trkpt>
      <trkpt lat="48.84874" lon="1.02315">
        <ele>161</ele>
        <time>2016-05-05T10:39:51.000Z</time>
      </trkpt>
      <trkpt lat="48.84871" lon="1.02296">
        <ele>161.19999694824</ele>
        <time>2016-05-05T10:40:00.000Z</time>
      </trkpt>
      <trkpt lat="48.84869" lon="1.02286">
        <ele>161.19999694824</ele>
        <time>2016-05-05T10:40:06.000Z</time>
      </trkpt>
      <trkpt lat="48.84867" lon="1.02285">
        <ele>161.19999694824</ele>
        <time>2016-05-05T10:40:08.000Z</time>
      </trkpt>
      <trkpt lat="48.84859" lon="1.02286">
        <ele>161</ele>
        <time>2016-05-05T10:40:14.000Z</time>
      </trkpt>
      <trkpt lat="48.84852" lon="1.02291">
        <ele>160.80000305176</ele>
        <time>2016-05-05T10:40:20.000Z</time>
      </trkpt>
      <trkpt lat="48.84841" lon="1.02302">
        <ele>160.19999694824</ele>
        <time>2016-05-05T10:40:29.000Z</time>
      </trkpt>
      <trkpt lat="48.84834" lon="1.02309">
        <ele>159.39999389648</ele>
        <time>2016-05-05T10:40:36.000Z</time>
      </trkpt>
      <trkpt lat="48.84831" lon="1.02312">
        <ele>159</ele>
        <time>2016-05-05T10:40:39.000Z</time>
      </trkpt>
      <trkpt lat="48.84827" lon="1.02315">
        <ele>158.80000305176</ele>
        <time>2016-05-05T10:40:42.000Z</time>
      </trkpt>
      <trkpt lat="48.84815" lon="1.02323">
        <ele>157.60000610352</ele>
        <time>2016-05-05T10:40:52.000Z</time>
      </trkpt>
      <trkpt lat="48.84813" lon="1.02325">
        <ele>157.39999389648</ele>
        <time>2016-05-05T10:40:55.000Z</time>
      </trkpt>
      <trkpt lat="48.84811" lon="1.02326">
        <ele>157.19999694824</ele>
        <time>2016-05-05T10:40:57.000Z</time>
      </trkpt>
      <trkpt lat="48.84805" lon="1.02323">
        <ele>156.80000305176</ele>
        <time>2016-05-05T10:41:02.000Z</time>
      </trkpt>
      <trkpt lat="48.84804" lon="1.02314">
        <ele>157</ele>
        <time>2016-05-05T10:41:06.000Z</time>
      </trkpt>
      <trkpt lat="48.84803" lon="1.02306">
        <ele>157.19999694824</ele>
        <time>2016-05-05T10:41:10.000Z</time>
      </trkpt>
      <trkpt lat="48.84802" lon="1.02287">
        <ele>157.60000610352</ele>
        <time>2016-05-05T10:41:19.000Z</time>
      </trkpt>
      <trkpt lat="48.84801" lon="1.02266">
        <ele>158</ele>
        <time>2016-05-05T10:41:29.000Z</time>
      </trkpt>
      <trkpt lat="48.84801" lon="1.02243">
        <ele>158.39999389648</ele>
        <time>2016-05-05T10:41:40.000Z</time>
      </trkpt>
      <trkpt lat="48.84801" lon="1.02242">
        <ele>158.39999389648</ele>
        <time>2016-05-05T10:41:43.000Z</time>
      </trkpt>
      <trkpt lat="48.84792" lon="1.02225">
        <ele>158</ele>
        <time>2016-05-05T10:41:59.000Z</time>
      </trkpt>
      <trkpt lat="48.8479" lon="1.02224">
        <ele>157.80000305176</ele>
        <time>2016-05-05T10:42:00.000Z</time>
      </trkpt>
      <trkpt lat="48.84781" lon="1.0221">
        <ele>157.39999389648</ele>
        <time>2016-05-05T10:42:09.000Z</time>
      </trkpt>
      <trkpt lat="48.84776" lon="1.02193">
        <ele>157.19999694824</ele>
        <time>2016-05-05T10:42:17.000Z</time>
      </trkpt>
      <trkpt lat="48.84775" lon="1.02179">
        <ele>157.19999694824</ele>
        <time>2016-05-05T10:42:24.000Z</time>
      </trkpt>
      <trkpt lat="48.84773" lon="1.02165">
        <ele>157</ele>
        <time>2016-05-05T10:42:31.000Z</time>
      </trkpt>
      <trkpt lat="48.84773" lon="1.02153">
        <ele>157</ele>
        <time>2016-05-05T10:42:38.000Z</time>
      </trkpt>
      <trkpt lat="48.84773" lon="1.02138">
        <ele>157</ele>
        <time>2016-05-05T10:42:46.000Z</time>
      </trkpt>
      <trkpt lat="48.84772" lon="1.02123">
        <ele>157.19999694824</ele>
        <time>2016-05-05T10:42:53.000Z</time>
      </trkpt>
      <trkpt lat="48.84771" lon="1.02109">
        <ele>157.39999389648</ele>
        <time>2016-05-05T10:43:00.000Z</time>
      </trkpt>
      <trkpt lat="48.8477" lon="1.02106">
        <ele>157.19999694824</ele>
        <time>2016-05-05T10:43:02.000Z</time>
      </trkpt>
      <trkpt lat="48.84769" lon="1.02097">
        <ele>157.39999389648</ele>
        <time>2016-05-05T10:43:07.000Z</time>
      </trkpt>
      <trkpt lat="48.84767" lon="1.02085">
        <ele>157.39999389648</ele>
        <time>2016-05-05T10:43:14.000Z</time>
      </trkpt>
      <trkpt lat="48.84766" lon="1.02072">
        <ele>157.39999389648</ele>
        <time>2016-05-05T10:43:21.000Z</time>
      </trkpt>
      <trkpt lat="48.84765" lon="1.02056">
        <ele>157.39999389648</ele>
        <time>2016-05-05T10:43:29.000Z</time>
      </trkpt>
      <trkpt lat="48.84762" lon="1.02042">
        <ele>157</ele>
        <time>2016-05-05T10:43:36.000Z</time>
      </trkpt>
      <trkpt lat="48.8476" lon="1.0203">
        <ele>156.80000305176</ele>
        <time>2016-05-05T10:43:44.000Z</time>
      </trkpt>
      <trkpt lat="48.84735" lon="1.02026">
        <ele>154.19999694824</ele>
        <time>2016-05-05T10:44:18.000Z</time>
      </trkpt>
      <trkpt lat="48.84732" lon="1.02028">
        <ele>154</ele>
        <time>2016-05-05T10:44:21.000Z</time>
      </trkpt>
      <trkpt lat="48.84721" lon="1.02033">
        <ele>153.60000610352</ele>
        <time>2016-05-05T10:44:30.000Z</time>
      </trkpt>
      <trkpt lat="48.8472" lon="1.02034">
        <ele>153.60000610352</ele>
        <time>2016-05-05T10:44:33.000Z</time>
      </trkpt>
      <trkpt lat="48.84709" lon="1.02034">
        <ele>153</ele>
        <time>2016-05-05T10:44:42.000Z</time>
      </trkpt>
      <trkpt lat="48.84708" lon="1.02034">
        <ele>153</ele>
        <time>2016-05-05T10:44:43.000Z</time>
      </trkpt>
      <trkpt lat="48.84707" lon="1.02033">
        <ele>152.80000305176</ele>
        <time>2016-05-05T10:44:44.000Z</time>
      </trkpt>
      <trkpt lat="48.847" lon="1.02034">
        <ele>152.39999389648</ele>
        <time>2016-05-05T10:44:49.000Z</time>
      </trkpt>
      <trkpt lat="48.84688" lon="1.02036">
        <ele>151.80000305176</ele>
        <time>2016-05-05T10:44:57.000Z</time>
      </trkpt>
      <trkpt lat="48.84678" lon="1.02035">
        <ele>151.19999694824</ele>
        <time>2016-05-05T10:45:03.000Z</time>
      </trkpt>
      <trkpt lat="48.84672" lon="1.02036">
        <ele>150.60000610352</ele>
        <time>2016-05-05T10:45:08.000Z</time>
      </trkpt>
      <trkpt lat="48.8467" lon="1.02037">
        <ele>150.60000610352</ele>
        <time>2016-05-05T10:45:10.000Z</time>
      </trkpt>
      <trkpt lat="48.84667" lon="1.02037">
        <ele>150.39999389648</ele>
        <time>2016-05-05T10:45:12.000Z</time>
      </trkpt>
      <trkpt lat="48.84666" lon="1.02036">
        <ele>150.19999694824</ele>
        <time>2016-05-05T10:45:13.000Z</time>
      </trkpt>
      <trkpt lat="48.84663" lon="1.02034">
        <ele>150</ele>
        <time>2016-05-05T10:45:16.000Z</time>
      </trkpt>
      <trkpt lat="48.84663" lon="1.02034">
        <ele>150</ele>
        <time>2016-05-05T10:45:17.000Z</time>
      </trkpt>
      <trkpt lat="48.84665" lon="1.02024">
        <ele>149.60000610352</ele>
        <time>2016-05-05T10:45:25.000Z</time>
      </trkpt>
      <trkpt lat="48.84668" lon="1.02018">
        <ele>149.39999389648</ele>
        <time>2016-05-05T10:45:27.000Z</time>
      </trkpt>
      <trkpt lat="48.8467" lon="1.02015">
        <ele>149.60000610352</ele>
        <time>2016-05-05T10:45:28.000Z</time>
      </trkpt>
      <trkpt lat="48.84672" lon="1.0201">
        <ele>149.39999389648</ele>
        <time>2016-05-05T10:45:31.000Z</time>
      </trkpt>
      <trkpt lat="48.84673" lon="1.02006">
        <ele>149.39999389648</ele>
        <time>2016-05-05T10:45:33.000Z</time>
      </trkpt>
      <trkpt lat="48.84676" lon="1.01997">
        <ele>149</ele>
        <time>2016-05-05T10:45:38.000Z</time>
      </trkpt>
      <trkpt lat="48.84679" lon="1.01986">
        <ele>148.80000305176</ele>
        <time>2016-05-05T10:45:43.000Z</time>
      </trkpt>
      <trkpt lat="48.84683" lon="1.0197">
        <ele>148.39999389648</ele>
        <time>2016-05-05T10:45:51.000Z</time>
      </trkpt>
      <trkpt lat="48.84684" lon="1.01965">
        <ele>148.39999389648</ele>
        <time>2016-05-05T10:45:54.000Z</time>
      </trkpt>
      <trkpt lat="48.84686" lon="1.01961">
        <ele>148.19999694824</ele>
        <time>2016-05-05T10:45:56.000Z</time>
      </trkpt>
      <trkpt lat="48.84692" lon="1.01943">
        <ele>148.19999694824</ele>
        <time>2016-05-05T10:46:05.000Z</time>
      </trkpt>
      <trkpt lat="48.84696" lon="1.01928">
        <ele>148</ele>
        <time>2016-05-05T10:46:12.000Z</time>
      </trkpt>
      <trkpt lat="48.84698" lon="1.01917">
        <ele>148</ele>
        <time>2016-05-05T10:46:18.000Z</time>
      </trkpt>
      <trkpt lat="48.84698" lon="1.01915">
        <ele>147.80000305176</ele>
        <time>2016-05-05T10:46:21.000Z</time>
      </trkpt>
      <trkpt lat="48.84709" lon="1.01872">
        <ele>148.60000610352</ele>
        <time>2016-05-05T10:48:45.000Z</time>
      </trkpt>
      <trkpt lat="48.8471" lon="1.01869">
        <ele>148.60000610352</ele>
        <time>2016-05-05T10:48:47.000Z</time>
      </trkpt>
      <trkpt lat="48.84712" lon="1.01849">
        <ele>148.19999694824</ele>
        <time>2016-05-05T10:48:58.000Z</time>
      </trkpt>
      <trkpt lat="48.84712" lon="1.01839">
        <ele>147.80000305176</ele>
        <time>2016-05-05T10:49:03.000Z</time>
      </trkpt>
      <trkpt lat="48.84714" lon="1.01824">
        <ele>147.80000305176</ele>
        <time>2016-05-05T10:49:11.000Z</time>
      </trkpt>
      <trkpt lat="48.84716" lon="1.0181">
        <ele>147.39999389648</ele>
        <time>2016-05-05T10:49:19.000Z</time>
      </trkpt>
      <trkpt lat="48.84717" lon="1.01799">
        <ele>147.60000610352</ele>
        <time>2016-05-05T10:49:25.000Z</time>
      </trkpt>
      <trkpt lat="48.84719" lon="1.01781">
        <ele>148</ele>
        <time>2016-05-05T10:49:34.000Z</time>
      </trkpt>
      <trkpt lat="48.84721" lon="1.01767">
        <ele>148.39999389648</ele>
        <time>2016-05-05T10:49:41.000Z</time>
      </trkpt>
      <trkpt lat="48.84724" lon="1.01756">
        <ele>148.80000305176</ele>
        <time>2016-05-05T10:49:49.000Z</time>
      </trkpt>
      <trkpt lat="48.84727" lon="1.01742">
        <ele>148.80000305176</ele>
        <time>2016-05-05T10:49:56.000Z</time>
      </trkpt>
      <trkpt lat="48.8473" lon="1.0173">
        <ele>149</ele>
        <time>2016-05-05T10:50:03.000Z</time>
      </trkpt>
      <trkpt lat="48.84733" lon="1.01714">
        <ele>149.19999694824</ele>
        <time>2016-05-05T10:50:11.000Z</time>
      </trkpt>
      <trkpt lat="48.84735" lon="1.01702">
        <ele>149.60000610352</ele>
        <time>2016-05-05T10:50:17.000Z</time>
      </trkpt>
      <trkpt lat="48.84736" lon="1.0169">
        <ele>149.80000305176</ele>
        <time>2016-05-05T10:50:23.000Z</time>
      </trkpt>
      <trkpt lat="48.84738" lon="1.01675">
        <ele>149.39999389648</ele>
        <time>2016-05-05T10:50:30.000Z</time>
      </trkpt>
      <trkpt lat="48.84739" lon="1.01665">
        <ele>149.19999694824</ele>
        <time>2016-05-05T10:50:35.000Z</time>
      </trkpt>
      <trkpt lat="48.84739" lon="1.01661">
        <ele>149.19999694824</ele>
        <time>2016-05-05T10:50:37.000Z</time>
      </trkpt>
      <trkpt lat="48.8474" lon="1.01652">
        <ele>149</ele>
        <time>2016-05-05T10:50:43.000Z</time>
      </trkpt>
      <trkpt lat="48.8474" lon="1.01641">
        <ele>148.39999389648</ele>
        <time>2016-05-05T10:50:48.000Z</time>
      </trkpt>
      <trkpt lat="48.8474" lon="1.01639">
        <ele>148.39999389648</ele>
        <time>2016-05-05T10:50:49.000Z</time>
      </trkpt>
      <trkpt lat="48.84739" lon="1.01623">
        <ele>148.19999694824</ele>
        <time>2016-05-05T10:50:56.000Z</time>
      </trkpt>
      <trkpt lat="48.8474" lon="1.01607">
        <ele>148</ele>
        <time>2016-05-05T10:51:02.000Z</time>
      </trkpt>
      <trkpt lat="48.84741" lon="1.01592">
        <ele>148</ele>
        <time>2016-05-05T10:51:08.000Z</time>
      </trkpt>
      <trkpt lat="48.84742" lon="1.01579">
        <ele>148</ele>
        <time>2016-05-05T10:51:14.000Z</time>
      </trkpt>
      <trkpt lat="48.8474" lon="1.01567">
        <ele>147.60000610352</ele>
        <time>2016-05-05T10:51:20.000Z</time>
      </trkpt>
      <trkpt lat="48.84738" lon="1.01558">
        <ele>147.39999389648</ele>
        <time>2016-05-05T10:51:25.000Z</time>
      </trkpt>
      <trkpt lat="48.84738" lon="1.01556">
        <ele>147.19999694824</ele>
        <time>2016-05-05T10:51:26.000Z</time>
      </trkpt>
      <trkpt lat="48.84733" lon="1.0154">
        <ele>147</ele>
        <time>2016-05-05T10:51:34.000Z</time>
      </trkpt>
      <trkpt lat="48.84726" lon="1.01529">
        <ele>146.19999694824</ele>
        <time>2016-05-05T10:51:41.000Z</time>
      </trkpt>
      <trkpt lat="48.84713" lon="1.0151">
        <ele>145.19999694824</ele>
        <time>2016-05-05T10:51:53.000Z</time>
      </trkpt>
      <trkpt lat="48.84706" lon="1.01496">
        <ele>144.60000610352</ele>
        <time>2016-05-05T10:52:01.000Z</time>
      </trkpt>
      <trkpt lat="48.84695" lon="1.01482">
        <ele>143.60000610352</ele>
        <time>2016-05-05T10:52:11.000Z</time>
      </trkpt>
      <trkpt lat="48.84682" lon="1.01468">
        <ele>143</ele>
        <time>2016-05-05T10:52:22.000Z</time>
      </trkpt>
      <trkpt lat="48.84671" lon="1.01455">
        <ele>143</ele>
        <time>2016-05-05T10:52:32.000Z</time>
      </trkpt>
      <trkpt lat="48.84661" lon="1.01443">
        <ele>143</ele>
        <time>2016-05-05T10:52:41.000Z</time>
      </trkpt>
      <trkpt lat="48.84654" lon="1.01431">
        <ele>143.19999694824</ele>
        <time>2016-05-05T10:52:49.000Z</time>
      </trkpt>
      <trkpt lat="48.84643" lon="1.01418">
        <ele>143.19999694824</ele>
        <time>2016-05-05T10:52:59.000Z</time>
      </trkpt>
      <trkpt lat="48.8463" lon="1.01402">
        <ele>143.19999694824</ele>
        <time>2016-05-05T10:53:10.000Z</time>
      </trkpt>
      <trkpt lat="48.84619" lon="1.01386">
        <ele>143</ele>
        <time>2016-05-05T10:53:21.000Z</time>
      </trkpt>
      <trkpt lat="48.84609" lon="1.01375">
        <ele>142.80000305176</ele>
        <time>2016-05-05T10:53:30.000Z</time>
      </trkpt>
      <trkpt lat="48.84599" lon="1.0136">
        <ele>142.80000305176</ele>
        <time>2016-05-05T10:53:40.000Z</time>
      </trkpt>
      <trkpt lat="48.84593" lon="1.0135">
        <ele>143</ele>
        <time>2016-05-05T10:53:48.000Z</time>
      </trkpt>
      <trkpt lat="48.84587" lon="1.01341">
        <ele>143</ele>
        <time>2016-05-05T10:53:55.000Z</time>
      </trkpt>
      <trkpt lat="48.84579" lon="1.01331">
        <ele>143.19999694824</ele>
        <time>2016-05-05T10:54:03.000Z</time>
      </trkpt>
      <trkpt lat="48.84569" lon="1.01321">
        <ele>143.39999389648</ele>
        <time>2016-05-05T10:54:11.000Z</time>
      </trkpt>
      <trkpt lat="48.84565" lon="1.01315">
        <ele>143.60000610352</ele>
        <time>2016-05-05T10:54:18.000Z</time>
      </trkpt>
      <trkpt lat="48.84559" lon="1.01295">
        <ele>143.60000610352</ele>
        <time>2016-05-05T10:56:00.000Z</time>
      </trkpt>
      <trkpt lat="48.84555" lon="1.0129">
        <ele>143.60000610352</ele>
        <time>2016-05-05T10:56:03.000Z</time>
      </trkpt>
      <trkpt lat="48.84549" lon="1.01282">
        <ele>143.80000305176</ele>
        <time>2016-05-05T10:56:09.000Z</time>
      </trkpt>
      <trkpt lat="48.84545" lon="1.01278">
        <ele>143.80000305176</ele>
        <time>2016-05-05T10:56:12.000Z</time>
      </trkpt>
      <trkpt lat="48.84543" lon="1.01274">
        <ele>143.80000305176</ele>
        <time>2016-05-05T10:56:14.000Z</time>
      </trkpt>
      <trkpt lat="48.84534" lon="1.01263">
        <ele>144</ele>
        <time>2016-05-05T10:56:22.000Z</time>
      </trkpt>
      <trkpt lat="48.84524" lon="1.0125">
        <ele>144.19999694824</ele>
        <time>2016-05-05T10:56:31.000Z</time>
      </trkpt>
      <trkpt lat="48.84518" lon="1.01242">
        <ele>144.39999389648</ele>
        <time>2016-05-05T10:56:37.000Z</time>
      </trkpt>
      <trkpt lat="48.84515" lon="1.01238">
        <ele>144.60000610352</ele>
        <time>2016-05-05T10:56:39.000Z</time>
      </trkpt>
      <trkpt lat="48.84506" lon="1.01227">
        <ele>144.80000305176</ele>
        <time>2016-05-05T10:56:48.000Z</time>
      </trkpt>
      <trkpt lat="48.84499" lon="1.0122">
        <ele>145</ele>
        <time>2016-05-05T10:56:54.000Z</time>
      </trkpt>
      <trkpt lat="48.84491" lon="1.01211">
        <ele>145.19999694824</ele>
        <time>2016-05-05T10:57:01.000Z</time>
      </trkpt>
      <trkpt lat="48.84479" lon="1.01197">
        <ele>145.39999389648</ele>
        <time>2016-05-05T10:57:11.000Z</time>
      </trkpt>
      <trkpt lat="48.84471" lon="1.01185">
        <ele>145.39999389648</ele>
        <time>2016-05-05T10:57:18.000Z</time>
      </trkpt>
      <trkpt lat="48.8446" lon="1.0117">
        <ele>145.60000610352</ele>
        <time>2016-05-05T10:57:28.000Z</time>
      </trkpt>
      <trkpt lat="48.84451" lon="1.01163">
        <ele>146</ele>
        <time>2016-05-05T10:57:35.000Z</time>
      </trkpt>
      <trkpt lat="48.84443" lon="1.01155">
        <ele>146</ele>
        <time>2016-05-05T10:57:41.000Z</time>
      </trkpt>
      <trkpt lat="48.8443" lon="1.01143">
        <ele>146.80000305176</ele>
        <time>2016-05-05T10:57:52.000Z</time>
      </trkpt>
      <trkpt lat="48.84423" lon="1.01138">
        <ele>147.39999389648</ele>
        <time>2016-05-05T10:57:58.000Z</time>
      </trkpt>
      <trkpt lat="48.84422" lon="1.01138">
        <ele>147.39999389648</ele>
        <time>2016-05-05T10:57:59.000Z</time>
      </trkpt>
      <trkpt lat="48.84418" lon="1.01135">
        <ele>147.60000610352</ele>
        <time>2016-05-05T10:58:02.000Z</time>
      </trkpt>
      <trkpt lat="48.84411" lon="1.0113">
        <ele>147.80000305176</ele>
        <time>2016-05-05T10:58:08.000Z</time>
      </trkpt>
      <trkpt lat="48.84401" lon="1.01121">
        <ele>148.19999694824</ele>
        <time>2016-05-05T10:58:16.000Z</time>
      </trkpt>
      <trkpt lat="48.84392" lon="1.01114">
        <ele>148.60000610352</ele>
        <time>2016-05-05T10:58:23.000Z</time>
      </trkpt>
      <trkpt lat="48.84383" lon="1.01108">
        <ele>149</ele>
        <time>2016-05-05T10:58:30.000Z</time>
      </trkpt>
      <trkpt lat="48.84378" lon="1.01105">
        <ele>149.19999694824</ele>
        <time>2016-05-05T10:58:34.000Z</time>
      </trkpt>
      <trkpt lat="48.84373" lon="1.01104">
        <ele>149.60000610352</ele>
        <time>2016-05-05T10:58:37.000Z</time>
      </trkpt>
      <trkpt lat="48.84364" lon="1.01098">
        <ele>150</ele>
        <time>2016-05-05T10:58:44.000Z</time>
      </trkpt>
      <trkpt lat="48.84354" lon="1.01092">
        <ele>150.60000610352</ele>
        <time>2016-05-05T10:58:52.000Z</time>
      </trkpt>
      <trkpt lat="48.84344" lon="1.01087">
        <ele>151.39999389648</ele>
        <time>2016-05-05T10:58:59.000Z</time>
      </trkpt>
      <trkpt lat="48.84334" lon="1.0108">
        <ele>152.19999694824</ele>
        <time>2016-05-05T10:59:07.000Z</time>
      </trkpt>
      <trkpt lat="48.84332" lon="1.0108">
        <ele>152.39999389648</ele>
        <time>2016-05-05T10:59:09.000Z</time>
      </trkpt>
      <trkpt lat="48.8433" lon="1.0108">
        <ele>152.60000610352</ele>
        <time>2016-05-05T10:59:11.000Z</time>
      </trkpt>
      <trkpt lat="48.84329" lon="1.01081">
        <ele>152.80000305176</ele>
        <time>2016-05-05T10:59:12.000Z</time>
      </trkpt>
      <trkpt lat="48.84322" lon="1.01086">
        <ele>154</ele>
        <time>2016-05-05T10:59:18.000Z</time>
      </trkpt>
      <trkpt lat="48.84321" lon="1.01087">
        <ele>154.19999694824</ele>
        <time>2016-05-05T10:59:19.000Z</time>
      </trkpt>
      <trkpt lat="48.84311" lon="1.01086">
        <ele>155.39999389648</ele>
        <time>2016-05-05T10:59:26.000Z</time>
      </trkpt>
      <trkpt lat="48.84304" lon="1.01084">
        <ele>156</ele>
        <time>2016-05-05T10:59:32.000Z</time>
      </trkpt>
      <trkpt lat="48.84296" lon="1.01078">
        <ele>156.60000610352</ele>
        <time>2016-05-05T10:59:38.000Z</time>
      </trkpt>
      <trkpt lat="48.84287" lon="1.0107">
        <ele>157</ele>
        <time>2016-05-05T10:59:45.000Z</time>
      </trkpt>
      <trkpt lat="48.84279" lon="1.01062">
        <ele>157.39999389648</ele>
        <time>2016-05-05T10:59:52.000Z</time>
      </trkpt>
      <trkpt lat="48.84272" lon="1.01053">
        <ele>157.39999389648</ele>
        <time>2016-05-05T10:59:59.000Z</time>
      </trkpt>
      <trkpt lat="48.84265" lon="1.01042">
        <ele>157.39999389648</ele>
        <time>2016-05-05T11:00:06.000Z</time>
      </trkpt>
      <trkpt lat="48.84255" lon="1.01025">
        <ele>157</ele>
        <time>2016-05-05T11:00:15.000Z</time>
      </trkpt>
      <trkpt lat="48.84249" lon="1.01011">
        <ele>156.60000610352</ele>
        <time>2016-05-05T11:00:23.000Z</time>
      </trkpt>
      <trkpt lat="48.84249" lon="1.01009">
        <ele>156.39999389648</ele>
        <time>2016-05-05T11:00:24.000Z</time>
      </trkpt>
      <trkpt lat="48.84246" lon="1.01002">
        <ele>156</ele>
        <time>2016-05-05T11:00:28.000Z</time>
      </trkpt>
      <trkpt lat="48.84242" lon="1.00991">
        <ele>155.39999389648</ele>
        <time>2016-05-05T11:00:34.000Z</time>
      </trkpt>
      <trkpt lat="48.8424" lon="1.00982">
        <ele>155</ele>
        <time>2016-05-05T11:00:39.000Z</time>
      </trkpt>
      <trkpt lat="48.84239" lon="1.00978">
        <ele>154.60000610352</ele>
        <time>2016-05-05T11:00:41.000Z</time>
      </trkpt>
      <trkpt lat="48.84238" lon="1.00971">
        <ele>154.39999389648</ele>
        <time>2016-05-05T11:00:45.000Z</time>
      </trkpt>
      <trkpt lat="48.84235" lon="1.00953">
        <ele>154.19999694824</ele>
        <time>2016-05-05T11:00:53.000Z</time>
      </trkpt>
      <trkpt lat="48.84234" lon="1.00936">
        <ele>153.60000610352</ele>
        <time>2016-05-05T11:01:01.000Z</time>
      </trkpt>
      <trkpt lat="48.84237" lon="1.00921">
        <ele>152.80000305176</ele>
        <time>2016-05-05T11:01:08.000Z</time>
      </trkpt>
      <trkpt lat="48.84241" lon="1.00906">
        <ele>151.60000610352</ele>
        <time>2016-05-05T11:01:16.000Z</time>
      </trkpt>
      <trkpt lat="48.84246" lon="1.00889">
        <ele>150.39999389648</ele>
        <time>2016-05-05T11:01:24.000Z</time>
      </trkpt>
      <trkpt lat="48.84249" lon="1.00878">
        <ele>149.19999694824</ele>
        <time>2016-05-05T11:01:30.000Z</time>
      </trkpt>
      <trkpt lat="48.84255" lon="1.00864">
        <ele>148.19999694824</ele>
        <time>2016-05-05T11:01:38.000Z</time>
      </trkpt>
      <trkpt lat="48.84261" lon="1.00849">
        <ele>147.39999389648</ele>
        <time>2016-05-05T11:01:46.000Z</time>
      </trkpt>
      <trkpt lat="48.84267" lon="1.00831">
        <ele>146.80000305176</ele>
        <time>2016-05-05T11:01:55.000Z</time>
      </trkpt>
      <trkpt lat="48.8427" lon="1.0082">
        <ele>146.39999389648</ele>
        <time>2016-05-05T11:02:01.000Z</time>
      </trkpt>
      <trkpt lat="48.84275" lon="1.00807">
        <ele>145.80000305176</ele>
        <time>2016-05-05T11:02:08.000Z</time>
      </trkpt>
      <trkpt lat="48.84276" lon="1.00802">
        <ele>145.60000610352</ele>
        <time>2016-05-05T11:02:11.000Z</time>
      </trkpt>
      <trkpt lat="48.84279" lon="1.00796">
        <ele>145.39999389648</ele>
        <time>2016-05-05T11:02:14.000Z</time>
      </trkpt>
      <trkpt lat="48.8428" lon="1.00795">
        <ele>145.39999389648</ele>
        <time>2016-05-05T11:02:15.000Z</time>
      </trkpt>
      <trkpt lat="48.84284" lon="1.00784">
        <ele>145</ele>
        <time>2016-05-05T11:02:21.000Z</time>
      </trkpt>
      <trkpt lat="48.84286" lon="1.00781">
        <ele>144.80000305176</ele>
        <time>2016-05-05T11:02:23.000Z</time>
      </trkpt>
      <trkpt lat="48.84288" lon="1.00775">
        <ele>144.60000610352</ele>
        <time>2016-05-05T11:02:26.000Z</time>
      </trkpt>
      <trkpt lat="48.84294" lon="1.00763">
        <ele>144.19999694824</ele>
        <time>2016-05-05T11:02:33.000Z</time>
      </trkpt>
      <trkpt lat="48.84296" lon="1.0076">
        <ele>144</ele>
        <time>2016-05-05T11:02:35.000Z</time>
      </trkpt>
      <trkpt lat="48.84299" lon="1.00754">
        <ele>143.80000305176</ele>
        <time>2016-05-05T11:02:39.000Z</time>
      </trkpt>
      <trkpt lat="48.843" lon="1.0075">
        <ele>143.60000610352</ele>
        <time>2016-05-05T11:02:41.000Z</time>
      </trkpt>
      <trkpt lat="48.84303" lon="1.00739">
        <ele>143.60000610352</ele>
        <time>2016-05-05T11:02:47.000Z</time>
      </trkpt>
      <trkpt lat="48.84303" lon="1.00738">
        <ele>143.60000610352</ele>
        <time>2016-05-05T11:02:49.000Z</time>
      </trkpt>
      <trkpt lat="48.84311" lon="1.00716">
        <ele>143.60000610352</ele>
        <time>2016-05-05T11:03:04.000Z</time>
      </trkpt>
      <trkpt lat="48.84312" lon="1.00712">
        <ele>143.60000610352</ele>
        <time>2016-05-05T11:03:06.000Z</time>
      </trkpt>
      <trkpt lat="48.84315" lon="1.00696">
        <ele>143.80000305176</ele>
        <time>2016-05-05T11:03:13.000Z</time>
      </trkpt>
      <trkpt lat="48.84315" lon="1.00689">
        <ele>144</ele>
        <time>2016-05-05T11:03:19.000Z</time>
      </trkpt>
      <trkpt lat="48.84322" lon="1.00654">
        <ele>144.19999694824</ele>
        <time>2016-05-05T11:04:19.000Z</time>
      </trkpt>
      <trkpt lat="48.84325" lon="1.00649">
        <ele>144.19999694824</ele>
        <time>2016-05-05T11:04:22.000Z</time>
      </trkpt>
      <trkpt lat="48.84329" lon="1.00638">
        <ele>144.39999389648</ele>
        <time>2016-05-05T11:04:29.000Z</time>
      </trkpt>
      <trkpt lat="48.84336" lon="1.00629">
        <ele>144.19999694824</ele>
        <time>2016-05-05T11:04:36.000Z</time>
      </trkpt>
      <trkpt lat="48.84338" lon="1.00628">
        <ele>144.19999694824</ele>
        <time>2016-05-05T11:04:38.000Z</time>
      </trkpt>
      <trkpt lat="48.84342" lon="1.00626">
        <ele>144.19999694824</ele>
        <time>2016-05-05T11:04:41.000Z</time>
      </trkpt>
      <trkpt lat="48.84344" lon="1.00626">
        <ele>144.19999694824</ele>
        <time>2016-05-05T11:04:43.000Z</time>
      </trkpt>
      <trkpt lat="48.84351" lon="1.00623">
        <ele>144</ele>
        <time>2016-05-05T11:04:49.000Z</time>
      </trkpt>
      <trkpt lat="48.84354" lon="1.00619">
        <ele>144</ele>
        <time>2016-05-05T11:04:52.000Z</time>
      </trkpt>
      <trkpt lat="48.84356" lon="1.00618">
        <ele>144</ele>
        <time>2016-05-05T11:04:54.000Z</time>
      </trkpt>
      <trkpt lat="48.84366" lon="1.00613">
        <ele>144.19999694824</ele>
        <time>2016-05-05T11:05:02.000Z</time>
      </trkpt>
      <trkpt lat="48.84377" lon="1.00609">
        <ele>144.39999389648</ele>
        <time>2016-05-05T11:05:10.000Z</time>
      </trkpt>
      <trkpt lat="48.84385" lon="1.00606">
        <ele>144.80000305176</ele>
        <time>2016-05-05T11:05:17.000Z</time>
      </trkpt>
      <trkpt lat="48.84391" lon="1.00602">
        <ele>144.80000305176</ele>
        <time>2016-05-05T11:05:22.000Z</time>
      </trkpt>
      <trkpt lat="48.84393" lon="1.00599">
        <ele>144.80000305176</ele>
        <time>2016-05-05T11:05:24.000Z</time>
      </trkpt>
      <trkpt lat="48.84397" lon="1.00594">
        <ele>145</ele>
        <time>2016-05-05T11:05:29.000Z</time>
      </trkpt>
      <trkpt lat="48.84398" lon="1.00591">
        <ele>145.19999694824</ele>
        <time>2016-05-05T11:05:31.000Z</time>
      </trkpt>
      <trkpt lat="48.844" lon="1.00584">
        <ele>145.19999694824</ele>
        <time>2016-05-05T11:05:37.000Z</time>
      </trkpt>
      <trkpt lat="48.84404" lon="1.00564">
        <ele>145.60000610352</ele>
        <time>2016-05-05T11:05:49.000Z</time>
      </trkpt>
      <trkpt lat="48.84405" lon="1.00558">
        <ele>145.80000305176</ele>
        <time>2016-05-05T11:05:52.000Z</time>
      </trkpt>
      <trkpt lat="48.84406" lon="1.00547">
        <ele>145.80000305176</ele>
        <time>2016-05-05T11:05:57.000Z</time>
      </trkpt>
      <trkpt lat="48.84405" lon="1.00543">
        <ele>145.80000305176</ele>
        <time>2016-05-05T11:05:59.000Z</time>
      </trkpt>
      <trkpt lat="48.84405" lon="1.00537">
        <ele>145.80000305176</ele>
        <time>2016-05-05T11:06:02.000Z</time>
      </trkpt>
      <trkpt lat="48.84405" lon="1.00531">
        <ele>145.80000305176</ele>
        <time>2016-05-05T11:06:06.000Z</time>
      </trkpt>
      <trkpt lat="48.84405" lon="1.00529">
        <ele>145.80000305176</ele>
        <time>2016-05-05T11:06:07.000Z</time>
      </trkpt>
      <trkpt lat="48.84403" lon="1.00515">
        <ele>145.60000610352</ele>
        <time>2016-05-05T11:06:15.000Z</time>
      </trkpt>
      <trkpt lat="48.84401" lon="1.00501">
        <ele>145.60000610352</ele>
        <time>2016-05-05T11:06:22.000Z</time>
      </trkpt>
      <trkpt lat="48.84399" lon="1.00484">
        <ele>145.60000610352</ele>
        <time>2016-05-05T11:06:29.000Z</time>
      </trkpt>
      <trkpt lat="48.84398" lon="1.00469">
        <ele>145.60000610352</ele>
        <time>2016-05-05T11:06:36.000Z</time>
      </trkpt>
      <trkpt lat="48.84398" lon="1.00451">
        <ele>145.80000305176</ele>
        <time>2016-05-05T11:06:44.000Z</time>
      </trkpt>
      <trkpt lat="48.844" lon="1.00432">
        <ele>146</ele>
        <time>2016-05-05T11:06:53.000Z</time>
      </trkpt>
      <trkpt lat="48.84401" lon="1.00423">
        <ele>146</ele>
        <time>2016-05-05T11:06:58.000Z</time>
      </trkpt>
      <trkpt lat="48.84402" lon="1.0041">
        <ele>145.80000305176</ele>
        <time>2016-05-05T11:07:04.000Z</time>
      </trkpt>
      <trkpt lat="48.84407" lon="1.00395">
        <ele>145.60000610352</ele>
        <time>2016-05-05T11:07:12.000Z</time>
      </trkpt>
      <trkpt lat="48.84412" lon="1.00379">
        <ele>145.60000610352</ele>
        <time>2016-05-05T11:07:21.000Z</time>
      </trkpt>
      <trkpt lat="48.84415" lon="1.00368">
        <ele>145.80000305176</ele>
        <time>2016-05-05T11:07:27.000Z</time>
      </trkpt>
      <trkpt lat="48.84418" lon="1.0035">
        <ele>146</ele>
        <time>2016-05-05T11:07:35.000Z</time>
      </trkpt>
      <trkpt lat="48.8442" lon="1.00343">
        <ele>146.19999694824</ele>
        <time>2016-05-05T11:07:39.000Z</time>
      </trkpt>
      <trkpt lat="48.84421" lon="1.00339">
        <ele>146.19999694824</ele>
        <time>2016-05-05T11:07:41.000Z</time>
      </trkpt>
      <trkpt lat="48.84425" lon="1.00326">
        <ele>146.39999389648</ele>
        <time>2016-05-05T11:07:48.000Z</time>
      </trkpt>
      <trkpt lat="48.84429" lon="1.00311">
        <ele>146.80000305176</ele>
        <time>2016-05-05T11:07:55.000Z</time>
      </trkpt>
      <trkpt lat="48.8443" lon="1.00306">
        <ele>146.80000305176</ele>
        <time>2016-05-05T11:08:00.000Z</time>
      </trkpt>
      <trkpt lat="48.8443" lon="1.00306">
        <ele>146.80000305176</ele>
        <time>2016-05-05T11:08:01.000Z</time>
      </trkpt>
      <trkpt lat="48.84444" lon="1.00266">
        <ele>147.19999694824</ele>
        <time>2016-05-05T11:10:33.000Z</time>
      </trkpt>
      <trkpt lat="48.84447" lon="1.00265">
        <ele>147.19999694824</ele>
        <time>2016-05-05T11:10:37.000Z</time>
      </trkpt>
      <trkpt lat="48.84457" lon="1.00257">
        <ele>147.39999389648</ele>
        <time>2016-05-05T11:10:48.000Z</time>
      </trkpt>
      <trkpt lat="48.8446" lon="1.00253">
        <ele>147.60000610352</ele>
        <time>2016-05-05T11:10:51.000Z</time>
      </trkpt>
      <trkpt lat="48.84462" lon="1.00251">
        <ele>147.60000610352</ele>
        <time>2016-05-05T11:10:53.000Z</time>
      </trkpt>
      <trkpt lat="48.84466" lon="1.00248">
        <ele>147.60000610352</ele>
        <time>2016-05-05T11:10:56.000Z</time>
      </trkpt>
      <trkpt lat="48.84474" lon="1.00241">
        <ele>147.19999694824</ele>
        <time>2016-05-05T11:11:03.000Z</time>
      </trkpt>
      <trkpt lat="48.84481" lon="1.00231">
        <ele>146.80000305176</ele>
        <time>2016-05-05T11:11:09.000Z</time>
      </trkpt>
      <trkpt lat="48.84487" lon="1.00212">
        <ele>146.19999694824</ele>
        <time>2016-05-05T11:11:18.000Z</time>
      </trkpt>
      <trkpt lat="48.84494" lon="1.00196">
        <ele>146</ele>
        <time>2016-05-05T11:11:27.000Z</time>
      </trkpt>
      <trkpt lat="48.84504" lon="1.00186">
        <ele>146</ele>
        <time>2016-05-05T11:11:36.000Z</time>
      </trkpt>
      <trkpt lat="48.84514" lon="1.00171">
        <ele>146</ele>
        <time>2016-05-05T11:11:46.000Z</time>
      </trkpt>
      <trkpt lat="48.84525" lon="1.00157">
        <ele>146.19999694824</ele>
        <time>2016-05-05T11:11:56.000Z</time>
      </trkpt>
      <trkpt lat="48.8454" lon="1.00139">
        <ele>146.80000305176</ele>
        <time>2016-05-05T11:12:09.000Z</time>
      </trkpt>
      <trkpt lat="48.84553" lon="1.00124">
        <ele>147.39999389648</ele>
        <time>2016-05-05T11:12:21.000Z</time>
      </trkpt>
      <trkpt lat="48.84565" lon="1.00111">
        <ele>148</ele>
        <time>2016-05-05T11:12:31.000Z</time>
      </trkpt>
      <trkpt lat="48.84578" lon="1.00096">
        <ele>148.19999694824</ele>
        <time>2016-05-05T11:12:43.000Z</time>
      </trkpt>
      <trkpt lat="48.84582" lon="1.00088">
        <ele>148.19999694824</ele>
        <time>2016-05-05T11:12:49.000Z</time>
      </trkpt>
      <trkpt lat="48.84583" lon="1.00085">
        <ele>148</ele>
        <time>2016-05-05T11:12:51.000Z</time>
      </trkpt>
      <trkpt lat="48.84588" lon="1.00073">
        <ele>148</ele>
        <time>2016-05-05T11:12:58.000Z</time>
      </trkpt>
      <trkpt lat="48.84595" lon="1.00058">
        <ele>147.80000305176</ele>
        <time>2016-05-05T11:13:07.000Z</time>
      </trkpt>
      <trkpt lat="48.84603" lon="1.00041">
        <ele>147.60000610352</ele>
        <time>2016-05-05T11:13:17.000Z</time>
      </trkpt>
      <trkpt lat="48.84608" lon="1.00027">
        <ele>147.39999389648</ele>
        <time>2016-05-05T11:13:25.000Z</time>
      </trkpt>
      <trkpt lat="48.84619" lon="1.0001">
        <ele>147.80000305176</ele>
        <time>2016-05-05T11:13:36.000Z</time>
      </trkpt>
      <trkpt lat="48.8463" lon="0.99995">
        <ele>148.19999694824</ele>
        <time>2016-05-05T11:13:47.000Z</time>
      </trkpt>
      <trkpt lat="48.84637" lon="0.9998">
        <ele>148.39999389648</ele>
        <time>2016-05-05T11:13:56.000Z</time>
      </trkpt>
      <trkpt lat="48.8464" lon="0.99976">
        <ele>148.39999389648</ele>
        <time>2016-05-05T11:14:01.000Z</time>
      </trkpt>
      <trkpt lat="48.84645" lon="0.99953">
        <ele>148.60000610352</ele>
        <time>2016-05-05T11:14:16.000Z</time>
      </trkpt>
      <trkpt lat="48.84648" lon="0.99944">
        <ele>148.60000610352</ele>
        <time>2016-05-05T11:14:22.000Z</time>
      </trkpt>
      <trkpt lat="48.84653" lon="0.99934">
        <ele>149</ele>
        <time>2016-05-05T11:14:29.000Z</time>
      </trkpt>
      <trkpt lat="48.84659" lon="0.99924">
        <ele>149.60000610352</ele>
        <time>2016-05-05T11:14:36.000Z</time>
      </trkpt>
      <trkpt lat="48.8466" lon="0.99922">
        <ele>149.80000305176</ele>
        <time>2016-05-05T11:14:38.000Z</time>
      </trkpt>
      <trkpt lat="48.84663" lon="0.99916">
        <ele>150.19999694824</ele>
        <time>2016-05-05T11:14:42.000Z</time>
      </trkpt>
      <trkpt lat="48.8467" lon="0.99901">
        <ele>151</ele>
        <time>2016-05-05T11:14:51.000Z</time>
      </trkpt>
      <trkpt lat="48.84678" lon="0.99886">
        <ele>152</ele>
        <time>2016-05-05T11:15:00.000Z</time>
      </trkpt>
      <trkpt lat="48.84682" lon="0.99879">
        <ele>152.19999694824</ele>
        <time>2016-05-05T11:15:05.000Z</time>
      </trkpt>
      <trkpt lat="48.84683" lon="0.99877">
        <ele>152.19999694824</ele>
        <time>2016-05-05T11:15:06.000Z</time>
      </trkpt>
      <trkpt lat="48.84692" lon="0.99862">
        <ele>152.60000610352</ele>
        <time>2016-05-05T11:15:16.000Z</time>
      </trkpt>
      <trkpt lat="48.84702" lon="0.99848">
        <ele>152.80000305176</ele>
        <time>2016-05-05T11:15:26.000Z</time>
      </trkpt>
      <trkpt lat="48.84714" lon="0.99834">
        <ele>153.39999389648</ele>
        <time>2016-05-05T11:15:36.000Z</time>
      </trkpt>
      <trkpt lat="48.84729" lon="0.99821">
        <ele>154.80000305176</ele>
        <time>2016-05-05T11:15:48.000Z</time>
      </trkpt>
      <trkpt lat="48.84735" lon="0.99807">
        <ele>155.39999389648</ele>
        <time>2016-05-05T11:15:57.000Z</time>
      </trkpt>
      <trkpt lat="48.84741" lon="0.9979">
        <ele>155</ele>
        <time>2016-05-05T11:16:06.000Z</time>
      </trkpt>
      <trkpt lat="48.84746" lon="0.99773">
        <ele>155</ele>
        <time>2016-05-05T11:16:15.000Z</time>
      </trkpt>
      <trkpt lat="48.84752" lon="0.99761">
        <ele>155.39999389648</ele>
        <time>2016-05-05T11:16:22.000Z</time>
      </trkpt>
      <trkpt lat="48.84757" lon="0.99752">
        <ele>155.80000305176</ele>
        <time>2016-05-05T11:16:28.000Z</time>
      </trkpt>
      <trkpt lat="48.84757" lon="0.99751">
        <ele>155.80000305176</ele>
        <time>2016-05-05T11:16:31.000Z</time>
      </trkpt>
      <trkpt lat="48.84761" lon="0.99742">
        <ele>156</ele>
        <time>2016-05-05T11:16:38.000Z</time>
      </trkpt>
      <trkpt lat="48.84762" lon="0.9974">
        <ele>156.19999694824</ele>
        <time>2016-05-05T11:16:39.000Z</time>
      </trkpt>
      <trkpt lat="48.8477" lon="0.99725">
        <ele>156.60000610352</ele>
        <time>2016-05-05T11:16:45.000Z</time>
      </trkpt>
      <trkpt lat="48.84772" lon="0.99713">
        <ele>156.19999694824</ele>
        <time>2016-05-05T11:16:51.000Z</time>
      </trkpt>
      <trkpt lat="48.84773" lon="0.99711">
        <ele>156.19999694824</ele>
        <time>2016-05-05T11:16:52.000Z</time>
      </trkpt>
      <trkpt lat="48.84778" lon="0.99702">
        <ele>155.80000305176</ele>
        <time>2016-05-05T11:16:57.000Z</time>
      </trkpt>
      <trkpt lat="48.8478" lon="0.99698">
        <ele>155.80000305176</ele>
        <time>2016-05-05T11:17:00.000Z</time>
      </trkpt>
      <trkpt lat="48.84786" lon="0.99684">
        <ele>155.19999694824</ele>
        <time>2016-05-05T11:17:08.000Z</time>
      </trkpt>
      <trkpt lat="48.84793" lon="0.9967">
        <ele>154.60000610352</ele>
        <time>2016-05-05T11:17:17.000Z</time>
      </trkpt>
      <trkpt lat="48.84799" lon="0.99657">
        <ele>154.80000305176</ele>
        <time>2016-05-05T11:17:24.000Z</time>
      </trkpt>
      <trkpt lat="48.848" lon="0.99655">
        <ele>154.80000305176</ele>
        <time>2016-05-05T11:17:25.000Z</time>
      </trkpt>
      <trkpt lat="48.84802" lon="0.9965">
        <ele>155</ele>
        <time>2016-05-05T11:17:28.000Z</time>
      </trkpt>
      <trkpt lat="48.84805" lon="0.99641">
        <ele>155.19999694824</ele>
        <time>2016-05-05T11:17:33.000Z</time>
      </trkpt>
      <trkpt lat="48.84812" lon="0.99627">
        <ele>155</ele>
        <time>2016-05-05T11:17:41.000Z</time>
      </trkpt>
      <trkpt lat="48.8482" lon="0.99612">
        <ele>154.80000305176</ele>
        <time>2016-05-05T11:17:50.000Z</time>
      </trkpt>
      <trkpt lat="48.84827" lon="0.99594">
        <ele>154.39999389648</ele>
        <time>2016-05-05T11:18:00.000Z</time>
      </trkpt>
      <trkpt lat="48.84832" lon="0.99588">
        <ele>154.60000610352</ele>
        <time>2016-05-05T11:18:06.000Z</time>
      </trkpt>
      <trkpt lat="48.84839" lon="0.99581">
        <ele>154.80000305176</ele>
        <time>2016-05-05T11:18:12.000Z</time>
      </trkpt>
      <trkpt lat="48.84846" lon="0.99566">
        <ele>154.60000610352</ele>
        <time>2016-05-05T11:18:21.000Z</time>
      </trkpt>
      <trkpt lat="48.84851" lon="0.99556">
        <ele>154.39999389648</ele>
        <time>2016-05-05T11:18:27.000Z</time>
      </trkpt>
      <trkpt lat="48.84857" lon="0.99542">
        <ele>153.80000305176</ele>
        <time>2016-05-05T11:18:35.000Z</time>
      </trkpt>
      <trkpt lat="48.84859" lon="0.99527">
        <ele>152.39999389648</ele>
        <time>2016-05-05T11:18:43.000Z</time>
      </trkpt>
      <trkpt lat="48.8486" lon="0.99507">
        <ele>150.80000305176</ele>
        <time>2016-05-05T11:18:49.000Z</time>
      </trkpt>
      <trkpt lat="48.84862" lon="0.99491">
        <ele>149.60000610352</ele>
        <time>2016-05-05T11:18:56.000Z</time>
      </trkpt>
      <trkpt lat="48.84865" lon="0.99476">
        <ele>148.80000305176</ele>
        <time>2016-05-05T11:19:04.000Z</time>
      </trkpt>
      <trkpt lat="48.84868" lon="0.99464">
        <ele>148.80000305176</ele>
        <time>2016-05-05T11:19:10.000Z</time>
      </trkpt>
      <trkpt lat="48.84872" lon="0.9945">
        <ele>149.19999694824</ele>
        <time>2016-05-05T11:19:17.000Z</time>
      </trkpt>
      <trkpt lat="48.84877" lon="0.99435">
        <ele>149.39999389648</ele>
        <time>2016-05-05T11:19:25.000Z</time>
      </trkpt>
      <trkpt lat="48.8488" lon="0.99424">
        <ele>149.80000305176</ele>
        <time>2016-05-05T11:19:31.000Z</time>
      </trkpt>
      <trkpt lat="48.84882" lon="0.99415">
        <ele>149.80000305176</ele>
        <time>2016-05-05T11:19:37.000Z</time>
      </trkpt>
      <trkpt lat="48.84883" lon="0.99413">
        <ele>149.60000610352</ele>
        <time>2016-05-05T11:19:39.000Z</time>
      </trkpt>
      <trkpt lat="48.84889" lon="0.99406">
        <ele>149.60000610352</ele>
        <time>2016-05-05T11:19:44.000Z</time>
      </trkpt>
      <trkpt lat="48.84895" lon="0.994">
        <ele>149.39999389648</ele>
        <time>2016-05-05T11:19:50.000Z</time>
      </trkpt>
      <trkpt lat="48.849" lon="0.99398">
        <ele>149.39999389648</ele>
        <time>2016-05-05T11:19:54.000Z</time>
      </trkpt>
      <trkpt lat="48.84903" lon="0.99395">
        <ele>149.39999389648</ele>
        <time>2016-05-05T11:19:56.000Z</time>
      </trkpt>
      <trkpt lat="48.84911" lon="0.99386">
        <ele>149.39999389648</ele>
        <time>2016-05-05T11:20:03.000Z</time>
      </trkpt>
      <trkpt lat="48.84917" lon="0.99375">
        <ele>149.60000610352</ele>
        <time>2016-05-05T11:20:10.000Z</time>
      </trkpt>
      <trkpt lat="48.84926" lon="0.99361">
        <ele>149.39999389648</ele>
        <time>2016-05-05T11:20:18.000Z</time>
      </trkpt>
      <trkpt lat="48.84933" lon="0.9935">
        <ele>149</ele>
        <time>2016-05-05T11:20:25.000Z</time>
      </trkpt>
      <trkpt lat="48.8494" lon="0.9934">
        <ele>148.80000305176</ele>
        <time>2016-05-05T11:20:32.000Z</time>
      </trkpt>
      <trkpt lat="48.84951" lon="0.99328">
        <ele>149</ele>
        <time>2016-05-05T11:20:41.000Z</time>
      </trkpt>
      <trkpt lat="48.84959" lon="0.9932">
        <ele>149</ele>
        <time>2016-05-05T11:20:48.000Z</time>
      </trkpt>
      <trkpt lat="48.84969" lon="0.99311">
        <ele>148.80000305176</ele>
        <time>2016-05-05T11:20:56.000Z</time>
      </trkpt>
      <trkpt lat="48.84977" lon="0.99302">
        <ele>149</ele>
        <time>2016-05-05T11:21:03.000Z</time>
      </trkpt>
      <trkpt lat="48.84985" lon="0.99292">
        <ele>149.19999694824</ele>
        <time>2016-05-05T11:21:10.000Z</time>
      </trkpt>
      <trkpt lat="48.84995" lon="0.99279">
        <ele>149.60000610352</ele>
        <time>2016-05-05T11:21:19.000Z</time>
      </trkpt>
      <trkpt lat="48.85001" lon="0.99267">
        <ele>149.80000305176</ele>
        <time>2016-05-05T11:21:26.000Z</time>
      </trkpt>
      <trkpt lat="48.85003" lon="0.99266">
        <ele>149.80000305176</ele>
        <time>2016-05-05T11:21:28.000Z</time>
      </trkpt>
      <trkpt lat="48.85005" lon="0.99269">
        <ele>149.80000305176</ele>
        <time>2016-05-05T11:21:31.000Z</time>
      </trkpt>
      <trkpt lat="48.85004" lon="0.99276">
        <ele>149.80000305176</ele>
        <time>2016-05-05T11:21:35.000Z</time>
      </trkpt>
      <trkpt lat="48.85004" lon="0.99277">
        <ele>149.80000305176</ele>
        <time>2016-05-05T11:21:37.000Z</time>
      </trkpt>
      <trkpt lat="48.85004" lon="0.99277">
        <ele>149.80000305176</ele>
        <time>2016-05-05T11:21:38.000Z</time>
      </trkpt>
      <trkpt lat="48.85005" lon="0.99277">
        <ele>149.80000305176</ele>
        <time>2016-05-05T11:23:14.000Z</time>
      </trkpt>
      <trkpt lat="48.85007" lon="0.99271">
        <ele>149.80000305176</ele>
        <time>2016-05-05T11:23:17.000Z</time>
      </trkpt>
      <trkpt lat="48.8501" lon="0.99264">
        <ele>149.80000305176</ele>
        <time>2016-05-05T11:23:21.000Z</time>
      </trkpt>
      <trkpt lat="48.85012" lon="0.99265">
        <ele>149.80000305176</ele>
        <time>2016-05-05T11:23:23.000Z</time>
      </trkpt>
      <trkpt lat="48.85013" lon="0.99266">
        <ele>149.80000305176</ele>
        <time>2016-05-05T11:23:25.000Z</time>
      </trkpt>
      <trkpt lat="48.85013" lon="0.99267">
        <ele>149.80000305176</ele>
        <time>2016-05-05T11:23:26.000Z</time>
      </trkpt>
      <trkpt lat="48.85011" lon="0.99268">
        <ele>149.80000305176</ele>
        <time>2016-05-05T11:24:00.000Z</time>
      </trkpt>
      <trkpt lat="48.85011" lon="0.99267">
        <ele>149.80000305176</ele>
        <time>2016-05-05T11:24:02.000Z</time>
      </trkpt>
      <trkpt lat="48.85005" lon="0.9926">
        <ele>149.80000305176</ele>
        <time>2016-05-05T11:24:07.000Z</time>
      </trkpt>
      <trkpt lat="48.85004" lon="0.99257">
        <ele>149.80000305176</ele>
        <time>2016-05-05T11:24:08.000Z</time>
      </trkpt>
      <trkpt lat="48.85004" lon="0.99253">
        <ele>149.80000305176</ele>
        <time>2016-05-05T11:24:12.000Z</time>
      </trkpt>
      <trkpt lat="48.85012" lon="0.99261">
        <ele>149.80000305176</ele>
        <time>2016-05-05T11:24:20.000Z</time>
      </trkpt>
      <trkpt lat="48.85014" lon="0.99263">
        <ele>149.80000305176</ele>
        <time>2016-05-05T11:24:23.000Z</time>
      </trkpt>
      <trkpt lat="48.85014" lon="0.99263">
        <ele>150</ele>
        <time>2016-05-05T11:24:24.000Z</time>
      </trkpt>
      <trkpt lat="48.85015" lon="0.99263">
        <ele>150</ele>
        <time>2016-05-05T11:24:26.000Z</time>
      </trkpt>
      <trkpt lat="48.85015" lon="0.99269">
        <ele>150</ele>
        <time>2016-05-05T11:24:45.000Z</time>
      </trkpt>
      <trkpt lat="48.85015" lon="0.99271">
        <ele>150</ele>
        <time>2016-05-05T11:24:48.000Z</time>
      </trkpt>
      <trkpt lat="48.85017" lon="0.99275">
        <ele>150</ele>
        <time>2016-05-05T11:24:50.000Z</time>
      </trkpt>
      <trkpt lat="48.85021" lon="0.99277">
        <ele>150</ele>
        <time>2016-05-05T11:24:52.000Z</time>
      </trkpt>
      <trkpt lat="48.8503" lon="0.99277">
        <ele>150.60000610352</ele>
        <time>2016-05-05T11:24:57.000Z</time>
      </trkpt>
      <trkpt lat="48.85033" lon="0.99275">
        <ele>150.80000305176</ele>
        <time>2016-05-05T11:25:02.000Z</time>
      </trkpt>
      <trkpt lat="48.85003" lon="0.99277">
        <ele>149.80000305176</ele>
        <time>2016-05-05T11:26:54.000Z</time>
      </trkpt>
      <trkpt lat="48.85" lon="0.99282">
        <ele>149.80000305176</ele>
        <time>2016-05-05T11:26:58.000Z</time>
      </trkpt>
      <trkpt lat="48.85" lon="0.99283">
        <ele>149.80000305176</ele>
        <time>2016-05-05T11:27:00.000Z</time>
      </trkpt>
      <trkpt lat="48.85004" lon="0.99282">
        <ele>149.80000305176</ele>
        <time>2016-05-05T11:33:10.000Z</time>
      </trkpt>
      <trkpt lat="48.85005" lon="0.99278">
        <ele>149.80000305176</ele>
        <time>2016-05-05T11:33:12.000Z</time>
      </trkpt>
      <trkpt lat="48.85007" lon="0.99268">
        <ele>149.80000305176</ele>
        <time>2016-05-05T11:33:17.000Z</time>
      </trkpt>
      <trkpt lat="48.85006" lon="0.99264">
        <ele>149.80000305176</ele>
        <time>2016-05-05T11:33:19.000Z</time>
      </trkpt>
      <trkpt lat="48.85005" lon="0.99252">
        <ele>149.80000305176</ele>
        <time>2016-05-05T11:33:25.000Z</time>
      </trkpt>
      <trkpt lat="48.85005" lon="0.99232">
        <ele>149.80000305176</ele>
        <time>2016-05-05T11:33:34.000Z</time>
      </trkpt>
      <trkpt lat="48.85005" lon="0.99216">
        <ele>149.39999389648</ele>
        <time>2016-05-05T11:33:41.000Z</time>
      </trkpt>
      <trkpt lat="48.85004" lon="0.992">
        <ele>149</ele>
        <time>2016-05-05T11:33:48.000Z</time>
      </trkpt>
      <trkpt lat="48.85005" lon="0.99198">
        <ele>149</ele>
        <time>2016-05-05T11:33:49.000Z</time>
      </trkpt>
      <trkpt lat="48.85005" lon="0.9919">
        <ele>149</ele>
        <time>2016-05-05T11:33:53.000Z</time>
      </trkpt>
      <trkpt lat="48.85005" lon="0.99183">
        <ele>148.80000305176</ele>
        <time>2016-05-05T11:33:56.000Z</time>
      </trkpt>
      <trkpt lat="48.85004" lon="0.99167">
        <ele>148.60000610352</ele>
        <time>2016-05-05T11:34:03.000Z</time>
      </trkpt>
      <trkpt lat="48.85003" lon="0.99143">
        <ele>148.39999389648</ele>
        <time>2016-05-05T11:34:14.000Z</time>
      </trkpt>
      <trkpt lat="48.85004" lon="0.99124">
        <ele>148.39999389648</ele>
        <time>2016-05-05T11:34:23.000Z</time>
      </trkpt>
      <trkpt lat="48.85004" lon="0.99104">
        <ele>148.39999389648</ele>
        <time>2016-05-05T11:34:32.000Z</time>
      </trkpt>
      <trkpt lat="48.85005" lon="0.99092">
        <ele>148.39999389648</ele>
        <time>2016-05-05T11:34:38.000Z</time>
      </trkpt>
      <trkpt lat="48.85005" lon="0.99089">
        <ele>148.39999389648</ele>
        <time>2016-05-05T11:34:40.000Z</time>
      </trkpt>
      <trkpt lat="48.85004" lon="0.99082">
        <ele>148.39999389648</ele>
        <time>2016-05-05T11:34:43.000Z</time>
      </trkpt>
      <trkpt lat="48.85002" lon="0.99066">
        <ele>148.19999694824</ele>
        <time>2016-05-05T11:34:50.000Z</time>
      </trkpt>
      <trkpt lat="48.84999" lon="0.99041">
        <ele>148.39999389648</ele>
        <time>2016-05-05T11:35:02.000Z</time>
      </trkpt>
      <trkpt lat="48.84994" lon="0.9903">
        <ele>148.39999389648</ele>
        <time>2016-05-05T11:35:10.000Z</time>
      </trkpt>
      <trkpt lat="48.8499" lon="0.99017">
        <ele>148.39999389648</ele>
        <time>2016-05-05T11:35:17.000Z</time>
      </trkpt>
      <trkpt lat="48.84988" lon="0.99008">
        <ele>148.39999389648</ele>
        <time>2016-05-05T11:35:22.000Z</time>
      </trkpt>
      <trkpt lat="48.84986" lon="0.99">
        <ele>148.39999389648</ele>
        <time>2016-05-05T11:35:26.000Z</time>
      </trkpt>
      <trkpt lat="48.84985" lon="0.98994">
        <ele>148.39999389648</ele>
        <time>2016-05-05T11:35:29.000Z</time>
      </trkpt>
      <trkpt lat="48.8498" lon="0.98977">
        <ele>148.39999389648</ele>
        <time>2016-05-05T11:35:37.000Z</time>
      </trkpt>
      <trkpt lat="48.84974" lon="0.9896">
        <ele>148.19999694824</ele>
        <time>2016-05-05T11:35:46.000Z</time>
      </trkpt>
      <trkpt lat="48.84968" lon="0.98942">
        <ele>148</ele>
        <time>2016-05-05T11:35:55.000Z</time>
      </trkpt>
      <trkpt lat="48.84964" lon="0.98933">
        <ele>147.80000305176</ele>
        <time>2016-05-05T11:36:01.000Z</time>
      </trkpt>
      <trkpt lat="48.84961" lon="0.98922">
        <ele>147.80000305176</ele>
        <time>2016-05-05T11:36:06.000Z</time>
      </trkpt>
      <trkpt lat="48.84957" lon="0.98908">
        <ele>147.60000610352</ele>
        <time>2016-05-05T11:36:14.000Z</time>
      </trkpt>
      <trkpt lat="48.84952" lon="0.98894">
        <ele>147.39999389648</ele>
        <time>2016-05-05T11:36:21.000Z</time>
      </trkpt>
      <trkpt lat="48.84942" lon="0.98872">
        <ele>147.39999389648</ele>
        <time>2016-05-05T11:36:34.000Z</time>
      </trkpt>
      <trkpt lat="48.84936" lon="0.98865">
        <ele>147.19999694824</ele>
        <time>2016-05-05T11:36:40.000Z</time>
      </trkpt>
      <trkpt lat="48.84936" lon="0.9885">
        <ele>147.39999389648</ele>
        <time>2016-05-05T11:36:47.000Z</time>
      </trkpt>
      <trkpt lat="48.8493" lon="0.98834">
        <ele>147.39999389648</ele>
        <time>2016-05-05T11:36:54.000Z</time>
      </trkpt>
      <trkpt lat="48.84922" lon="0.9882">
        <ele>147.39999389648</ele>
        <time>2016-05-05T11:37:00.000Z</time>
      </trkpt>
      <trkpt lat="48.8492" lon="0.98815">
        <ele>147.39999389648</ele>
        <time>2016-05-05T11:37:04.000Z</time>
      </trkpt>
      <trkpt lat="48.84921" lon="0.98815">
        <ele>147.39999389648</ele>
        <time>2016-05-05T11:37:06.000Z</time>
      </trkpt>
      <trkpt lat="48.84925" lon="0.98811">
        <ele>147.60000610352</ele>
        <time>2016-05-05T11:37:11.000Z</time>
      </trkpt>
      <trkpt lat="48.84924" lon="0.98807">
        <ele>147.60000610352</ele>
        <time>2016-05-05T11:37:13.000Z</time>
      </trkpt>
      <trkpt lat="48.84921" lon="0.98796">
        <ele>147.80000305176</ele>
        <time>2016-05-05T11:37:16.000Z</time>
      </trkpt>
      <trkpt lat="48.84914" lon="0.98777">
        <ele>147.80000305176</ele>
        <time>2016-05-05T11:37:22.000Z</time>
      </trkpt>
      <trkpt lat="48.84911" lon="0.98762">
        <ele>147.80000305176</ele>
        <time>2016-05-05T11:37:29.000Z</time>
      </trkpt>
      <trkpt lat="48.84907" lon="0.98749">
        <ele>148</ele>
        <time>2016-05-05T11:37:36.000Z</time>
      </trkpt>
      <trkpt lat="48.84906" lon="0.98748">
        <ele>148</ele>
        <time>2016-05-05T11:37:37.000Z</time>
      </trkpt>
      <trkpt lat="48.84902" lon="0.98743">
        <ele>147.80000305176</ele>
        <time>2016-05-05T11:37:41.000Z</time>
      </trkpt>
      <trkpt lat="48.84895" lon="0.98737">
        <ele>147.80000305176</ele>
        <time>2016-05-05T11:37:47.000Z</time>
      </trkpt>
      <trkpt lat="48.84889" lon="0.98728">
        <ele>147.80000305176</ele>
        <time>2016-05-05T11:37:53.000Z</time>
      </trkpt>
      <trkpt lat="48.84882" lon="0.98718">
        <ele>147.80000305176</ele>
        <time>2016-05-05T11:38:01.000Z</time>
      </trkpt>
      <trkpt lat="48.84875" lon="0.98707">
        <ele>147.60000610352</ele>
        <time>2016-05-05T11:38:08.000Z</time>
      </trkpt>
      <trkpt lat="48.84868" lon="0.98694">
        <ele>147.60000610352</ele>
        <time>2016-05-05T11:38:16.000Z</time>
      </trkpt>
      <trkpt lat="48.84861" lon="0.9868">
        <ele>147.60000610352</ele>
        <time>2016-05-05T11:38:24.000Z</time>
      </trkpt>
      <trkpt lat="48.84855" lon="0.98664">
        <ele>147.80000305176</ele>
        <time>2016-05-05T11:38:33.000Z</time>
      </trkpt>
      <trkpt lat="48.84851" lon="0.9865">
        <ele>148</ele>
        <time>2016-05-05T11:38:40.000Z</time>
      </trkpt>
      <trkpt lat="48.84846" lon="0.9864">
        <ele>148</ele>
        <time>2016-05-05T11:38:47.000Z</time>
      </trkpt>
      <trkpt lat="48.84845" lon="0.98641">
        <ele>148</ele>
        <time>2016-05-05T11:38:48.000Z</time>
      </trkpt>
      <trkpt lat="48.84839" lon="0.98646">
        <ele>148</ele>
        <time>2016-05-05T11:38:53.000Z</time>
      </trkpt>
      <trkpt lat="48.84834" lon="0.98656">
        <ele>147.80000305176</ele>
        <time>2016-05-05T11:39:00.000Z</time>
      </trkpt>
      <trkpt lat="48.84829" lon="0.98668">
        <ele>147.60000610352</ele>
        <time>2016-05-05T11:39:06.000Z</time>
      </trkpt>
      <trkpt lat="48.84824" lon="0.98682">
        <ele>147.60000610352</ele>
        <time>2016-05-05T11:39:14.000Z</time>
      </trkpt>
      <trkpt lat="48.8482" lon="0.9869">
        <ele>147.39999389648</ele>
        <time>2016-05-05T11:39:21.000Z</time>
      </trkpt>
      <trkpt lat="48.84812" lon="0.98696">
        <ele>147.39999389648</ele>
        <time>2016-05-05T11:39:27.000Z</time>
      </trkpt>
      <trkpt lat="48.84812" lon="0.98696">
        <ele>147.39999389648</ele>
        <time>2016-05-05T11:39:28.000Z</time>
      </trkpt>
      <trkpt lat="48.84804" lon="0.98694">
        <ele>147.39999389648</ele>
        <time>2016-05-05T11:39:34.000Z</time>
      </trkpt>
      <trkpt lat="48.84793" lon="0.98686">
        <ele>147.39999389648</ele>
        <time>2016-05-05T11:39:43.000Z</time>
      </trkpt>
      <trkpt lat="48.84785" lon="0.9868">
        <ele>147.60000610352</ele>
        <time>2016-05-05T11:39:50.000Z</time>
      </trkpt>
      <trkpt lat="48.84774" lon="0.98673">
        <ele>147.60000610352</ele>
        <time>2016-05-05T11:39:58.000Z</time>
      </trkpt>
      <trkpt lat="48.84765" lon="0.98669">
        <ele>147.60000610352</ele>
        <time>2016-05-05T11:40:05.000Z</time>
      </trkpt>
      <trkpt lat="48.84759" lon="0.98665">
        <ele>147.80000305176</ele>
        <time>2016-05-05T11:40:09.000Z</time>
      </trkpt>
      <trkpt lat="48.84758" lon="0.98665">
        <ele>147.80000305176</ele>
        <time>2016-05-05T11:40:10.000Z</time>
      </trkpt>
      <trkpt lat="48.84749" lon="0.98658">
        <ele>147.80000305176</ele>
        <time>2016-05-05T11:40:17.000Z</time>
      </trkpt>
      <trkpt lat="48.8474" lon="0.98651">
        <ele>147.80000305176</ele>
        <time>2016-05-05T11:40:24.000Z</time>
      </trkpt>
      <trkpt lat="48.84727" lon="0.98642">
        <ele>148</ele>
        <time>2016-05-05T11:40:34.000Z</time>
      </trkpt>
      <trkpt lat="48.84714" lon="0.98633">
        <ele>148</ele>
        <time>2016-05-05T11:40:44.000Z</time>
      </trkpt>
      <trkpt lat="48.847" lon="0.98623">
        <ele>148</ele>
        <time>2016-05-05T11:40:55.000Z</time>
      </trkpt>
      <trkpt lat="48.8469" lon="0.98617">
        <ele>148</ele>
        <time>2016-05-05T11:41:02.000Z</time>
      </trkpt>
      <trkpt lat="48.84673" lon="0.98608">
        <ele>147.60000610352</ele>
        <time>2016-05-05T11:41:14.000Z</time>
      </trkpt>
      <trkpt lat="48.84658" lon="0.986">
        <ele>147.19999694824</ele>
        <time>2016-05-05T11:41:25.000Z</time>
      </trkpt>
      <trkpt lat="48.84645" lon="0.98591">
        <ele>147</ele>
        <time>2016-05-05T11:41:35.000Z</time>
      </trkpt>
      <trkpt lat="48.8464" lon="0.9859">
        <ele>146.80000305176</ele>
        <time>2016-05-05T11:41:39.000Z</time>
      </trkpt>
      <trkpt lat="48.84636" lon="0.98587">
        <ele>146.80000305176</ele>
        <time>2016-05-05T11:41:42.000Z</time>
      </trkpt>
      <trkpt lat="48.84632" lon="0.98585">
        <ele>146.60000610352</ele>
        <time>2016-05-05T11:41:45.000Z</time>
      </trkpt>
      <trkpt lat="48.84629" lon="0.98584">
        <ele>146.60000610352</ele>
        <time>2016-05-05T11:41:47.000Z</time>
      </trkpt>
      <trkpt lat="48.84618" lon="0.98579">
        <ele>146.39999389648</ele>
        <time>2016-05-05T11:41:55.000Z</time>
      </trkpt>
      <trkpt lat="48.84609" lon="0.98575">
        <ele>146.19999694824</ele>
        <time>2016-05-05T11:42:01.000Z</time>
      </trkpt>
      <trkpt lat="48.84598" lon="0.98571">
        <ele>146.39999389648</ele>
        <time>2016-05-05T11:42:09.000Z</time>
      </trkpt>
      <trkpt lat="48.84587" lon="0.98567">
        <ele>146.60000610352</ele>
        <time>2016-05-05T11:42:16.000Z</time>
      </trkpt>
      <trkpt lat="48.84586" lon="0.98567">
        <ele>146.60000610352</ele>
        <time>2016-05-05T11:42:17.000Z</time>
      </trkpt>
      <trkpt lat="48.84575" lon="0.98562">
        <ele>146.80000305176</ele>
        <time>2016-05-05T11:42:24.000Z</time>
      </trkpt>
      <trkpt lat="48.84564" lon="0.98556">
        <ele>147</ele>
        <time>2016-05-05T11:42:32.000Z</time>
      </trkpt>
      <trkpt lat="48.84561" lon="0.98554">
        <ele>147.19999694824</ele>
        <time>2016-05-05T11:42:36.000Z</time>
      </trkpt>
      <trkpt lat="48.84554" lon="0.98549">
        <ele>147.39999389648</ele>
        <time>2016-05-05T11:42:43.000Z</time>
      </trkpt>
      <trkpt lat="48.84553" lon="0.98548">
        <ele>147.39999389648</ele>
        <time>2016-05-05T11:42:44.000Z</time>
      </trkpt>
      <trkpt lat="48.84543" lon="0.98539">
        <ele>147.80000305176</ele>
        <time>2016-05-05T11:42:52.000Z</time>
      </trkpt>
      <trkpt lat="48.84532" lon="0.98531">
        <ele>148</ele>
        <time>2016-05-05T11:43:00.000Z</time>
      </trkpt>
      <trkpt lat="48.84521" lon="0.98524">
        <ele>148.39999389648</ele>
        <time>2016-05-05T11:43:08.000Z</time>
      </trkpt>
      <trkpt lat="48.84509" lon="0.98513">
        <ele>148.39999389648</ele>
        <time>2016-05-05T11:43:18.000Z</time>
      </trkpt>
      <trkpt lat="48.84497" lon="0.98504">
        <ele>148.39999389648</ele>
        <time>2016-05-05T11:43:27.000Z</time>
      </trkpt>
      <trkpt lat="48.84481" lon="0.98492">
        <ele>148.19999694824</ele>
        <time>2016-05-05T11:43:39.000Z</time>
      </trkpt>
      <trkpt lat="48.84468" lon="0.98478">
        <ele>148.39999389648</ele>
        <time>2016-05-05T11:43:50.000Z</time>
      </trkpt>
      <trkpt lat="48.84457" lon="0.98468">
        <ele>148.19999694824</ele>
        <time>2016-05-05T11:43:59.000Z</time>
      </trkpt>
      <trkpt lat="48.84447" lon="0.9846">
        <ele>148.19999694824</ele>
        <time>2016-05-05T11:44:07.000Z</time>
      </trkpt>
      <trkpt lat="48.84431" lon="0.9845">
        <ele>148</ele>
        <time>2016-05-05T11:44:19.000Z</time>
      </trkpt>
      <trkpt lat="48.84419" lon="0.98444">
        <ele>147.80000305176</ele>
        <time>2016-05-05T11:44:28.000Z</time>
      </trkpt>
      <trkpt lat="48.8441" lon="0.98447">
        <ele>147.60000610352</ele>
        <time>2016-05-05T11:44:34.000Z</time>
      </trkpt>
      <trkpt lat="48.84406" lon="0.98447">
        <ele>147.80000305176</ele>
        <time>2016-05-05T11:44:36.000Z</time>
      </trkpt>
      <trkpt lat="48.84399" lon="0.98448">
        <ele>147.80000305176</ele>
        <time>2016-05-05T11:44:41.000Z</time>
      </trkpt>
      <trkpt lat="48.84391" lon="0.98448">
        <ele>148</ele>
        <time>2016-05-05T11:44:48.000Z</time>
      </trkpt>
      <trkpt lat="48.84376" lon="0.98448">
        <ele>148.19999694824</ele>
        <time>2016-05-05T11:44:59.000Z</time>
      </trkpt>
      <trkpt lat="48.84361" lon="0.98446">
        <ele>148.19999694824</ele>
        <time>2016-05-05T11:45:09.000Z</time>
      </trkpt>
      <trkpt lat="48.84351" lon="0.98444">
        <ele>148.19999694824</ele>
        <time>2016-05-05T11:45:16.000Z</time>
      </trkpt>
      <trkpt lat="48.84337" lon="0.98439">
        <ele>147.60000610352</ele>
        <time>2016-05-05T11:45:26.000Z</time>
      </trkpt>
      <trkpt lat="48.84329" lon="0.98434">
        <ele>147.39999389648</ele>
        <time>2016-05-05T11:45:33.000Z</time>
      </trkpt>
      <trkpt lat="48.84319" lon="0.98426">
        <ele>147</ele>
        <time>2016-05-05T11:45:41.000Z</time>
      </trkpt>
      <trkpt lat="48.84308" lon="0.98418">
        <ele>146.39999389648</ele>
        <time>2016-05-05T11:45:50.000Z</time>
      </trkpt>
      <trkpt lat="48.84294" lon="0.98408">
        <ele>146</ele>
        <time>2016-05-05T11:46:01.000Z</time>
      </trkpt>
      <trkpt lat="48.84281" lon="0.98398">
        <ele>145.39999389648</ele>
        <time>2016-05-05T11:46:11.000Z</time>
      </trkpt>
      <trkpt lat="48.84268" lon="0.98389">
        <ele>145.19999694824</ele>
        <time>2016-05-05T11:46:21.000Z</time>
      </trkpt>
      <trkpt lat="48.84261" lon="0.98384">
        <ele>145.60000610352</ele>
        <time>2016-05-05T11:46:27.000Z</time>
      </trkpt>
      <trkpt lat="48.84242" lon="0.98371">
        <ele>146.39999389648</ele>
        <time>2016-05-05T11:46:42.000Z</time>
      </trkpt>
      <trkpt lat="48.84232" lon="0.98364">
        <ele>146.80000305176</ele>
        <time>2016-05-05T11:46:51.000Z</time>
      </trkpt>
      <trkpt lat="48.84222" lon="0.98357">
        <ele>147.19999694824</ele>
        <time>2016-05-05T11:46:59.000Z</time>
      </trkpt>
      <trkpt lat="48.84207" lon="0.98346">
        <ele>147.80000305176</ele>
        <time>2016-05-05T11:47:11.000Z</time>
      </trkpt>
      <trkpt lat="48.84205" lon="0.98346">
        <ele>148</ele>
        <time>2016-05-05T11:47:13.000Z</time>
      </trkpt>
      <trkpt lat="48.84201" lon="0.9835">
        <ele>148.19999694824</ele>
        <time>2016-05-05T11:47:17.000Z</time>
      </trkpt>
      <trkpt lat="48.842" lon="0.98354">
        <ele>148.39999389648</ele>
        <time>2016-05-05T11:47:19.000Z</time>
      </trkpt>
      <trkpt lat="48.84194" lon="0.98369">
        <ele>149.19999694824</ele>
        <time>2016-05-05T11:47:27.000Z</time>
      </trkpt>
      <trkpt lat="48.84189" lon="0.9838">
        <ele>149.80000305176</ele>
        <time>2016-05-05T11:47:33.000Z</time>
      </trkpt>
      <trkpt lat="48.84188" lon="0.98382">
        <ele>149.80000305176</ele>
        <time>2016-05-05T11:47:34.000Z</time>
      </trkpt>
      <trkpt lat="48.84185" lon="0.98385">
        <ele>150</ele>
        <time>2016-05-05T11:47:37.000Z</time>
      </trkpt>
      <trkpt lat="48.84184" lon="0.98385">
        <ele>150.19999694824</ele>
        <time>2016-05-05T11:47:39.000Z</time>
      </trkpt>
      <trkpt lat="48.84183" lon="0.98386">
        <ele>150.19999694824</ele>
        <time>2016-05-05T11:47:40.000Z</time>
      </trkpt>
      <trkpt lat="48.84182" lon="0.98388">
        <ele>150.19999694824</ele>
        <time>2016-05-05T11:47:45.000Z</time>
      </trkpt>
      <trkpt lat="48.84174" lon="0.98381">
        <ele>150.60000610352</ele>
        <time>2016-05-05T11:48:25.000Z</time>
      </trkpt>
      <trkpt lat="48.84171" lon="0.98383">
        <ele>150.80000305176</ele>
        <time>2016-05-05T11:48:28.000Z</time>
      </trkpt>
      <trkpt lat="48.84162" lon="0.98391">
        <ele>151.19999694824</ele>
        <time>2016-05-05T11:48:37.000Z</time>
      </trkpt>
      <trkpt lat="48.84156" lon="0.98397">
        <ele>151.80000305176</ele>
        <time>2016-05-05T11:48:45.000Z</time>
      </trkpt>
      <trkpt lat="48.84155" lon="0.98397">
        <ele>151.80000305176</ele>
        <time>2016-05-05T11:48:46.000Z</time>
      </trkpt>
      <trkpt lat="48.84169" lon="0.98386">
        <ele>151</ele>
        <time>2016-05-05T11:50:06.000Z</time>
      </trkpt>
      <trkpt lat="48.84172" lon="0.98383">
        <ele>150.60000610352</ele>
        <time>2016-05-05T11:50:09.000Z</time>
      </trkpt>
      <trkpt lat="48.84179" lon="0.98375">
        <ele>150.19999694824</ele>
        <time>2016-05-05T11:50:15.000Z</time>
      </trkpt>
      <trkpt lat="48.84187" lon="0.98368">
        <ele>149.60000610352</ele>
        <time>2016-05-05T11:50:21.000Z</time>
      </trkpt>
      <trkpt lat="48.84189" lon="0.98368">
        <ele>149.39999389648</ele>
        <time>2016-05-05T11:50:23.000Z</time>
      </trkpt>
      <trkpt lat="48.84189" lon="0.98371">
        <ele>149.60000610352</ele>
        <time>2016-05-05T11:50:25.000Z</time>
      </trkpt>
      <trkpt lat="48.84189" lon="0.98379">
        <ele>149.80000305176</ele>
        <time>2016-05-05T11:50:29.000Z</time>
      </trkpt>
      <trkpt lat="48.84188" lon="0.98384">
        <ele>149.80000305176</ele>
        <time>2016-05-05T11:50:31.000Z</time>
      </trkpt>
      <trkpt lat="48.84186" lon="0.98385">
        <ele>150</ele>
        <time>2016-05-05T11:50:32.000Z</time>
      </trkpt>
      <trkpt lat="48.84184" lon="0.9839">
        <ele>150.19999694824</ele>
        <time>2016-05-05T11:50:35.000Z</time>
      </trkpt>
      <trkpt lat="48.84181" lon="0.98394">
        <ele>150.39999389648</ele>
        <time>2016-05-05T11:50:38.000Z</time>
      </trkpt>
      <trkpt lat="48.84177" lon="0.98398">
        <ele>150.80000305176</ele>
        <time>2016-05-05T11:50:42.000Z</time>
      </trkpt>
      <trkpt lat="48.84171" lon="0.98405">
        <ele>151.19999694824</ele>
        <time>2016-05-05T11:50:48.000Z</time>
      </trkpt>
      <trkpt lat="48.84163" lon="0.98413">
        <ele>151.80000305176</ele>
        <time>2016-05-05T11:50:55.000Z</time>
      </trkpt>
      <trkpt lat="48.84156" lon="0.98421">
        <ele>152.19999694824</ele>
        <time>2016-05-05T11:51:02.000Z</time>
      </trkpt>
      <trkpt lat="48.84147" lon="0.9843">
        <ele>153</ele>
        <time>2016-05-05T11:51:10.000Z</time>
      </trkpt>
      <trkpt lat="48.84136" lon="0.98441">
        <ele>153.60000610352</ele>
        <time>2016-05-05T11:51:19.000Z</time>
      </trkpt>
      <trkpt lat="48.84128" lon="0.9845">
        <ele>153.80000305176</ele>
        <time>2016-05-05T11:51:26.000Z</time>
      </trkpt>
      <trkpt lat="48.84121" lon="0.98456">
        <ele>154.19999694824</ele>
        <time>2016-05-05T11:51:33.000Z</time>
      </trkpt>
      <trkpt lat="48.84114" lon="0.98467">
        <ele>154.60000610352</ele>
        <time>2016-05-05T11:51:39.000Z</time>
      </trkpt>
      <trkpt lat="48.84105" lon="0.98477">
        <ele>155.19999694824</ele>
        <time>2016-05-05T11:51:44.000Z</time>
      </trkpt>
      <trkpt lat="48.84099" lon="0.98484">
        <ele>155.60000610352</ele>
        <time>2016-05-05T11:51:49.000Z</time>
      </trkpt>
      <trkpt lat="48.84092" lon="0.98492">
        <ele>156.19999694824</ele>
        <time>2016-05-05T11:51:54.000Z</time>
      </trkpt>
      <trkpt lat="48.84085" lon="0.985">
        <ele>156.80000305176</ele>
        <time>2016-05-05T11:52:00.000Z</time>
      </trkpt>
      <trkpt lat="48.84073" lon="0.98512">
        <ele>157.60000610352</ele>
        <time>2016-05-05T11:52:08.000Z</time>
      </trkpt>
      <trkpt lat="48.8406" lon="0.98524">
        <ele>158.19999694824</ele>
        <time>2016-05-05T11:52:15.000Z</time>
      </trkpt>
      <trkpt lat="48.84053" lon="0.9853">
        <ele>158.39999389648</ele>
        <time>2016-05-05T11:52:21.000Z</time>
      </trkpt>
      <trkpt lat="48.84043" lon="0.98533">
        <ele>158.39999389648</ele>
        <time>2016-05-05T11:52:29.000Z</time>
      </trkpt>
      <trkpt lat="48.84041" lon="0.9853">
        <ele>158.39999389648</ele>
        <time>2016-05-05T11:52:31.000Z</time>
      </trkpt>
      <trkpt lat="48.8404" lon="0.98526">
        <ele>158.19999694824</ele>
        <time>2016-05-05T11:52:34.000Z</time>
      </trkpt>
      <trkpt lat="48.84039" lon="0.98524">
        <ele>158.19999694824</ele>
        <time>2016-05-05T11:52:35.000Z</time>
      </trkpt>
      <trkpt lat="48.84035" lon="0.9851">
        <ele>157.80000305176</ele>
        <time>2016-05-05T11:52:42.000Z</time>
      </trkpt>
      <trkpt lat="48.84028" lon="0.98487">
        <ele>157.39999389648</ele>
        <time>2016-05-05T11:52:54.000Z</time>
      </trkpt>
      <trkpt lat="48.84023" lon="0.98472">
        <ele>157</ele>
        <time>2016-05-05T11:53:02.000Z</time>
      </trkpt>
      <trkpt lat="48.84018" lon="0.98455">
        <ele>157</ele>
        <time>2016-05-05T11:53:09.000Z</time>
      </trkpt>
      <trkpt lat="48.84014" lon="0.9844">
        <ele>157</ele>
        <time>2016-05-05T11:53:16.000Z</time>
      </trkpt>
      <trkpt lat="48.84011" lon="0.98426">
        <ele>157</ele>
        <time>2016-05-05T11:53:24.000Z</time>
      </trkpt>
      <trkpt lat="48.84007" lon="0.98415">
        <ele>157</ele>
        <time>2016-05-05T11:53:30.000Z</time>
      </trkpt>
      <trkpt lat="48.84001" lon="0.98399">
        <ele>157</ele>
        <time>2016-05-05T11:53:38.000Z</time>
      </trkpt>
      <trkpt lat="48.83997" lon="0.9839">
        <ele>157</ele>
        <time>2016-05-05T11:53:43.000Z</time>
      </trkpt>
      <trkpt lat="48.83992" lon="0.98375">
        <ele>157.19999694824</ele>
        <time>2016-05-05T11:53:51.000Z</time>
      </trkpt>
      <trkpt lat="48.83988" lon="0.98363">
        <ele>157.39999389648</ele>
        <time>2016-05-05T11:53:57.000Z</time>
      </trkpt>
      <trkpt lat="48.83984" lon="0.98353">
        <ele>157.39999389648</ele>
        <time>2016-05-05T11:54:03.000Z</time>
      </trkpt>
      <trkpt lat="48.83976" lon="0.98332">
        <ele>157.60000610352</ele>
        <time>2016-05-05T11:54:14.000Z</time>
      </trkpt>
      <trkpt lat="48.83968" lon="0.98319">
        <ele>157.60000610352</ele>
        <time>2016-05-05T11:54:22.000Z</time>
      </trkpt>
      <trkpt lat="48.8396" lon="0.98306">
        <ele>157.80000305176</ele>
        <time>2016-05-05T11:54:30.000Z</time>
      </trkpt>
      <trkpt lat="48.83952" lon="0.98296">
        <ele>158</ele>
        <time>2016-05-05T11:54:39.000Z</time>
      </trkpt>
      <trkpt lat="48.83946" lon="0.98289">
        <ele>158.19999694824</ele>
        <time>2016-05-05T11:54:45.000Z</time>
      </trkpt>
      <trkpt lat="48.8394" lon="0.98284">
        <ele>158.19999694824</ele>
        <time>2016-05-05T11:54:50.000Z</time>
      </trkpt>
      <trkpt lat="48.83932" lon="0.98275">
        <ele>158.39999389648</ele>
        <time>2016-05-05T11:54:57.000Z</time>
      </trkpt>
      <trkpt lat="48.83921" lon="0.98264">
        <ele>158.80000305176</ele>
        <time>2016-05-05T11:55:06.000Z</time>
      </trkpt>
      <trkpt lat="48.83908" lon="0.98253">
        <ele>159</ele>
        <time>2016-05-05T11:55:16.000Z</time>
      </trkpt>
      <trkpt lat="48.83893" lon="0.98241">
        <ele>159.39999389648</ele>
        <time>2016-05-05T11:55:28.000Z</time>
      </trkpt>
      <trkpt lat="48.83881" lon="0.98233">
        <ele>159.60000610352</ele>
        <time>2016-05-05T11:55:38.000Z</time>
      </trkpt>
      <trkpt lat="48.83868" lon="0.98226">
        <ele>159.80000305176</ele>
        <time>2016-05-05T11:55:48.000Z</time>
      </trkpt>
      <trkpt lat="48.83859" lon="0.98219">
        <ele>159.80000305176</ele>
        <time>2016-05-05T11:55:58.000Z</time>
      </trkpt>
      <trkpt lat="48.83859" lon="0.98219">
        <ele>159.80000305176</ele>
        <time>2016-05-05T11:55:59.000Z</time>
      </trkpt>
      <trkpt lat="48.83854" lon="0.98212">
        <ele>160</ele>
        <time>2016-05-05T11:56:38.000Z</time>
      </trkpt>
      <trkpt lat="48.8385" lon="0.98209">
        <ele>160</ele>
        <time>2016-05-05T11:56:41.000Z</time>
      </trkpt>
      <trkpt lat="48.83843" lon="0.98203">
        <ele>160.19999694824</ele>
        <time>2016-05-05T11:56:47.000Z</time>
      </trkpt>
      <trkpt lat="48.83832" lon="0.98191">
        <ele>160.39999389648</ele>
        <time>2016-05-05T11:56:57.000Z</time>
      </trkpt>
      <trkpt lat="48.83824" lon="0.98184">
        <ele>160.60000610352</ele>
        <time>2016-05-05T11:57:03.000Z</time>
      </trkpt>
      <trkpt lat="48.83815" lon="0.98175">
        <ele>160.80000305176</ele>
        <time>2016-05-05T11:57:11.000Z</time>
      </trkpt>
      <trkpt lat="48.83804" lon="0.98165">
        <ele>161.19999694824</ele>
        <time>2016-05-05T11:57:20.000Z</time>
      </trkpt>
      <trkpt lat="48.83796" lon="0.98155">
        <ele>161.39999389648</ele>
        <time>2016-05-05T11:57:28.000Z</time>
      </trkpt>
      <trkpt lat="48.8379" lon="0.98142">
        <ele>161.39999389648</ele>
        <time>2016-05-05T11:57:37.000Z</time>
      </trkpt>
      <trkpt lat="48.83785" lon="0.98131">
        <ele>161.60000610352</ele>
        <time>2016-05-05T11:57:43.000Z</time>
      </trkpt>
      <trkpt lat="48.83779" lon="0.98121">
        <ele>162</ele>
        <time>2016-05-05T11:57:50.000Z</time>
      </trkpt>
      <trkpt lat="48.83772" lon="0.98106">
        <ele>162.39999389648</ele>
        <time>2016-05-05T11:57:59.000Z</time>
      </trkpt>
      <trkpt lat="48.83772" lon="0.98102">
        <ele>162.39999389648</ele>
        <time>2016-05-05T11:58:01.000Z</time>
      </trkpt>
      <trkpt lat="48.83769" lon="0.98097">
        <ele>162.60000610352</ele>
        <time>2016-05-05T11:58:04.000Z</time>
      </trkpt>
      <trkpt lat="48.83762" lon="0.98082">
        <ele>162.80000305176</ele>
        <time>2016-05-05T11:58:13.000Z</time>
      </trkpt>
      <trkpt lat="48.83755" lon="0.98071">
        <ele>163</ele>
        <time>2016-05-05T11:58:20.000Z</time>
      </trkpt>
      <trkpt lat="48.8375" lon="0.9806">
        <ele>163.19999694824</ele>
        <time>2016-05-05T11:58:26.000Z</time>
      </trkpt>
      <trkpt lat="48.83744" lon="0.98047">
        <ele>163.39999389648</ele>
        <time>2016-05-05T11:58:34.000Z</time>
      </trkpt>
      <trkpt lat="48.83737" lon="0.9803">
        <ele>163.39999389648</ele>
        <time>2016-05-05T11:58:43.000Z</time>
      </trkpt>
      <trkpt lat="48.83731" lon="0.98016">
        <ele>163.39999389648</ele>
        <time>2016-05-05T11:58:51.000Z</time>
      </trkpt>
      <trkpt lat="48.83724" lon="0.98">
        <ele>163.39999389648</ele>
        <time>2016-05-05T11:58:59.000Z</time>
      </trkpt>
      <trkpt lat="48.83718" lon="0.97988">
        <ele>163.39999389648</ele>
        <time>2016-05-05T11:59:06.000Z</time>
      </trkpt>
      <trkpt lat="48.83711" lon="0.97974">
        <ele>163.39999389648</ele>
        <time>2016-05-05T11:59:14.000Z</time>
      </trkpt>
      <trkpt lat="48.83708" lon="0.97964">
        <ele>163.60000610352</ele>
        <time>2016-05-05T11:59:20.000Z</time>
      </trkpt>
      <trkpt lat="48.837" lon="0.97948">
        <ele>164</ele>
        <time>2016-05-05T11:59:29.000Z</time>
      </trkpt>
      <trkpt lat="48.83692" lon="0.97934">
        <ele>164.39999389648</ele>
        <time>2016-05-05T11:59:38.000Z</time>
      </trkpt>
      <trkpt lat="48.83686" lon="0.97921">
        <ele>164.80000305176</ele>
        <time>2016-05-05T11:59:45.000Z</time>
      </trkpt>
      <trkpt lat="48.83679" lon="0.97906">
        <ele>165.19999694824</ele>
        <time>2016-05-05T11:59:53.000Z</time>
      </trkpt>
      <trkpt lat="48.83674" lon="0.97892">
        <ele>165.60000610352</ele>
        <time>2016-05-05T12:00:01.000Z</time>
      </trkpt>
      <trkpt lat="48.83668" lon="0.97872">
        <ele>165.80000305176</ele>
        <time>2016-05-05T12:00:11.000Z</time>
      </trkpt>
      <trkpt lat="48.8366" lon="0.97853">
        <ele>166</ele>
        <time>2016-05-05T12:00:21.000Z</time>
      </trkpt>
      <trkpt lat="48.83653" lon="0.97841">
        <ele>166.19999694824</ele>
        <time>2016-05-05T12:00:28.000Z</time>
      </trkpt>
      <trkpt lat="48.83647" lon="0.9783">
        <ele>166.60000610352</ele>
        <time>2016-05-05T12:00:35.000Z</time>
      </trkpt>
      <trkpt lat="48.83641" lon="0.97818">
        <ele>166.80000305176</ele>
        <time>2016-05-05T12:00:41.000Z</time>
      </trkpt>
      <trkpt lat="48.83635" lon="0.97808">
        <ele>167</ele>
        <time>2016-05-05T12:00:47.000Z</time>
      </trkpt>
      <trkpt lat="48.83629" lon="0.97802">
        <ele>167.19999694824</ele>
        <time>2016-05-05T12:00:53.000Z</time>
      </trkpt>
      <trkpt lat="48.83623" lon="0.97792">
        <ele>167.60000610352</ele>
        <time>2016-05-05T12:01:00.000Z</time>
      </trkpt>
      <trkpt lat="48.8362" lon="0.97787">
        <ele>167.80000305176</ele>
        <time>2016-05-05T12:01:03.000Z</time>
      </trkpt>
      <trkpt lat="48.8362" lon="0.97783">
        <ele>167.80000305176</ele>
        <time>2016-05-05T12:01:05.000Z</time>
      </trkpt>
      <trkpt lat="48.83615" lon="0.97771">
        <ele>168</ele>
        <time>2016-05-05T12:01:11.000Z</time>
      </trkpt>
      <trkpt lat="48.83613" lon="0.97766">
        <ele>168.19999694824</ele>
        <time>2016-05-05T12:01:14.000Z</time>
      </trkpt>
      <trkpt lat="48.83611" lon="0.97761">
        <ele>168.39999389648</ele>
        <time>2016-05-05T12:01:17.000Z</time>
      </trkpt>
      <trkpt lat="48.83608" lon="0.97752">
        <ele>168.60000610352</ele>
        <time>2016-05-05T12:01:23.000Z</time>
      </trkpt>
      <trkpt lat="48.83606" lon="0.97743">
        <ele>168.80000305176</ele>
        <time>2016-05-05T12:01:28.000Z</time>
      </trkpt>
      <trkpt lat="48.83605" lon="0.97738">
        <ele>168.80000305176</ele>
        <time>2016-05-05T12:01:30.000Z</time>
      </trkpt>
      <trkpt lat="48.836" lon="0.97726">
        <ele>169</ele>
        <time>2016-05-05T12:01:37.000Z</time>
      </trkpt>
      <trkpt lat="48.83597" lon="0.97721">
        <ele>169.19999694824</ele>
        <time>2016-05-05T12:01:41.000Z</time>
      </trkpt>
      <trkpt lat="48.83594" lon="0.97715">
        <ele>169.39999389648</ele>
        <time>2016-05-05T12:01:44.000Z</time>
      </trkpt>
      <trkpt lat="48.83589" lon="0.97704">
        <ele>169.60000610352</ele>
        <time>2016-05-05T12:01:50.000Z</time>
      </trkpt>
      <trkpt lat="48.83585" lon="0.97694">
        <ele>170</ele>
        <time>2016-05-05T12:01:55.000Z</time>
      </trkpt>
      <trkpt lat="48.83582" lon="0.97686">
        <ele>170.19999694824</ele>
        <time>2016-05-05T12:01:59.000Z</time>
      </trkpt>
      <trkpt lat="48.83578" lon="0.97676">
        <ele>170.60000610352</ele>
        <time>2016-05-05T12:02:04.000Z</time>
      </trkpt>
      <trkpt lat="48.83569" lon="0.9766">
        <ele>171</ele>
        <time>2016-05-05T12:02:10.000Z</time>
      </trkpt>
      <trkpt lat="48.83565" lon="0.97651">
        <ele>171.19999694824</ele>
        <time>2016-05-05T12:02:15.000Z</time>
      </trkpt>
      <trkpt lat="48.83564" lon="0.97649">
        <ele>171.39999389648</ele>
        <time>2016-05-05T12:02:16.000Z</time>
      </trkpt>
      <trkpt lat="48.8356" lon="0.97644">
        <ele>171.39999389648</ele>
        <time>2016-05-05T12:02:20.000Z</time>
      </trkpt>
      <trkpt lat="48.83554" lon="0.97637">
        <ele>171.39999389648</ele>
        <time>2016-05-05T12:02:25.000Z</time>
      </trkpt>
      <trkpt lat="48.83553" lon="0.97636">
        <ele>171.39999389648</ele>
        <time>2016-05-05T12:02:26.000Z</time>
      </trkpt>
      <trkpt lat="48.83551" lon="0.97631">
        <ele>171.19999694824</ele>
        <time>2016-05-05T12:02:29.000Z</time>
      </trkpt>
      <trkpt lat="48.83549" lon="0.97627">
        <ele>171</ele>
        <time>2016-05-05T12:02:31.000Z</time>
      </trkpt>
      <trkpt lat="48.83545" lon="0.97618">
        <ele>170.60000610352</ele>
        <time>2016-05-05T12:02:37.000Z</time>
      </trkpt>
      <trkpt lat="48.83544" lon="0.97616">
        <ele>170.60000610352</ele>
        <time>2016-05-05T12:02:38.000Z</time>
      </trkpt>
      <trkpt lat="48.83536" lon="0.97601">
        <ele>169.80000305176</ele>
        <time>2016-05-05T12:02:46.000Z</time>
      </trkpt>
      <trkpt lat="48.83533" lon="0.97596">
        <ele>169.60000610352</ele>
        <time>2016-05-05T12:02:49.000Z</time>
      </trkpt>
      <trkpt lat="48.83527" lon="0.97587">
        <ele>169.39999389648</ele>
        <time>2016-05-05T12:02:55.000Z</time>
      </trkpt>
      <trkpt lat="48.83521" lon="0.97579">
        <ele>169</ele>
        <time>2016-05-05T12:03:01.000Z</time>
      </trkpt>
      <trkpt lat="48.83514" lon="0.97574">
        <ele>168.19999694824</ele>
        <time>2016-05-05T12:03:07.000Z</time>
      </trkpt>
      <trkpt lat="48.8351" lon="0.97573">
        <ele>168</ele>
        <time>2016-05-05T12:03:10.000Z</time>
      </trkpt>
      <trkpt lat="48.83505" lon="0.97569">
        <ele>167.39999389648</ele>
        <time>2016-05-05T12:03:14.000Z</time>
      </trkpt>
      <trkpt lat="48.83501" lon="0.9756">
        <ele>166.80000305176</ele>
        <time>2016-05-05T12:03:18.000Z</time>
      </trkpt>
      <trkpt lat="48.83499" lon="0.97551">
        <ele>166.60000610352</ele>
        <time>2016-05-05T12:03:22.000Z</time>
      </trkpt>
      <trkpt lat="48.83494" lon="0.97529">
        <ele>166</ele>
        <time>2016-05-05T12:03:31.000Z</time>
      </trkpt>
      <trkpt lat="48.83489" lon="0.975">
        <ele>164.39999389648</ele>
        <time>2016-05-05T12:03:44.000Z</time>
      </trkpt>
      <trkpt lat="48.83485" lon="0.97473">
        <ele>163.19999694824</ele>
        <time>2016-05-05T12:03:56.000Z</time>
      </trkpt>
      <trkpt lat="48.83481" lon="0.97453">
        <ele>163</ele>
        <time>2016-05-05T12:04:05.000Z</time>
      </trkpt>
      <trkpt lat="48.83477" lon="0.97432">
        <ele>163</ele>
        <time>2016-05-05T12:04:15.000Z</time>
      </trkpt>
      <trkpt lat="48.83472" lon="0.97415">
        <ele>162.80000305176</ele>
        <time>2016-05-05T12:04:24.000Z</time>
      </trkpt>
      <trkpt lat="48.83468" lon="0.97401">
        <ele>162.80000305176</ele>
        <time>2016-05-05T12:04:31.000Z</time>
      </trkpt>
      <trkpt lat="48.83464" lon="0.97388">
        <ele>162.60000610352</ele>
        <time>2016-05-05T12:04:39.000Z</time>
      </trkpt>
      <trkpt lat="48.83459" lon="0.97373">
        <ele>163</ele>
        <time>2016-05-05T12:04:47.000Z</time>
      </trkpt>
      <trkpt lat="48.83452" lon="0.97356">
        <ele>163.19999694824</ele>
        <time>2016-05-05T12:04:57.000Z</time>
      </trkpt>
      <trkpt lat="48.83444" lon="0.97335">
        <ele>163.39999389648</ele>
        <time>2016-05-05T12:05:08.000Z</time>
      </trkpt>
      <trkpt lat="48.83441" lon="0.97326">
        <ele>163.60000610352</ele>
        <time>2016-05-05T12:05:16.000Z</time>
      </trkpt>
      <trkpt lat="48.83426" lon="0.97289">
        <ele>165.19999694824</ele>
        <time>2016-05-05T12:07:20.000Z</time>
      </trkpt>
      <trkpt lat="48.83424" lon="0.97284">
        <ele>165.60000610352</ele>
        <time>2016-05-05T12:07:23.000Z</time>
      </trkpt>
      <trkpt lat="48.83422" lon="0.97275">
        <ele>166</ele>
        <time>2016-05-05T12:07:29.000Z</time>
      </trkpt>
      <trkpt lat="48.8342" lon="0.9727">
        <ele>166.19999694824</ele>
        <time>2016-05-05T12:07:32.000Z</time>
      </trkpt>
      <trkpt lat="48.83419" lon="0.97263">
        <ele>166.60000610352</ele>
        <time>2016-05-05T12:07:37.000Z</time>
      </trkpt>
      <trkpt lat="48.83419" lon="0.97262">
        <ele>166.60000610352</ele>
        <time>2016-05-05T12:07:39.000Z</time>
      </trkpt>
      <trkpt lat="48.83419" lon="0.97261">
        <ele>166.80000305176</ele>
        <time>2016-05-05T12:07:40.000Z</time>
      </trkpt>
      <trkpt lat="48.83436" lon="0.97225">
        <ele>168</ele>
        <time>2016-05-05T12:08:07.000Z</time>
      </trkpt>
      <trkpt lat="48.83438" lon="0.97221">
        <ele>168.19999694824</ele>
        <time>2016-05-05T12:08:10.000Z</time>
      </trkpt>
      <trkpt lat="48.83439" lon="0.97219">
        <ele>168.19999694824</ele>
        <time>2016-05-05T12:08:11.000Z</time>
      </trkpt>
      <trkpt lat="48.83446" lon="0.97208">
        <ele>168.19999694824</ele>
        <time>2016-05-05T12:08:19.000Z</time>
      </trkpt>
      <trkpt lat="48.83452" lon="0.972">
        <ele>168</ele>
        <time>2016-05-05T12:08:26.000Z</time>
      </trkpt>
      <trkpt lat="48.83457" lon="0.97191">
        <ele>168</ele>
        <time>2016-05-05T12:08:33.000Z</time>
      </trkpt>
      <trkpt lat="48.83461" lon="0.97184">
        <ele>168.19999694824</ele>
        <time>2016-05-05T12:08:38.000Z</time>
      </trkpt>
      <trkpt lat="48.83462" lon="0.97181">
        <ele>168.19999694824</ele>
        <time>2016-05-05T12:08:40.000Z</time>
      </trkpt>
      <trkpt lat="48.83464" lon="0.97176">
        <ele>168.19999694824</ele>
        <time>2016-05-05T12:08:43.000Z</time>
      </trkpt>
      <trkpt lat="48.8347" lon="0.97161">
        <ele>168.19999694824</ele>
        <time>2016-05-05T12:08:52.000Z</time>
      </trkpt>
      <trkpt lat="48.83472" lon="0.97153">
        <ele>168.39999389648</ele>
        <time>2016-05-05T12:08:56.000Z</time>
      </trkpt>
      <trkpt lat="48.83475" lon="0.97148">
        <ele>168.19999694824</ele>
        <time>2016-05-05T12:08:59.000Z</time>
      </trkpt>
      <trkpt lat="48.83477" lon="0.97143">
        <ele>168.19999694824</ele>
        <time>2016-05-05T12:09:02.000Z</time>
      </trkpt>
      <trkpt lat="48.83479" lon="0.97141">
        <ele>168.19999694824</ele>
        <time>2016-05-05T12:09:04.000Z</time>
      </trkpt>
      <trkpt lat="48.83481" lon="0.97137">
        <ele>168</ele>
        <time>2016-05-05T12:09:07.000Z</time>
      </trkpt>
      <trkpt lat="48.83484" lon="0.97134">
        <ele>167.80000305176</ele>
        <time>2016-05-05T12:09:10.000Z</time>
      </trkpt>
      <trkpt lat="48.83491" lon="0.97126">
        <ele>167.19999694824</ele>
        <time>2016-05-05T12:09:14.000Z</time>
      </trkpt>
      <trkpt lat="48.83496" lon="0.97118">
        <ele>166.80000305176</ele>
        <time>2016-05-05T12:09:19.000Z</time>
      </trkpt>
      <trkpt lat="48.83498" lon="0.97115">
        <ele>166.60000610352</ele>
        <time>2016-05-05T12:09:21.000Z</time>
      </trkpt>
      <trkpt lat="48.83502" lon="0.97111">
        <ele>166.39999389648</ele>
        <time>2016-05-05T12:09:24.000Z</time>
      </trkpt>
      <trkpt lat="48.83506" lon="0.97103">
        <ele>165.80000305176</ele>
        <time>2016-05-05T12:09:29.000Z</time>
      </trkpt>
      <trkpt lat="48.8351" lon="0.97094">
        <ele>165.39999389648</ele>
        <time>2016-05-05T12:09:35.000Z</time>
      </trkpt>
      <trkpt lat="48.83514" lon="0.97085">
        <ele>165</ele>
        <time>2016-05-05T12:09:42.000Z</time>
      </trkpt>
      <trkpt lat="48.83516" lon="0.97083">
        <ele>164.80000305176</ele>
        <time>2016-05-05T12:09:43.000Z</time>
      </trkpt>
      <trkpt lat="48.8352" lon="0.97077">
        <ele>164.39999389648</ele>
        <time>2016-05-05T12:09:49.000Z</time>
      </trkpt>
      <trkpt lat="48.83521" lon="0.97075">
        <ele>164.39999389648</ele>
        <time>2016-05-05T12:09:50.000Z</time>
      </trkpt>
      <trkpt lat="48.83522" lon="0.97069">
        <ele>164.19999694824</ele>
        <time>2016-05-05T12:09:54.000Z</time>
      </trkpt>
      <trkpt lat="48.83525" lon="0.97059">
        <ele>164</ele>
        <time>2016-05-05T12:10:01.000Z</time>
      </trkpt>
      <trkpt lat="48.83529" lon="0.97048">
        <ele>163.39999389648</ele>
        <time>2016-05-05T12:10:06.000Z</time>
      </trkpt>
      <trkpt lat="48.83529" lon="0.97046">
        <ele>163.19999694824</ele>
        <time>2016-05-05T12:10:07.000Z</time>
      </trkpt>
      <trkpt lat="48.83534" lon="0.97034">
        <ele>162.60000610352</ele>
        <time>2016-05-05T12:10:14.000Z</time>
      </trkpt>
      <trkpt lat="48.83542" lon="0.97024">
        <ele>161.80000305176</ele>
        <time>2016-05-05T12:10:21.000Z</time>
      </trkpt>
      <trkpt lat="48.83545" lon="0.97021">
        <ele>161.60000610352</ele>
        <time>2016-05-05T12:10:24.000Z</time>
      </trkpt>
      <trkpt lat="48.83548" lon="0.97018">
        <ele>161.39999389648</ele>
        <time>2016-05-05T12:10:27.000Z</time>
      </trkpt>
      <trkpt lat="48.83557" lon="0.9701">
        <ele>160.80000305176</ele>
        <time>2016-05-05T12:10:34.000Z</time>
      </trkpt>
      <trkpt lat="48.83564" lon="0.97008">
        <ele>160.60000610352</ele>
        <time>2016-05-05T12:10:39.000Z</time>
      </trkpt>
      <trkpt lat="48.83572" lon="0.97003">
        <ele>160.19999694824</ele>
        <time>2016-05-05T12:10:46.000Z</time>
      </trkpt>
      <trkpt lat="48.83576" lon="0.96998">
        <ele>159.80000305176</ele>
        <time>2016-05-05T12:10:49.000Z</time>
      </trkpt>
      <trkpt lat="48.83578" lon="0.96995">
        <ele>159.60000610352</ele>
        <time>2016-05-05T12:10:51.000Z</time>
      </trkpt>
      <trkpt lat="48.8358" lon="0.96994">
        <ele>159.60000610352</ele>
        <time>2016-05-05T12:10:52.000Z</time>
      </trkpt>
      <trkpt lat="48.83589" lon="0.96985">
        <ele>158.80000305176</ele>
        <time>2016-05-05T12:10:59.000Z</time>
      </trkpt>
      <trkpt lat="48.83593" lon="0.96982">
        <ele>158.60000610352</ele>
        <time>2016-05-05T12:11:05.000Z</time>
      </trkpt>
      <trkpt lat="48.83593" lon="0.96982">
        <ele>158.60000610352</ele>
        <time>2016-05-05T12:11:06.000Z</time>
      </trkpt>
      <trkpt lat="48.83536" lon="0.97003">
        <ele>161</ele>
        <time>2016-05-05T12:12:48.000Z</time>
      </trkpt>
      <trkpt lat="48.83533" lon="0.97">
        <ele>161</ele>
        <time>2016-05-05T12:12:50.000Z</time>
      </trkpt>
      <trkpt lat="48.8353" lon="0.96999">
        <ele>161</ele>
        <time>2016-05-05T12:12:53.000Z</time>
      </trkpt>
      <trkpt lat="48.83529" lon="0.96998">
        <ele>161</ele>
        <time>2016-05-05T12:12:54.000Z</time>
      </trkpt>
      <trkpt lat="48.83526" lon="0.96997">
        <ele>161</ele>
        <time>2016-05-05T12:12:57.000Z</time>
      </trkpt>
      <trkpt lat="48.83524" lon="0.96996">
        <ele>161</ele>
        <time>2016-05-05T12:12:59.000Z</time>
      </trkpt>
      <trkpt lat="48.83522" lon="0.96997">
        <ele>161.19999694824</ele>
        <time>2016-05-05T12:13:01.000Z</time>
      </trkpt>
      <trkpt lat="48.83514" lon="0.96995">
        <ele>161.60000610352</ele>
        <time>2016-05-05T12:13:07.000Z</time>
      </trkpt>
      <trkpt lat="48.83512" lon="0.96995">
        <ele>161.80000305176</ele>
        <time>2016-05-05T12:13:08.000Z</time>
      </trkpt>
      <trkpt lat="48.83503" lon="0.96995">
        <ele>162.39999389648</ele>
        <time>2016-05-05T12:13:14.000Z</time>
      </trkpt>
      <trkpt lat="48.83497" lon="0.96994">
        <ele>162.80000305176</ele>
        <time>2016-05-05T12:13:18.000Z</time>
      </trkpt>
      <trkpt lat="48.83494" lon="0.96994">
        <ele>163</ele>
        <time>2016-05-05T12:13:20.000Z</time>
      </trkpt>
      <trkpt lat="48.83487" lon="0.96988">
        <ele>163.19999694824</ele>
        <time>2016-05-05T12:13:26.000Z</time>
      </trkpt>
      <trkpt lat="48.8348" lon="0.96989">
        <ele>163.80000305176</ele>
        <time>2016-05-05T12:13:31.000Z</time>
      </trkpt>
      <trkpt lat="48.83471" lon="0.96987">
        <ele>164.39999389648</ele>
        <time>2016-05-05T12:13:38.000Z</time>
      </trkpt>
      <trkpt lat="48.83465" lon="0.96986">
        <ele>164.60000610352</ele>
        <time>2016-05-05T12:13:42.000Z</time>
      </trkpt>
      <trkpt lat="48.83464" lon="0.96986">
        <ele>164.80000305176</ele>
        <time>2016-05-05T12:13:43.000Z</time>
      </trkpt>
      <trkpt lat="48.83463" lon="0.96985">
        <ele>164.80000305176</ele>
        <time>2016-05-05T12:13:44.000Z</time>
      </trkpt>
      <trkpt lat="48.83457" lon="0.96984">
        <ele>165.19999694824</ele>
        <time>2016-05-05T12:13:48.000Z</time>
      </trkpt>
      <trkpt lat="48.83456" lon="0.96984">
        <ele>165.19999694824</ele>
        <time>2016-05-05T12:13:49.000Z</time>
      </trkpt>
      <trkpt lat="48.83443" lon="0.96978">
        <ele>165.80000305176</ele>
        <time>2016-05-05T12:13:57.000Z</time>
      </trkpt>
      <trkpt lat="48.83436" lon="0.96977">
        <ele>166.19999694824</ele>
        <time>2016-05-05T12:14:02.000Z</time>
      </trkpt>
      <trkpt lat="48.83424" lon="0.96975">
        <ele>166.80000305176</ele>
        <time>2016-05-05T12:14:10.000Z</time>
      </trkpt>
      <trkpt lat="48.83414" lon="0.96974">
        <ele>167.19999694824</ele>
        <time>2016-05-05T12:14:16.000Z</time>
      </trkpt>
      <trkpt lat="48.8341" lon="0.96972">
        <ele>167.19999694824</ele>
        <time>2016-05-05T12:14:19.000Z</time>
      </trkpt>
      <trkpt lat="48.83406" lon="0.9697">
        <ele>167</ele>
        <time>2016-05-05T12:14:22.000Z</time>
      </trkpt>
      <trkpt lat="48.83405" lon="0.9697">
        <ele>167.19999694824</ele>
        <time>2016-05-05T12:14:23.000Z</time>
      </trkpt>
      <trkpt lat="48.83397" lon="0.96966">
        <ele>167</ele>
        <time>2016-05-05T12:14:29.000Z</time>
      </trkpt>
      <trkpt lat="48.83396" lon="0.96965">
        <ele>167</ele>
        <time>2016-05-05T12:14:30.000Z</time>
      </trkpt>
      <trkpt lat="48.83389" lon="0.96963">
        <ele>167.19999694824</ele>
        <time>2016-05-05T12:14:35.000Z</time>
      </trkpt>
      <trkpt lat="48.83378" lon="0.96958">
        <ele>167.19999694824</ele>
        <time>2016-05-05T12:14:43.000Z</time>
      </trkpt>
      <trkpt lat="48.83376" lon="0.96958">
        <ele>167.19999694824</ele>
        <time>2016-05-05T12:14:45.000Z</time>
      </trkpt>
      <trkpt lat="48.8337" lon="0.96955">
        <ele>167.19999694824</ele>
        <time>2016-05-05T12:14:49.000Z</time>
      </trkpt>
      <trkpt lat="48.83356" lon="0.9695">
        <ele>167.39999389648</ele>
        <time>2016-05-05T12:14:57.000Z</time>
      </trkpt>
      <trkpt lat="48.83342" lon="0.96944">
        <ele>167.19999694824</ele>
        <time>2016-05-05T12:15:06.000Z</time>
      </trkpt>
      <trkpt lat="48.83337" lon="0.96942">
        <ele>167.19999694824</ele>
        <time>2016-05-05T12:15:10.000Z</time>
      </trkpt>
      <trkpt lat="48.83335" lon="0.96941">
        <ele>167.19999694824</ele>
        <time>2016-05-05T12:15:12.000Z</time>
      </trkpt>
      <trkpt lat="48.83323" lon="0.96939">
        <ele>167.39999389648</ele>
        <time>2016-05-05T12:15:20.000Z</time>
      </trkpt>
      <trkpt lat="48.83322" lon="0.96938">
        <ele>167.39999389648</ele>
        <time>2016-05-05T12:15:21.000Z</time>
      </trkpt>
      <trkpt lat="48.83313" lon="0.96934">
        <ele>167</ele>
        <time>2016-05-05T12:15:27.000Z</time>
      </trkpt>
      <trkpt lat="48.83312" lon="0.96932">
        <ele>167</ele>
        <time>2016-05-05T12:15:28.000Z</time>
      </trkpt>
      <trkpt lat="48.83308" lon="0.9693">
        <ele>166.80000305176</ele>
        <time>2016-05-05T12:15:33.000Z</time>
      </trkpt>
      <trkpt lat="48.83303" lon="0.96929">
        <ele>166.80000305176</ele>
        <time>2016-05-05T12:15:37.000Z</time>
      </trkpt>
      <trkpt lat="48.833" lon="0.9693">
        <ele>166.80000305176</ele>
        <time>2016-05-05T12:15:40.000Z</time>
      </trkpt>
      <trkpt lat="48.83297" lon="0.96929">
        <ele>166.80000305176</ele>
        <time>2016-05-05T12:15:42.000Z</time>
      </trkpt>
      <trkpt lat="48.83292" lon="0.96926">
        <ele>166.60000610352</ele>
        <time>2016-05-05T12:15:46.000Z</time>
      </trkpt>
      <trkpt lat="48.83288" lon="0.96926">
        <ele>166.60000610352</ele>
        <time>2016-05-05T12:15:48.000Z</time>
      </trkpt>
      <trkpt lat="48.83283" lon="0.96925">
        <ele>166.39999389648</ele>
        <time>2016-05-05T12:15:51.000Z</time>
      </trkpt>
      <trkpt lat="48.83276" lon="0.96925">
        <ele>166.39999389648</ele>
        <time>2016-05-05T12:15:56.000Z</time>
      </trkpt>
      <trkpt lat="48.83262" lon="0.96922">
        <ele>166.60000610352</ele>
        <time>2016-05-05T12:16:02.000Z</time>
      </trkpt>
      <trkpt lat="48.83259" lon="0.96921">
        <ele>166.60000610352</ele>
        <time>2016-05-05T12:16:04.000Z</time>
      </trkpt>
      <trkpt lat="48.83253" lon="0.9692">
        <ele>166.80000305176</ele>
        <time>2016-05-05T12:16:09.000Z</time>
      </trkpt>
      <trkpt lat="48.83243" lon="0.96919">
        <ele>167</ele>
        <time>2016-05-05T12:16:19.000Z</time>
      </trkpt>
      <trkpt lat="48.83232" lon="0.96918">
        <ele>167.39999389648</ele>
        <time>2016-05-05T12:16:25.000Z</time>
      </trkpt>
      <trkpt lat="48.83227" lon="0.96916">
        <ele>167.39999389648</ele>
        <time>2016-05-05T12:16:29.000Z</time>
      </trkpt>
      <trkpt lat="48.83225" lon="0.96916">
        <ele>167.39999389648</ele>
        <time>2016-05-05T12:16:30.000Z</time>
      </trkpt>
      <trkpt lat="48.83218" lon="0.96912">
        <ele>167.39999389648</ele>
        <time>2016-05-05T12:16:37.000Z</time>
      </trkpt>
      <trkpt lat="48.83215" lon="0.96912">
        <ele>167.60000610352</ele>
        <time>2016-05-05T12:16:38.000Z</time>
      </trkpt>
      <trkpt lat="48.83212" lon="0.96912">
        <ele>167.60000610352</ele>
        <time>2016-05-05T12:16:40.000Z</time>
      </trkpt>
      <trkpt lat="48.83209" lon="0.9691">
        <ele>167.60000610352</ele>
        <time>2016-05-05T12:16:43.000Z</time>
      </trkpt>
      <trkpt lat="48.83206" lon="0.96909">
        <ele>167.60000610352</ele>
        <time>2016-05-05T12:16:45.000Z</time>
      </trkpt>
      <trkpt lat="48.83204" lon="0.96908">
        <ele>167.60000610352</ele>
        <time>2016-05-05T12:16:47.000Z</time>
      </trkpt>
      <trkpt lat="48.83199" lon="0.96908">
        <ele>167.60000610352</ele>
        <time>2016-05-05T12:16:50.000Z</time>
      </trkpt>
      <trkpt lat="48.83195" lon="0.96907">
        <ele>167.60000610352</ele>
        <time>2016-05-05T12:16:53.000Z</time>
      </trkpt>
      <trkpt lat="48.83188" lon="0.96906">
        <ele>167.60000610352</ele>
        <time>2016-05-05T12:16:57.000Z</time>
      </trkpt>
      <trkpt lat="48.8318" lon="0.96906">
        <ele>167.60000610352</ele>
        <time>2016-05-05T12:17:02.000Z</time>
      </trkpt>
      <trkpt lat="48.83171" lon="0.96905">
        <ele>167.80000305176</ele>
        <time>2016-05-05T12:17:09.000Z</time>
      </trkpt>
      <trkpt lat="48.83165" lon="0.96904">
        <ele>167.80000305176</ele>
        <time>2016-05-05T12:17:13.000Z</time>
      </trkpt>
      <trkpt lat="48.83161" lon="0.96903">
        <ele>167.80000305176</ele>
        <time>2016-05-05T12:17:16.000Z</time>
      </trkpt>
      <trkpt lat="48.83159" lon="0.96903">
        <ele>167.80000305176</ele>
        <time>2016-05-05T12:17:17.000Z</time>
      </trkpt>
      <trkpt lat="48.83153" lon="0.96902">
        <ele>167.80000305176</ele>
        <time>2016-05-05T12:17:22.000Z</time>
      </trkpt>
      <trkpt lat="48.83152" lon="0.96902">
        <ele>167.80000305176</ele>
        <time>2016-05-05T12:17:23.000Z</time>
      </trkpt>
      <trkpt lat="48.8315" lon="0.96901">
        <ele>167.80000305176</ele>
        <time>2016-05-05T12:17:24.000Z</time>
      </trkpt>
      <trkpt lat="48.83149" lon="0.96903">
        <ele>167.80000305176</ele>
        <time>2016-05-05T12:17:26.000Z</time>
      </trkpt>
      <trkpt lat="48.83146" lon="0.96901">
        <ele>167.80000305176</ele>
        <time>2016-05-05T12:17:28.000Z</time>
      </trkpt>
      <trkpt lat="48.83141" lon="0.96899">
        <ele>167.80000305176</ele>
        <time>2016-05-05T12:17:33.000Z</time>
      </trkpt>
      <trkpt lat="48.83138" lon="0.96898">
        <ele>167.80000305176</ele>
        <time>2016-05-05T12:17:34.000Z</time>
      </trkpt>
      <trkpt lat="48.83136" lon="0.96896">
        <ele>167.80000305176</ele>
        <time>2016-05-05T12:17:37.000Z</time>
      </trkpt>
      <trkpt lat="48.83133" lon="0.96895">
        <ele>167.80000305176</ele>
        <time>2016-05-05T12:17:39.000Z</time>
      </trkpt>
      <trkpt lat="48.83131" lon="0.96894">
        <ele>167.80000305176</ele>
        <time>2016-05-05T12:17:41.000Z</time>
      </trkpt>
      <trkpt lat="48.83125" lon="0.96891">
        <ele>167.80000305176</ele>
        <time>2016-05-05T12:17:45.000Z</time>
      </trkpt>
      <trkpt lat="48.8312" lon="0.96888">
        <ele>167.60000610352</ele>
        <time>2016-05-05T12:17:48.000Z</time>
      </trkpt>
      <trkpt lat="48.83114" lon="0.96884">
        <ele>167.39999389648</ele>
        <time>2016-05-05T12:17:52.000Z</time>
      </trkpt>
      <trkpt lat="48.83107" lon="0.96881">
        <ele>167.19999694824</ele>
        <time>2016-05-05T12:17:57.000Z</time>
      </trkpt>
      <trkpt lat="48.83104" lon="0.96878">
        <ele>167</ele>
        <time>2016-05-05T12:17:59.000Z</time>
      </trkpt>
      <trkpt lat="48.83101" lon="0.96877">
        <ele>167.19999694824</ele>
        <time>2016-05-05T12:18:01.000Z</time>
      </trkpt>
      <trkpt lat="48.83095" lon="0.96875">
        <ele>167.60000610352</ele>
        <time>2016-05-05T12:18:04.000Z</time>
      </trkpt>
      <trkpt lat="48.83084" lon="0.96871">
        <ele>168</ele>
        <time>2016-05-05T12:18:11.000Z</time>
      </trkpt>
      <trkpt lat="48.83076" lon="0.96867">
        <ele>168</ele>
        <time>2016-05-05T12:18:17.000Z</time>
      </trkpt>
      <trkpt lat="48.83075" lon="0.96866">
        <ele>168</ele>
        <time>2016-05-05T12:18:18.000Z</time>
      </trkpt>
      <trkpt lat="48.83066" lon="0.96862">
        <ele>168</ele>
        <time>2016-05-05T12:18:25.000Z</time>
      </trkpt>
      <trkpt lat="48.83058" lon="0.96859">
        <ele>168</ele>
        <time>2016-05-05T12:18:31.000Z</time>
      </trkpt>
      <trkpt lat="48.83054" lon="0.96856">
        <ele>168</ele>
        <time>2016-05-05T12:18:34.000Z</time>
      </trkpt>
      <trkpt lat="48.83052" lon="0.96854">
        <ele>168</ele>
        <time>2016-05-05T12:18:36.000Z</time>
      </trkpt>
      <trkpt lat="48.83051" lon="0.96852">
        <ele>168</ele>
        <time>2016-05-05T12:18:38.000Z</time>
      </trkpt>
      <trkpt lat="48.83045" lon="0.96841">
        <ele>168</ele>
        <time>2016-05-05T12:18:45.000Z</time>
      </trkpt>
      <trkpt lat="48.83037" lon="0.96829">
        <ele>168</ele>
        <time>2016-05-05T12:18:52.000Z</time>
      </trkpt>
      <trkpt lat="48.83032" lon="0.96823">
        <ele>168</ele>
        <time>2016-05-05T12:18:57.000Z</time>
      </trkpt>
      <trkpt lat="48.83029" lon="0.96819">
        <ele>168</ele>
        <time>2016-05-05T12:19:00.000Z</time>
      </trkpt>
      <trkpt lat="48.83027" lon="0.96816">
        <ele>168</ele>
        <time>2016-05-05T12:19:02.000Z</time>
      </trkpt>
      <trkpt lat="48.83023" lon="0.96806">
        <ele>167.80000305176</ele>
        <time>2016-05-05T12:19:07.000Z</time>
      </trkpt>
      <trkpt lat="48.83016" lon="0.96791">
        <ele>167.39999389648</ele>
        <time>2016-05-05T12:19:15.000Z</time>
      </trkpt>
      <trkpt lat="48.83011" lon="0.96781">
        <ele>167.19999694824</ele>
        <time>2016-05-05T12:19:20.000Z</time>
      </trkpt>
      <trkpt lat="48.83008" lon="0.96775">
        <ele>166.80000305176</ele>
        <time>2016-05-05T12:19:23.000Z</time>
      </trkpt>
      <trkpt lat="48.83003" lon="0.9676">
        <ele>166.19999694824</ele>
        <time>2016-05-05T12:19:30.000Z</time>
      </trkpt>
      <trkpt lat="48.82998" lon="0.96745">
        <ele>165.60000610352</ele>
        <time>2016-05-05T12:19:37.000Z</time>
      </trkpt>
      <trkpt lat="48.83001" lon="0.96729">
        <ele>164.60000610352</ele>
        <time>2016-05-05T12:19:45.000Z</time>
      </trkpt>
      <trkpt lat="48.83008" lon="0.96709">
        <ele>162.80000305176</ele>
        <time>2016-05-05T12:19:55.000Z</time>
      </trkpt>
      <trkpt lat="48.83012" lon="0.96695">
        <ele>162</ele>
        <time>2016-05-05T12:20:02.000Z</time>
      </trkpt>
      <trkpt lat="48.83012" lon="0.96694">
        <ele>161.80000305176</ele>
        <time>2016-05-05T12:20:05.000Z</time>
      </trkpt>
      <trkpt lat="48.83023" lon="0.96671">
        <ele>160.39999389648</ele>
        <time>2016-05-05T12:20:36.000Z</time>
      </trkpt>
      <trkpt lat="48.83025" lon="0.96669">
        <ele>160.19999694824</ele>
        <time>2016-05-05T12:20:37.000Z</time>
      </trkpt>
      <trkpt lat="48.83034" lon="0.9666">
        <ele>159</ele>
        <time>2016-05-05T12:20:46.000Z</time>
      </trkpt>
      <trkpt lat="48.83036" lon="0.96658">
        <ele>158.60000610352</ele>
        <time>2016-05-05T12:20:48.000Z</time>
      </trkpt>
      <trkpt lat="48.83041" lon="0.96651">
        <ele>158.60000610352</ele>
        <time>2016-05-05T12:20:53.000Z</time>
      </trkpt>
      <trkpt lat="48.83048" lon="0.96642">
        <ele>158.60000610352</ele>
        <time>2016-05-05T12:20:59.000Z</time>
      </trkpt>
      <trkpt lat="48.83049" lon="0.96641">
        <ele>158.60000610352</ele>
        <time>2016-05-05T12:21:00.000Z</time>
      </trkpt>
      <trkpt lat="48.83059" lon="0.96624">
        <ele>157.80000305176</ele>
        <time>2016-05-05T12:21:10.000Z</time>
      </trkpt>
      <trkpt lat="48.83065" lon="0.96613">
        <ele>157.19999694824</ele>
        <time>2016-05-05T12:21:17.000Z</time>
      </trkpt>
      <trkpt lat="48.83072" lon="0.966">
        <ele>156.80000305176</ele>
        <time>2016-05-05T12:21:24.000Z</time>
      </trkpt>
      <trkpt lat="48.83076" lon="0.9659">
        <ele>157.19999694824</ele>
        <time>2016-05-05T12:21:29.000Z</time>
      </trkpt>
      <trkpt lat="48.83079" lon="0.96585">
        <ele>157.39999389648</ele>
        <time>2016-05-05T12:21:32.000Z</time>
      </trkpt>
      <trkpt lat="48.83088" lon="0.96567">
        <ele>158</ele>
        <time>2016-05-05T12:21:42.000Z</time>
      </trkpt>
      <trkpt lat="48.83098" lon="0.9655">
        <ele>158.60000610352</ele>
        <time>2016-05-05T12:21:52.000Z</time>
      </trkpt>
      <trkpt lat="48.83107" lon="0.96534">
        <ele>158.60000610352</ele>
        <time>2016-05-05T12:22:02.000Z</time>
      </trkpt>
      <trkpt lat="48.83114" lon="0.96534">
        <ele>158.19999694824</ele>
        <time>2016-05-05T12:22:07.000Z</time>
      </trkpt>
      <trkpt lat="48.83126" lon="0.96546">
        <ele>157.60000610352</ele>
        <time>2016-05-05T12:22:16.000Z</time>
      </trkpt>
      <trkpt lat="48.83132" lon="0.96553">
        <ele>157.39999389648</ele>
        <time>2016-05-05T12:22:21.000Z</time>
      </trkpt>
      <trkpt lat="48.83141" lon="0.96564">
        <ele>156.80000305176</ele>
        <time>2016-05-05T12:22:29.000Z</time>
      </trkpt>
      <trkpt lat="48.83155" lon="0.96576">
        <ele>156</ele>
        <time>2016-05-05T12:22:42.000Z</time>
      </trkpt>
      <trkpt lat="48.83163" lon="0.96567">
        <ele>155.60000610352</ele>
        <time>2016-05-05T12:22:49.000Z</time>
      </trkpt>
      <trkpt lat="48.83169" lon="0.96553">
        <ele>155.19999694824</ele>
        <time>2016-05-05T12:22:57.000Z</time>
      </trkpt>
      <trkpt lat="48.83177" lon="0.96537">
        <ele>154.80000305176</ele>
        <time>2016-05-05T12:23:06.000Z</time>
      </trkpt>
      <trkpt lat="48.83184" lon="0.96521">
        <ele>155</ele>
        <time>2016-05-05T12:23:15.000Z</time>
      </trkpt>
      <trkpt lat="48.83187" lon="0.96514">
        <ele>155.19999694824</ele>
        <time>2016-05-05T12:23:19.000Z</time>
      </trkpt>
      <trkpt lat="48.83188" lon="0.9651">
        <ele>155.19999694824</ele>
        <time>2016-05-05T12:23:21.000Z</time>
      </trkpt>
      <trkpt lat="48.83188" lon="0.96509">
        <ele>155.19999694824</ele>
        <time>2016-05-05T12:23:22.000Z</time>
      </trkpt>
      <trkpt lat="48.8319" lon="0.96501">
        <ele>155.39999389648</ele>
        <time>2016-05-05T12:23:26.000Z</time>
      </trkpt>
      <trkpt lat="48.83192" lon="0.96494">
        <ele>155.60000610352</ele>
        <time>2016-05-05T12:23:29.000Z</time>
      </trkpt>
      <trkpt lat="48.83195" lon="0.9648">
        <ele>155.80000305176</ele>
        <time>2016-05-05T12:23:36.000Z</time>
      </trkpt>
      <trkpt lat="48.83196" lon="0.96468">
        <ele>156.19999694824</ele>
        <time>2016-05-05T12:23:42.000Z</time>
      </trkpt>
      <trkpt lat="48.83198" lon="0.96458">
        <ele>156.39999389648</ele>
        <time>2016-05-05T12:23:47.000Z</time>
      </trkpt>
      <trkpt lat="48.83199" lon="0.96454">
        <ele>156.39999389648</ele>
        <time>2016-05-05T12:23:49.000Z</time>
      </trkpt>
      <trkpt lat="48.83204" lon="0.9644">
        <ele>156.80000305176</ele>
        <time>2016-05-05T12:23:57.000Z</time>
      </trkpt>
      <trkpt lat="48.83213" lon="0.9644">
        <ele>157</ele>
        <time>2016-05-05T12:24:04.000Z</time>
      </trkpt>
      <trkpt lat="48.83228" lon="0.96439">
        <ele>157.39999389648</ele>
        <time>2016-05-05T12:24:14.000Z</time>
      </trkpt>
      <trkpt lat="48.83244" lon="0.96441">
        <ele>157.80000305176</ele>
        <time>2016-05-05T12:24:25.000Z</time>
      </trkpt>
      <trkpt lat="48.83259" lon="0.9644">
        <ele>158</ele>
        <time>2016-05-05T12:24:36.000Z</time>
      </trkpt>
      <trkpt lat="48.8328" lon="0.96437">
        <ele>158.39999389648</ele>
        <time>2016-05-05T12:24:51.000Z</time>
      </trkpt>
      <trkpt lat="48.83291" lon="0.9643">
        <ele>158.60000610352</ele>
        <time>2016-05-05T12:24:59.000Z</time>
      </trkpt>
      <trkpt lat="48.83299" lon="0.96428">
        <ele>158.60000610352</ele>
        <time>2016-05-05T12:25:05.000Z</time>
      </trkpt>
      <trkpt lat="48.833" lon="0.96427">
        <ele>158.60000610352</ele>
        <time>2016-05-05T12:25:06.000Z</time>
      </trkpt>
      <trkpt lat="48.83307" lon="0.96422">
        <ele>158.60000610352</ele>
        <time>2016-05-05T12:25:11.000Z</time>
      </trkpt>
      <trkpt lat="48.83319" lon="0.96414">
        <ele>159</ele>
        <time>2016-05-05T12:25:20.000Z</time>
      </trkpt>
      <trkpt lat="48.83334" lon="0.96404">
        <ele>159.39999389648</ele>
        <time>2016-05-05T12:25:32.000Z</time>
      </trkpt>
      <trkpt lat="48.83347" lon="0.96395">
        <ele>159.80000305176</ele>
        <time>2016-05-05T12:25:42.000Z</time>
      </trkpt>
      <trkpt lat="48.83355" lon="0.9639">
        <ele>160</ele>
        <time>2016-05-05T12:25:48.000Z</time>
      </trkpt>
      <trkpt lat="48.83357" lon="0.96388">
        <ele>160.19999694824</ele>
        <time>2016-05-05T12:25:50.000Z</time>
      </trkpt>
      <trkpt lat="48.83362" lon="0.96385">
        <ele>160.19999694824</ele>
        <time>2016-05-05T12:25:54.000Z</time>
      </trkpt>
      <trkpt lat="48.8337" lon="0.9638">
        <ele>160.39999389648</ele>
        <time>2016-05-05T12:26:00.000Z</time>
      </trkpt>
      <trkpt lat="48.83375" lon="0.96376">
        <ele>160.60000610352</ele>
        <time>2016-05-05T12:26:04.000Z</time>
      </trkpt>
      <trkpt lat="48.83381" lon="0.96373">
        <ele>160.60000610352</ele>
        <time>2016-05-05T12:26:08.000Z</time>
      </trkpt>
      <trkpt lat="48.83391" lon="0.96367">
        <ele>160.80000305176</ele>
        <time>2016-05-05T12:26:16.000Z</time>
      </trkpt>
      <trkpt lat="48.83404" lon="0.96358">
        <ele>161.19999694824</ele>
        <time>2016-05-05T12:26:26.000Z</time>
      </trkpt>
      <trkpt lat="48.83413" lon="0.96351">
        <ele>161.39999389648</ele>
        <time>2016-05-05T12:26:33.000Z</time>
      </trkpt>
      <trkpt lat="48.83429" lon="0.96338">
        <ele>162</ele>
        <time>2016-05-05T12:26:46.000Z</time>
      </trkpt>
      <trkpt lat="48.83437" lon="0.96331">
        <ele>162.19999694824</ele>
        <time>2016-05-05T12:26:53.000Z</time>
      </trkpt>
      <trkpt lat="48.83446" lon="0.96323">
        <ele>162.60000610352</ele>
        <time>2016-05-05T12:27:01.000Z</time>
      </trkpt>
      <trkpt lat="48.83456" lon="0.96312">
        <ele>163</ele>
        <time>2016-05-05T12:27:10.000Z</time>
      </trkpt>
      <trkpt lat="48.83462" lon="0.96296">
        <ele>163.60000610352</ele>
        <time>2016-05-05T12:27:19.000Z</time>
      </trkpt>
      <trkpt lat="48.83468" lon="0.96281">
        <ele>164</ele>
        <time>2016-05-05T12:27:28.000Z</time>
      </trkpt>
      <trkpt lat="48.83472" lon="0.96273">
        <ele>164.19999694824</ele>
        <time>2016-05-05T12:27:33.000Z</time>
      </trkpt>
      <trkpt lat="48.83477" lon="0.96259">
        <ele>164.60000610352</ele>
        <time>2016-05-05T12:27:41.000Z</time>
      </trkpt>
      <trkpt lat="48.83481" lon="0.96248">
        <ele>164.80000305176</ele>
        <time>2016-05-05T12:27:47.000Z</time>
      </trkpt>
      <trkpt lat="48.83487" lon="0.96233">
        <ele>165</ele>
        <time>2016-05-05T12:27:56.000Z</time>
      </trkpt>
      <trkpt lat="48.83488" lon="0.96228">
        <ele>165</ele>
        <time>2016-05-05T12:27:59.000Z</time>
      </trkpt>
      <trkpt lat="48.83489" lon="0.96221">
        <ele>165</ele>
        <time>2016-05-05T12:28:02.000Z</time>
      </trkpt>
      <trkpt lat="48.8349" lon="0.96219">
        <ele>165.19999694824</ele>
        <time>2016-05-05T12:28:03.000Z</time>
      </trkpt>
      <trkpt lat="48.83492" lon="0.96212">
        <ele>165.19999694824</ele>
        <time>2016-05-05T12:28:07.000Z</time>
      </trkpt>
      <trkpt lat="48.83493" lon="0.96211">
        <ele>165.39999389648</ele>
        <time>2016-05-05T12:28:08.000Z</time>
      </trkpt>
      <trkpt lat="48.83499" lon="0.96198">
        <ele>165.60000610352</ele>
        <time>2016-05-05T12:28:15.000Z</time>
      </trkpt>
      <trkpt lat="48.83505" lon="0.96184">
        <ele>165.60000610352</ele>
        <time>2016-05-05T12:28:24.000Z</time>
      </trkpt>
      <trkpt lat="48.8351" lon="0.96171">
        <ele>165.80000305176</ele>
        <time>2016-05-05T12:28:32.000Z</time>
      </trkpt>
      <trkpt lat="48.83518" lon="0.96155">
        <ele>165.80000305176</ele>
        <time>2016-05-05T12:28:42.000Z</time>
      </trkpt>
      <trkpt lat="48.83522" lon="0.96151">
        <ele>165.80000305176</ele>
        <time>2016-05-05T12:28:45.000Z</time>
      </trkpt>
      <trkpt lat="48.83523" lon="0.96148">
        <ele>166</ele>
        <time>2016-05-05T12:28:47.000Z</time>
      </trkpt>
      <trkpt lat="48.83525" lon="0.96145">
        <ele>166</ele>
        <time>2016-05-05T12:28:49.000Z</time>
      </trkpt>
      <trkpt lat="48.8353" lon="0.96136">
        <ele>166.19999694824</ele>
        <time>2016-05-05T12:28:55.000Z</time>
      </trkpt>
      <trkpt lat="48.83532" lon="0.96131">
        <ele>166.19999694824</ele>
        <time>2016-05-05T12:28:58.000Z</time>
      </trkpt>
      <trkpt lat="48.83535" lon="0.96125">
        <ele>166.39999389648</ele>
        <time>2016-05-05T12:29:02.000Z</time>
      </trkpt>
      <trkpt lat="48.83542" lon="0.96113">
        <ele>166.60000610352</ele>
        <time>2016-05-05T12:29:10.000Z</time>
      </trkpt>
      <trkpt lat="48.83547" lon="0.96104">
        <ele>166.80000305176</ele>
        <time>2016-05-05T12:29:16.000Z</time>
      </trkpt>
      <trkpt lat="48.83551" lon="0.96098">
        <ele>167</ele>
        <time>2016-05-05T12:29:23.000Z</time>
      </trkpt>
      <trkpt lat="48.83564" lon="0.96093">
        <ele>167.19999694824</ele>
        <time>2016-05-05T12:29:38.000Z</time>
      </trkpt>
      <trkpt lat="48.83568" lon="0.9609">
        <ele>167.39999389648</ele>
        <time>2016-05-05T12:29:41.000Z</time>
      </trkpt>
      <trkpt lat="48.83569" lon="0.96089">
        <ele>167.39999389648</ele>
        <time>2016-05-05T12:29:42.000Z</time>
      </trkpt>
      <trkpt lat="48.83581" lon="0.96077">
        <ele>168</ele>
        <time>2016-05-05T12:29:52.000Z</time>
      </trkpt>
      <trkpt lat="48.83592" lon="0.96068">
        <ele>168.39999389648</ele>
        <time>2016-05-05T12:30:01.000Z</time>
      </trkpt>
      <trkpt lat="48.836" lon="0.96061">
        <ele>168.80000305176</ele>
        <time>2016-05-05T12:30:06.000Z</time>
      </trkpt>
      <trkpt lat="48.83613" lon="0.9605">
        <ele>169</ele>
        <time>2016-05-05T12:30:16.000Z</time>
      </trkpt>
      <trkpt lat="48.83614" lon="0.9605">
        <ele>169</ele>
        <time>2016-05-05T12:30:17.000Z</time>
      </trkpt>
      <trkpt lat="48.83619" lon="0.96045">
        <ele>169</ele>
        <time>2016-05-05T12:30:22.000Z</time>
      </trkpt>
      <trkpt lat="48.83634" lon="0.96033">
        <ele>169</ele>
        <time>2016-05-05T12:30:33.000Z</time>
      </trkpt>
      <trkpt lat="48.83646" lon="0.96024">
        <ele>169</ele>
        <time>2016-05-05T12:30:42.000Z</time>
      </trkpt>
      <trkpt lat="48.8366" lon="0.96013">
        <ele>169.19999694824</ele>
        <time>2016-05-05T12:30:53.000Z</time>
      </trkpt>
      <trkpt lat="48.83673" lon="0.96002">
        <ele>169.39999389648</ele>
        <time>2016-05-05T12:31:04.000Z</time>
      </trkpt>
      <trkpt lat="48.8369" lon="0.95988">
        <ele>169.80000305176</ele>
        <time>2016-05-05T12:31:17.000Z</time>
      </trkpt>
      <trkpt lat="48.83705" lon="0.95971">
        <ele>170.19999694824</ele>
        <time>2016-05-05T12:31:30.000Z</time>
      </trkpt>
      <trkpt lat="48.83718" lon="0.95956">
        <ele>170.19999694824</ele>
        <time>2016-05-05T12:31:42.000Z</time>
      </trkpt>
      <trkpt lat="48.8373" lon="0.95941">
        <ele>170.19999694824</ele>
        <time>2016-05-05T12:31:53.000Z</time>
      </trkpt>
      <trkpt lat="48.83736" lon="0.95935">
        <ele>170.19999694824</ele>
        <time>2016-05-05T12:31:58.000Z</time>
      </trkpt>
      <trkpt lat="48.83741" lon="0.95932">
        <ele>170.39999389648</ele>
        <time>2016-05-05T12:32:02.000Z</time>
      </trkpt>
      <trkpt lat="48.83745" lon="0.95928">
        <ele>170.60000610352</ele>
        <time>2016-05-05T12:32:05.000Z</time>
      </trkpt>
      <trkpt lat="48.83754" lon="0.95923">
        <ele>171</ele>
        <time>2016-05-05T12:32:13.000Z</time>
      </trkpt>
      <trkpt lat="48.83754" lon="0.95923">
        <ele>171</ele>
        <time>2016-05-05T12:32:14.000Z</time>
      </trkpt>
      <trkpt lat="48.8376" lon="0.95919">
        <ele>171.19999694824</ele>
        <time>2016-05-05T12:32:19.000Z</time>
      </trkpt>
      <trkpt lat="48.83764" lon="0.95916">
        <ele>171.39999389648</ele>
        <time>2016-05-05T12:32:22.000Z</time>
      </trkpt>
      <trkpt lat="48.8377" lon="0.9591">
        <ele>171.60000610352</ele>
        <time>2016-05-05T12:32:27.000Z</time>
      </trkpt>
      <trkpt lat="48.83774" lon="0.95908">
        <ele>171.80000305176</ele>
        <time>2016-05-05T12:32:30.000Z</time>
      </trkpt>
      <trkpt lat="48.8379" lon="0.959">
        <ele>171.80000305176</ele>
        <time>2016-05-05T12:32:42.000Z</time>
      </trkpt>
      <trkpt lat="48.83792" lon="0.95899">
        <ele>172</ele>
        <time>2016-05-05T12:32:44.000Z</time>
      </trkpt>
      <trkpt lat="48.83796" lon="0.95893">
        <ele>172</ele>
        <time>2016-05-05T12:32:48.000Z</time>
      </trkpt>
      <trkpt lat="48.83815" lon="0.95882">
        <ele>171.80000305176</ele>
        <time>2016-05-05T12:33:02.000Z</time>
      </trkpt>
      <trkpt lat="48.83833" lon="0.95871">
        <ele>171.80000305176</ele>
        <time>2016-05-05T12:33:16.000Z</time>
      </trkpt>
      <trkpt lat="48.83852" lon="0.95859">
        <ele>172.19999694824</ele>
        <time>2016-05-05T12:33:31.000Z</time>
      </trkpt>
      <trkpt lat="48.83869" lon="0.95846">
        <ele>172.80000305176</ele>
        <time>2016-05-05T12:33:45.000Z</time>
      </trkpt>
      <trkpt lat="48.83879" lon="0.95838">
        <ele>173.19999694824</ele>
        <time>2016-05-05T12:33:53.000Z</time>
      </trkpt>
      <trkpt lat="48.83898" lon="0.95822">
        <ele>173.60000610352</ele>
        <time>2016-05-05T12:34:09.000Z</time>
      </trkpt>
      <trkpt lat="48.8391" lon="0.95811">
        <ele>173.60000610352</ele>
        <time>2016-05-05T12:34:20.000Z</time>
      </trkpt>
      <trkpt lat="48.83924" lon="0.95798">
        <ele>174</ele>
        <time>2016-05-05T12:34:32.000Z</time>
      </trkpt>
      <trkpt lat="48.83942" lon="0.95781">
        <ele>174.39999389648</ele>
        <time>2016-05-05T12:34:48.000Z</time>
      </trkpt>
      <trkpt lat="48.83952" lon="0.95772">
        <ele>174.39999389648</ele>
        <time>2016-05-05T12:34:56.000Z</time>
      </trkpt>
      <trkpt lat="48.83967" lon="0.95757">
        <ele>174.60000610352</ele>
        <time>2016-05-05T12:35:09.000Z</time>
      </trkpt>
      <trkpt lat="48.83978" lon="0.95745">
        <ele>174.60000610352</ele>
        <time>2016-05-05T12:35:19.000Z</time>
      </trkpt>
      <trkpt lat="48.83991" lon="0.9573">
        <ele>174.39999389648</ele>
        <time>2016-05-05T12:35:31.000Z</time>
      </trkpt>
      <trkpt lat="48.84006" lon="0.95714">
        <ele>174</ele>
        <time>2016-05-05T12:35:44.000Z</time>
      </trkpt>
      <trkpt lat="48.84022" lon="0.95697">
        <ele>174</ele>
        <time>2016-05-05T12:35:58.000Z</time>
      </trkpt>
      <trkpt lat="48.84032" lon="0.95685">
        <ele>174</ele>
        <time>2016-05-05T12:36:08.000Z</time>
      </trkpt>
      <trkpt lat="48.8405" lon="0.95668">
        <ele>174</ele>
        <time>2016-05-05T12:36:23.000Z</time>
      </trkpt>
      <trkpt lat="48.84058" lon="0.95661">
        <ele>174.19999694824</ele>
        <time>2016-05-05T12:36:30.000Z</time>
      </trkpt>
      <trkpt lat="48.84075" lon="0.95644">
        <ele>174.60000610352</ele>
        <time>2016-05-05T12:36:44.000Z</time>
      </trkpt>
      <trkpt lat="48.84083" lon="0.95634">
        <ele>174.80000305176</ele>
        <time>2016-05-05T12:36:51.000Z</time>
      </trkpt>
      <trkpt lat="48.84088" lon="0.95625">
        <ele>175</ele>
        <time>2016-05-05T12:36:57.000Z</time>
      </trkpt>
      <trkpt lat="48.84097" lon="0.95614">
        <ele>175.19999694824</ele>
        <time>2016-05-05T12:37:05.000Z</time>
      </trkpt>
      <trkpt lat="48.84113" lon="0.95595">
        <ele>175.60000610352</ele>
        <time>2016-05-05T12:37:20.000Z</time>
      </trkpt>
      <trkpt lat="48.84121" lon="0.95587">
        <ele>175.60000610352</ele>
        <time>2016-05-05T12:37:27.000Z</time>
      </trkpt>
      <trkpt lat="48.84137" lon="0.9557">
        <ele>175.80000305176</ele>
        <time>2016-05-05T12:37:42.000Z</time>
      </trkpt>
      <trkpt lat="48.84151" lon="0.95556">
        <ele>176</ele>
        <time>2016-05-05T12:37:54.000Z</time>
      </trkpt>
      <trkpt lat="48.84166" lon="0.95539">
        <ele>176</ele>
        <time>2016-05-05T12:38:08.000Z</time>
      </trkpt>
      <trkpt lat="48.84174" lon="0.95529">
        <ele>176.19999694824</ele>
        <time>2016-05-05T12:38:17.000Z</time>
      </trkpt>
      <trkpt lat="48.84187" lon="0.95516">
        <ele>176.39999389648</ele>
        <time>2016-05-05T12:38:28.000Z</time>
      </trkpt>
      <trkpt lat="48.84195" lon="0.95508">
        <ele>176.60000610352</ele>
        <time>2016-05-05T12:38:35.000Z</time>
      </trkpt>
      <trkpt lat="48.84209" lon="0.95493">
        <ele>176.60000610352</ele>
        <time>2016-05-05T12:38:48.000Z</time>
      </trkpt>
      <trkpt lat="48.84229" lon="0.95475">
        <ele>176.60000610352</ele>
        <time>2016-05-05T12:39:05.000Z</time>
      </trkpt>
      <trkpt lat="48.84233" lon="0.95472">
        <ele>176.39999389648</ele>
        <time>2016-05-05T12:39:08.000Z</time>
      </trkpt>
      <trkpt lat="48.84235" lon="0.9547">
        <ele>176.39999389648</ele>
        <time>2016-05-05T12:39:10.000Z</time>
      </trkpt>
      <trkpt lat="48.84239" lon="0.95468">
        <ele>176.39999389648</ele>
        <time>2016-05-05T12:39:13.000Z</time>
      </trkpt>
      <trkpt lat="48.8425" lon="0.95459">
        <ele>176</ele>
        <time>2016-05-05T12:39:23.000Z</time>
      </trkpt>
      <trkpt lat="48.84263" lon="0.9545">
        <ele>176</ele>
        <time>2016-05-05T12:39:34.000Z</time>
      </trkpt>
      <trkpt lat="48.84275" lon="0.95445">
        <ele>176</ele>
        <time>2016-05-05T12:39:43.000Z</time>
      </trkpt>
      <trkpt lat="48.84286" lon="0.95437">
        <ele>176</ele>
        <time>2016-05-05T12:39:53.000Z</time>
      </trkpt>
      <trkpt lat="48.84297" lon="0.9543">
        <ele>176</ele>
        <time>2016-05-05T12:40:01.000Z</time>
      </trkpt>
      <trkpt lat="48.84311" lon="0.95421">
        <ele>176</ele>
        <time>2016-05-05T12:40:12.000Z</time>
      </trkpt>
      <trkpt lat="48.84321" lon="0.95415">
        <ele>176</ele>
        <time>2016-05-05T12:40:19.000Z</time>
      </trkpt>
      <trkpt lat="48.84331" lon="0.95409">
        <ele>176</ele>
        <time>2016-05-05T12:40:28.000Z</time>
      </trkpt>
      <trkpt lat="48.84349" lon="0.95399">
        <ele>176</ele>
        <time>2016-05-05T12:40:41.000Z</time>
      </trkpt>
      <trkpt lat="48.84359" lon="0.95394">
        <ele>176</ele>
        <time>2016-05-05T12:40:49.000Z</time>
      </trkpt>
      <trkpt lat="48.84371" lon="0.9539">
        <ele>176.19999694824</ele>
        <time>2016-05-05T12:40:58.000Z</time>
      </trkpt>
      <trkpt lat="48.84386" lon="0.95389">
        <ele>176.39999389648</ele>
        <time>2016-05-05T12:41:09.000Z</time>
      </trkpt>
      <trkpt lat="48.84387" lon="0.9539">
        <ele>176.39999389648</ele>
        <time>2016-05-05T12:41:10.000Z</time>
      </trkpt>
      <trkpt lat="48.84394" lon="0.95393">
        <ele>176.39999389648</ele>
        <time>2016-05-05T12:41:15.000Z</time>
      </trkpt>
      <trkpt lat="48.84408" lon="0.95394">
        <ele>176.60000610352</ele>
        <time>2016-05-05T12:41:25.000Z</time>
      </trkpt>
      <trkpt lat="48.84421" lon="0.95394">
        <ele>176.80000305176</ele>
        <time>2016-05-05T12:41:34.000Z</time>
      </trkpt>
      <trkpt lat="48.84423" lon="0.95395">
        <ele>176.80000305176</ele>
        <time>2016-05-05T12:41:37.000Z</time>
      </trkpt>
      <trkpt lat="48.84433" lon="0.95397">
        <ele>176.80000305176</ele>
        <time>2016-05-05T12:41:46.000Z</time>
      </trkpt>
      <trkpt lat="48.84434" lon="0.95397">
        <ele>176.80000305176</ele>
        <time>2016-05-05T12:41:47.000Z</time>
      </trkpt>
      <trkpt lat="48.84452" lon="0.95398">
        <ele>177</ele>
        <time>2016-05-05T12:41:59.000Z</time>
      </trkpt>
      <trkpt lat="48.84476" lon="0.95399">
        <ele>177.39999389648</ele>
        <time>2016-05-05T12:42:16.000Z</time>
      </trkpt>
      <trkpt lat="48.84488" lon="0.95399">
        <ele>177.39999389648</ele>
        <time>2016-05-05T12:42:25.000Z</time>
      </trkpt>
      <trkpt lat="48.84499" lon="0.95399">
        <ele>177.60000610352</ele>
        <time>2016-05-05T12:42:33.000Z</time>
      </trkpt>
      <trkpt lat="48.84508" lon="0.954">
        <ele>177.80000305176</ele>
        <time>2016-05-05T12:42:40.000Z</time>
      </trkpt>
      <trkpt lat="48.84522" lon="0.95398">
        <ele>178</ele>
        <time>2016-05-05T12:42:50.000Z</time>
      </trkpt>
      <trkpt lat="48.84541" lon="0.95397">
        <ele>177.60000610352</ele>
        <time>2016-05-05T12:43:04.000Z</time>
      </trkpt>
      <trkpt lat="48.84563" lon="0.95394">
        <ele>177.19999694824</ele>
        <time>2016-05-05T12:43:20.000Z</time>
      </trkpt>
      <trkpt lat="48.84579" lon="0.95392">
        <ele>176.60000610352</ele>
        <time>2016-05-05T12:43:31.000Z</time>
      </trkpt>
      <trkpt lat="48.84596" lon="0.95388">
        <ele>176.19999694824</ele>
        <time>2016-05-05T12:43:44.000Z</time>
      </trkpt>
      <trkpt lat="48.84612" lon="0.95383">
        <ele>176.39999389648</ele>
        <time>2016-05-05T12:43:56.000Z</time>
      </trkpt>
      <trkpt lat="48.84631" lon="0.95376">
        <ele>176.80000305176</ele>
        <time>2016-05-05T12:44:10.000Z</time>
      </trkpt>
      <trkpt lat="48.84646" lon="0.95369">
        <ele>177.19999694824</ele>
        <time>2016-05-05T12:44:21.000Z</time>
      </trkpt>
      <trkpt lat="48.84661" lon="0.95361">
        <ele>177.80000305176</ele>
        <time>2016-05-05T12:44:32.000Z</time>
      </trkpt>
      <trkpt lat="48.84673" lon="0.95354">
        <ele>177.80000305176</ele>
        <time>2016-05-05T12:44:42.000Z</time>
      </trkpt>
      <trkpt lat="48.8468" lon="0.95351">
        <ele>178</ele>
        <time>2016-05-05T12:44:47.000Z</time>
      </trkpt>
      <trkpt lat="48.84691" lon="0.95344">
        <ele>178.19999694824</ele>
        <time>2016-05-05T12:44:56.000Z</time>
      </trkpt>
      <trkpt lat="48.84708" lon="0.95335">
        <ele>178.60000610352</ele>
        <time>2016-05-05T12:45:09.000Z</time>
      </trkpt>
      <trkpt lat="48.84724" lon="0.95326">
        <ele>179</ele>
        <time>2016-05-05T12:45:21.000Z</time>
      </trkpt>
      <trkpt lat="48.84743" lon="0.95316">
        <ele>179.39999389648</ele>
        <time>2016-05-05T12:45:36.000Z</time>
      </trkpt>
      <trkpt lat="48.84753" lon="0.95311">
        <ele>179.60000610352</ele>
        <time>2016-05-05T12:45:44.000Z</time>
      </trkpt>
      <trkpt lat="48.84769" lon="0.95307">
        <ele>180</ele>
        <time>2016-05-05T12:45:56.000Z</time>
      </trkpt>
      <trkpt lat="48.84787" lon="0.95305">
        <ele>179.60000610352</ele>
        <time>2016-05-05T12:46:09.000Z</time>
      </trkpt>
      <trkpt lat="48.84798" lon="0.95304">
        <ele>179.39999389648</ele>
        <time>2016-05-05T12:46:17.000Z</time>
      </trkpt>
      <trkpt lat="48.84813" lon="0.95303">
        <ele>179</ele>
        <time>2016-05-05T12:46:28.000Z</time>
      </trkpt>
      <trkpt lat="48.8483" lon="0.953">
        <ele>178.60000610352</ele>
        <time>2016-05-05T12:46:40.000Z</time>
      </trkpt>
      <trkpt lat="48.84838" lon="0.95298">
        <ele>178.39999389648</ele>
        <time>2016-05-05T12:46:45.000Z</time>
      </trkpt>
      <trkpt lat="48.8484" lon="0.95296">
        <ele>178.19999694824</ele>
        <time>2016-05-05T12:46:47.000Z</time>
      </trkpt>
      <trkpt lat="48.84849" lon="0.95294">
        <ele>178</ele>
        <time>2016-05-05T12:46:53.000Z</time>
      </trkpt>
      <trkpt lat="48.84862" lon="0.95289">
        <ele>178.19999694824</ele>
        <time>2016-05-05T12:47:02.000Z</time>
      </trkpt>
      <trkpt lat="48.84884" lon="0.9528">
        <ele>178.60000610352</ele>
        <time>2016-05-05T12:47:18.000Z</time>
      </trkpt>
      <trkpt lat="48.84896" lon="0.95276">
        <ele>179</ele>
        <time>2016-05-05T12:47:27.000Z</time>
      </trkpt>
      <trkpt lat="48.84908" lon="0.95272">
        <ele>179.19999694824</ele>
        <time>2016-05-05T12:47:35.000Z</time>
      </trkpt>
      <trkpt lat="48.84912" lon="0.95271">
        <ele>179.19999694824</ele>
        <time>2016-05-05T12:47:38.000Z</time>
      </trkpt>
      <trkpt lat="48.84917" lon="0.95271">
        <ele>179.19999694824</ele>
        <time>2016-05-05T12:47:42.000Z</time>
      </trkpt>
      <trkpt lat="48.84929" lon="0.95267">
        <ele>179</ele>
        <time>2016-05-05T12:47:51.000Z</time>
      </trkpt>
      <trkpt lat="48.84941" lon="0.95265">
        <ele>179</ele>
        <time>2016-05-05T12:47:59.000Z</time>
      </trkpt>
      <trkpt lat="48.84961" lon="0.95261">
        <ele>178.39999389648</ele>
        <time>2016-05-05T12:48:13.000Z</time>
      </trkpt>
      <trkpt lat="48.84974" lon="0.95256">
        <ele>178</ele>
        <time>2016-05-05T12:48:23.000Z</time>
      </trkpt>
      <trkpt lat="48.84991" lon="0.95253">
        <ele>177.80000305176</ele>
        <time>2016-05-05T12:48:35.000Z</time>
      </trkpt>
      <trkpt lat="48.8501" lon="0.9525">
        <ele>177.39999389648</ele>
        <time>2016-05-05T12:48:48.000Z</time>
      </trkpt>
      <trkpt lat="48.85027" lon="0.95249">
        <ele>177.19999694824</ele>
        <time>2016-05-05T12:49:00.000Z</time>
      </trkpt>
      <trkpt lat="48.85038" lon="0.95248">
        <ele>177.19999694824</ele>
        <time>2016-05-05T12:49:08.000Z</time>
      </trkpt>
      <trkpt lat="48.85054" lon="0.95247">
        <ele>177.39999389648</ele>
        <time>2016-05-05T12:49:18.000Z</time>
      </trkpt>
      <trkpt lat="48.85061" lon="0.95246">
        <ele>177.39999389648</ele>
        <time>2016-05-05T12:49:23.000Z</time>
      </trkpt>
      <trkpt lat="48.8507" lon="0.95247">
        <ele>177.60000610352</ele>
        <time>2016-05-05T12:49:29.000Z</time>
      </trkpt>
      <trkpt lat="48.85082" lon="0.95248">
        <ele>177.80000305176</ele>
        <time>2016-05-05T12:49:37.000Z</time>
      </trkpt>
      <trkpt lat="48.85098" lon="0.95252">
        <ele>178</ele>
        <time>2016-05-05T12:49:48.000Z</time>
      </trkpt>
      <trkpt lat="48.85115" lon="0.95257">
        <ele>177.80000305176</ele>
        <time>2016-05-05T12:50:00.000Z</time>
      </trkpt>
      <trkpt lat="48.85132" lon="0.95262">
        <ele>177.60000610352</ele>
        <time>2016-05-05T12:50:12.000Z</time>
      </trkpt>
      <trkpt lat="48.85145" lon="0.95266">
        <ele>177.60000610352</ele>
        <time>2016-05-05T12:50:21.000Z</time>
      </trkpt>
      <trkpt lat="48.85161" lon="0.95272">
        <ele>177.39999389648</ele>
        <time>2016-05-05T12:50:32.000Z</time>
      </trkpt>
      <trkpt lat="48.85178" lon="0.95277">
        <ele>177.39999389648</ele>
        <time>2016-05-05T12:50:44.000Z</time>
      </trkpt>
      <trkpt lat="48.85191" lon="0.95282">
        <ele>177.39999389648</ele>
        <time>2016-05-05T12:50:53.000Z</time>
      </trkpt>
      <trkpt lat="48.85207" lon="0.95287">
        <ele>177.60000610352</ele>
        <time>2016-05-05T12:51:04.000Z</time>
      </trkpt>
      <trkpt lat="48.85222" lon="0.95292">
        <ele>178</ele>
        <time>2016-05-05T12:51:15.000Z</time>
      </trkpt>
      <trkpt lat="48.85235" lon="0.95294">
        <ele>178.19999694824</ele>
        <time>2016-05-05T12:51:24.000Z</time>
      </trkpt>
      <trkpt lat="48.85245" lon="0.95297">
        <ele>178.39999389648</ele>
        <time>2016-05-05T12:51:31.000Z</time>
      </trkpt>
      <trkpt lat="48.85257" lon="0.95298">
        <ele>178.80000305176</ele>
        <time>2016-05-05T12:51:39.000Z</time>
      </trkpt>
      <trkpt lat="48.85258" lon="0.95298">
        <ele>178.80000305176</ele>
        <time>2016-05-05T12:51:40.000Z</time>
      </trkpt>
      <trkpt lat="48.8527" lon="0.953">
        <ele>178.80000305176</ele>
        <time>2016-05-05T12:51:49.000Z</time>
      </trkpt>
      <trkpt lat="48.85285" lon="0.95302">
        <ele>178.60000610352</ele>
        <time>2016-05-05T12:51:59.000Z</time>
      </trkpt>
      <trkpt lat="48.85299" lon="0.95304">
        <ele>178.19999694824</ele>
        <time>2016-05-05T12:52:09.000Z</time>
      </trkpt>
      <trkpt lat="48.85317" lon="0.95307">
        <ele>178</ele>
        <time>2016-05-05T12:52:22.000Z</time>
      </trkpt>
      <trkpt lat="48.85327" lon="0.95309">
        <ele>177.60000610352</ele>
        <time>2016-05-05T12:52:29.000Z</time>
      </trkpt>
      <trkpt lat="48.8534" lon="0.95312">
        <ele>177.39999389648</ele>
        <time>2016-05-05T12:52:38.000Z</time>
      </trkpt>
      <trkpt lat="48.85356" lon="0.95315">
        <ele>177</ele>
        <time>2016-05-05T12:52:49.000Z</time>
      </trkpt>
      <trkpt lat="48.85375" lon="0.9532">
        <ele>177.39999389648</ele>
        <time>2016-05-05T12:53:02.000Z</time>
      </trkpt>
      <trkpt lat="48.85385" lon="0.95323">
        <ele>177.60000610352</ele>
        <time>2016-05-05T12:53:10.000Z</time>
      </trkpt>
      <trkpt lat="48.85393" lon="0.95326">
        <ele>177.60000610352</ele>
        <time>2016-05-05T12:53:17.000Z</time>
      </trkpt>
      <trkpt lat="48.85409" lon="0.95332">
        <ele>178</ele>
        <time>2016-05-05T12:53:29.000Z</time>
      </trkpt>
      <trkpt lat="48.85426" lon="0.95339">
        <ele>178.19999694824</ele>
        <time>2016-05-05T12:53:42.000Z</time>
      </trkpt>
      <trkpt lat="48.85436" lon="0.95343">
        <ele>178.39999389648</ele>
        <time>2016-05-05T12:53:50.000Z</time>
      </trkpt>
      <trkpt lat="48.85453" lon="0.9535">
        <ele>178.19999694824</ele>
        <time>2016-05-05T12:54:03.000Z</time>
      </trkpt>
      <trkpt lat="48.85465" lon="0.95354">
        <ele>178</ele>
        <time>2016-05-05T12:54:12.000Z</time>
      </trkpt>
      <trkpt lat="48.8548" lon="0.95359">
        <ele>177.60000610352</ele>
        <time>2016-05-05T12:54:23.000Z</time>
      </trkpt>
      <trkpt lat="48.85486" lon="0.95362">
        <ele>177.60000610352</ele>
        <time>2016-05-05T12:54:28.000Z</time>
      </trkpt>
      <trkpt lat="48.85487" lon="0.95362">
        <ele>177.60000610352</ele>
        <time>2016-05-05T12:54:29.000Z</time>
      </trkpt>
      <trkpt lat="48.8549" lon="0.95361">
        <ele>177.39999389648</ele>
        <time>2016-05-05T12:54:32.000Z</time>
      </trkpt>
      <trkpt lat="48.85493" lon="0.95358">
        <ele>177.39999389648</ele>
        <time>2016-05-05T12:54:35.000Z</time>
      </trkpt>
      <trkpt lat="48.85494" lon="0.95356">
        <ele>177.39999389648</ele>
        <time>2016-05-05T12:54:36.000Z</time>
      </trkpt>
      <trkpt lat="48.85494" lon="0.95344">
        <ele>177.60000610352</ele>
        <time>2016-05-05T12:54:42.000Z</time>
      </trkpt>
      <trkpt lat="48.85491" lon="0.9533">
        <ele>177.80000305176</ele>
        <time>2016-05-05T12:54:50.000Z</time>
      </trkpt>
      <trkpt lat="48.85486" lon="0.95307">
        <ele>178</ele>
        <time>2016-05-05T12:55:02.000Z</time>
      </trkpt>
      <trkpt lat="48.8548" lon="0.95285">
        <ele>177.80000305176</ele>
        <time>2016-05-05T12:55:14.000Z</time>
      </trkpt>
      <trkpt lat="48.85475" lon="0.95263">
        <ele>177.39999389648</ele>
        <time>2016-05-05T12:55:26.000Z</time>
      </trkpt>
      <trkpt lat="48.85471" lon="0.95245">
        <ele>177.39999389648</ele>
        <time>2016-05-05T12:55:37.000Z</time>
      </trkpt>
      <trkpt lat="48.85469" lon="0.95235">
        <ele>177.39999389648</ele>
        <time>2016-05-05T12:55:44.000Z</time>
      </trkpt>
      <trkpt lat="48.85466" lon="0.95223">
        <ele>177.39999389648</ele>
        <time>2016-05-05T12:56:03.000Z</time>
      </trkpt>
      <trkpt lat="48.85464" lon="0.95217">
        <ele>177.19999694824</ele>
        <time>2016-05-05T12:56:06.000Z</time>
      </trkpt>
      <trkpt lat="48.85461" lon="0.95202">
        <ele>177.19999694824</ele>
        <time>2016-05-05T12:56:14.000Z</time>
      </trkpt>
      <trkpt lat="48.85461" lon="0.95199">
        <ele>177.19999694824</ele>
        <time>2016-05-05T12:56:17.000Z</time>
      </trkpt>
      <trkpt lat="48.85442" lon="0.95119">
        <ele>176.80000305176</ele>
        <time>2016-05-05T12:58:24.000Z</time>
      </trkpt>
      <trkpt lat="48.85442" lon="0.95117">
        <ele>176.80000305176</ele>
        <time>2016-05-05T12:58:25.000Z</time>
      </trkpt>
      <trkpt lat="48.85438" lon="0.95099">
        <ele>176.60000610352</ele>
        <time>2016-05-05T12:58:35.000Z</time>
      </trkpt>
      <trkpt lat="48.85434" lon="0.9508">
        <ele>176.39999389648</ele>
        <time>2016-05-05T12:58:45.000Z</time>
      </trkpt>
      <trkpt lat="48.85431" lon="0.95067">
        <ele>176.39999389648</ele>
        <time>2016-05-05T12:58:52.000Z</time>
      </trkpt>
      <trkpt lat="48.85427" lon="0.95055">
        <ele>176.39999389648</ele>
        <time>2016-05-05T12:58:58.000Z</time>
      </trkpt>
      <trkpt lat="48.85425" lon="0.95045">
        <ele>176.39999389648</ele>
        <time>2016-05-05T12:59:04.000Z</time>
      </trkpt>
      <trkpt lat="48.85425" lon="0.95041">
        <ele>176.60000610352</ele>
        <time>2016-05-05T12:59:06.000Z</time>
      </trkpt>
      <trkpt lat="48.85423" lon="0.95029">
        <ele>176.80000305176</ele>
        <time>2016-05-05T12:59:12.000Z</time>
      </trkpt>
      <trkpt lat="48.85421" lon="0.95017">
        <ele>177</ele>
        <time>2016-05-05T12:59:18.000Z</time>
      </trkpt>
      <trkpt lat="48.85416" lon="0.95">
        <ele>177.19999694824</ele>
        <time>2016-05-05T12:59:27.000Z</time>
      </trkpt>
      <trkpt lat="48.85413" lon="0.94987">
        <ele>177.39999389648</ele>
        <time>2016-05-05T12:59:34.000Z</time>
      </trkpt>
      <trkpt lat="48.85411" lon="0.94974">
        <ele>177.60000610352</ele>
        <time>2016-05-05T12:59:41.000Z</time>
      </trkpt>
      <trkpt lat="48.85407" lon="0.94959">
        <ele>177.80000305176</ele>
        <time>2016-05-05T12:59:49.000Z</time>
      </trkpt>
      <trkpt lat="48.85404" lon="0.94942">
        <ele>177.80000305176</ele>
        <time>2016-05-05T12:59:58.000Z</time>
      </trkpt>
      <trkpt lat="48.85398" lon="0.94919">
        <ele>178.19999694824</ele>
        <time>2016-05-05T13:00:10.000Z</time>
      </trkpt>
      <trkpt lat="48.85396" lon="0.94907">
        <ele>178.39999389648</ele>
        <time>2016-05-05T13:00:16.000Z</time>
      </trkpt>
      <trkpt lat="48.85394" lon="0.94894">
        <ele>178.60000610352</ele>
        <time>2016-05-05T13:00:23.000Z</time>
      </trkpt>
      <trkpt lat="48.85389" lon="0.94874">
        <ele>178.80000305176</ele>
        <time>2016-05-05T13:00:33.000Z</time>
      </trkpt>
      <trkpt lat="48.85386" lon="0.94859">
        <ele>179</ele>
        <time>2016-05-05T13:00:41.000Z</time>
      </trkpt>
      <trkpt lat="48.85384" lon="0.9485">
        <ele>179.19999694824</ele>
        <time>2016-05-05T13:00:46.000Z</time>
      </trkpt>
      <trkpt lat="48.85382" lon="0.94843">
        <ele>179.19999694824</ele>
        <time>2016-05-05T13:00:50.000Z</time>
      </trkpt>
      <trkpt lat="48.8538" lon="0.94839">
        <ele>179.39999389648</ele>
        <time>2016-05-05T13:00:53.000Z</time>
      </trkpt>
      <trkpt lat="48.85377" lon="0.94825">
        <ele>179.60000610352</ele>
        <time>2016-05-05T13:01:02.000Z</time>
      </trkpt>
      <trkpt lat="48.85373" lon="0.9481">
        <ele>179.80000305176</ele>
        <time>2016-05-05T13:01:11.000Z</time>
      </trkpt>
      <trkpt lat="48.8537" lon="0.94799">
        <ele>180</ele>
        <time>2016-05-05T13:01:17.000Z</time>
      </trkpt>
      <trkpt lat="48.85367" lon="0.94783">
        <ele>180.19999694824</ele>
        <time>2016-05-05T13:01:25.000Z</time>
      </trkpt>
      <trkpt lat="48.85365" lon="0.94771">
        <ele>180.39999389648</ele>
        <time>2016-05-05T13:01:32.000Z</time>
      </trkpt>
      <trkpt lat="48.85364" lon="0.94756">
        <ele>180.60000610352</ele>
        <time>2016-05-05T13:01:40.000Z</time>
      </trkpt>
      <trkpt lat="48.85364" lon="0.94736">
        <ele>180.80000305176</ele>
        <time>2016-05-05T13:01:50.000Z</time>
      </trkpt>
      <trkpt lat="48.85365" lon="0.94716">
        <ele>181</ele>
        <time>2016-05-05T13:02:00.000Z</time>
      </trkpt>
      <trkpt lat="48.85365" lon="0.94711">
        <ele>181</ele>
        <time>2016-05-05T13:02:04.000Z</time>
      </trkpt>
      <trkpt lat="48.85367" lon="0.947">
        <ele>181.19999694824</ele>
        <time>2016-05-05T13:02:11.000Z</time>
      </trkpt>
      <trkpt lat="48.85367" lon="0.94692">
        <ele>181.19999694824</ele>
        <time>2016-05-05T13:02:17.000Z</time>
      </trkpt>
      <trkpt lat="48.85374" lon="0.94664">
        <ele>181.60000610352</ele>
        <time>2016-05-05T13:03:01.000Z</time>
      </trkpt>
      <trkpt lat="48.85374" lon="0.9466">
        <ele>181.60000610352</ele>
        <time>2016-05-05T13:03:03.000Z</time>
      </trkpt>
      <trkpt lat="48.85377" lon="0.94645">
        <ele>181.80000305176</ele>
        <time>2016-05-05T13:03:11.000Z</time>
      </trkpt>
      <trkpt lat="48.85377" lon="0.94638">
        <ele>182</ele>
        <time>2016-05-05T13:03:15.000Z</time>
      </trkpt>
      <trkpt lat="48.85375" lon="0.94619">
        <ele>181.39999389648</ele>
        <time>2016-05-05T13:03:24.000Z</time>
      </trkpt>
      <trkpt lat="48.85373" lon="0.94596">
        <ele>181</ele>
        <time>2016-05-05T13:03:35.000Z</time>
      </trkpt>
      <trkpt lat="48.85372" lon="0.94589">
        <ele>180.80000305176</ele>
        <time>2016-05-05T13:03:39.000Z</time>
      </trkpt>
      <trkpt lat="48.85372" lon="0.94586">
        <ele>180.60000610352</ele>
        <time>2016-05-05T13:03:41.000Z</time>
      </trkpt>
      <trkpt lat="48.85373" lon="0.94579">
        <ele>180.60000610352</ele>
        <time>2016-05-05T13:03:45.000Z</time>
      </trkpt>
      <trkpt lat="48.85373" lon="0.94576">
        <ele>180.39999389648</ele>
        <time>2016-05-05T13:03:47.000Z</time>
      </trkpt>
      <trkpt lat="48.85373" lon="0.94574">
        <ele>180.39999389648</ele>
        <time>2016-05-05T13:03:48.000Z</time>
      </trkpt>
      <trkpt lat="48.85374" lon="0.94561">
        <ele>180</ele>
        <time>2016-05-05T13:03:54.000Z</time>
      </trkpt>
      <trkpt lat="48.85374" lon="0.94545">
        <ele>179.80000305176</ele>
        <time>2016-05-05T13:04:02.000Z</time>
      </trkpt>
      <trkpt lat="48.85375" lon="0.94528">
        <ele>179.19999694824</ele>
        <time>2016-05-05T13:04:10.000Z</time>
      </trkpt>
      <trkpt lat="48.85377" lon="0.94516">
        <ele>179</ele>
        <time>2016-05-05T13:04:16.000Z</time>
      </trkpt>
      <trkpt lat="48.85386" lon="0.94506">
        <ele>178.80000305176</ele>
        <time>2016-05-05T13:04:24.000Z</time>
      </trkpt>
      <trkpt lat="48.85396" lon="0.94506">
        <ele>178.80000305176</ele>
        <time>2016-05-05T13:04:31.000Z</time>
      </trkpt>
      <trkpt lat="48.85398" lon="0.94505">
        <ele>178.80000305176</ele>
        <time>2016-05-05T13:04:33.000Z</time>
      </trkpt>
      <trkpt lat="48.85401" lon="0.94506">
        <ele>179</ele>
        <time>2016-05-05T13:04:37.000Z</time>
      </trkpt>
      <trkpt lat="48.85422" lon="0.94506">
        <ele>179.19999694824</ele>
        <time>2016-05-05T13:04:57.000Z</time>
      </trkpt>
      <trkpt lat="48.85429" lon="0.94505">
        <ele>179.19999694824</ele>
        <time>2016-05-05T13:05:03.000Z</time>
      </trkpt>
      <trkpt lat="48.85438" lon="0.94505">
        <ele>179.39999389648</ele>
        <time>2016-05-05T13:05:11.000Z</time>
      </trkpt>
      <trkpt lat="48.85449" lon="0.94505">
        <ele>179.39999389648</ele>
        <time>2016-05-05T13:05:19.000Z</time>
      </trkpt>
      <trkpt lat="48.8547" lon="0.94505">
        <ele>179.80000305176</ele>
        <time>2016-05-05T13:05:32.000Z</time>
      </trkpt>
      <trkpt lat="48.85486" lon="0.94506">
        <ele>180.19999694824</ele>
        <time>2016-05-05T13:05:44.000Z</time>
      </trkpt>
      <trkpt lat="48.85493" lon="0.94505">
        <ele>180.19999694824</ele>
        <time>2016-05-05T13:05:50.000Z</time>
      </trkpt>
      <trkpt lat="48.85504" lon="0.94504">
        <ele>180.60000610352</ele>
        <time>2016-05-05T13:05:59.000Z</time>
      </trkpt>
      <trkpt lat="48.8551" lon="0.94502">
        <ele>180.60000610352</ele>
        <time>2016-05-05T13:06:06.000Z</time>
      </trkpt>
      <trkpt lat="48.85521" lon="0.94497">
        <ele>181</ele>
        <time>2016-05-05T13:06:14.000Z</time>
      </trkpt>
      <trkpt lat="48.85534" lon="0.94488">
        <ele>181</ele>
        <time>2016-05-05T13:06:25.000Z</time>
      </trkpt>
      <trkpt lat="48.85544" lon="0.94479">
        <ele>181</ele>
        <time>2016-05-05T13:06:34.000Z</time>
      </trkpt>
      <trkpt lat="48.85552" lon="0.94469">
        <ele>181</ele>
        <time>2016-05-05T13:06:42.000Z</time>
      </trkpt>
      <trkpt lat="48.85559" lon="0.94461">
        <ele>180.80000305176</ele>
        <time>2016-05-05T13:06:49.000Z</time>
      </trkpt>
      <trkpt lat="48.85561" lon="0.94457">
        <ele>180.80000305176</ele>
        <time>2016-05-05T13:06:52.000Z</time>
      </trkpt>
      <trkpt lat="48.85565" lon="0.94452">
        <ele>180.80000305176</ele>
        <time>2016-05-05T13:06:56.000Z</time>
      </trkpt>
      <trkpt lat="48.85577" lon="0.94439">
        <ele>180.60000610352</ele>
        <time>2016-05-05T13:07:08.000Z</time>
      </trkpt>
      <trkpt lat="48.85586" lon="0.9443">
        <ele>180.19999694824</ele>
        <time>2016-05-05T13:07:17.000Z</time>
      </trkpt>
      <trkpt lat="48.85594" lon="0.94423">
        <ele>180</ele>
        <time>2016-05-05T13:07:24.000Z</time>
      </trkpt>
      <trkpt lat="48.85602" lon="0.94417">
        <ele>179.60000610352</ele>
        <time>2016-05-05T13:07:31.000Z</time>
      </trkpt>
      <trkpt lat="48.85603" lon="0.94416">
        <ele>179.60000610352</ele>
        <time>2016-05-05T13:07:34.000Z</time>
      </trkpt>
      <trkpt lat="48.85634" lon="0.94395">
        <ele>178.80000305176</ele>
        <time>2016-05-05T13:08:06.000Z</time>
      </trkpt>
      <trkpt lat="48.85635" lon="0.94394">
        <ele>178.80000305176</ele>
        <time>2016-05-05T13:08:07.000Z</time>
      </trkpt>
      <trkpt lat="48.85643" lon="0.94389">
        <ele>178.60000610352</ele>
        <time>2016-05-05T13:08:13.000Z</time>
      </trkpt>
      <trkpt lat="48.85644" lon="0.94389">
        <ele>178.60000610352</ele>
        <time>2016-05-05T13:08:14.000Z</time>
      </trkpt>
      <trkpt lat="48.85656" lon="0.94382">
        <ele>178.19999694824</ele>
        <time>2016-05-05T13:08:24.000Z</time>
      </trkpt>
      <trkpt lat="48.85668" lon="0.94375">
        <ele>178</ele>
        <time>2016-05-05T13:08:33.000Z</time>
      </trkpt>
      <trkpt lat="48.8568" lon="0.9437">
        <ele>177.80000305176</ele>
        <time>2016-05-05T13:08:42.000Z</time>
      </trkpt>
      <trkpt lat="48.85693" lon="0.94363">
        <ele>177.80000305176</ele>
        <time>2016-05-05T13:08:52.000Z</time>
      </trkpt>
      <trkpt lat="48.85706" lon="0.94355">
        <ele>177.80000305176</ele>
        <time>2016-05-05T13:09:03.000Z</time>
      </trkpt>
      <trkpt lat="48.85718" lon="0.94346">
        <ele>177.80000305176</ele>
        <time>2016-05-05T13:09:13.000Z</time>
      </trkpt>
      <trkpt lat="48.8573" lon="0.94334">
        <ele>177.80000305176</ele>
        <time>2016-05-05T13:09:25.000Z</time>
      </trkpt>
      <trkpt lat="48.85736" lon="0.94326">
        <ele>177.80000305176</ele>
        <time>2016-05-05T13:09:32.000Z</time>
      </trkpt>
      <trkpt lat="48.85746" lon="0.94311">
        <ele>177.80000305176</ele>
        <time>2016-05-05T13:09:42.000Z</time>
      </trkpt>
      <trkpt lat="48.85753" lon="0.943">
        <ele>177.80000305176</ele>
        <time>2016-05-05T13:09:50.000Z</time>
      </trkpt>
      <trkpt lat="48.85761" lon="0.94284">
        <ele>178.19999694824</ele>
        <time>2016-05-05T13:10:00.000Z</time>
      </trkpt>
      <trkpt lat="48.85763" lon="0.9428">
        <ele>178.19999694824</ele>
        <time>2016-05-05T13:10:03.000Z</time>
      </trkpt>
      <trkpt lat="48.85765" lon="0.94277">
        <ele>178.19999694824</ele>
        <time>2016-05-05T13:10:05.000Z</time>
      </trkpt>
      <trkpt lat="48.8577" lon="0.94269">
        <ele>178.39999389648</ele>
        <time>2016-05-05T13:10:11.000Z</time>
      </trkpt>
      <trkpt lat="48.85776" lon="0.9426">
        <ele>178.60000610352</ele>
        <time>2016-05-05T13:10:17.000Z</time>
      </trkpt>
      <trkpt lat="48.85784" lon="0.94247">
        <ele>179</ele>
        <time>2016-05-05T13:10:26.000Z</time>
      </trkpt>
      <trkpt lat="48.85791" lon="0.94238">
        <ele>179.19999694824</ele>
        <time>2016-05-05T13:10:33.000Z</time>
      </trkpt>
      <trkpt lat="48.858" lon="0.94226">
        <ele>179</ele>
        <time>2016-05-05T13:10:42.000Z</time>
      </trkpt>
      <trkpt lat="48.85812" lon="0.94212">
        <ele>179</ele>
        <time>2016-05-05T13:10:53.000Z</time>
      </trkpt>
      <trkpt lat="48.85817" lon="0.94205">
        <ele>179</ele>
        <time>2016-05-05T13:10:58.000Z</time>
      </trkpt>
      <trkpt lat="48.8582" lon="0.94202">
        <ele>179</ele>
        <time>2016-05-05T13:11:01.000Z</time>
      </trkpt>
      <trkpt lat="48.85828" lon="0.94193">
        <ele>179</ele>
        <time>2016-05-05T13:11:08.000Z</time>
      </trkpt>
      <trkpt lat="48.85829" lon="0.94192">
        <ele>179</ele>
        <time>2016-05-05T13:11:09.000Z</time>
      </trkpt>
      <trkpt lat="48.85841" lon="0.9418">
        <ele>179</ele>
        <time>2016-05-05T13:11:20.000Z</time>
      </trkpt>
      <trkpt lat="48.85848" lon="0.94173">
        <ele>179</ele>
        <time>2016-05-05T13:11:26.000Z</time>
      </trkpt>
      <trkpt lat="48.85851" lon="0.9417">
        <ele>179</ele>
        <time>2016-05-05T13:11:29.000Z</time>
      </trkpt>
      <trkpt lat="48.85855" lon="0.94166">
        <ele>179</ele>
        <time>2016-05-05T13:11:33.000Z</time>
      </trkpt>
      <trkpt lat="48.85859" lon="0.94163">
        <ele>179</ele>
        <time>2016-05-05T13:11:36.000Z</time>
      </trkpt>
      <trkpt lat="48.85863" lon="0.94158">
        <ele>179</ele>
        <time>2016-05-05T13:11:40.000Z</time>
      </trkpt>
      <trkpt lat="48.85877" lon="0.94147">
        <ele>179.19999694824</ele>
        <time>2016-05-05T13:11:52.000Z</time>
      </trkpt>
      <trkpt lat="48.8589" lon="0.94138">
        <ele>179.39999389648</ele>
        <time>2016-05-05T13:12:03.000Z</time>
      </trkpt>
      <trkpt lat="48.85901" lon="0.94129">
        <ele>179.39999389648</ele>
        <time>2016-05-05T13:12:12.000Z</time>
      </trkpt>
      <trkpt lat="48.85905" lon="0.94118">
        <ele>179.39999389648</ele>
        <time>2016-05-05T13:12:20.000Z</time>
      </trkpt>
      <trkpt lat="48.85904" lon="0.94108">
        <ele>179.19999694824</ele>
        <time>2016-05-05T13:12:26.000Z</time>
      </trkpt>
      <trkpt lat="48.85904" lon="0.94106">
        <ele>179.19999694824</ele>
        <time>2016-05-05T13:12:27.000Z</time>
      </trkpt>
      <trkpt lat="48.85902" lon="0.94099">
        <ele>179.19999694824</ele>
        <time>2016-05-05T13:12:33.000Z</time>
      </trkpt>
      <trkpt lat="48.859" lon="0.94086">
        <ele>179</ele>
        <time>2016-05-05T13:12:41.000Z</time>
      </trkpt>
      <trkpt lat="48.859" lon="0.94084">
        <ele>179</ele>
        <time>2016-05-05T13:12:42.000Z</time>
      </trkpt>
      <trkpt lat="48.85898" lon="0.9407">
        <ele>179</ele>
        <time>2016-05-05T13:12:49.000Z</time>
      </trkpt>
      <trkpt lat="48.85898" lon="0.94055">
        <ele>179</ele>
        <time>2016-05-05T13:12:58.000Z</time>
      </trkpt>
      <trkpt lat="48.85896" lon="0.94037">
        <ele>179.19999694824</ele>
        <time>2016-05-05T13:13:08.000Z</time>
      </trkpt>
      <trkpt lat="48.85894" lon="0.9402">
        <ele>179.39999389648</ele>
        <time>2016-05-05T13:13:17.000Z</time>
      </trkpt>
      <trkpt lat="48.85893" lon="0.94007">
        <ele>179.39999389648</ele>
        <time>2016-05-05T13:13:24.000Z</time>
      </trkpt>
      <trkpt lat="48.85891" lon="0.93989">
        <ele>179.39999389648</ele>
        <time>2016-05-05T13:13:34.000Z</time>
      </trkpt>
      <trkpt lat="48.8589" lon="0.93971">
        <ele>179.39999389648</ele>
        <time>2016-05-05T13:13:43.000Z</time>
      </trkpt>
      <trkpt lat="48.85888" lon="0.93952">
        <ele>179.39999389648</ele>
        <time>2016-05-05T13:13:53.000Z</time>
      </trkpt>
      <trkpt lat="48.85887" lon="0.93937">
        <ele>179.39999389648</ele>
        <time>2016-05-05T13:14:01.000Z</time>
      </trkpt>
      <trkpt lat="48.85886" lon="0.93935">
        <ele>179.39999389648</ele>
        <time>2016-05-05T13:14:02.000Z</time>
      </trkpt>
      <trkpt lat="48.85885" lon="0.93922">
        <ele>179.39999389648</ele>
        <time>2016-05-05T13:14:09.000Z</time>
      </trkpt>
      <trkpt lat="48.85882" lon="0.93902">
        <ele>179.39999389648</ele>
        <time>2016-05-05T13:14:19.000Z</time>
      </trkpt>
      <trkpt lat="48.85882" lon="0.93899">
        <ele>179.60000610352</ele>
        <time>2016-05-05T13:14:21.000Z</time>
      </trkpt>
      <trkpt lat="48.85882" lon="0.93893">
        <ele>179.60000610352</ele>
        <time>2016-05-05T13:14:24.000Z</time>
      </trkpt>
      <trkpt lat="48.85882" lon="0.93889">
        <ele>179.60000610352</ele>
        <time>2016-05-05T13:14:26.000Z</time>
      </trkpt>
      <trkpt lat="48.85881" lon="0.93885">
        <ele>179.60000610352</ele>
        <time>2016-05-05T13:14:28.000Z</time>
      </trkpt>
      <trkpt lat="48.8588" lon="0.9388">
        <ele>179.60000610352</ele>
        <time>2016-05-05T13:14:31.000Z</time>
      </trkpt>
      <trkpt lat="48.85879" lon="0.93874">
        <ele>179.60000610352</ele>
        <time>2016-05-05T13:14:34.000Z</time>
      </trkpt>
      <trkpt lat="48.85879" lon="0.93866">
        <ele>179.60000610352</ele>
        <time>2016-05-05T13:14:38.000Z</time>
      </trkpt>
      <trkpt lat="48.85876" lon="0.93848">
        <ele>179.39999389648</ele>
        <time>2016-05-05T13:14:48.000Z</time>
      </trkpt>
      <trkpt lat="48.85876" lon="0.93844">
        <ele>179.39999389648</ele>
        <time>2016-05-05T13:14:50.000Z</time>
      </trkpt>
      <trkpt lat="48.85875" lon="0.93837">
        <ele>179.39999389648</ele>
        <time>2016-05-05T13:14:54.000Z</time>
      </trkpt>
      <trkpt lat="48.85874" lon="0.93833">
        <ele>179.39999389648</ele>
        <time>2016-05-05T13:14:56.000Z</time>
      </trkpt>
      <trkpt lat="48.85874" lon="0.93824">
        <ele>179.39999389648</ele>
        <time>2016-05-05T13:15:01.000Z</time>
      </trkpt>
      <trkpt lat="48.85872" lon="0.9381">
        <ele>179</ele>
        <time>2016-05-05T13:15:08.000Z</time>
      </trkpt>
      <trkpt lat="48.8587" lon="0.93789">
        <ele>179.19999694824</ele>
        <time>2016-05-05T13:15:19.000Z</time>
      </trkpt>
      <trkpt lat="48.85869" lon="0.93788">
        <ele>179.19999694824</ele>
        <time>2016-05-05T13:15:20.000Z</time>
      </trkpt>
      <trkpt lat="48.85869" lon="0.93779">
        <ele>179.39999389648</ele>
        <time>2016-05-05T13:15:24.000Z</time>
      </trkpt>
      <trkpt lat="48.85868" lon="0.93771">
        <ele>179.39999389648</ele>
        <time>2016-05-05T13:15:28.000Z</time>
      </trkpt>
      <trkpt lat="48.85868" lon="0.93767">
        <ele>179.39999389648</ele>
        <time>2016-05-05T13:15:30.000Z</time>
      </trkpt>
      <trkpt lat="48.85867" lon="0.93761">
        <ele>179.60000610352</ele>
        <time>2016-05-05T13:15:33.000Z</time>
      </trkpt>
      <trkpt lat="48.85867" lon="0.93756">
        <ele>179.60000610352</ele>
        <time>2016-05-05T13:15:36.000Z</time>
      </trkpt>
      <trkpt lat="48.85864" lon="0.93737">
        <ele>179.80000305176</ele>
        <time>2016-05-05T13:15:47.000Z</time>
      </trkpt>
      <trkpt lat="48.85863" lon="0.93725">
        <ele>180</ele>
        <time>2016-05-05T13:15:54.000Z</time>
      </trkpt>
      <trkpt lat="48.85863" lon="0.93724">
        <ele>180</ele>
        <time>2016-05-05T13:15:55.000Z</time>
      </trkpt>
      <trkpt lat="48.85861" lon="0.9371">
        <ele>180.19999694824</ele>
        <time>2016-05-05T13:16:03.000Z</time>
      </trkpt>
      <trkpt lat="48.8586" lon="0.93696">
        <ele>180.39999389648</ele>
        <time>2016-05-05T13:16:11.000Z</time>
      </trkpt>
      <trkpt lat="48.85858" lon="0.93682">
        <ele>180.60000610352</ele>
        <time>2016-05-05T13:16:19.000Z</time>
      </trkpt>
      <trkpt lat="48.85856" lon="0.93662">
        <ele>180.80000305176</ele>
        <time>2016-05-05T13:16:29.000Z</time>
      </trkpt>
      <trkpt lat="48.85853" lon="0.93639">
        <ele>181</ele>
        <time>2016-05-05T13:16:40.000Z</time>
      </trkpt>
      <trkpt lat="48.85851" lon="0.93623">
        <ele>180.80000305176</ele>
        <time>2016-05-05T13:16:48.000Z</time>
      </trkpt>
      <trkpt lat="48.85849" lon="0.93605">
        <ele>180.80000305176</ele>
        <time>2016-05-05T13:16:57.000Z</time>
      </trkpt>
      <trkpt lat="48.85847" lon="0.9359">
        <ele>180.80000305176</ele>
        <time>2016-05-05T13:17:04.000Z</time>
      </trkpt>
      <trkpt lat="48.85846" lon="0.93573">
        <ele>180.80000305176</ele>
        <time>2016-05-05T13:17:12.000Z</time>
      </trkpt>
      <trkpt lat="48.85844" lon="0.93552">
        <ele>180.80000305176</ele>
        <time>2016-05-05T13:17:23.000Z</time>
      </trkpt>
      <trkpt lat="48.85843" lon="0.93543">
        <ele>180.80000305176</ele>
        <time>2016-05-05T13:17:27.000Z</time>
      </trkpt>
      <trkpt lat="48.85842" lon="0.93538">
        <ele>180.80000305176</ele>
        <time>2016-05-05T13:17:30.000Z</time>
      </trkpt>
      <trkpt lat="48.85842" lon="0.93533">
        <ele>180.80000305176</ele>
        <time>2016-05-05T13:17:32.000Z</time>
      </trkpt>
      <trkpt lat="48.85841" lon="0.9352">
        <ele>180.80000305176</ele>
        <time>2016-05-05T13:17:36.000Z</time>
      </trkpt>
      <trkpt lat="48.85837" lon="0.93492">
        <ele>180.80000305176</ele>
        <time>2016-05-05T13:17:44.000Z</time>
      </trkpt>
      <trkpt lat="48.85836" lon="0.93478">
        <ele>180.80000305176</ele>
        <time>2016-05-05T13:17:51.000Z</time>
      </trkpt>
      <trkpt lat="48.85836" lon="0.93472">
        <ele>180.80000305176</ele>
        <time>2016-05-05T13:17:54.000Z</time>
      </trkpt>
      <trkpt lat="48.85835" lon="0.93468">
        <ele>180.80000305176</ele>
        <time>2016-05-05T13:17:56.000Z</time>
      </trkpt>
      <trkpt lat="48.85834" lon="0.93456">
        <ele>180.80000305176</ele>
        <time>2016-05-05T13:18:02.000Z</time>
      </trkpt>
      <trkpt lat="48.85832" lon="0.93445">
        <ele>180.60000610352</ele>
        <time>2016-05-05T13:18:08.000Z</time>
      </trkpt>
      <trkpt lat="48.85832" lon="0.93441">
        <ele>180.60000610352</ele>
        <time>2016-05-05T13:18:10.000Z</time>
      </trkpt>
      <trkpt lat="48.8583" lon="0.93431">
        <ele>180.39999389648</ele>
        <time>2016-05-05T13:18:15.000Z</time>
      </trkpt>
      <trkpt lat="48.85829" lon="0.93421">
        <ele>180.39999389648</ele>
        <time>2016-05-05T13:18:20.000Z</time>
      </trkpt>
      <trkpt lat="48.85829" lon="0.93418">
        <ele>180.39999389648</ele>
        <time>2016-05-05T13:18:21.000Z</time>
      </trkpt>
      <trkpt lat="48.85827" lon="0.93407">
        <ele>180.19999694824</ele>
        <time>2016-05-05T13:18:27.000Z</time>
      </trkpt>
      <trkpt lat="48.85825" lon="0.93391">
        <ele>180</ele>
        <time>2016-05-05T13:18:35.000Z</time>
      </trkpt>
      <trkpt lat="48.85823" lon="0.93373">
        <ele>179.80000305176</ele>
        <time>2016-05-05T13:18:44.000Z</time>
      </trkpt>
      <trkpt lat="48.85821" lon="0.93346">
        <ele>179.39999389648</ele>
        <time>2016-05-05T13:18:57.000Z</time>
      </trkpt>
      <trkpt lat="48.85819" lon="0.9333">
        <ele>179.19999694824</ele>
        <time>2016-05-05T13:19:05.000Z</time>
      </trkpt>
      <trkpt lat="48.85817" lon="0.93313">
        <ele>179</ele>
        <time>2016-05-05T13:19:14.000Z</time>
      </trkpt>
      <trkpt lat="48.85816" lon="0.93301">
        <ele>179</ele>
        <time>2016-05-05T13:19:21.000Z</time>
      </trkpt>
      <trkpt lat="48.85815" lon="0.93294">
        <ele>179</ele>
        <time>2016-05-05T13:19:25.000Z</time>
      </trkpt>
      <trkpt lat="48.85815" lon="0.93288">
        <ele>179</ele>
        <time>2016-05-05T13:19:28.000Z</time>
      </trkpt>
      <trkpt lat="48.85814" lon="0.93283">
        <ele>179</ele>
        <time>2016-05-05T13:19:31.000Z</time>
      </trkpt>
      <trkpt lat="48.85814" lon="0.93276">
        <ele>179</ele>
        <time>2016-05-05T13:19:35.000Z</time>
      </trkpt>
      <trkpt lat="48.85812" lon="0.9326">
        <ele>179</ele>
        <time>2016-05-05T13:19:43.000Z</time>
      </trkpt>
      <trkpt lat="48.8581" lon="0.93244">
        <ele>179</ele>
        <time>2016-05-05T13:19:52.000Z</time>
      </trkpt>
      <trkpt lat="48.85809" lon="0.93233">
        <ele>179</ele>
        <time>2016-05-05T13:19:58.000Z</time>
      </trkpt>
      <trkpt lat="48.85809" lon="0.93216">
        <ele>179</ele>
        <time>2016-05-05T13:20:07.000Z</time>
      </trkpt>
      <trkpt lat="48.85812" lon="0.93208">
        <ele>179.19999694824</ele>
        <time>2016-05-05T13:20:12.000Z</time>
      </trkpt>
      <trkpt lat="48.85813" lon="0.93204">
        <ele>179.19999694824</ele>
        <time>2016-05-05T13:20:15.000Z</time>
      </trkpt>
      <trkpt lat="48.85817" lon="0.9319">
        <ele>179.39999389648</ele>
        <time>2016-05-05T13:20:23.000Z</time>
      </trkpt>
      <trkpt lat="48.85821" lon="0.93176">
        <ele>179.39999389648</ele>
        <time>2016-05-05T13:20:31.000Z</time>
      </trkpt>
      <trkpt lat="48.8582" lon="0.93161">
        <ele>179.39999389648</ele>
        <time>2016-05-05T13:20:41.000Z</time>
      </trkpt>
      <trkpt lat="48.85817" lon="0.9314">
        <ele>179.39999389648</ele>
        <time>2016-05-05T13:20:56.000Z</time>
      </trkpt>
      <trkpt lat="48.85816" lon="0.93134">
        <ele>179.39999389648</ele>
        <time>2016-05-05T13:20:59.000Z</time>
      </trkpt>
      <trkpt lat="48.85815" lon="0.93119">
        <ele>179.39999389648</ele>
        <time>2016-05-05T13:21:06.000Z</time>
      </trkpt>
      <trkpt lat="48.85813" lon="0.93103">
        <ele>179.60000610352</ele>
        <time>2016-05-05T13:21:14.000Z</time>
      </trkpt>
      <trkpt lat="48.85811" lon="0.93087">
        <ele>179.39999389648</ele>
        <time>2016-05-05T13:21:22.000Z</time>
      </trkpt>
      <trkpt lat="48.85809" lon="0.93068">
        <ele>179.19999694824</ele>
        <time>2016-05-05T13:21:31.000Z</time>
      </trkpt>
      <trkpt lat="48.85807" lon="0.9305">
        <ele>179.19999694824</ele>
        <time>2016-05-05T13:21:39.000Z</time>
      </trkpt>
      <trkpt lat="48.85804" lon="0.93033">
        <ele>179.60000610352</ele>
        <time>2016-05-05T13:21:47.000Z</time>
      </trkpt>
      <trkpt lat="48.85802" lon="0.93022">
        <ele>179.80000305176</ele>
        <time>2016-05-05T13:21:52.000Z</time>
      </trkpt>
      <trkpt lat="48.85801" lon="0.93019">
        <ele>179.80000305176</ele>
        <time>2016-05-05T13:21:54.000Z</time>
      </trkpt>
      <trkpt lat="48.85798" lon="0.93004">
        <ele>180</ele>
        <time>2016-05-05T13:22:02.000Z</time>
      </trkpt>
      <trkpt lat="48.85795" lon="0.92989">
        <ele>180.39999389648</ele>
        <time>2016-05-05T13:22:09.000Z</time>
      </trkpt>
      <trkpt lat="48.85792" lon="0.92976">
        <ele>180.80000305176</ele>
        <time>2016-05-05T13:22:16.000Z</time>
      </trkpt>
      <trkpt lat="48.85789" lon="0.92962">
        <ele>180.80000305176</ele>
        <time>2016-05-05T13:22:24.000Z</time>
      </trkpt>
      <trkpt lat="48.85786" lon="0.92948">
        <ele>180.80000305176</ele>
        <time>2016-05-05T13:22:31.000Z</time>
      </trkpt>
      <trkpt lat="48.85784" lon="0.92936">
        <ele>180.80000305176</ele>
        <time>2016-05-05T13:22:37.000Z</time>
      </trkpt>
      <trkpt lat="48.85781" lon="0.92923">
        <ele>180.80000305176</ele>
        <time>2016-05-05T13:22:44.000Z</time>
      </trkpt>
      <trkpt lat="48.85778" lon="0.92907">
        <ele>181</ele>
        <time>2016-05-05T13:22:52.000Z</time>
      </trkpt>
      <trkpt lat="48.85774" lon="0.92881">
        <ele>180.80000305176</ele>
        <time>2016-05-05T13:23:05.000Z</time>
      </trkpt>
      <trkpt lat="48.85773" lon="0.92871">
        <ele>180.80000305176</ele>
        <time>2016-05-05T13:23:11.000Z</time>
      </trkpt>
      <trkpt lat="48.85771" lon="0.92853">
        <ele>180.60000610352</ele>
        <time>2016-05-05T13:23:20.000Z</time>
      </trkpt>
      <trkpt lat="48.85768" lon="0.92836">
        <ele>180.39999389648</ele>
        <time>2016-05-05T13:23:29.000Z</time>
      </trkpt>
      <trkpt lat="48.85765" lon="0.92822">
        <ele>180.19999694824</ele>
        <time>2016-05-05T13:23:36.000Z</time>
      </trkpt>
      <trkpt lat="48.85762" lon="0.92807">
        <ele>180.19999694824</ele>
        <time>2016-05-05T13:23:43.000Z</time>
      </trkpt>
      <trkpt lat="48.85759" lon="0.92787">
        <ele>180</ele>
        <time>2016-05-05T13:23:53.000Z</time>
      </trkpt>
      <trkpt lat="48.85756" lon="0.92769">
        <ele>180.19999694824</ele>
        <time>2016-05-05T13:24:02.000Z</time>
      </trkpt>
      <trkpt lat="48.85753" lon="0.92754">
        <ele>180.39999389648</ele>
        <time>2016-05-05T13:24:10.000Z</time>
      </trkpt>
      <trkpt lat="48.85748" lon="0.9273">
        <ele>180.60000610352</ele>
        <time>2016-05-05T13:24:22.000Z</time>
      </trkpt>
      <trkpt lat="48.85745" lon="0.92716">
        <ele>180.80000305176</ele>
        <time>2016-05-05T13:24:30.000Z</time>
      </trkpt>
      <trkpt lat="48.85743" lon="0.92701">
        <ele>181</ele>
        <time>2016-05-05T13:24:38.000Z</time>
      </trkpt>
      <trkpt lat="48.85739" lon="0.92685">
        <ele>181</ele>
        <time>2016-05-05T13:24:46.000Z</time>
      </trkpt>
      <trkpt lat="48.85736" lon="0.92666">
        <ele>181.19999694824</ele>
        <time>2016-05-05T13:24:56.000Z</time>
      </trkpt>
      <trkpt lat="48.85733" lon="0.92647">
        <ele>181.39999389648</ele>
        <time>2016-05-05T13:25:06.000Z</time>
      </trkpt>
      <trkpt lat="48.85734" lon="0.9264">
        <ele>181.60000610352</ele>
        <time>2016-05-05T13:25:10.000Z</time>
      </trkpt>
      <trkpt lat="48.85735" lon="0.92637">
        <ele>181.60000610352</ele>
        <time>2016-05-05T13:25:12.000Z</time>
      </trkpt>
      <trkpt lat="48.8574" lon="0.92632">
        <ele>181.80000305176</ele>
        <time>2016-05-05T13:25:16.000Z</time>
      </trkpt>
      <trkpt lat="48.85743" lon="0.92626">
        <ele>181.80000305176</ele>
        <time>2016-05-05T13:25:20.000Z</time>
      </trkpt>
      <trkpt lat="48.85746" lon="0.92622">
        <ele>182</ele>
        <time>2016-05-05T13:25:23.000Z</time>
      </trkpt>
      <trkpt lat="48.85749" lon="0.92619">
        <ele>182</ele>
        <time>2016-05-05T13:25:26.000Z</time>
      </trkpt>
      <trkpt lat="48.85751" lon="0.92616">
        <ele>182</ele>
        <time>2016-05-05T13:25:28.000Z</time>
      </trkpt>
      <trkpt lat="48.8576" lon="0.92601">
        <ele>182</ele>
        <time>2016-05-05T13:25:37.000Z</time>
      </trkpt>
      <trkpt lat="48.85771" lon="0.92585">
        <ele>182</ele>
        <time>2016-05-05T13:25:47.000Z</time>
      </trkpt>
      <trkpt lat="48.85779" lon="0.92572">
        <ele>182</ele>
        <time>2016-05-05T13:25:56.000Z</time>
      </trkpt>
      <trkpt lat="48.85786" lon="0.92561">
        <ele>182</ele>
        <time>2016-05-05T13:26:03.000Z</time>
      </trkpt>
      <trkpt lat="48.85794" lon="0.92544">
        <ele>182.19999694824</ele>
        <time>2016-05-05T13:26:14.000Z</time>
      </trkpt>
      <trkpt lat="48.858" lon="0.92533">
        <ele>182.19999694824</ele>
        <time>2016-05-05T13:26:21.000Z</time>
      </trkpt>
      <trkpt lat="48.85802" lon="0.92528">
        <ele>182.39999389648</ele>
        <time>2016-05-05T13:26:24.000Z</time>
      </trkpt>
      <trkpt lat="48.85805" lon="0.92525">
        <ele>182.39999389648</ele>
        <time>2016-05-05T13:26:27.000Z</time>
      </trkpt>
      <trkpt lat="48.85807" lon="0.92523">
        <ele>182.39999389648</ele>
        <time>2016-05-05T13:26:31.000Z</time>
      </trkpt>
      <trkpt lat="48.85797" lon="0.92489">
        <ele>183</ele>
        <time>2016-05-05T13:42:47.000Z</time>
      </trkpt>
      <trkpt lat="48.85797" lon="0.92488">
        <ele>183</ele>
        <time>2016-05-05T13:42:48.000Z</time>
      </trkpt>
      <trkpt lat="48.85798" lon="0.92483">
        <ele>183</ele>
        <time>2016-05-05T13:42:51.000Z</time>
      </trkpt>
      <trkpt lat="48.85798" lon="0.92477">
        <ele>183.19999694824</ele>
        <time>2016-05-05T13:42:54.000Z</time>
      </trkpt>
      <trkpt lat="48.85798" lon="0.92476">
        <ele>183.19999694824</ele>
        <time>2016-05-05T13:42:55.000Z</time>
      </trkpt>
      <trkpt lat="48.85797" lon="0.92471">
        <ele>183.19999694824</ele>
        <time>2016-05-05T13:42:58.000Z</time>
      </trkpt>
      <trkpt lat="48.85797" lon="0.9247">
        <ele>183.19999694824</ele>
        <time>2016-05-05T13:42:59.000Z</time>
      </trkpt>
      <trkpt lat="48.85796" lon="0.92468">
        <ele>183.19999694824</ele>
        <time>2016-05-05T13:43:01.000Z</time>
      </trkpt>
      <trkpt lat="48.85794" lon="0.92463">
        <ele>183.19999694824</ele>
        <time>2016-05-05T13:43:04.000Z</time>
      </trkpt>
      <trkpt lat="48.85792" lon="0.92462">
        <ele>183.19999694824</ele>
        <time>2016-05-05T13:43:06.000Z</time>
      </trkpt>
      <trkpt lat="48.85786" lon="0.92457">
        <ele>183.19999694824</ele>
        <time>2016-05-05T13:43:12.000Z</time>
      </trkpt>
      <trkpt lat="48.85782" lon="0.92451">
        <ele>183.19999694824</ele>
        <time>2016-05-05T13:43:18.000Z</time>
      </trkpt>
      <trkpt lat="48.85781" lon="0.9245">
        <ele>183</ele>
        <time>2016-05-05T13:43:20.000Z</time>
      </trkpt>
      <trkpt lat="48.85779" lon="0.92448">
        <ele>183</ele>
        <time>2016-05-05T13:43:22.000Z</time>
      </trkpt>
      <trkpt lat="48.85775" lon="0.92444">
        <ele>183</ele>
        <time>2016-05-05T13:43:27.000Z</time>
      </trkpt>
      <trkpt lat="48.85771" lon="0.9244">
        <ele>183</ele>
        <time>2016-05-05T13:43:32.000Z</time>
      </trkpt>
      <trkpt lat="48.85769" lon="0.92439">
        <ele>183</ele>
        <time>2016-05-05T13:43:34.000Z</time>
      </trkpt>
      <trkpt lat="48.85765" lon="0.92436">
        <ele>182.80000305176</ele>
        <time>2016-05-05T13:43:38.000Z</time>
      </trkpt>
      <trkpt lat="48.8576" lon="0.92434">
        <ele>182.80000305176</ele>
        <time>2016-05-05T13:43:42.000Z</time>
      </trkpt>
      <trkpt lat="48.85759" lon="0.92433">
        <ele>182.60000610352</ele>
        <time>2016-05-05T13:43:44.000Z</time>
      </trkpt>
      <trkpt lat="48.85753" lon="0.92427">
        <ele>182.60000610352</ele>
        <time>2016-05-05T13:43:49.000Z</time>
      </trkpt>
      <trkpt lat="48.85747" lon="0.92422">
        <ele>182.39999389648</ele>
        <time>2016-05-05T13:43:55.000Z</time>
      </trkpt>
      <trkpt lat="48.8574" lon="0.92415">
        <ele>182.19999694824</ele>
        <time>2016-05-05T13:44:02.000Z</time>
      </trkpt>
      <trkpt lat="48.85731" lon="0.92408">
        <ele>182</ele>
        <time>2016-05-05T13:44:11.000Z</time>
      </trkpt>
      <trkpt lat="48.85726" lon="0.92403">
        <ele>181.80000305176</ele>
        <time>2016-05-05T13:44:16.000Z</time>
      </trkpt>
      <trkpt lat="48.85725" lon="0.92402">
        <ele>181.80000305176</ele>
        <time>2016-05-05T13:44:17.000Z</time>
      </trkpt>
      <trkpt lat="48.85718" lon="0.92396">
        <ele>181.60000610352</ele>
        <time>2016-05-05T13:44:23.000Z</time>
      </trkpt>
      <trkpt lat="48.85717" lon="0.92395">
        <ele>181.60000610352</ele>
        <time>2016-05-05T13:44:24.000Z</time>
      </trkpt>
      <trkpt lat="48.85712" lon="0.92383">
        <ele>181.60000610352</ele>
        <time>2016-05-05T13:44:32.000Z</time>
      </trkpt>
      <trkpt lat="48.85712" lon="0.92378">
        <ele>181.60000610352</ele>
        <time>2016-05-05T13:44:35.000Z</time>
      </trkpt>
      <trkpt lat="48.85712" lon="0.92375">
        <ele>181.60000610352</ele>
        <time>2016-05-05T13:44:37.000Z</time>
      </trkpt>
      <trkpt lat="48.85712" lon="0.92373">
        <ele>181.60000610352</ele>
        <time>2016-05-05T13:44:38.000Z</time>
      </trkpt>
      <trkpt lat="48.85715" lon="0.92363">
        <ele>181.60000610352</ele>
        <time>2016-05-05T13:44:44.000Z</time>
      </trkpt>
      <trkpt lat="48.85719" lon="0.9235">
        <ele>181.80000305176</ele>
        <time>2016-05-05T13:44:52.000Z</time>
      </trkpt>
      <trkpt lat="48.85721" lon="0.92341">
        <ele>181.80000305176</ele>
        <time>2016-05-05T13:44:58.000Z</time>
      </trkpt>
      <trkpt lat="48.85724" lon="0.92327">
        <ele>181.80000305176</ele>
        <time>2016-05-05T13:45:06.000Z</time>
      </trkpt>
      <trkpt lat="48.85724" lon="0.92325">
        <ele>181.80000305176</ele>
        <time>2016-05-05T13:45:07.000Z</time>
      </trkpt>
      <trkpt lat="48.85727" lon="0.92317">
        <ele>181.80000305176</ele>
        <time>2016-05-05T13:45:13.000Z</time>
      </trkpt>
      <trkpt lat="48.85727" lon="0.92315">
        <ele>182</ele>
        <time>2016-05-05T13:45:15.000Z</time>
      </trkpt>
      <trkpt lat="48.85728" lon="0.92315">
        <ele>182</ele>
        <time>2016-05-05T13:45:16.000Z</time>
      </trkpt>
      <trkpt lat="48.85737" lon="0.92255">
        <ele>182</ele>
        <time>2016-05-05T13:45:59.000Z</time>
      </trkpt>
      <trkpt lat="48.85737" lon="0.92254">
        <ele>182</ele>
        <time>2016-05-05T13:46:00.000Z</time>
      </trkpt>
      <trkpt lat="48.85736" lon="0.92237">
        <ele>181.80000305176</ele>
        <time>2016-05-05T13:46:09.000Z</time>
      </trkpt>
      <trkpt lat="48.85737" lon="0.92227">
        <ele>181.60000610352</ele>
        <time>2016-05-05T13:46:15.000Z</time>
      </trkpt>
      <trkpt lat="48.85737" lon="0.92221">
        <ele>181.60000610352</ele>
        <time>2016-05-05T13:46:18.000Z</time>
      </trkpt>
      <trkpt lat="48.85738" lon="0.92216">
        <ele>181.60000610352</ele>
        <time>2016-05-05T13:46:21.000Z</time>
      </trkpt>
      <trkpt lat="48.85739" lon="0.92203">
        <ele>181.60000610352</ele>
        <time>2016-05-05T13:46:28.000Z</time>
      </trkpt>
      <trkpt lat="48.85741" lon="0.9219">
        <ele>181.60000610352</ele>
        <time>2016-05-05T13:46:35.000Z</time>
      </trkpt>
      <trkpt lat="48.85742" lon="0.92175">
        <ele>181.60000610352</ele>
        <time>2016-05-05T13:46:43.000Z</time>
      </trkpt>
      <trkpt lat="48.85744" lon="0.92158">
        <ele>181.60000610352</ele>
        <time>2016-05-05T13:46:52.000Z</time>
      </trkpt>
      <trkpt lat="48.85747" lon="0.92148">
        <ele>181.60000610352</ele>
        <time>2016-05-05T13:46:58.000Z</time>
      </trkpt>
      <trkpt lat="48.85748" lon="0.92145">
        <ele>181.80000305176</ele>
        <time>2016-05-05T13:46:59.000Z</time>
      </trkpt>
      <trkpt lat="48.85751" lon="0.92138">
        <ele>181.80000305176</ele>
        <time>2016-05-05T13:47:04.000Z</time>
      </trkpt>
      <trkpt lat="48.85752" lon="0.9213">
        <ele>181.80000305176</ele>
        <time>2016-05-05T13:47:08.000Z</time>
      </trkpt>
      <trkpt lat="48.85752" lon="0.92129">
        <ele>181.80000305176</ele>
        <time>2016-05-05T13:47:09.000Z</time>
      </trkpt>
      <trkpt lat="48.85755" lon="0.92117">
        <ele>182</ele>
        <time>2016-05-05T13:47:16.000Z</time>
      </trkpt>
      <trkpt lat="48.85755" lon="0.92114">
        <ele>182</ele>
        <time>2016-05-05T13:47:18.000Z</time>
      </trkpt>
      <trkpt lat="48.85757" lon="0.92108">
        <ele>182</ele>
        <time>2016-05-05T13:47:22.000Z</time>
      </trkpt>
      <trkpt lat="48.8576" lon="0.92098">
        <ele>182</ele>
        <time>2016-05-05T13:47:28.000Z</time>
      </trkpt>
      <trkpt lat="48.85761" lon="0.92097">
        <ele>182</ele>
        <time>2016-05-05T13:47:29.000Z</time>
      </trkpt>
      <trkpt lat="48.85763" lon="0.92085">
        <ele>182</ele>
        <time>2016-05-05T13:47:36.000Z</time>
      </trkpt>
      <trkpt lat="48.85765" lon="0.92077">
        <ele>182</ele>
        <time>2016-05-05T13:47:42.000Z</time>
      </trkpt>
      <trkpt lat="48.85766" lon="0.92076">
        <ele>182</ele>
        <time>2016-05-05T13:47:44.000Z</time>
      </trkpt>
      <trkpt lat="48.85766" lon="0.92076">
        <ele>182</ele>
        <time>2016-05-05T13:47:45.000Z</time>
      </trkpt>
      <trkpt lat="48.85764" lon="0.91962">
        <ele>183.19999694824</ele>
        <time>2016-05-05T13:49:13.000Z</time>
      </trkpt>
      <trkpt lat="48.85765" lon="0.91959">
        <ele>183.19999694824</ele>
        <time>2016-05-05T13:49:15.000Z</time>
      </trkpt>
      <trkpt lat="48.85768" lon="0.91951">
        <ele>183.19999694824</ele>
        <time>2016-05-05T13:49:21.000Z</time>
      </trkpt>
      <trkpt lat="48.85768" lon="0.91949">
        <ele>183.19999694824</ele>
        <time>2016-05-05T13:49:22.000Z</time>
      </trkpt>
      <trkpt lat="48.85771" lon="0.91937">
        <ele>183.39999389648</ele>
        <time>2016-05-05T13:49:30.000Z</time>
      </trkpt>
      <trkpt lat="48.85774" lon="0.9193">
        <ele>183.60000610352</ele>
        <time>2016-05-05T13:49:35.000Z</time>
      </trkpt>
      <trkpt lat="48.85774" lon="0.91929">
        <ele>183.60000610352</ele>
        <time>2016-05-05T13:49:36.000Z</time>
      </trkpt>
      <trkpt lat="48.85776" lon="0.91918">
        <ele>183.60000610352</ele>
        <time>2016-05-05T13:49:43.000Z</time>
      </trkpt>
      <trkpt lat="48.85778" lon="0.91906">
        <ele>183.80000305176</ele>
        <time>2016-05-05T13:49:51.000Z</time>
      </trkpt>
      <trkpt lat="48.85784" lon="0.91893">
        <ele>184</ele>
        <time>2016-05-05T13:49:59.000Z</time>
      </trkpt>
      <trkpt lat="48.85791" lon="0.91875">
        <ele>184.19999694824</ele>
        <time>2016-05-05T13:50:09.000Z</time>
      </trkpt>
      <trkpt lat="48.85797" lon="0.9186">
        <ele>184.39999389648</ele>
        <time>2016-05-05T13:50:19.000Z</time>
      </trkpt>
      <trkpt lat="48.85797" lon="0.91858">
        <ele>184.39999389648</ele>
        <time>2016-05-05T13:50:20.000Z</time>
      </trkpt>
      <trkpt lat="48.85799" lon="0.91851">
        <ele>184.39999389648</ele>
        <time>2016-05-05T13:50:24.000Z</time>
      </trkpt>
      <trkpt lat="48.85803" lon="0.91839">
        <ele>184.60000610352</ele>
        <time>2016-05-05T13:50:32.000Z</time>
      </trkpt>
      <trkpt lat="48.85807" lon="0.91828">
        <ele>184.39999389648</ele>
        <time>2016-05-05T13:50:39.000Z</time>
      </trkpt>
      <trkpt lat="48.85807" lon="0.91826">
        <ele>184.39999389648</ele>
        <time>2016-05-05T13:50:40.000Z</time>
      </trkpt>
      <trkpt lat="48.85808" lon="0.9182">
        <ele>184.19999694824</ele>
        <time>2016-05-05T13:50:44.000Z</time>
      </trkpt>
      <trkpt lat="48.85812" lon="0.91811">
        <ele>184</ele>
        <time>2016-05-05T13:50:50.000Z</time>
      </trkpt>
      <trkpt lat="48.85813" lon="0.91809">
        <ele>184</ele>
        <time>2016-05-05T13:50:51.000Z</time>
      </trkpt>
      <trkpt lat="48.85817" lon="0.91795">
        <ele>183.60000610352</ele>
        <time>2016-05-05T13:51:00.000Z</time>
      </trkpt>
      <trkpt lat="48.85821" lon="0.91785">
        <ele>183.39999389648</ele>
        <time>2016-05-05T13:51:07.000Z</time>
      </trkpt>
      <trkpt lat="48.85821" lon="0.91778">
        <ele>183.19999694824</ele>
        <time>2016-05-05T13:51:13.000Z</time>
      </trkpt>
      <trkpt lat="48.85822" lon="0.91771">
        <ele>183</ele>
        <time>2016-05-05T13:51:19.000Z</time>
      </trkpt>
      <trkpt lat="48.85822" lon="0.91771">
        <ele>183</ele>
        <time>2016-05-05T13:51:20.000Z</time>
      </trkpt>
      <trkpt lat="48.85875" lon="0.91712">
        <ele>180.60000610352</ele>
        <time>2016-05-05T13:53:49.000Z</time>
      </trkpt>
      <trkpt lat="48.85877" lon="0.91708">
        <ele>180.39999389648</ele>
        <time>2016-05-05T13:53:52.000Z</time>
      </trkpt>
      <trkpt lat="48.85882" lon="0.91697">
        <ele>180.39999389648</ele>
        <time>2016-05-05T13:53:59.000Z</time>
      </trkpt>
      <trkpt lat="48.85889" lon="0.91684">
        <ele>180.19999694824</ele>
        <time>2016-05-05T13:54:08.000Z</time>
      </trkpt>
      <trkpt lat="48.85892" lon="0.9168">
        <ele>180.19999694824</ele>
        <time>2016-05-05T13:54:12.000Z</time>
      </trkpt>
      <trkpt lat="48.85893" lon="0.91677">
        <ele>180</ele>
        <time>2016-05-05T13:54:14.000Z</time>
      </trkpt>
      <trkpt lat="48.85896" lon="0.9167">
        <ele>180</ele>
        <time>2016-05-05T13:54:18.000Z</time>
      </trkpt>
      <trkpt lat="48.85902" lon="0.91658">
        <ele>179.60000610352</ele>
        <time>2016-05-05T13:54:27.000Z</time>
      </trkpt>
      <trkpt lat="48.85906" lon="0.91649">
        <ele>179.19999694824</ele>
        <time>2016-05-05T13:54:33.000Z</time>
      </trkpt>
      <trkpt lat="48.85909" lon="0.91643">
        <ele>179.19999694824</ele>
        <time>2016-05-05T13:54:37.000Z</time>
      </trkpt>
      <trkpt lat="48.85912" lon="0.91635">
        <ele>178.80000305176</ele>
        <time>2016-05-05T13:54:42.000Z</time>
      </trkpt>
      <trkpt lat="48.85915" lon="0.91628">
        <ele>178.60000610352</ele>
        <time>2016-05-05T13:54:46.000Z</time>
      </trkpt>
      <trkpt lat="48.85916" lon="0.91625">
        <ele>178.39999389648</ele>
        <time>2016-05-05T13:54:48.000Z</time>
      </trkpt>
      <trkpt lat="48.85922" lon="0.91613">
        <ele>178.39999389648</ele>
        <time>2016-05-05T13:54:56.000Z</time>
      </trkpt>
      <trkpt lat="48.85926" lon="0.91603">
        <ele>178.39999389648</ele>
        <time>2016-05-05T13:55:02.000Z</time>
      </trkpt>
      <trkpt lat="48.85931" lon="0.91593">
        <ele>178.60000610352</ele>
        <time>2016-05-05T13:55:09.000Z</time>
      </trkpt>
      <trkpt lat="48.85935" lon="0.91586">
        <ele>178.60000610352</ele>
        <time>2016-05-05T13:55:14.000Z</time>
      </trkpt>
      <trkpt lat="48.85935" lon="0.91585">
        <ele>178.60000610352</ele>
        <time>2016-05-05T13:55:15.000Z</time>
      </trkpt>
      <trkpt lat="48.85938" lon="0.91577">
        <ele>178.80000305176</ele>
        <time>2016-05-05T13:55:20.000Z</time>
      </trkpt>
      <trkpt lat="48.85941" lon="0.91571">
        <ele>178.80000305176</ele>
        <time>2016-05-05T13:55:24.000Z</time>
      </trkpt>
      <trkpt lat="48.85943" lon="0.91567">
        <ele>178.80000305176</ele>
        <time>2016-05-05T13:55:27.000Z</time>
      </trkpt>
      <trkpt lat="48.85947" lon="0.91558">
        <ele>179</ele>
        <time>2016-05-05T13:55:33.000Z</time>
      </trkpt>
      <trkpt lat="48.85954" lon="0.91542">
        <ele>179.19999694824</ele>
        <time>2016-05-05T13:55:44.000Z</time>
      </trkpt>
      <trkpt lat="48.85958" lon="0.91527">
        <ele>179.39999389648</ele>
        <time>2016-05-05T13:55:53.000Z</time>
      </trkpt>
      <trkpt lat="48.85959" lon="0.9152">
        <ele>179.39999389648</ele>
        <time>2016-05-05T13:55:57.000Z</time>
      </trkpt>
      <trkpt lat="48.85962" lon="0.91516">
        <ele>179.39999389648</ele>
        <time>2016-05-05T13:56:00.000Z</time>
      </trkpt>
      <trkpt lat="48.85962" lon="0.91514">
        <ele>179.60000610352</ele>
        <time>2016-05-05T13:56:01.000Z</time>
      </trkpt>
      <trkpt lat="48.85963" lon="0.91511">
        <ele>179.60000610352</ele>
        <time>2016-05-05T13:56:03.000Z</time>
      </trkpt>
      <trkpt lat="48.85965" lon="0.91508">
        <ele>179.60000610352</ele>
        <time>2016-05-05T13:56:05.000Z</time>
      </trkpt>
      <trkpt lat="48.85968" lon="0.91499">
        <ele>179.80000305176</ele>
        <time>2016-05-05T13:56:11.000Z</time>
      </trkpt>
      <trkpt lat="48.85973" lon="0.91488">
        <ele>180</ele>
        <time>2016-05-05T13:56:19.000Z</time>
      </trkpt>
      <trkpt lat="48.85977" lon="0.91481">
        <ele>180.19999694824</ele>
        <time>2016-05-05T13:56:24.000Z</time>
      </trkpt>
      <trkpt lat="48.8598" lon="0.91479">
        <ele>180.39999389648</ele>
        <time>2016-05-05T13:56:26.000Z</time>
      </trkpt>
      <trkpt lat="48.85981" lon="0.91477">
        <ele>180.39999389648</ele>
        <time>2016-05-05T13:56:27.000Z</time>
      </trkpt>
      <trkpt lat="48.85982" lon="0.91474">
        <ele>180.60000610352</ele>
        <time>2016-05-05T13:56:30.000Z</time>
      </trkpt>
      <trkpt lat="48.85987" lon="0.91463">
        <ele>180.60000610352</ele>
        <time>2016-05-05T13:56:37.000Z</time>
      </trkpt>
      <trkpt lat="48.85991" lon="0.91453">
        <ele>180.60000610352</ele>
        <time>2016-05-05T13:56:43.000Z</time>
      </trkpt>
      <trkpt lat="48.85992" lon="0.9145">
        <ele>180.60000610352</ele>
        <time>2016-05-05T13:56:45.000Z</time>
      </trkpt>
      <trkpt lat="48.85994" lon="0.91444">
        <ele>180.60000610352</ele>
        <time>2016-05-05T13:56:48.000Z</time>
      </trkpt>
      <trkpt lat="48.85999" lon="0.91433">
        <ele>180.60000610352</ele>
        <time>2016-05-05T13:56:56.000Z</time>
      </trkpt>
      <trkpt lat="48.86005" lon="0.9142">
        <ele>180.39999389648</ele>
        <time>2016-05-05T13:57:05.000Z</time>
      </trkpt>
      <trkpt lat="48.86008" lon="0.91412">
        <ele>180.19999694824</ele>
        <time>2016-05-05T13:57:11.000Z</time>
      </trkpt>
      <trkpt lat="48.86014" lon="0.91396">
        <ele>180</ele>
        <time>2016-05-05T13:57:21.000Z</time>
      </trkpt>
      <trkpt lat="48.86019" lon="0.91385">
        <ele>180</ele>
        <time>2016-05-05T13:57:29.000Z</time>
      </trkpt>
      <trkpt lat="48.86023" lon="0.91377">
        <ele>179.80000305176</ele>
        <time>2016-05-05T13:57:34.000Z</time>
      </trkpt>
      <trkpt lat="48.86024" lon="0.91374">
        <ele>179.80000305176</ele>
        <time>2016-05-05T13:57:36.000Z</time>
      </trkpt>
      <trkpt lat="48.86028" lon="0.91364">
        <ele>179.60000610352</ele>
        <time>2016-05-05T13:57:43.000Z</time>
      </trkpt>
      <trkpt lat="48.86032" lon="0.91356">
        <ele>179.39999389648</ele>
        <time>2016-05-05T13:57:48.000Z</time>
      </trkpt>
      <trkpt lat="48.86033" lon="0.91355">
        <ele>179.39999389648</ele>
        <time>2016-05-05T13:57:49.000Z</time>
      </trkpt>
      <trkpt lat="48.86036" lon="0.91347">
        <ele>179.39999389648</ele>
        <time>2016-05-05T13:57:55.000Z</time>
      </trkpt>
      <trkpt lat="48.8604" lon="0.91338">
        <ele>179.19999694824</ele>
        <time>2016-05-05T13:58:01.000Z</time>
      </trkpt>
      <trkpt lat="48.86045" lon="0.91325">
        <ele>179</ele>
        <time>2016-05-05T13:58:09.000Z</time>
      </trkpt>
      <trkpt lat="48.8605" lon="0.91316">
        <ele>179</ele>
        <time>2016-05-05T13:58:16.000Z</time>
      </trkpt>
      <trkpt lat="48.86056" lon="0.91307">
        <ele>179</ele>
        <time>2016-05-05T13:58:23.000Z</time>
      </trkpt>
      <trkpt lat="48.86064" lon="0.91299">
        <ele>179</ele>
        <time>2016-05-05T13:58:31.000Z</time>
      </trkpt>
      <trkpt lat="48.86066" lon="0.91296">
        <ele>179.19999694824</ele>
        <time>2016-05-05T13:58:33.000Z</time>
      </trkpt>
      <trkpt lat="48.86068" lon="0.91295">
        <ele>179.19999694824</ele>
        <time>2016-05-05T13:58:35.000Z</time>
      </trkpt>
      <trkpt lat="48.86074" lon="0.91293">
        <ele>179.19999694824</ele>
        <time>2016-05-05T13:58:41.000Z</time>
      </trkpt>
      <trkpt lat="48.86078" lon="0.9129">
        <ele>179.19999694824</ele>
        <time>2016-05-05T13:58:45.000Z</time>
      </trkpt>
      <trkpt lat="48.86084" lon="0.91286">
        <ele>179.19999694824</ele>
        <time>2016-05-05T13:58:51.000Z</time>
      </trkpt>
      <trkpt lat="48.86085" lon="0.91285">
        <ele>179.19999694824</ele>
        <time>2016-05-05T13:58:53.000Z</time>
      </trkpt>
      <trkpt lat="48.86086" lon="0.9128">
        <ele>179.39999389648</ele>
        <time>2016-05-05T13:58:56.000Z</time>
      </trkpt>
      <trkpt lat="48.86088" lon="0.91277">
        <ele>179.39999389648</ele>
        <time>2016-05-05T13:58:58.000Z</time>
      </trkpt>
      <trkpt lat="48.8609" lon="0.91278">
        <ele>179.39999389648</ele>
        <time>2016-05-05T13:59:00.000Z</time>
      </trkpt>
      <trkpt lat="48.86089" lon="0.91277">
        <ele>179.39999389648</ele>
        <time>2016-05-05T13:59:01.000Z</time>
      </trkpt>
      <trkpt lat="48.86089" lon="0.91277">
        <ele>179.39999389648</ele>
        <time>2016-05-05T13:59:03.000Z</time>
      </trkpt>
      <trkpt lat="48.86129" lon="0.91255">
        <ele>179.39999389648</ele>
        <time>2016-05-05T14:03:01.000Z</time>
      </trkpt>
      <trkpt lat="48.86131" lon="0.91253">
        <ele>179.39999389648</ele>
        <time>2016-05-05T14:03:03.000Z</time>
      </trkpt>
      <trkpt lat="48.86134" lon="0.91249">
        <ele>179.39999389648</ele>
        <time>2016-05-05T14:03:07.000Z</time>
      </trkpt>
      <trkpt lat="48.86135" lon="0.91248">
        <ele>179.39999389648</ele>
        <time>2016-05-05T14:03:08.000Z</time>
      </trkpt>
      <trkpt lat="48.86141" lon="0.91239">
        <ele>179.39999389648</ele>
        <time>2016-05-05T14:03:15.000Z</time>
      </trkpt>
      <trkpt lat="48.86145" lon="0.9123">
        <ele>179.39999389648</ele>
        <time>2016-05-05T14:03:21.000Z</time>
      </trkpt>
      <trkpt lat="48.86147" lon="0.91226">
        <ele>179.39999389648</ele>
        <time>2016-05-05T14:03:23.000Z</time>
      </trkpt>
      <trkpt lat="48.86148" lon="0.91223">
        <ele>179.60000610352</ele>
        <time>2016-05-05T14:03:25.000Z</time>
      </trkpt>
      <trkpt lat="48.86151" lon="0.91217">
        <ele>179.60000610352</ele>
        <time>2016-05-05T14:03:29.000Z</time>
      </trkpt>
      <trkpt lat="48.86152" lon="0.91215">
        <ele>179.60000610352</ele>
        <time>2016-05-05T14:03:31.000Z</time>
      </trkpt>
      <trkpt lat="48.86155" lon="0.91208">
        <ele>179.60000610352</ele>
        <time>2016-05-05T14:03:36.000Z</time>
      </trkpt>
      <trkpt lat="48.8616" lon="0.91198">
        <ele>179.60000610352</ele>
        <time>2016-05-05T14:03:43.000Z</time>
      </trkpt>
      <trkpt lat="48.86167" lon="0.91187">
        <ele>179.80000305176</ele>
        <time>2016-05-05T14:03:51.000Z</time>
      </trkpt>
      <trkpt lat="48.86167" lon="0.91186">
        <ele>179.80000305176</ele>
        <time>2016-05-05T14:03:52.000Z</time>
      </trkpt>
      <trkpt lat="48.8617" lon="0.91179">
        <ele>179.80000305176</ele>
        <time>2016-05-05T14:03:56.000Z</time>
      </trkpt>
      <trkpt lat="48.86171" lon="0.91178">
        <ele>179.80000305176</ele>
        <time>2016-05-05T14:03:57.000Z</time>
      </trkpt>
      <trkpt lat="48.86171" lon="0.91176">
        <ele>179.80000305176</ele>
        <time>2016-05-05T14:03:58.000Z</time>
      </trkpt>
      <trkpt lat="48.86173" lon="0.91172">
        <ele>179.80000305176</ele>
        <time>2016-05-05T14:04:01.000Z</time>
      </trkpt>
      <trkpt lat="48.86179" lon="0.91162">
        <ele>179.80000305176</ele>
        <time>2016-05-05T14:04:08.000Z</time>
      </trkpt>
      <trkpt lat="48.86187" lon="0.91148">
        <ele>180</ele>
        <time>2016-05-05T14:04:17.000Z</time>
      </trkpt>
      <trkpt lat="48.86195" lon="0.91132">
        <ele>180</ele>
        <time>2016-05-05T14:04:27.000Z</time>
      </trkpt>
      <trkpt lat="48.86202" lon="0.9112">
        <ele>180</ele>
        <time>2016-05-05T14:04:35.000Z</time>
      </trkpt>
      <trkpt lat="48.86209" lon="0.91104">
        <ele>180.19999694824</ele>
        <time>2016-05-05T14:04:45.000Z</time>
      </trkpt>
      <trkpt lat="48.86213" lon="0.91097">
        <ele>180.19999694824</ele>
        <time>2016-05-05T14:04:50.000Z</time>
      </trkpt>
      <trkpt lat="48.86218" lon="0.91089">
        <ele>180.19999694824</ele>
        <time>2016-05-05T14:04:56.000Z</time>
      </trkpt>
      <trkpt lat="48.86221" lon="0.91082">
        <ele>180.39999389648</ele>
        <time>2016-05-05T14:05:02.000Z</time>
      </trkpt>
      <trkpt lat="48.86226" lon="0.91073">
        <ele>180.39999389648</ele>
        <time>2016-05-05T14:05:08.000Z</time>
      </trkpt>
      <trkpt lat="48.86231" lon="0.91064">
        <ele>180.39999389648</ele>
        <time>2016-05-05T14:05:14.000Z</time>
      </trkpt>
      <trkpt lat="48.86234" lon="0.91057">
        <ele>180.39999389648</ele>
        <time>2016-05-05T14:05:19.000Z</time>
      </trkpt>
      <trkpt lat="48.86234" lon="0.91056">
        <ele>180.39999389648</ele>
        <time>2016-05-05T14:05:20.000Z</time>
      </trkpt>
      <trkpt lat="48.86236" lon="0.91053">
        <ele>180.60000610352</ele>
        <time>2016-05-05T14:05:23.000Z</time>
      </trkpt>
      <trkpt lat="48.86239" lon="0.91047">
        <ele>180.80000305176</ele>
        <time>2016-05-05T14:05:27.000Z</time>
      </trkpt>
      <trkpt lat="48.86242" lon="0.91037">
        <ele>181</ele>
        <time>2016-05-05T14:05:35.000Z</time>
      </trkpt>
      <trkpt lat="48.86242" lon="0.91037">
        <ele>181</ele>
        <time>2016-05-05T14:05:36.000Z</time>
      </trkpt>
      <trkpt lat="48.86268" lon="0.90985">
        <ele>185.80000305176</ele>
        <time>2016-05-05T14:06:15.000Z</time>
      </trkpt>
      <trkpt lat="48.86269" lon="0.90982">
        <ele>186.19999694824</ele>
        <time>2016-05-05T14:06:17.000Z</time>
      </trkpt>
      <trkpt lat="48.86275" lon="0.90971">
        <ele>187</ele>
        <time>2016-05-05T14:06:25.000Z</time>
      </trkpt>
      <trkpt lat="48.8628" lon="0.90958">
        <ele>187.60000610352</ele>
        <time>2016-05-05T14:06:32.000Z</time>
      </trkpt>
      <trkpt lat="48.86283" lon="0.9095">
        <ele>187.80000305176</ele>
        <time>2016-05-05T14:06:37.000Z</time>
      </trkpt>
      <trkpt lat="48.86289" lon="0.90938">
        <ele>188.39999389648</ele>
        <time>2016-05-05T14:06:44.000Z</time>
      </trkpt>
      <trkpt lat="48.86291" lon="0.90936">
        <ele>188.39999389648</ele>
        <time>2016-05-05T14:06:47.000Z</time>
      </trkpt>
      <trkpt lat="48.86292" lon="0.90933">
        <ele>188.60000610352</ele>
        <time>2016-05-05T14:06:49.000Z</time>
      </trkpt>
      <trkpt lat="48.86295" lon="0.90925">
        <ele>188.80000305176</ele>
        <time>2016-05-05T14:06:54.000Z</time>
      </trkpt>
      <trkpt lat="48.86302" lon="0.90913">
        <ele>188.80000305176</ele>
        <time>2016-05-05T14:07:03.000Z</time>
      </trkpt>
      <trkpt lat="48.86308" lon="0.90902">
        <ele>188.60000610352</ele>
        <time>2016-05-05T14:07:10.000Z</time>
      </trkpt>
      <trkpt lat="48.86312" lon="0.90893">
        <ele>188.19999694824</ele>
        <time>2016-05-05T14:07:16.000Z</time>
      </trkpt>
      <trkpt lat="48.86316" lon="0.90884">
        <ele>187.80000305176</ele>
        <time>2016-05-05T14:07:23.000Z</time>
      </trkpt>
      <trkpt lat="48.86318" lon="0.90881">
        <ele>187.39999389648</ele>
        <time>2016-05-05T14:07:25.000Z</time>
      </trkpt>
      <trkpt lat="48.86319" lon="0.90874">
        <ele>187.19999694824</ele>
        <time>2016-05-05T14:07:29.000Z</time>
      </trkpt>
      <trkpt lat="48.8632" lon="0.90872">
        <ele>187.19999694824</ele>
        <time>2016-05-05T14:07:30.000Z</time>
      </trkpt>
      <trkpt lat="48.86326" lon="0.90852">
        <ele>186.80000305176</ele>
        <time>2016-05-05T14:07:40.000Z</time>
      </trkpt>
      <trkpt lat="48.86326" lon="0.90849">
        <ele>186.80000305176</ele>
        <time>2016-05-05T14:07:41.000Z</time>
      </trkpt>
      <trkpt lat="48.86328" lon="0.90844">
        <ele>187.19999694824</ele>
        <time>2016-05-05T14:07:44.000Z</time>
      </trkpt>
      <trkpt lat="48.86329" lon="0.90839">
        <ele>187.39999389648</ele>
        <time>2016-05-05T14:07:47.000Z</time>
      </trkpt>
      <trkpt lat="48.8633" lon="0.90835">
        <ele>187.60000610352</ele>
        <time>2016-05-05T14:07:49.000Z</time>
      </trkpt>
      <trkpt lat="48.86331" lon="0.90833">
        <ele>187.60000610352</ele>
        <time>2016-05-05T14:07:50.000Z</time>
      </trkpt>
      <trkpt lat="48.86335" lon="0.90825">
        <ele>188</ele>
        <time>2016-05-05T14:07:55.000Z</time>
      </trkpt>
      <trkpt lat="48.86336" lon="0.90822">
        <ele>188</ele>
        <time>2016-05-05T14:07:57.000Z</time>
      </trkpt>
      <trkpt lat="48.8634" lon="0.90815">
        <ele>188.19999694824</ele>
        <time>2016-05-05T14:08:01.000Z</time>
      </trkpt>
      <trkpt lat="48.8634" lon="0.90813">
        <ele>188.39999389648</ele>
        <time>2016-05-05T14:08:02.000Z</time>
      </trkpt>
      <trkpt lat="48.86343" lon="0.90807">
        <ele>188.60000610352</ele>
        <time>2016-05-05T14:08:06.000Z</time>
      </trkpt>
      <trkpt lat="48.86343" lon="0.90805">
        <ele>188.60000610352</ele>
        <time>2016-05-05T14:08:07.000Z</time>
      </trkpt>
      <trkpt lat="48.86344" lon="0.90803">
        <ele>188.60000610352</ele>
        <time>2016-05-05T14:08:08.000Z</time>
      </trkpt>
      <trkpt lat="48.86344" lon="0.90802">
        <ele>188.60000610352</ele>
        <time>2016-05-05T14:08:09.000Z</time>
      </trkpt>
      <trkpt lat="48.86347" lon="0.90795">
        <ele>188.60000610352</ele>
        <time>2016-05-05T14:08:13.000Z</time>
      </trkpt>
      <trkpt lat="48.8635" lon="0.90783">
        <ele>188.19999694824</ele>
        <time>2016-05-05T14:08:19.000Z</time>
      </trkpt>
      <trkpt lat="48.86349" lon="0.9078">
        <ele>188.19999694824</ele>
        <time>2016-05-05T14:08:20.000Z</time>
      </trkpt>
      <trkpt lat="48.86353" lon="0.90771">
        <ele>187.80000305176</ele>
        <time>2016-05-05T14:08:25.000Z</time>
      </trkpt>
      <trkpt lat="48.86356" lon="0.90761">
        <ele>187.39999389648</ele>
        <time>2016-05-05T14:08:30.000Z</time>
      </trkpt>
      <trkpt lat="48.8636" lon="0.90751">
        <ele>187.19999694824</ele>
        <time>2016-05-05T14:08:36.000Z</time>
      </trkpt>
      <trkpt lat="48.86364" lon="0.90736">
        <ele>187</ele>
        <time>2016-05-05T14:08:43.000Z</time>
      </trkpt>
      <trkpt lat="48.86366" lon="0.9073">
        <ele>187</ele>
        <time>2016-05-05T14:08:47.000Z</time>
      </trkpt>
      <trkpt lat="48.86368" lon="0.90725">
        <ele>186.80000305176</ele>
        <time>2016-05-05T14:08:50.000Z</time>
      </trkpt>
      <trkpt lat="48.86373" lon="0.90709">
        <ele>186.19999694824</ele>
        <time>2016-05-05T14:08:58.000Z</time>
      </trkpt>
      <trkpt lat="48.86378" lon="0.90695">
        <ele>185.80000305176</ele>
        <time>2016-05-05T14:09:06.000Z</time>
      </trkpt>
      <trkpt lat="48.86383" lon="0.90682">
        <ele>185.39999389648</ele>
        <time>2016-05-05T14:09:14.000Z</time>
      </trkpt>
      <trkpt lat="48.86386" lon="0.90675">
        <ele>185.19999694824</ele>
        <time>2016-05-05T14:09:19.000Z</time>
      </trkpt>
      <trkpt lat="48.86388" lon="0.90667">
        <ele>185</ele>
        <time>2016-05-05T14:09:23.000Z</time>
      </trkpt>
      <trkpt lat="48.86394" lon="0.90652">
        <ele>184.60000610352</ele>
        <time>2016-05-05T14:09:32.000Z</time>
      </trkpt>
      <trkpt lat="48.86399" lon="0.90637">
        <ele>184.39999389648</ele>
        <time>2016-05-05T14:09:41.000Z</time>
      </trkpt>
      <trkpt lat="48.86405" lon="0.90622">
        <ele>183.80000305176</ele>
        <time>2016-05-05T14:09:49.000Z</time>
      </trkpt>
      <trkpt lat="48.86409" lon="0.90612">
        <ele>183.39999389648</ele>
        <time>2016-05-05T14:09:55.000Z</time>
      </trkpt>
      <trkpt lat="48.86415" lon="0.90596">
        <ele>183.19999694824</ele>
        <time>2016-05-05T14:10:04.000Z</time>
      </trkpt>
      <trkpt lat="48.8642" lon="0.90585">
        <ele>183.19999694824</ele>
        <time>2016-05-05T14:10:11.000Z</time>
      </trkpt>
      <trkpt lat="48.86424" lon="0.90575">
        <ele>183</ele>
        <time>2016-05-05T14:10:17.000Z</time>
      </trkpt>
      <trkpt lat="48.86427" lon="0.90563">
        <ele>183</ele>
        <time>2016-05-05T14:10:23.000Z</time>
      </trkpt>
      <trkpt lat="48.86431" lon="0.90555">
        <ele>182.80000305176</ele>
        <time>2016-05-05T14:10:28.000Z</time>
      </trkpt>
      <trkpt lat="48.86435" lon="0.90543">
        <ele>182.60000610352</ele>
        <time>2016-05-05T14:10:34.000Z</time>
      </trkpt>
      <trkpt lat="48.8644" lon="0.90533">
        <ele>182.39999389648</ele>
        <time>2016-05-05T14:10:41.000Z</time>
      </trkpt>
      <trkpt lat="48.86445" lon="0.90521">
        <ele>182.39999389648</ele>
        <time>2016-05-05T14:10:49.000Z</time>
      </trkpt>
      <trkpt lat="48.86446" lon="0.90519">
        <ele>182.39999389648</ele>
        <time>2016-05-05T14:10:51.000Z</time>
      </trkpt>
      <trkpt lat="48.86448" lon="0.90514">
        <ele>182.19999694824</ele>
        <time>2016-05-05T14:10:54.000Z</time>
      </trkpt>
      <trkpt lat="48.86449" lon="0.90512">
        <ele>182.19999694824</ele>
        <time>2016-05-05T14:10:56.000Z</time>
      </trkpt>
      <trkpt lat="48.86452" lon="0.90501">
        <ele>182.19999694824</ele>
        <time>2016-05-05T14:11:01.000Z</time>
      </trkpt>
      <trkpt lat="48.86453" lon="0.90497">
        <ele>182</ele>
        <time>2016-05-05T14:11:03.000Z</time>
      </trkpt>
      <trkpt lat="48.86455" lon="0.9049">
        <ele>182</ele>
        <time>2016-05-05T14:11:07.000Z</time>
      </trkpt>
      <trkpt lat="48.86458" lon="0.90482">
        <ele>182.19999694824</ele>
        <time>2016-05-05T14:11:12.000Z</time>
      </trkpt>
      <trkpt lat="48.8646" lon="0.90474">
        <ele>182.19999694824</ele>
        <time>2016-05-05T14:11:17.000Z</time>
      </trkpt>
      <trkpt lat="48.86465" lon="0.90463">
        <ele>182.39999389648</ele>
        <time>2016-05-05T14:11:23.000Z</time>
      </trkpt>
      <trkpt lat="48.86468" lon="0.90453">
        <ele>182.39999389648</ele>
        <time>2016-05-05T14:11:30.000Z</time>
      </trkpt>
      <trkpt lat="48.86473" lon="0.90443">
        <ele>182.60000610352</ele>
        <time>2016-05-05T14:11:36.000Z</time>
      </trkpt>
      <trkpt lat="48.86476" lon="0.90434">
        <ele>182.80000305176</ele>
        <time>2016-05-05T14:11:42.000Z</time>
      </trkpt>
      <trkpt lat="48.86477" lon="0.90433">
        <ele>182.80000305176</ele>
        <time>2016-05-05T14:11:43.000Z</time>
      </trkpt>
      <trkpt lat="48.86478" lon="0.90435">
        <ele>182.80000305176</ele>
        <time>2016-05-05T14:11:48.000Z</time>
      </trkpt>
      <trkpt lat="48.86478" lon="0.90435">
        <ele>182.80000305176</ele>
        <time>2016-05-05T14:11:50.000Z</time>
      </trkpt>
      <trkpt lat="48.86495" lon="0.90391">
        <ele>184</ele>
        <time>2016-05-05T14:13:53.000Z</time>
      </trkpt>
      <trkpt lat="48.86496" lon="0.90389">
        <ele>184</ele>
        <time>2016-05-05T14:13:54.000Z</time>
      </trkpt>
      <trkpt lat="48.86497" lon="0.90387">
        <ele>184.19999694824</ele>
        <time>2016-05-05T14:13:55.000Z</time>
      </trkpt>
      <trkpt lat="48.86499" lon="0.90374">
        <ele>184.80000305176</ele>
        <time>2016-05-05T14:14:01.000Z</time>
      </trkpt>
      <trkpt lat="48.86504" lon="0.90358">
        <ele>185.19999694824</ele>
        <time>2016-05-05T14:14:09.000Z</time>
      </trkpt>
      <trkpt lat="48.8651" lon="0.90342">
        <ele>185.19999694824</ele>
        <time>2016-05-05T14:14:17.000Z</time>
      </trkpt>
      <trkpt lat="48.86514" lon="0.9033">
        <ele>185</ele>
        <time>2016-05-05T14:14:23.000Z</time>
      </trkpt>
      <trkpt lat="48.86519" lon="0.90316">
        <ele>185</ele>
        <time>2016-05-05T14:14:30.000Z</time>
      </trkpt>
      <trkpt lat="48.86521" lon="0.90305">
        <ele>185</ele>
        <time>2016-05-05T14:14:35.000Z</time>
      </trkpt>
      <trkpt lat="48.86523" lon="0.90301">
        <ele>185.19999694824</ele>
        <time>2016-05-05T14:14:37.000Z</time>
      </trkpt>
      <trkpt lat="48.86529" lon="0.90287">
        <ele>185.39999389648</ele>
        <time>2016-05-05T14:14:45.000Z</time>
      </trkpt>
      <trkpt lat="48.86535" lon="0.90272">
        <ele>185.80000305176</ele>
        <time>2016-05-05T14:14:53.000Z</time>
      </trkpt>
      <trkpt lat="48.86539" lon="0.90261">
        <ele>186</ele>
        <time>2016-05-05T14:14:59.000Z</time>
      </trkpt>
      <trkpt lat="48.86544" lon="0.90247">
        <ele>186.39999389648</ele>
        <time>2016-05-05T14:15:07.000Z</time>
      </trkpt>
      <trkpt lat="48.8655" lon="0.90234">
        <ele>186.19999694824</ele>
        <time>2016-05-05T14:15:15.000Z</time>
      </trkpt>
      <trkpt lat="48.86555" lon="0.90224">
        <ele>185.80000305176</ele>
        <time>2016-05-05T14:15:23.000Z</time>
      </trkpt>
      <trkpt lat="48.86555" lon="0.90222">
        <ele>185.80000305176</ele>
        <time>2016-05-05T14:15:24.000Z</time>
      </trkpt>
      <trkpt lat="48.86559" lon="0.90212">
        <ele>186.19999694824</ele>
        <time>2016-05-05T14:15:30.000Z</time>
      </trkpt>
      <trkpt lat="48.8656" lon="0.90208">
        <ele>186.39999389648</ele>
        <time>2016-05-05T14:15:33.000Z</time>
      </trkpt>
      <trkpt lat="48.86561" lon="0.90205">
        <ele>186.60000610352</ele>
        <time>2016-05-05T14:15:35.000Z</time>
      </trkpt>
      <trkpt lat="48.86565" lon="0.90197">
        <ele>186.80000305176</ele>
        <time>2016-05-05T14:15:40.000Z</time>
      </trkpt>
      <trkpt lat="48.86565" lon="0.90196">
        <ele>186.80000305176</ele>
        <time>2016-05-05T14:15:41.000Z</time>
      </trkpt>
      <trkpt lat="48.8657" lon="0.90187">
        <ele>187</ele>
        <time>2016-05-05T14:15:48.000Z</time>
      </trkpt>
      <trkpt lat="48.8657" lon="0.90185">
        <ele>187.19999694824</ele>
        <time>2016-05-05T14:15:49.000Z</time>
      </trkpt>
      <trkpt lat="48.86571" lon="0.90178">
        <ele>187.39999389648</ele>
        <time>2016-05-05T14:15:54.000Z</time>
      </trkpt>
      <trkpt lat="48.86574" lon="0.90169">
        <ele>187.80000305176</ele>
        <time>2016-05-05T14:16:00.000Z</time>
      </trkpt>
      <trkpt lat="48.86577" lon="0.90162">
        <ele>188</ele>
        <time>2016-05-05T14:16:05.000Z</time>
      </trkpt>
      <trkpt lat="48.86583" lon="0.90149">
        <ele>188.39999389648</ele>
        <time>2016-05-05T14:16:15.000Z</time>
      </trkpt>
      <trkpt lat="48.86585" lon="0.90144">
        <ele>188.60000610352</ele>
        <time>2016-05-05T14:16:18.000Z</time>
      </trkpt>
      <trkpt lat="48.86587" lon="0.9014">
        <ele>188.60000610352</ele>
        <time>2016-05-05T14:16:21.000Z</time>
      </trkpt>
      <trkpt lat="48.86588" lon="0.9014">
        <ele>188.60000610352</ele>
        <time>2016-05-05T14:16:22.000Z</time>
      </trkpt>
      <trkpt lat="48.86591" lon="0.90133">
        <ele>188.39999389648</ele>
        <time>2016-05-05T14:16:26.000Z</time>
      </trkpt>
      <trkpt lat="48.86593" lon="0.90131">
        <ele>188.19999694824</ele>
        <time>2016-05-05T14:16:28.000Z</time>
      </trkpt>
      <trkpt lat="48.866" lon="0.9012">
        <ele>188.39999389648</ele>
        <time>2016-05-05T14:16:35.000Z</time>
      </trkpt>
      <trkpt lat="48.86603" lon="0.90116">
        <ele>188.60000610352</ele>
        <time>2016-05-05T14:16:37.000Z</time>
      </trkpt>
      <trkpt lat="48.86605" lon="0.90109">
        <ele>188.80000305176</ele>
        <time>2016-05-05T14:16:40.000Z</time>
      </trkpt>
      <trkpt lat="48.86606" lon="0.90107">
        <ele>188.80000305176</ele>
        <time>2016-05-05T14:16:41.000Z</time>
      </trkpt>
      <trkpt lat="48.86609" lon="0.90099">
        <ele>189</ele>
        <time>2016-05-05T14:16:45.000Z</time>
      </trkpt>
      <trkpt lat="48.86612" lon="0.90089">
        <ele>189.19999694824</ele>
        <time>2016-05-05T14:16:50.000Z</time>
      </trkpt>
      <trkpt lat="48.86613" lon="0.90081">
        <ele>189.39999389648</ele>
        <time>2016-05-05T14:16:54.000Z</time>
      </trkpt>
      <trkpt lat="48.86615" lon="0.90072">
        <ele>189.60000610352</ele>
        <time>2016-05-05T14:16:59.000Z</time>
      </trkpt>
      <trkpt lat="48.86616" lon="0.9007">
        <ele>189.60000610352</ele>
        <time>2016-05-05T14:17:00.000Z</time>
      </trkpt>
      <trkpt lat="48.8662" lon="0.9006">
        <ele>189.39999389648</ele>
        <time>2016-05-05T14:17:06.000Z</time>
      </trkpt>
      <trkpt lat="48.86621" lon="0.90058">
        <ele>189.39999389648</ele>
        <time>2016-05-05T14:17:07.000Z</time>
      </trkpt>
      <trkpt lat="48.86623" lon="0.90048">
        <ele>189.19999694824</ele>
        <time>2016-05-05T14:17:12.000Z</time>
      </trkpt>
      <trkpt lat="48.86624" lon="0.90046">
        <ele>189.19999694824</ele>
        <time>2016-05-05T14:17:13.000Z</time>
      </trkpt>
      <trkpt lat="48.86624" lon="0.90044">
        <ele>189.19999694824</ele>
        <time>2016-05-05T14:17:14.000Z</time>
      </trkpt>
      <trkpt lat="48.86626" lon="0.90037">
        <ele>189</ele>
        <time>2016-05-05T14:17:18.000Z</time>
      </trkpt>
      <trkpt lat="48.86627" lon="0.90035">
        <ele>189</ele>
        <time>2016-05-05T14:17:19.000Z</time>
      </trkpt>
      <trkpt lat="48.86629" lon="0.90028">
        <ele>188.80000305176</ele>
        <time>2016-05-05T14:17:23.000Z</time>
      </trkpt>
      <trkpt lat="48.86633" lon="0.90015">
        <ele>188.80000305176</ele>
        <time>2016-05-05T14:17:30.000Z</time>
      </trkpt>
      <trkpt lat="48.86636" lon="0.90006">
        <ele>188.60000610352</ele>
        <time>2016-05-05T14:17:35.000Z</time>
      </trkpt>
      <trkpt lat="48.86636" lon="0.90004">
        <ele>188.60000610352</ele>
        <time>2016-05-05T14:17:36.000Z</time>
      </trkpt>
      <trkpt lat="48.86639" lon="0.89989">
        <ele>188</ele>
        <time>2016-05-05T14:17:43.000Z</time>
      </trkpt>
      <trkpt lat="48.8664" lon="0.89985">
        <ele>187.80000305176</ele>
        <time>2016-05-05T14:17:45.000Z</time>
      </trkpt>
      <trkpt lat="48.86643" lon="0.89977">
        <ele>187.39999389648</ele>
        <time>2016-05-05T14:17:49.000Z</time>
      </trkpt>
      <trkpt lat="48.86645" lon="0.89972">
        <ele>187.19999694824</ele>
        <time>2016-05-05T14:17:52.000Z</time>
      </trkpt>
      <trkpt lat="48.86646" lon="0.89967">
        <ele>187</ele>
        <time>2016-05-05T14:17:55.000Z</time>
      </trkpt>
      <trkpt lat="48.86647" lon="0.89966">
        <ele>187</ele>
        <time>2016-05-05T14:17:56.000Z</time>
      </trkpt>
      <trkpt lat="48.86651" lon="0.89958">
        <ele>186.80000305176</ele>
        <time>2016-05-05T14:18:02.000Z</time>
      </trkpt>
      <trkpt lat="48.86652" lon="0.89955">
        <ele>186.60000610352</ele>
        <time>2016-05-05T14:18:05.000Z</time>
      </trkpt>
      <trkpt lat="48.86654" lon="0.89949">
        <ele>186.60000610352</ele>
        <time>2016-05-05T14:18:09.000Z</time>
      </trkpt>
      <trkpt lat="48.86655" lon="0.89947">
        <ele>186.60000610352</ele>
        <time>2016-05-05T14:18:11.000Z</time>
      </trkpt>
      <trkpt lat="48.86656" lon="0.89941">
        <ele>186.39999389648</ele>
        <time>2016-05-05T14:18:15.000Z</time>
      </trkpt>
      <trkpt lat="48.86657" lon="0.8994">
        <ele>186.39999389648</ele>
        <time>2016-05-05T14:18:16.000Z</time>
      </trkpt>
      <trkpt lat="48.8666" lon="0.89934">
        <ele>186.19999694824</ele>
        <time>2016-05-05T14:18:21.000Z</time>
      </trkpt>
      <trkpt lat="48.86662" lon="0.89929">
        <ele>186.19999694824</ele>
        <time>2016-05-05T14:18:25.000Z</time>
      </trkpt>
      <trkpt lat="48.86663" lon="0.89926">
        <ele>186.19999694824</ele>
        <time>2016-05-05T14:18:27.000Z</time>
      </trkpt>
      <trkpt lat="48.86665" lon="0.89923">
        <ele>186</ele>
        <time>2016-05-05T14:18:29.000Z</time>
      </trkpt>
      <trkpt lat="48.86667" lon="0.89919">
        <ele>186</ele>
        <time>2016-05-05T14:18:32.000Z</time>
      </trkpt>
      <trkpt lat="48.86668" lon="0.89916">
        <ele>186</ele>
        <time>2016-05-05T14:18:34.000Z</time>
      </trkpt>
      <trkpt lat="48.86671" lon="0.89911">
        <ele>185.80000305176</ele>
        <time>2016-05-05T14:18:38.000Z</time>
      </trkpt>
      <trkpt lat="48.86672" lon="0.89908">
        <ele>185.80000305176</ele>
        <time>2016-05-05T14:18:41.000Z</time>
      </trkpt>
      <trkpt lat="48.86675" lon="0.89902">
        <ele>185.80000305176</ele>
        <time>2016-05-05T14:18:45.000Z</time>
      </trkpt>
      <trkpt lat="48.86676" lon="0.89901">
        <ele>185.60000610352</ele>
        <time>2016-05-05T14:18:46.000Z</time>
      </trkpt>
      <trkpt lat="48.86676" lon="0.89901">
        <ele>185.60000610352</ele>
        <time>2016-05-05T14:18:47.000Z</time>
      </trkpt>
      <trkpt lat="48.86678" lon="0.89894">
        <ele>185.60000610352</ele>
        <time>2016-05-05T14:18:51.000Z</time>
      </trkpt>
      <trkpt lat="48.86682" lon="0.89882">
        <ele>185.39999389648</ele>
        <time>2016-05-05T14:18:57.000Z</time>
      </trkpt>
      <trkpt lat="48.86685" lon="0.89873">
        <ele>185.80000305176</ele>
        <time>2016-05-05T14:19:03.000Z</time>
      </trkpt>
      <trkpt lat="48.86686" lon="0.89865">
        <ele>186.19999694824</ele>
        <time>2016-05-05T14:19:09.000Z</time>
      </trkpt>
      <trkpt lat="48.86688" lon="0.89858">
        <ele>186.60000610352</ele>
        <time>2016-05-05T14:19:13.000Z</time>
      </trkpt>
      <trkpt lat="48.86693" lon="0.89847">
        <ele>187</ele>
        <time>2016-05-05T14:19:20.000Z</time>
      </trkpt>
      <trkpt lat="48.86698" lon="0.89836">
        <ele>187.60000610352</ele>
        <time>2016-05-05T14:19:26.000Z</time>
      </trkpt>
      <trkpt lat="48.86699" lon="0.89831">
        <ele>187.80000305176</ele>
        <time>2016-05-05T14:19:29.000Z</time>
      </trkpt>
      <trkpt lat="48.86699" lon="0.8983">
        <ele>187.80000305176</ele>
        <time>2016-05-05T14:19:30.000Z</time>
      </trkpt>
      <trkpt lat="48.86702" lon="0.89823">
        <ele>188.19999694824</ele>
        <time>2016-05-05T14:19:34.000Z</time>
      </trkpt>
      <trkpt lat="48.86707" lon="0.89812">
        <ele>188.39999389648</ele>
        <time>2016-05-05T14:19:40.000Z</time>
      </trkpt>
      <trkpt lat="48.86708" lon="0.8981">
        <ele>188.39999389648</ele>
        <time>2016-05-05T14:19:41.000Z</time>
      </trkpt>
      <trkpt lat="48.86711" lon="0.89799">
        <ele>188.19999694824</ele>
        <time>2016-05-05T14:19:47.000Z</time>
      </trkpt>
      <trkpt lat="48.86715" lon="0.89786">
        <ele>188</ele>
        <time>2016-05-05T14:19:54.000Z</time>
      </trkpt>
      <trkpt lat="48.86719" lon="0.8978">
        <ele>188</ele>
        <time>2016-05-05T14:20:01.000Z</time>
      </trkpt>
      <trkpt lat="48.86719" lon="0.89781">
        <ele>188</ele>
        <time>2016-05-05T14:20:02.000Z</time>
      </trkpt>
      <trkpt lat="48.86742" lon="0.89716">
        <ele>187.19999694824</ele>
        <time>2016-05-05T14:20:58.000Z</time>
      </trkpt>
      <trkpt lat="48.86744" lon="0.89708">
        <ele>187.19999694824</ele>
        <time>2016-05-05T14:21:02.000Z</time>
      </trkpt>
      <trkpt lat="48.86744" lon="0.89707">
        <ele>187.19999694824</ele>
        <time>2016-05-05T14:21:03.000Z</time>
      </trkpt>
      <trkpt lat="48.86747" lon="0.89698">
        <ele>187.19999694824</ele>
        <time>2016-05-05T14:21:07.000Z</time>
      </trkpt>
      <trkpt lat="48.86748" lon="0.89693">
        <ele>187.19999694824</ele>
        <time>2016-05-05T14:21:10.000Z</time>
      </trkpt>
      <trkpt lat="48.8675" lon="0.8969">
        <ele>187.19999694824</ele>
        <time>2016-05-05T14:21:12.000Z</time>
      </trkpt>
      <trkpt lat="48.8675" lon="0.89687">
        <ele>187.19999694824</ele>
        <time>2016-05-05T14:21:14.000Z</time>
      </trkpt>
      <trkpt lat="48.86754" lon="0.89677">
        <ele>187.19999694824</ele>
        <time>2016-05-05T14:21:19.000Z</time>
      </trkpt>
      <trkpt lat="48.86761" lon="0.89661">
        <ele>187.19999694824</ele>
        <time>2016-05-05T14:21:28.000Z</time>
      </trkpt>
      <trkpt lat="48.86761" lon="0.89658">
        <ele>187.19999694824</ele>
        <time>2016-05-05T14:21:30.000Z</time>
      </trkpt>
      <trkpt lat="48.86764" lon="0.89654">
        <ele>187.19999694824</ele>
        <time>2016-05-05T14:21:33.000Z</time>
      </trkpt>
      <trkpt lat="48.86768" lon="0.89643">
        <ele>187.19999694824</ele>
        <time>2016-05-05T14:21:40.000Z</time>
      </trkpt>
      <trkpt lat="48.86773" lon="0.89633">
        <ele>187</ele>
        <time>2016-05-05T14:21:47.000Z</time>
      </trkpt>
      <trkpt lat="48.86774" lon="0.89627">
        <ele>186.80000305176</ele>
        <time>2016-05-05T14:21:51.000Z</time>
      </trkpt>
      <trkpt lat="48.86775" lon="0.89625">
        <ele>186.80000305176</ele>
        <time>2016-05-05T14:21:52.000Z</time>
      </trkpt>
      <trkpt lat="48.8678" lon="0.89612">
        <ele>186.60000610352</ele>
        <time>2016-05-05T14:22:00.000Z</time>
      </trkpt>
      <trkpt lat="48.86783" lon="0.89603">
        <ele>186.60000610352</ele>
        <time>2016-05-05T14:22:06.000Z</time>
      </trkpt>
      <trkpt lat="48.86787" lon="0.89588">
        <ele>186.39999389648</ele>
        <time>2016-05-05T14:22:14.000Z</time>
      </trkpt>
      <trkpt lat="48.86793" lon="0.89574">
        <ele>186.19999694824</ele>
        <time>2016-05-05T14:22:24.000Z</time>
      </trkpt>
      <trkpt lat="48.86792" lon="0.89572">
        <ele>186.19999694824</ele>
        <time>2016-05-05T14:22:25.000Z</time>
      </trkpt>
      <trkpt lat="48.86792" lon="0.89572">
        <ele>186.19999694824</ele>
        <time>2016-05-05T14:22:27.000Z</time>
      </trkpt>
      <trkpt lat="48.86794" lon="0.89569">
        <ele>186.19999694824</ele>
        <time>2016-05-05T14:22:41.000Z</time>
      </trkpt>
      <trkpt lat="48.86794" lon="0.89568">
        <ele>186.19999694824</ele>
        <time>2016-05-05T14:22:42.000Z</time>
      </trkpt>
      <trkpt lat="48.86796" lon="0.8956">
        <ele>186.19999694824</ele>
        <time>2016-05-05T14:22:47.000Z</time>
      </trkpt>
      <trkpt lat="48.86797" lon="0.89558">
        <ele>186.19999694824</ele>
        <time>2016-05-05T14:22:48.000Z</time>
      </trkpt>
      <trkpt lat="48.86801" lon="0.89545">
        <ele>186.60000610352</ele>
        <time>2016-05-05T14:22:56.000Z</time>
      </trkpt>
      <trkpt lat="48.86802" lon="0.89536">
        <ele>186.80000305176</ele>
        <time>2016-05-05T14:23:00.000Z</time>
      </trkpt>
      <trkpt lat="48.86803" lon="0.89533">
        <ele>187</ele>
        <time>2016-05-05T14:23:02.000Z</time>
      </trkpt>
      <trkpt lat="48.86805" lon="0.89521">
        <ele>187.19999694824</ele>
        <time>2016-05-05T14:23:08.000Z</time>
      </trkpt>
      <trkpt lat="48.86806" lon="0.89519">
        <ele>187.19999694824</ele>
        <time>2016-05-05T14:23:09.000Z</time>
      </trkpt>
      <trkpt lat="48.86808" lon="0.89514">
        <ele>187.39999389648</ele>
        <time>2016-05-05T14:23:13.000Z</time>
      </trkpt>
      <trkpt lat="48.86808" lon="0.89514">
        <ele>187.39999389648</ele>
        <time>2016-05-05T14:23:14.000Z</time>
      </trkpt>
      <trkpt lat="48.86808" lon="0.89513">
        <ele>187.39999389648</ele>
        <time>2016-05-05T14:23:16.000Z</time>
      </trkpt>
      <trkpt lat="48.86783" lon="0.89452">
        <ele>188.39999389648</ele>
        <time>2016-05-05T14:24:06.000Z</time>
      </trkpt>
      <trkpt lat="48.86783" lon="0.8945">
        <ele>188.39999389648</ele>
        <time>2016-05-05T14:24:07.000Z</time>
      </trkpt>
      <trkpt lat="48.86779" lon="0.89445">
        <ele>188.39999389648</ele>
        <time>2016-05-05T14:24:11.000Z</time>
      </trkpt>
      <trkpt lat="48.86775" lon="0.89439">
        <ele>188.39999389648</ele>
        <time>2016-05-05T14:24:16.000Z</time>
      </trkpt>
      <trkpt lat="48.86767" lon="0.89427">
        <ele>188.80000305176</ele>
        <time>2016-05-05T14:24:25.000Z</time>
      </trkpt>
      <trkpt lat="48.8676" lon="0.89418">
        <ele>189.19999694824</ele>
        <time>2016-05-05T14:24:32.000Z</time>
      </trkpt>
      <trkpt lat="48.86758" lon="0.89416">
        <ele>189.19999694824</ele>
        <time>2016-05-05T14:24:34.000Z</time>
      </trkpt>
      <trkpt lat="48.86756" lon="0.89412">
        <ele>189.39999389648</ele>
        <time>2016-05-05T14:24:37.000Z</time>
      </trkpt>
      <trkpt lat="48.86753" lon="0.89407">
        <ele>189.60000610352</ele>
        <time>2016-05-05T14:24:40.000Z</time>
      </trkpt>
      <trkpt lat="48.86749" lon="0.89399">
        <ele>189.80000305176</ele>
        <time>2016-05-05T14:24:45.000Z</time>
      </trkpt>
      <trkpt lat="48.86747" lon="0.89396">
        <ele>189.80000305176</ele>
        <time>2016-05-05T14:24:47.000Z</time>
      </trkpt>
      <trkpt lat="48.86741" lon="0.89387">
        <ele>190</ele>
        <time>2016-05-05T14:24:54.000Z</time>
      </trkpt>
      <trkpt lat="48.86736" lon="0.89376">
        <ele>190.19999694824</ele>
        <time>2016-05-05T14:25:01.000Z</time>
      </trkpt>
      <trkpt lat="48.86732" lon="0.89368">
        <ele>190.19999694824</ele>
        <time>2016-05-05T14:25:06.000Z</time>
      </trkpt>
      <trkpt lat="48.86729" lon="0.89363">
        <ele>190.19999694824</ele>
        <time>2016-05-05T14:25:10.000Z</time>
      </trkpt>
      <trkpt lat="48.86728" lon="0.8936">
        <ele>190.19999694824</ele>
        <time>2016-05-05T14:25:12.000Z</time>
      </trkpt>
      <trkpt lat="48.86724" lon="0.89351">
        <ele>190.19999694824</ele>
        <time>2016-05-05T14:25:18.000Z</time>
      </trkpt>
      <trkpt lat="48.8672" lon="0.89345">
        <ele>190.39999389648</ele>
        <time>2016-05-05T14:25:23.000Z</time>
      </trkpt>
      <trkpt lat="48.86719" lon="0.89343">
        <ele>190.39999389648</ele>
        <time>2016-05-05T14:25:24.000Z</time>
      </trkpt>
      <trkpt lat="48.86717" lon="0.8934">
        <ele>190.39999389648</ele>
        <time>2016-05-05T14:25:26.000Z</time>
      </trkpt>
      <trkpt lat="48.86715" lon="0.89334">
        <ele>190.39999389648</ele>
        <time>2016-05-05T14:25:30.000Z</time>
      </trkpt>
      <trkpt lat="48.86712" lon="0.89331">
        <ele>190.39999389648</ele>
        <time>2016-05-05T14:25:33.000Z</time>
      </trkpt>
      <trkpt lat="48.86711" lon="0.89329">
        <ele>190.39999389648</ele>
        <time>2016-05-05T14:25:34.000Z</time>
      </trkpt>
      <trkpt lat="48.8671" lon="0.89328">
        <ele>190.60000610352</ele>
        <time>2016-05-05T14:25:35.000Z</time>
      </trkpt>
      <trkpt lat="48.86706" lon="0.89322">
        <ele>190.60000610352</ele>
        <time>2016-05-05T14:25:39.000Z</time>
      </trkpt>
      <trkpt lat="48.86706" lon="0.89321">
        <ele>190.60000610352</ele>
        <time>2016-05-05T14:25:40.000Z</time>
      </trkpt>
      <trkpt lat="48.86703" lon="0.89316">
        <ele>190.60000610352</ele>
        <time>2016-05-05T14:25:44.000Z</time>
      </trkpt>
      <trkpt lat="48.86697" lon="0.89306">
        <ele>190.80000305176</ele>
        <time>2016-05-05T14:25:51.000Z</time>
      </trkpt>
      <trkpt lat="48.86693" lon="0.89299">
        <ele>190.80000305176</ele>
        <time>2016-05-05T14:25:55.000Z</time>
      </trkpt>
      <trkpt lat="48.86692" lon="0.89297">
        <ele>191</ele>
        <time>2016-05-05T14:25:56.000Z</time>
      </trkpt>
      <trkpt lat="48.86692" lon="0.89295">
        <ele>191</ele>
        <time>2016-05-05T14:25:57.000Z</time>
      </trkpt>
      <trkpt lat="48.86689" lon="0.89289">
        <ele>191</ele>
        <time>2016-05-05T14:26:01.000Z</time>
      </trkpt>
      <trkpt lat="48.86687" lon="0.89288">
        <ele>191</ele>
        <time>2016-05-05T14:26:02.000Z</time>
      </trkpt>
      <trkpt lat="48.86685" lon="0.89282">
        <ele>191.19999694824</ele>
        <time>2016-05-05T14:26:06.000Z</time>
      </trkpt>
      <trkpt lat="48.86681" lon="0.89276">
        <ele>191.19999694824</ele>
        <time>2016-05-05T14:26:10.000Z</time>
      </trkpt>
      <trkpt lat="48.86679" lon="0.89274">
        <ele>191.19999694824</ele>
        <time>2016-05-05T14:26:12.000Z</time>
      </trkpt>
      <trkpt lat="48.86673" lon="0.89267">
        <ele>191.39999389648</ele>
        <time>2016-05-05T14:26:17.000Z</time>
      </trkpt>
      <trkpt lat="48.8667" lon="0.89263">
        <ele>191.39999389648</ele>
        <time>2016-05-05T14:26:20.000Z</time>
      </trkpt>
      <trkpt lat="48.86664" lon="0.89255">
        <ele>191.60000610352</ele>
        <time>2016-05-05T14:26:26.000Z</time>
      </trkpt>
      <trkpt lat="48.86663" lon="0.89252">
        <ele>191.60000610352</ele>
        <time>2016-05-05T14:26:27.000Z</time>
      </trkpt>
      <trkpt lat="48.8666" lon="0.89248">
        <ele>191.80000305176</ele>
        <time>2016-05-05T14:26:30.000Z</time>
      </trkpt>
      <trkpt lat="48.86653" lon="0.89237">
        <ele>191.80000305176</ele>
        <time>2016-05-05T14:26:37.000Z</time>
      </trkpt>
      <trkpt lat="48.86652" lon="0.89236">
        <ele>191.80000305176</ele>
        <time>2016-05-05T14:26:38.000Z</time>
      </trkpt>
      <trkpt lat="48.86647" lon="0.89226">
        <ele>192</ele>
        <time>2016-05-05T14:26:44.000Z</time>
      </trkpt>
      <trkpt lat="48.86646" lon="0.89223">
        <ele>192</ele>
        <time>2016-05-05T14:26:45.000Z</time>
      </trkpt>
      <trkpt lat="48.86643" lon="0.8922">
        <ele>192</ele>
        <time>2016-05-05T14:26:48.000Z</time>
      </trkpt>
      <trkpt lat="48.86641" lon="0.89216">
        <ele>192</ele>
        <time>2016-05-05T14:26:50.000Z</time>
      </trkpt>
      <trkpt lat="48.86638" lon="0.89207">
        <ele>192</ele>
        <time>2016-05-05T14:26:55.000Z</time>
      </trkpt>
      <trkpt lat="48.86636" lon="0.89204">
        <ele>192</ele>
        <time>2016-05-05T14:26:57.000Z</time>
      </trkpt>
      <trkpt lat="48.86632" lon="0.89194">
        <ele>192</ele>
        <time>2016-05-05T14:27:03.000Z</time>
      </trkpt>
      <trkpt lat="48.86631" lon="0.89192">
        <ele>192</ele>
        <time>2016-05-05T14:27:04.000Z</time>
      </trkpt>
      <trkpt lat="48.86626" lon="0.89181">
        <ele>192</ele>
        <time>2016-05-05T14:27:11.000Z</time>
      </trkpt>
      <trkpt lat="48.8662" lon="0.8917">
        <ele>192</ele>
        <time>2016-05-05T14:27:18.000Z</time>
      </trkpt>
      <trkpt lat="48.86614" lon="0.89158">
        <ele>192</ele>
        <time>2016-05-05T14:27:25.000Z</time>
      </trkpt>
      <trkpt lat="48.86608" lon="0.89149">
        <ele>192</ele>
        <time>2016-05-05T14:27:31.000Z</time>
      </trkpt>
      <trkpt lat="48.86601" lon="0.89136">
        <ele>192</ele>
        <time>2016-05-05T14:27:40.000Z</time>
      </trkpt>
      <trkpt lat="48.86597" lon="0.89131">
        <ele>191.80000305176</ele>
        <time>2016-05-05T14:27:44.000Z</time>
      </trkpt>
      <trkpt lat="48.86595" lon="0.89128">
        <ele>191.80000305176</ele>
        <time>2016-05-05T14:27:46.000Z</time>
      </trkpt>
      <trkpt lat="48.86589" lon="0.89116">
        <ele>191.39999389648</ele>
        <time>2016-05-05T14:27:54.000Z</time>
      </trkpt>
      <trkpt lat="48.86582" lon="0.89103">
        <ele>191.19999694824</ele>
        <time>2016-05-05T14:28:02.000Z</time>
      </trkpt>
      <trkpt lat="48.86575" lon="0.89094">
        <ele>191</ele>
        <time>2016-05-05T14:28:09.000Z</time>
      </trkpt>
      <trkpt lat="48.86568" lon="0.89082">
        <ele>190.80000305176</ele>
        <time>2016-05-05T14:28:17.000Z</time>
      </trkpt>
      <trkpt lat="48.86568" lon="0.8908">
        <ele>190.80000305176</ele>
        <time>2016-05-05T14:28:18.000Z</time>
      </trkpt>
      <trkpt lat="48.86565" lon="0.89074">
        <ele>190.80000305176</ele>
        <time>2016-05-05T14:28:22.000Z</time>
      </trkpt>
      <trkpt lat="48.86564" lon="0.89072">
        <ele>190.60000610352</ele>
        <time>2016-05-05T14:28:23.000Z</time>
      </trkpt>
      <trkpt lat="48.86563" lon="0.89067">
        <ele>190.60000610352</ele>
        <time>2016-05-05T14:28:26.000Z</time>
      </trkpt>
      <trkpt lat="48.86563" lon="0.89066">
        <ele>190.60000610352</ele>
        <time>2016-05-05T14:28:29.000Z</time>
      </trkpt>
      <trkpt lat="48.86553" lon="0.89043">
        <ele>190.39999389648</ele>
        <time>2016-05-05T14:28:47.000Z</time>
      </trkpt>
      <trkpt lat="48.8655" lon="0.89039">
        <ele>190.39999389648</ele>
        <time>2016-05-05T14:28:50.000Z</time>
      </trkpt>
      <trkpt lat="48.86544" lon="0.89031">
        <ele>190.19999694824</ele>
        <time>2016-05-05T14:28:57.000Z</time>
      </trkpt>
      <trkpt lat="48.86543" lon="0.8903">
        <ele>190.19999694824</ele>
        <time>2016-05-05T14:28:58.000Z</time>
      </trkpt>
      <trkpt lat="48.86542" lon="0.89028">
        <ele>190.19999694824</ele>
        <time>2016-05-05T14:28:59.000Z</time>
      </trkpt>
      <trkpt lat="48.86543" lon="0.89027">
        <ele>190.19999694824</ele>
        <time>2016-05-05T14:29:02.000Z</time>
      </trkpt>
      <trkpt lat="48.86536" lon="0.89002">
        <ele>190.19999694824</ele>
        <time>2016-05-05T14:29:30.000Z</time>
      </trkpt>
      <trkpt lat="48.86533" lon="0.88998">
        <ele>190.19999694824</ele>
        <time>2016-05-05T14:29:33.000Z</time>
      </trkpt>
      <trkpt lat="48.86529" lon="0.88994">
        <ele>190</ele>
        <time>2016-05-05T14:29:36.000Z</time>
      </trkpt>
      <trkpt lat="48.86529" lon="0.88992">
        <ele>190</ele>
        <time>2016-05-05T14:29:37.000Z</time>
      </trkpt>
      <trkpt lat="48.86526" lon="0.88986">
        <ele>190</ele>
        <time>2016-05-05T14:29:41.000Z</time>
      </trkpt>
      <trkpt lat="48.86525" lon="0.88984">
        <ele>190</ele>
        <time>2016-05-05T14:29:42.000Z</time>
      </trkpt>
      <trkpt lat="48.86521" lon="0.88981">
        <ele>190</ele>
        <time>2016-05-05T14:29:46.000Z</time>
      </trkpt>
      <trkpt lat="48.86519" lon="0.88978">
        <ele>190</ele>
        <time>2016-05-05T14:29:49.000Z</time>
      </trkpt>
      <trkpt lat="48.86514" lon="0.88969">
        <ele>189.80000305176</ele>
        <time>2016-05-05T14:29:55.000Z</time>
      </trkpt>
      <trkpt lat="48.86512" lon="0.88967">
        <ele>189.80000305176</ele>
        <time>2016-05-05T14:29:57.000Z</time>
      </trkpt>
      <trkpt lat="48.86509" lon="0.88961">
        <ele>190</ele>
        <time>2016-05-05T14:30:01.000Z</time>
      </trkpt>
      <trkpt lat="48.86502" lon="0.88949">
        <ele>190</ele>
        <time>2016-05-05T14:30:09.000Z</time>
      </trkpt>
      <trkpt lat="48.86498" lon="0.88939">
        <ele>190.19999694824</ele>
        <time>2016-05-05T14:30:16.000Z</time>
      </trkpt>
      <trkpt lat="48.86498" lon="0.88938">
        <ele>190.19999694824</ele>
        <time>2016-05-05T14:30:17.000Z</time>
      </trkpt>
      <trkpt lat="48.86498" lon="0.88938">
        <ele>190.19999694824</ele>
        <time>2016-05-05T14:30:18.000Z</time>
      </trkpt>
      <trkpt lat="48.86535" lon="0.88783">
        <ele>195.39999389648</ele>
        <time>2016-05-05T14:32:59.000Z</time>
      </trkpt>
      <trkpt lat="48.86538" lon="0.88778">
        <ele>195.60000610352</ele>
        <time>2016-05-05T14:33:03.000Z</time>
      </trkpt>
      <trkpt lat="48.86542" lon="0.88773">
        <ele>195.60000610352</ele>
        <time>2016-05-05T14:33:07.000Z</time>
      </trkpt>
      <trkpt lat="48.86545" lon="0.88769">
        <ele>195.80000305176</ele>
        <time>2016-05-05T14:33:10.000Z</time>
      </trkpt>
      <trkpt lat="48.86548" lon="0.88766">
        <ele>195.80000305176</ele>
        <time>2016-05-05T14:33:13.000Z</time>
      </trkpt>
      <trkpt lat="48.86552" lon="0.88759">
        <ele>196</ele>
        <time>2016-05-05T14:33:18.000Z</time>
      </trkpt>
      <trkpt lat="48.86561" lon="0.88748">
        <ele>196.19999694824</ele>
        <time>2016-05-05T14:33:27.000Z</time>
      </trkpt>
      <trkpt lat="48.86567" lon="0.88739">
        <ele>196.19999694824</ele>
        <time>2016-05-05T14:33:34.000Z</time>
      </trkpt>
      <trkpt lat="48.86572" lon="0.88732">
        <ele>196.19999694824</ele>
        <time>2016-05-05T14:33:40.000Z</time>
      </trkpt>
      <trkpt lat="48.86579" lon="0.88722">
        <ele>196.39999389648</ele>
        <time>2016-05-05T14:33:48.000Z</time>
      </trkpt>
      <trkpt lat="48.86587" lon="0.88713">
        <ele>196.60000610352</ele>
        <time>2016-05-05T14:33:56.000Z</time>
      </trkpt>
      <trkpt lat="48.86594" lon="0.88705">
        <ele>196.60000610352</ele>
        <time>2016-05-05T14:34:03.000Z</time>
      </trkpt>
      <trkpt lat="48.86602" lon="0.88696">
        <ele>195.80000305176</ele>
        <time>2016-05-05T14:34:12.000Z</time>
      </trkpt>
      <trkpt lat="48.86603" lon="0.88694">
        <ele>195.80000305176</ele>
        <time>2016-05-05T14:34:13.000Z</time>
      </trkpt>
      <trkpt lat="48.86607" lon="0.88689">
        <ele>195.39999389648</ele>
        <time>2016-05-05T14:34:17.000Z</time>
      </trkpt>
      <trkpt lat="48.86612" lon="0.88681">
        <ele>195</ele>
        <time>2016-05-05T14:34:23.000Z</time>
      </trkpt>
      <trkpt lat="48.86613" lon="0.88679">
        <ele>195</ele>
        <time>2016-05-05T14:34:25.000Z</time>
      </trkpt>
      <trkpt lat="48.86616" lon="0.88674">
        <ele>194.80000305176</ele>
        <time>2016-05-05T14:34:28.000Z</time>
      </trkpt>
      <trkpt lat="48.86618" lon="0.88671">
        <ele>194.60000610352</ele>
        <time>2016-05-05T14:34:31.000Z</time>
      </trkpt>
      <trkpt lat="48.86622" lon="0.88666">
        <ele>194.39999389648</ele>
        <time>2016-05-05T14:34:36.000Z</time>
      </trkpt>
      <trkpt lat="48.86623" lon="0.88664">
        <ele>194.39999389648</ele>
        <time>2016-05-05T14:34:37.000Z</time>
      </trkpt>
      <trkpt lat="48.86631" lon="0.88656">
        <ele>194.19999694824</ele>
        <time>2016-05-05T14:34:45.000Z</time>
      </trkpt>
      <trkpt lat="48.86638" lon="0.8865">
        <ele>194.39999389648</ele>
        <time>2016-05-05T14:34:51.000Z</time>
      </trkpt>
      <trkpt lat="48.86644" lon="0.88641">
        <ele>194.39999389648</ele>
        <time>2016-05-05T14:34:59.000Z</time>
      </trkpt>
      <trkpt lat="48.8665" lon="0.88634">
        <ele>194.60000610352</ele>
        <time>2016-05-05T14:35:06.000Z</time>
      </trkpt>
      <trkpt lat="48.86654" lon="0.88627">
        <ele>194.80000305176</ele>
        <time>2016-05-05T14:35:12.000Z</time>
      </trkpt>
      <trkpt lat="48.86655" lon="0.88626">
        <ele>195</ele>
        <time>2016-05-05T14:35:13.000Z</time>
      </trkpt>
      <trkpt lat="48.86658" lon="0.88621">
        <ele>195</ele>
        <time>2016-05-05T14:35:17.000Z</time>
      </trkpt>
      <trkpt lat="48.86658" lon="0.8862">
        <ele>195.19999694824</ele>
        <time>2016-05-05T14:35:18.000Z</time>
      </trkpt>
      <trkpt lat="48.86664" lon="0.88611">
        <ele>195.19999694824</ele>
        <time>2016-05-05T14:35:27.000Z</time>
      </trkpt>
      <trkpt lat="48.86668" lon="0.88607">
        <ele>195.19999694824</ele>
        <time>2016-05-05T14:35:32.000Z</time>
      </trkpt>
      <trkpt lat="48.86668" lon="0.88608">
        <ele>195.19999694824</ele>
        <time>2016-05-05T14:35:33.000Z</time>
      </trkpt>
      <trkpt lat="48.86896" lon="0.88297">
        <ele>199</ele>
        <time>2016-05-05T14:41:35.000Z</time>
      </trkpt>
      <trkpt lat="48.869" lon="0.88292">
        <ele>199.19999694824</ele>
        <time>2016-05-05T14:41:39.000Z</time>
      </trkpt>
      <trkpt lat="48.86903" lon="0.88287">
        <ele>199.39999389648</ele>
        <time>2016-05-05T14:41:42.000Z</time>
      </trkpt>
      <trkpt lat="48.86907" lon="0.88281">
        <ele>199.80000305176</ele>
        <time>2016-05-05T14:41:47.000Z</time>
      </trkpt>
      <trkpt lat="48.86908" lon="0.88279">
        <ele>199.80000305176</ele>
        <time>2016-05-05T14:41:49.000Z</time>
      </trkpt>
      <trkpt lat="48.86911" lon="0.88276">
        <ele>200</ele>
        <time>2016-05-05T14:41:52.000Z</time>
      </trkpt>
      <trkpt lat="48.86914" lon="0.88272">
        <ele>199.80000305176</ele>
        <time>2016-05-05T14:41:56.000Z</time>
      </trkpt>
      <trkpt lat="48.86914" lon="0.8827">
        <ele>199.60000610352</ele>
        <time>2016-05-05T14:41:57.000Z</time>
      </trkpt>
      <trkpt lat="48.86917" lon="0.88266">
        <ele>199.60000610352</ele>
        <time>2016-05-05T14:42:01.000Z</time>
      </trkpt>
      <trkpt lat="48.86918" lon="0.88266">
        <ele>199.60000610352</ele>
        <time>2016-05-05T14:42:02.000Z</time>
      </trkpt>
      <trkpt lat="48.86925" lon="0.88261">
        <ele>199.39999389648</ele>
        <time>2016-05-05T14:42:10.000Z</time>
      </trkpt>
      <trkpt lat="48.86925" lon="0.8826">
        <ele>199.39999389648</ele>
        <time>2016-05-05T14:42:11.000Z</time>
      </trkpt>
      <trkpt lat="48.86928" lon="0.88257">
        <ele>199.19999694824</ele>
        <time>2016-05-05T14:42:15.000Z</time>
      </trkpt>
      <trkpt lat="48.86928" lon="0.88257">
        <ele>199.19999694824</ele>
        <time>2016-05-05T14:42:16.000Z</time>
      </trkpt>
      <trkpt lat="48.86928" lon="0.88257">
        <ele>199.19999694824</ele>
        <time>2016-05-05T14:42:17.000Z</time>
      </trkpt>
      <trkpt lat="48.8695" lon="0.88278">
        <ele>200</ele>
        <time>2016-05-05T14:50:27.000Z</time>
      </trkpt>
      <trkpt lat="48.8695" lon="0.88279">
        <ele>200</ele>
        <time>2016-05-05T14:50:28.000Z</time>
      </trkpt>
      <trkpt lat="48.8695" lon="0.88279">
        <ele>200</ele>
        <time>2016-05-05T14:50:29.000Z</time>
      </trkpt>
      <trkpt lat="48.86935" lon="0.8826">
        <ele>199.39999389648</ele>
        <time>2016-05-05T14:55:42.000Z</time>
      </trkpt>
      <trkpt lat="48.86931" lon="0.88259">
        <ele>199.19999694824</ele>
        <time>2016-05-05T14:55:45.000Z</time>
      </trkpt>
      <trkpt lat="48.86929" lon="0.88255">
        <ele>199.19999694824</ele>
        <time>2016-05-05T14:55:47.000Z</time>
      </trkpt>
      <trkpt lat="48.86927" lon="0.88254">
        <ele>199</ele>
        <time>2016-05-05T14:55:49.000Z</time>
      </trkpt>
      <trkpt lat="48.86921" lon="0.88247">
        <ele>198.80000305176</ele>
        <time>2016-05-05T14:55:55.000Z</time>
      </trkpt>
      <trkpt lat="48.86917" lon="0.88246">
        <ele>198.80000305176</ele>
        <time>2016-05-05T14:55:59.000Z</time>
      </trkpt>
      <trkpt lat="48.86916" lon="0.88245">
        <ele>198.80000305176</ele>
        <time>2016-05-05T14:56:00.000Z</time>
      </trkpt>
      <trkpt lat="48.86912" lon="0.88244">
        <ele>198.80000305176</ele>
        <time>2016-05-05T14:56:03.000Z</time>
      </trkpt>
      <trkpt lat="48.86909" lon="0.8824">
        <ele>198.60000610352</ele>
        <time>2016-05-05T14:56:06.000Z</time>
      </trkpt>
      <trkpt lat="48.86908" lon="0.88237">
        <ele>198.60000610352</ele>
        <time>2016-05-05T14:56:08.000Z</time>
      </trkpt>
      <trkpt lat="48.86905" lon="0.88235">
        <ele>198.39999389648</ele>
        <time>2016-05-05T14:56:11.000Z</time>
      </trkpt>
      <trkpt lat="48.86902" lon="0.88232">
        <ele>198.39999389648</ele>
        <time>2016-05-05T14:56:14.000Z</time>
      </trkpt>
      <trkpt lat="48.86901" lon="0.88231">
        <ele>198.19999694824</ele>
        <time>2016-05-05T14:56:15.000Z</time>
      </trkpt>
      <trkpt lat="48.86898" lon="0.88226">
        <ele>198.19999694824</ele>
        <time>2016-05-05T14:56:19.000Z</time>
      </trkpt>
      <trkpt lat="48.86896" lon="0.88222">
        <ele>198</ele>
        <time>2016-05-05T14:56:22.000Z</time>
      </trkpt>
      <trkpt lat="48.86894" lon="0.8822">
        <ele>198</ele>
        <time>2016-05-05T14:56:24.000Z</time>
      </trkpt>
      <trkpt lat="48.8689" lon="0.88218">
        <ele>198</ele>
        <time>2016-05-05T14:56:28.000Z</time>
      </trkpt>
      <trkpt lat="48.86885" lon="0.88212">
        <ele>198.19999694824</ele>
        <time>2016-05-05T14:56:33.000Z</time>
      </trkpt>
      <trkpt lat="48.86884" lon="0.88212">
        <ele>198.19999694824</ele>
        <time>2016-05-05T14:56:34.000Z</time>
      </trkpt>
      <trkpt lat="48.86885" lon="0.88212">
        <ele>198.19999694824</ele>
        <time>2016-05-05T14:56:36.000Z</time>
      </trkpt>
      <trkpt lat="48.86868" lon="0.8819">
        <ele>198.39999389648</ele>
        <time>2016-05-05T14:56:57.000Z</time>
      </trkpt>
      <trkpt lat="48.86867" lon="0.88189">
        <ele>198.39999389648</ele>
        <time>2016-05-05T14:56:58.000Z</time>
      </trkpt>
      <trkpt lat="48.86861" lon="0.88179">
        <ele>198.60000610352</ele>
        <time>2016-05-05T14:57:05.000Z</time>
      </trkpt>
      <trkpt lat="48.86855" lon="0.8817">
        <ele>198.60000610352</ele>
        <time>2016-05-05T14:57:13.000Z</time>
      </trkpt>
      <trkpt lat="48.8685" lon="0.88162">
        <ele>198.60000610352</ele>
        <time>2016-05-05T14:57:19.000Z</time>
      </trkpt>
      <trkpt lat="48.86843" lon="0.88153">
        <ele>198.39999389648</ele>
        <time>2016-05-05T14:57:27.000Z</time>
      </trkpt>
      <trkpt lat="48.86838" lon="0.88146">
        <ele>198.19999694824</ele>
        <time>2016-05-05T14:57:34.000Z</time>
      </trkpt>
      <trkpt lat="48.86832" lon="0.88139">
        <ele>198.19999694824</ele>
        <time>2016-05-05T14:57:41.000Z</time>
      </trkpt>
      <trkpt lat="48.86823" lon="0.88127">
        <ele>198.19999694824</ele>
        <time>2016-05-05T14:57:51.000Z</time>
      </trkpt>
      <trkpt lat="48.86815" lon="0.88115">
        <ele>198.19999694824</ele>
        <time>2016-05-05T14:57:59.000Z</time>
      </trkpt>
      <trkpt lat="48.86807" lon="0.88104">
        <ele>198.19999694824</ele>
        <time>2016-05-05T14:58:07.000Z</time>
      </trkpt>
      <trkpt lat="48.86801" lon="0.88096">
        <ele>198</ele>
        <time>2016-05-05T14:58:14.000Z</time>
      </trkpt>
      <trkpt lat="48.86796" lon="0.88088">
        <ele>198</ele>
        <time>2016-05-05T14:58:21.000Z</time>
      </trkpt>
      <trkpt lat="48.86789" lon="0.88078">
        <ele>198</ele>
        <time>2016-05-05T14:58:28.000Z</time>
      </trkpt>
      <trkpt lat="48.8678" lon="0.88065">
        <ele>198</ele>
        <time>2016-05-05T14:58:38.000Z</time>
      </trkpt>
      <trkpt lat="48.8677" lon="0.88053">
        <ele>198</ele>
        <time>2016-05-05T14:58:48.000Z</time>
      </trkpt>
      <trkpt lat="48.86766" lon="0.88046">
        <ele>198</ele>
        <time>2016-05-05T14:58:53.000Z</time>
      </trkpt>
      <trkpt lat="48.86764" lon="0.88044">
        <ele>198</ele>
        <time>2016-05-05T14:58:55.000Z</time>
      </trkpt>
      <trkpt lat="48.86758" lon="0.88037">
        <ele>198</ele>
        <time>2016-05-05T14:59:01.000Z</time>
      </trkpt>
      <trkpt lat="48.86757" lon="0.88036">
        <ele>198</ele>
        <time>2016-05-05T14:59:02.000Z</time>
      </trkpt>
      <trkpt lat="48.86749" lon="0.88024">
        <ele>198</ele>
        <time>2016-05-05T14:59:11.000Z</time>
      </trkpt>
      <trkpt lat="48.86739" lon="0.88013">
        <ele>198</ele>
        <time>2016-05-05T14:59:20.000Z</time>
      </trkpt>
      <trkpt lat="48.86731" lon="0.88001">
        <ele>198</ele>
        <time>2016-05-05T14:59:29.000Z</time>
      </trkpt>
      <trkpt lat="48.8673" lon="0.88">
        <ele>198</ele>
        <time>2016-05-05T14:59:30.000Z</time>
      </trkpt>
      <trkpt lat="48.86719" lon="0.87987">
        <ele>198</ele>
        <time>2016-05-05T14:59:40.000Z</time>
      </trkpt>
      <trkpt lat="48.86711" lon="0.87978">
        <ele>198.19999694824</ele>
        <time>2016-05-05T14:59:48.000Z</time>
      </trkpt>
      <trkpt lat="48.86704" lon="0.87967">
        <ele>198.39999389648</ele>
        <time>2016-05-05T14:59:56.000Z</time>
      </trkpt>
      <trkpt lat="48.86697" lon="0.8796">
        <ele>198.60000610352</ele>
        <time>2016-05-05T15:00:03.000Z</time>
      </trkpt>
      <trkpt lat="48.86687" lon="0.87947">
        <ele>199</ele>
        <time>2016-05-05T15:00:13.000Z</time>
      </trkpt>
      <trkpt lat="48.8668" lon="0.87936">
        <ele>199</ele>
        <time>2016-05-05T15:00:22.000Z</time>
      </trkpt>
      <trkpt lat="48.86678" lon="0.87932">
        <ele>199</ele>
        <time>2016-05-05T15:00:25.000Z</time>
      </trkpt>
      <trkpt lat="48.86676" lon="0.87928">
        <ele>199</ele>
        <time>2016-05-05T15:00:28.000Z</time>
      </trkpt>
      <trkpt lat="48.86674" lon="0.87927">
        <ele>199</ele>
        <time>2016-05-05T15:00:30.000Z</time>
      </trkpt>
      <trkpt lat="48.86674" lon="0.87926">
        <ele>199</ele>
        <time>2016-05-05T15:00:32.000Z</time>
      </trkpt>
      <trkpt lat="48.86692" lon="0.87859">
        <ele>197.80000305176</ele>
        <time>2016-05-05T15:08:33.000Z</time>
      </trkpt>
      <trkpt lat="48.86694" lon="0.87853">
        <ele>197.60000610352</ele>
        <time>2016-05-05T15:08:37.000Z</time>
      </trkpt>
      <trkpt lat="48.86698" lon="0.87846">
        <ele>197.19999694824</ele>
        <time>2016-05-05T15:08:43.000Z</time>
      </trkpt>
      <trkpt lat="48.86698" lon="0.87843">
        <ele>197</ele>
        <time>2016-05-05T15:08:46.000Z</time>
      </trkpt>
      <trkpt lat="48.86696" lon="0.87844">
        <ele>197.19999694824</ele>
        <time>2016-05-05T15:08:47.000Z</time>
      </trkpt>
      <trkpt lat="48.86697" lon="0.87841">
        <ele>197</ele>
        <time>2016-05-05T15:08:48.000Z</time>
      </trkpt>
      <trkpt lat="48.86701" lon="0.87836">
        <ele>196.60000610352</ele>
        <time>2016-05-05T15:08:52.000Z</time>
      </trkpt>
      <trkpt lat="48.86703" lon="0.87834">
        <ele>196.60000610352</ele>
        <time>2016-05-05T15:08:54.000Z</time>
      </trkpt>
      <trkpt lat="48.86704" lon="0.87832">
        <ele>196.39999389648</ele>
        <time>2016-05-05T15:08:56.000Z</time>
      </trkpt>
      <trkpt lat="48.86709" lon="0.87827">
        <ele>196</ele>
        <time>2016-05-05T15:09:01.000Z</time>
      </trkpt>
      <trkpt lat="48.8671" lon="0.87825">
        <ele>196</ele>
        <time>2016-05-05T15:09:02.000Z</time>
      </trkpt>
      <trkpt lat="48.86714" lon="0.8782">
        <ele>195.80000305176</ele>
        <time>2016-05-05T15:09:08.000Z</time>
      </trkpt>
      <trkpt lat="48.86723" lon="0.87809">
        <ele>195.60000610352</ele>
        <time>2016-05-05T15:09:16.000Z</time>
      </trkpt>
      <trkpt lat="48.86727" lon="0.87803">
        <ele>195.39999389648</ele>
        <time>2016-05-05T15:09:21.000Z</time>
      </trkpt>
      <trkpt lat="48.86727" lon="0.878">
        <ele>195.39999389648</ele>
        <time>2016-05-05T15:09:22.000Z</time>
      </trkpt>
      <trkpt lat="48.86729" lon="0.87798">
        <ele>195.39999389648</ele>
        <time>2016-05-05T15:09:25.000Z</time>
      </trkpt>
      <trkpt lat="48.86731" lon="0.87797">
        <ele>195.19999694824</ele>
        <time>2016-05-05T15:09:26.000Z</time>
      </trkpt>
      <trkpt lat="48.86739" lon="0.87787">
        <ele>195</ele>
        <time>2016-05-05T15:09:34.000Z</time>
      </trkpt>
      <trkpt lat="48.86742" lon="0.8778">
        <ele>194.80000305176</ele>
        <time>2016-05-05T15:09:40.000Z</time>
      </trkpt>
      <trkpt lat="48.86747" lon="0.87775">
        <ele>194.60000610352</ele>
        <time>2016-05-05T15:09:45.000Z</time>
      </trkpt>
      <trkpt lat="48.8675" lon="0.8777">
        <ele>194.60000610352</ele>
        <time>2016-05-05T15:09:48.000Z</time>
      </trkpt>
      <trkpt lat="48.8675" lon="0.87766">
        <ele>194.60000610352</ele>
        <time>2016-05-05T15:09:50.000Z</time>
      </trkpt>
      <trkpt lat="48.86753" lon="0.8776">
        <ele>194.39999389648</ele>
        <time>2016-05-05T15:09:55.000Z</time>
      </trkpt>
      <trkpt lat="48.86758" lon="0.87752">
        <ele>194.39999389648</ele>
        <time>2016-05-05T15:10:01.000Z</time>
      </trkpt>
      <trkpt lat="48.86761" lon="0.87747">
        <ele>194.19999694824</ele>
        <time>2016-05-05T15:10:05.000Z</time>
      </trkpt>
      <trkpt lat="48.86763" lon="0.87744">
        <ele>194.19999694824</ele>
        <time>2016-05-05T15:10:07.000Z</time>
      </trkpt>
      <trkpt lat="48.86765" lon="0.87739">
        <ele>194.19999694824</ele>
        <time>2016-05-05T15:10:11.000Z</time>
      </trkpt>
      <trkpt lat="48.86766" lon="0.87738">
        <ele>194.19999694824</ele>
        <time>2016-05-05T15:10:12.000Z</time>
      </trkpt>
      <trkpt lat="48.86771" lon="0.87731">
        <ele>194.19999694824</ele>
        <time>2016-05-05T15:10:17.000Z</time>
      </trkpt>
      <trkpt lat="48.86774" lon="0.87728">
        <ele>194</ele>
        <time>2016-05-05T15:10:20.000Z</time>
      </trkpt>
      <trkpt lat="48.86775" lon="0.87728">
        <ele>194.19999694824</ele>
        <time>2016-05-05T15:10:21.000Z</time>
      </trkpt>
      <trkpt lat="48.86778" lon="0.87722">
        <ele>194.19999694824</ele>
        <time>2016-05-05T15:10:26.000Z</time>
      </trkpt>
      <trkpt lat="48.86784" lon="0.87715">
        <ele>194.60000610352</ele>
        <time>2016-05-05T15:10:32.000Z</time>
      </trkpt>
      <trkpt lat="48.86787" lon="0.87709">
        <ele>194.60000610352</ele>
        <time>2016-05-05T15:10:35.000Z</time>
      </trkpt>
      <trkpt lat="48.86788" lon="0.87707">
        <ele>194.80000305176</ele>
        <time>2016-05-05T15:10:37.000Z</time>
      </trkpt>
      <trkpt lat="48.8679" lon="0.87704">
        <ele>194.80000305176</ele>
        <time>2016-05-05T15:10:40.000Z</time>
      </trkpt>
      <trkpt lat="48.8679" lon="0.87702">
        <ele>194.80000305176</ele>
        <time>2016-05-05T15:10:41.000Z</time>
      </trkpt>
      <trkpt lat="48.86791" lon="0.87701">
        <ele>194.80000305176</ele>
        <time>2016-05-05T15:10:42.000Z</time>
      </trkpt>
      <trkpt lat="48.86795" lon="0.87696">
        <ele>195</ele>
        <time>2016-05-05T15:10:46.000Z</time>
      </trkpt>
      <trkpt lat="48.86796" lon="0.87694">
        <ele>195.19999694824</ele>
        <time>2016-05-05T15:10:47.000Z</time>
      </trkpt>
      <trkpt lat="48.86797" lon="0.87692">
        <ele>195.19999694824</ele>
        <time>2016-05-05T15:10:48.000Z</time>
      </trkpt>
      <trkpt lat="48.86798" lon="0.87687">
        <ele>195.19999694824</ele>
        <time>2016-05-05T15:10:51.000Z</time>
      </trkpt>
      <trkpt lat="48.86799" lon="0.87686">
        <ele>195.19999694824</ele>
        <time>2016-05-05T15:10:52.000Z</time>
      </trkpt>
      <trkpt lat="48.86802" lon="0.87681">
        <ele>195.39999389648</ele>
        <time>2016-05-05T15:10:55.000Z</time>
      </trkpt>
      <trkpt lat="48.86803" lon="0.87679">
        <ele>195.39999389648</ele>
        <time>2016-05-05T15:10:56.000Z</time>
      </trkpt>
      <trkpt lat="48.86805" lon="0.87676">
        <ele>195.60000610352</ele>
        <time>2016-05-05T15:10:58.000Z</time>
      </trkpt>
      <trkpt lat="48.8681" lon="0.87669">
        <ele>195.80000305176</ele>
        <time>2016-05-05T15:11:02.000Z</time>
      </trkpt>
      <trkpt lat="48.86812" lon="0.87666">
        <ele>195.80000305176</ele>
        <time>2016-05-05T15:11:04.000Z</time>
      </trkpt>
      <trkpt lat="48.86812" lon="0.87665">
        <ele>195.80000305176</ele>
        <time>2016-05-05T15:11:05.000Z</time>
      </trkpt>
      <trkpt lat="48.86815" lon="0.8766">
        <ele>196</ele>
        <time>2016-05-05T15:11:08.000Z</time>
      </trkpt>
      <trkpt lat="48.86817" lon="0.87657">
        <ele>196.19999694824</ele>
        <time>2016-05-05T15:11:11.000Z</time>
      </trkpt>
      <trkpt lat="48.86818" lon="0.87656">
        <ele>196.19999694824</ele>
        <time>2016-05-05T15:11:12.000Z</time>
      </trkpt>
      <trkpt lat="48.86819" lon="0.87655">
        <ele>196.19999694824</ele>
        <time>2016-05-05T15:11:13.000Z</time>
      </trkpt>
      <trkpt lat="48.86827" lon="0.87643">
        <ele>196.60000610352</ele>
        <time>2016-05-05T15:11:21.000Z</time>
      </trkpt>
      <trkpt lat="48.86831" lon="0.87637">
        <ele>196.80000305176</ele>
        <time>2016-05-05T15:11:26.000Z</time>
      </trkpt>
      <trkpt lat="48.86832" lon="0.87634">
        <ele>197</ele>
        <time>2016-05-05T15:11:28.000Z</time>
      </trkpt>
      <trkpt lat="48.86832" lon="0.87633">
        <ele>197</ele>
        <time>2016-05-05T15:11:29.000Z</time>
      </trkpt>
      <trkpt lat="48.86834" lon="0.87631">
        <ele>197.19999694824</ele>
        <time>2016-05-05T15:11:31.000Z</time>
      </trkpt>
      <trkpt lat="48.86837" lon="0.87625">
        <ele>197.39999389648</ele>
        <time>2016-05-05T15:11:35.000Z</time>
      </trkpt>
      <trkpt lat="48.86838" lon="0.87624">
        <ele>197.39999389648</ele>
        <time>2016-05-05T15:11:36.000Z</time>
      </trkpt>
      <trkpt lat="48.86842" lon="0.87618">
        <ele>197.60000610352</ele>
        <time>2016-05-05T15:11:40.000Z</time>
      </trkpt>
      <trkpt lat="48.86843" lon="0.87617">
        <ele>197.60000610352</ele>
        <time>2016-05-05T15:11:41.000Z</time>
      </trkpt>
      <trkpt lat="48.8685" lon="0.8761">
        <ele>197.60000610352</ele>
        <time>2016-05-05T15:11:46.000Z</time>
      </trkpt>
      <trkpt lat="48.8685" lon="0.87609">
        <ele>197.60000610352</ele>
        <time>2016-05-05T15:11:47.000Z</time>
      </trkpt>
      <trkpt lat="48.86855" lon="0.87602">
        <ele>197.60000610352</ele>
        <time>2016-05-05T15:11:51.000Z</time>
      </trkpt>
      <trkpt lat="48.86858" lon="0.87598">
        <ele>197.60000610352</ele>
        <time>2016-05-05T15:11:53.000Z</time>
      </trkpt>
      <trkpt lat="48.86865" lon="0.87586">
        <ele>197.60000610352</ele>
        <time>2016-05-05T15:12:00.000Z</time>
      </trkpt>
      <trkpt lat="48.86866" lon="0.87584">
        <ele>197.60000610352</ele>
        <time>2016-05-05T15:12:02.000Z</time>
      </trkpt>
      <trkpt lat="48.86868" lon="0.87581">
        <ele>197.60000610352</ele>
        <time>2016-05-05T15:12:04.000Z</time>
      </trkpt>
      <trkpt lat="48.86874" lon="0.87571">
        <ele>197.60000610352</ele>
        <time>2016-05-05T15:12:10.000Z</time>
      </trkpt>
      <trkpt lat="48.86877" lon="0.87567">
        <ele>197.60000610352</ele>
        <time>2016-05-05T15:12:15.000Z</time>
      </trkpt>
      <trkpt lat="48.86881" lon="0.87562">
        <ele>197.60000610352</ele>
        <time>2016-05-05T15:12:20.000Z</time>
      </trkpt>
      <trkpt lat="48.86882" lon="0.87561">
        <ele>197.60000610352</ele>
        <time>2016-05-05T15:12:21.000Z</time>
      </trkpt>
      <trkpt lat="48.86885" lon="0.87554">
        <ele>197.60000610352</ele>
        <time>2016-05-05T15:12:24.000Z</time>
      </trkpt>
      <trkpt lat="48.86891" lon="0.87547">
        <ele>197.80000305176</ele>
        <time>2016-05-05T15:12:29.000Z</time>
      </trkpt>
      <trkpt lat="48.86891" lon="0.87546">
        <ele>197.80000305176</ele>
        <time>2016-05-05T15:12:30.000Z</time>
      </trkpt>
      <trkpt lat="48.86894" lon="0.8754">
        <ele>198</ele>
        <time>2016-05-05T15:12:34.000Z</time>
      </trkpt>
      <trkpt lat="48.869" lon="0.87533">
        <ele>198</ele>
        <time>2016-05-05T15:12:39.000Z</time>
      </trkpt>
      <trkpt lat="48.86903" lon="0.8753">
        <ele>198.19999694824</ele>
        <time>2016-05-05T15:12:42.000Z</time>
      </trkpt>
      <trkpt lat="48.86905" lon="0.87528">
        <ele>198.19999694824</ele>
        <time>2016-05-05T15:12:45.000Z</time>
      </trkpt>
      <trkpt lat="48.86906" lon="0.87526">
        <ele>198.19999694824</ele>
        <time>2016-05-05T15:12:47.000Z</time>
      </trkpt>
      <trkpt lat="48.86905" lon="0.87524">
        <ele>198.19999694824</ele>
        <time>2016-05-05T15:12:49.000Z</time>
      </trkpt>
      <trkpt lat="48.86908" lon="0.87519">
        <ele>198.39999389648</ele>
        <time>2016-05-05T15:12:53.000Z</time>
      </trkpt>
      <trkpt lat="48.86909" lon="0.87516">
        <ele>198.39999389648</ele>
        <time>2016-05-05T15:12:55.000Z</time>
      </trkpt>
      <trkpt lat="48.86909" lon="0.87515">
        <ele>198.39999389648</ele>
        <time>2016-05-05T15:12:56.000Z</time>
      </trkpt>
      <trkpt lat="48.8691" lon="0.87511">
        <ele>198.39999389648</ele>
        <time>2016-05-05T15:12:59.000Z</time>
      </trkpt>
      <trkpt lat="48.86911" lon="0.8751">
        <ele>198.60000610352</ele>
        <time>2016-05-05T15:13:00.000Z</time>
      </trkpt>
      <trkpt lat="48.86917" lon="0.87502">
        <ele>198.80000305176</ele>
        <time>2016-05-05T15:13:06.000Z</time>
      </trkpt>
      <trkpt lat="48.86922" lon="0.87497">
        <ele>199</ele>
        <time>2016-05-05T15:13:10.000Z</time>
      </trkpt>
      <trkpt lat="48.86923" lon="0.87496">
        <ele>199.19999694824</ele>
        <time>2016-05-05T15:13:11.000Z</time>
      </trkpt>
      <trkpt lat="48.86927" lon="0.87489">
        <ele>199.39999389648</ele>
        <time>2016-05-05T15:13:15.000Z</time>
      </trkpt>
      <trkpt lat="48.86935" lon="0.8748">
        <ele>199.80000305176</ele>
        <time>2016-05-05T15:13:22.000Z</time>
      </trkpt>
      <trkpt lat="48.86937" lon="0.87476">
        <ele>199.80000305176</ele>
        <time>2016-05-05T15:13:25.000Z</time>
      </trkpt>
      <trkpt lat="48.86939" lon="0.87471">
        <ele>200</ele>
        <time>2016-05-05T15:13:28.000Z</time>
      </trkpt>
      <trkpt lat="48.8694" lon="0.87469">
        <ele>200</ele>
        <time>2016-05-05T15:13:30.000Z</time>
      </trkpt>
      <trkpt lat="48.86942" lon="0.87468">
        <ele>200.19999694824</ele>
        <time>2016-05-05T15:13:31.000Z</time>
      </trkpt>
      <trkpt lat="48.86943" lon="0.87467">
        <ele>200.19999694824</ele>
        <time>2016-05-05T15:13:32.000Z</time>
      </trkpt>
      <trkpt lat="48.86949" lon="0.87459">
        <ele>200.39999389648</ele>
        <time>2016-05-05T15:13:38.000Z</time>
      </trkpt>
      <trkpt lat="48.8695" lon="0.87458">
        <ele>200.39999389648</ele>
        <time>2016-05-05T15:13:39.000Z</time>
      </trkpt>
      <trkpt lat="48.86956" lon="0.87449">
        <ele>200.60000610352</ele>
        <time>2016-05-05T15:13:45.000Z</time>
      </trkpt>
      <trkpt lat="48.86956" lon="0.87448">
        <ele>200.60000610352</ele>
        <time>2016-05-05T15:13:46.000Z</time>
      </trkpt>
      <trkpt lat="48.86957" lon="0.87446">
        <ele>200.80000305176</ele>
        <time>2016-05-05T15:13:48.000Z</time>
      </trkpt>
      <trkpt lat="48.86961" lon="0.87439">
        <ele>201</ele>
        <time>2016-05-05T15:13:52.000Z</time>
      </trkpt>
      <trkpt lat="48.86964" lon="0.87433">
        <ele>201</ele>
        <time>2016-05-05T15:13:57.000Z</time>
      </trkpt>
      <trkpt lat="48.86969" lon="0.87429">
        <ele>201.19999694824</ele>
        <time>2016-05-05T15:14:03.000Z</time>
      </trkpt>
      <trkpt lat="48.86974" lon="0.87426">
        <ele>201.39999389648</ele>
        <time>2016-05-05T15:14:07.000Z</time>
      </trkpt>
      <trkpt lat="48.86975" lon="0.87425">
        <ele>201.39999389648</ele>
        <time>2016-05-05T15:14:09.000Z</time>
      </trkpt>
      <trkpt lat="48.86995" lon="0.87403">
        <ele>203.19999694824</ele>
        <time>2016-05-05T15:14:35.000Z</time>
      </trkpt>
      <trkpt lat="48.86996" lon="0.87401">
        <ele>203.39999389648</ele>
        <time>2016-05-05T15:14:37.000Z</time>
      </trkpt>
      <trkpt lat="48.87002" lon="0.87393">
        <ele>203.80000305176</ele>
        <time>2016-05-05T15:14:44.000Z</time>
      </trkpt>
      <trkpt lat="48.8701" lon="0.87382">
        <ele>204.39999389648</ele>
        <time>2016-05-05T15:14:52.000Z</time>
      </trkpt>
      <trkpt lat="48.87013" lon="0.87374">
        <ele>204.60000610352</ele>
        <time>2016-05-05T15:14:58.000Z</time>
      </trkpt>
      <trkpt lat="48.87015" lon="0.87367">
        <ele>204.80000305176</ele>
        <time>2016-05-05T15:15:03.000Z</time>
      </trkpt>
      <trkpt lat="48.87018" lon="0.87357">
        <ele>204.80000305176</ele>
        <time>2016-05-05T15:15:09.000Z</time>
      </trkpt>
      <trkpt lat="48.87024" lon="0.87348">
        <ele>205</ele>
        <time>2016-05-05T15:15:16.000Z</time>
      </trkpt>
      <trkpt lat="48.8703" lon="0.87341">
        <ele>205</ele>
        <time>2016-05-05T15:15:19.000Z</time>
      </trkpt>
      <trkpt lat="48.87035" lon="0.87335">
        <ele>205</ele>
        <time>2016-05-05T15:15:25.000Z</time>
      </trkpt>
      <trkpt lat="48.87038" lon="0.8733">
        <ele>205</ele>
        <time>2016-05-05T15:15:28.000Z</time>
      </trkpt>
      <trkpt lat="48.87038" lon="0.87329">
        <ele>205</ele>
        <time>2016-05-05T15:15:29.000Z</time>
      </trkpt>
      <trkpt lat="48.8704" lon="0.87324">
        <ele>205</ele>
        <time>2016-05-05T15:15:32.000Z</time>
      </trkpt>
      <trkpt lat="48.87043" lon="0.87321">
        <ele>205</ele>
        <time>2016-05-05T15:15:34.000Z</time>
      </trkpt>
      <trkpt lat="48.87049" lon="0.87315">
        <ele>204.80000305176</ele>
        <time>2016-05-05T15:15:40.000Z</time>
      </trkpt>
      <trkpt lat="48.87051" lon="0.87312">
        <ele>204.80000305176</ele>
        <time>2016-05-05T15:15:43.000Z</time>
      </trkpt>
      <trkpt lat="48.87052" lon="0.87309">
        <ele>204.60000610352</ele>
        <time>2016-05-05T15:15:45.000Z</time>
      </trkpt>
      <trkpt lat="48.87054" lon="0.87305">
        <ele>204.60000610352</ele>
        <time>2016-05-05T15:15:48.000Z</time>
      </trkpt>
      <trkpt lat="48.87057" lon="0.87302">
        <ele>204.60000610352</ele>
        <time>2016-05-05T15:15:51.000Z</time>
      </trkpt>
      <trkpt lat="48.87058" lon="0.873">
        <ele>204.60000610352</ele>
        <time>2016-05-05T15:15:53.000Z</time>
      </trkpt>
      <trkpt lat="48.87059" lon="0.87299">
        <ele>204.60000610352</ele>
        <time>2016-05-05T15:15:54.000Z</time>
      </trkpt>
      <trkpt lat="48.8706" lon="0.87296">
        <ele>204.60000610352</ele>
        <time>2016-05-05T15:15:55.000Z</time>
      </trkpt>
      <trkpt lat="48.87064" lon="0.8729">
        <ele>204.60000610352</ele>
        <time>2016-05-05T15:16:00.000Z</time>
      </trkpt>
      <trkpt lat="48.87069" lon="0.87282">
        <ele>204.80000305176</ele>
        <time>2016-05-05T15:16:06.000Z</time>
      </trkpt>
      <trkpt lat="48.87074" lon="0.87274">
        <ele>204.80000305176</ele>
        <time>2016-05-05T15:16:13.000Z</time>
      </trkpt>
      <trkpt lat="48.87079" lon="0.87271">
        <ele>204.60000610352</ele>
        <time>2016-05-05T15:16:17.000Z</time>
      </trkpt>
      <trkpt lat="48.87082" lon="0.8727">
        <ele>204.60000610352</ele>
        <time>2016-05-05T15:16:19.000Z</time>
      </trkpt>
      <trkpt lat="48.87084" lon="0.87266">
        <ele>204.60000610352</ele>
        <time>2016-05-05T15:16:22.000Z</time>
      </trkpt>
      <trkpt lat="48.87086" lon="0.87264">
        <ele>204.39999389648</ele>
        <time>2016-05-05T15:16:24.000Z</time>
      </trkpt>
      <trkpt lat="48.87088" lon="0.87262">
        <ele>204.39999389648</ele>
        <time>2016-05-05T15:16:27.000Z</time>
      </trkpt>
      <trkpt lat="48.87092" lon="0.87259">
        <ele>204.39999389648</ele>
        <time>2016-05-05T15:16:31.000Z</time>
      </trkpt>
      <trkpt lat="48.87097" lon="0.87254">
        <ele>204.19999694824</ele>
        <time>2016-05-05T15:16:36.000Z</time>
      </trkpt>
      <trkpt lat="48.87099" lon="0.87248">
        <ele>204.19999694824</ele>
        <time>2016-05-05T15:16:40.000Z</time>
      </trkpt>
      <trkpt lat="48.871" lon="0.87246">
        <ele>204.19999694824</ele>
        <time>2016-05-05T15:16:42.000Z</time>
      </trkpt>
      <trkpt lat="48.87104" lon="0.87241">
        <ele>204</ele>
        <time>2016-05-05T15:16:46.000Z</time>
      </trkpt>
      <trkpt lat="48.87105" lon="0.8724">
        <ele>204</ele>
        <time>2016-05-05T15:16:47.000Z</time>
      </trkpt>
      <trkpt lat="48.87109" lon="0.87234">
        <ele>204</ele>
        <time>2016-05-05T15:16:52.000Z</time>
      </trkpt>
      <trkpt lat="48.8711" lon="0.87231">
        <ele>204</ele>
        <time>2016-05-05T15:16:54.000Z</time>
      </trkpt>
      <trkpt lat="48.87113" lon="0.87226">
        <ele>204.19999694824</ele>
        <time>2016-05-05T15:16:57.000Z</time>
      </trkpt>
      <trkpt lat="48.87114" lon="0.87223">
        <ele>204.19999694824</ele>
        <time>2016-05-05T15:16:59.000Z</time>
      </trkpt>
      <trkpt lat="48.87116" lon="0.87222">
        <ele>204.19999694824</ele>
        <time>2016-05-05T15:17:00.000Z</time>
      </trkpt>
      <trkpt lat="48.8712" lon="0.87215">
        <ele>204.19999694824</ele>
        <time>2016-05-05T15:17:05.000Z</time>
      </trkpt>
      <trkpt lat="48.8712" lon="0.87214">
        <ele>204.19999694824</ele>
        <time>2016-05-05T15:17:06.000Z</time>
      </trkpt>
      <trkpt lat="48.87121" lon="0.87212">
        <ele>204.19999694824</ele>
        <time>2016-05-05T15:17:07.000Z</time>
      </trkpt>
      <trkpt lat="48.87124" lon="0.87209">
        <ele>204.19999694824</ele>
        <time>2016-05-05T15:17:10.000Z</time>
      </trkpt>
      <trkpt lat="48.87127" lon="0.87205">
        <ele>204.19999694824</ele>
        <time>2016-05-05T15:17:14.000Z</time>
      </trkpt>
      <trkpt lat="48.87128" lon="0.87204">
        <ele>204.19999694824</ele>
        <time>2016-05-05T15:17:15.000Z</time>
      </trkpt>
      <trkpt lat="48.87135" lon="0.87196">
        <ele>204.39999389648</ele>
        <time>2016-05-05T15:17:22.000Z</time>
      </trkpt>
      <trkpt lat="48.87143" lon="0.87189">
        <ele>204.39999389648</ele>
        <time>2016-05-05T15:17:29.000Z</time>
      </trkpt>
      <trkpt lat="48.87147" lon="0.87184">
        <ele>204.39999389648</ele>
        <time>2016-05-05T15:17:35.000Z</time>
      </trkpt>
      <trkpt lat="48.87149" lon="0.87182">
        <ele>204.60000610352</ele>
        <time>2016-05-05T15:17:37.000Z</time>
      </trkpt>
      <trkpt lat="48.87152" lon="0.87176">
        <ele>204</ele>
        <time>2016-05-05T15:17:42.000Z</time>
      </trkpt>
      <trkpt lat="48.87153" lon="0.87174">
        <ele>204</ele>
        <time>2016-05-05T15:17:44.000Z</time>
      </trkpt>
      <trkpt lat="48.87155" lon="0.87169">
        <ele>203.60000610352</ele>
        <time>2016-05-05T15:17:48.000Z</time>
      </trkpt>
      <trkpt lat="48.87157" lon="0.87166">
        <ele>203.39999389648</ele>
        <time>2016-05-05T15:17:51.000Z</time>
      </trkpt>
      <trkpt lat="48.87157" lon="0.87165">
        <ele>203.39999389648</ele>
        <time>2016-05-05T15:17:53.000Z</time>
      </trkpt>
      <trkpt lat="48.87161" lon="0.87158">
        <ele>203</ele>
        <time>2016-05-05T15:18:06.000Z</time>
      </trkpt>
      <trkpt lat="48.87162" lon="0.87157">
        <ele>202.80000305176</ele>
        <time>2016-05-05T15:18:09.000Z</time>
      </trkpt>
      <trkpt lat="48.87182" lon="0.87129">
        <ele>201</ele>
        <time>2016-05-05T15:18:39.000Z</time>
      </trkpt>
      <trkpt lat="48.87188" lon="0.87118">
        <ele>200.19999694824</ele>
        <time>2016-05-05T15:18:47.000Z</time>
      </trkpt>
      <trkpt lat="48.87196" lon="0.87105">
        <ele>199.80000305176</ele>
        <time>2016-05-05T15:18:56.000Z</time>
      </trkpt>
      <trkpt lat="48.87196" lon="0.87104">
        <ele>199.80000305176</ele>
        <time>2016-05-05T15:18:57.000Z</time>
      </trkpt>
      <trkpt lat="48.87196" lon="0.87104">
        <ele>199.80000305176</ele>
        <time>2016-05-05T15:18:59.000Z</time>
      </trkpt>
      <trkpt lat="48.87221" lon="0.87072">
        <ele>199.39999389648</ele>
        <time>2016-05-05T15:19:41.000Z</time>
      </trkpt>
      <trkpt lat="48.87221" lon="0.8707">
        <ele>199.39999389648</ele>
        <time>2016-05-05T15:19:42.000Z</time>
      </trkpt>
      <trkpt lat="48.87226" lon="0.87061">
        <ele>199.60000610352</ele>
        <time>2016-05-05T15:19:47.000Z</time>
      </trkpt>
      <trkpt lat="48.87231" lon="0.87055">
        <ele>200</ele>
        <time>2016-05-05T15:19:53.000Z</time>
      </trkpt>
      <trkpt lat="48.87234" lon="0.87051">
        <ele>200.19999694824</ele>
        <time>2016-05-05T15:19:56.000Z</time>
      </trkpt>
      <trkpt lat="48.87236" lon="0.87048">
        <ele>200.39999389648</ele>
        <time>2016-05-05T15:19:58.000Z</time>
      </trkpt>
      <trkpt lat="48.87241" lon="0.87038">
        <ele>201</ele>
        <time>2016-05-05T15:20:05.000Z</time>
      </trkpt>
      <trkpt lat="48.87246" lon="0.87031">
        <ele>201.39999389648</ele>
        <time>2016-05-05T15:20:11.000Z</time>
      </trkpt>
      <trkpt lat="48.87249" lon="0.87025">
        <ele>201.39999389648</ele>
        <time>2016-05-05T15:20:16.000Z</time>
      </trkpt>
      <trkpt lat="48.87252" lon="0.8702">
        <ele>201.39999389648</ele>
        <time>2016-05-05T15:20:21.000Z</time>
      </trkpt>
      <trkpt lat="48.87253" lon="0.87019">
        <ele>201.39999389648</ele>
        <time>2016-05-05T15:20:22.000Z</time>
      </trkpt>
      <trkpt lat="48.87257" lon="0.87012">
        <ele>201.19999694824</ele>
        <time>2016-05-05T15:20:28.000Z</time>
      </trkpt>
      <trkpt lat="48.87264" lon="0.87">
        <ele>201.19999694824</ele>
        <time>2016-05-05T15:20:36.000Z</time>
      </trkpt>
      <trkpt lat="48.87265" lon="0.86998">
        <ele>201.19999694824</ele>
        <time>2016-05-05T15:20:38.000Z</time>
      </trkpt>
      <trkpt lat="48.87266" lon="0.86996">
        <ele>201.19999694824</ele>
        <time>2016-05-05T15:20:40.000Z</time>
      </trkpt>
      <trkpt lat="48.87269" lon="0.86995">
        <ele>201.19999694824</ele>
        <time>2016-05-05T15:20:42.000Z</time>
      </trkpt>
      <trkpt lat="48.8727" lon="0.86995">
        <ele>201.19999694824</ele>
        <time>2016-05-05T15:20:43.000Z</time>
      </trkpt>
      <trkpt lat="48.87273" lon="0.86993">
        <ele>201.19999694824</ele>
        <time>2016-05-05T15:20:45.000Z</time>
      </trkpt>
      <trkpt lat="48.87281" lon="0.86984">
        <ele>201</ele>
        <time>2016-05-05T15:20:52.000Z</time>
      </trkpt>
      <trkpt lat="48.87286" lon="0.86974">
        <ele>201.19999694824</ele>
        <time>2016-05-05T15:20:59.000Z</time>
      </trkpt>
      <trkpt lat="48.87289" lon="0.86968">
        <ele>201.39999389648</ele>
        <time>2016-05-05T15:21:04.000Z</time>
      </trkpt>
      <trkpt lat="48.87291" lon="0.86965">
        <ele>201.39999389648</ele>
        <time>2016-05-05T15:21:06.000Z</time>
      </trkpt>
      <trkpt lat="48.87296" lon="0.86959">
        <ele>201.60000610352</ele>
        <time>2016-05-05T15:21:11.000Z</time>
      </trkpt>
      <trkpt lat="48.87301" lon="0.8695">
        <ele>201.80000305176</ele>
        <time>2016-05-05T15:21:17.000Z</time>
      </trkpt>
      <trkpt lat="48.87301" lon="0.86949">
        <ele>202</ele>
        <time>2016-05-05T15:21:18.000Z</time>
      </trkpt>
      <trkpt lat="48.87308" lon="0.86942">
        <ele>202.19999694824</ele>
        <time>2016-05-05T15:21:25.000Z</time>
      </trkpt>
      <trkpt lat="48.87308" lon="0.86942">
        <ele>202.19999694824</ele>
        <time>2016-05-05T15:21:26.000Z</time>
      </trkpt>
      <trkpt lat="48.87311" lon="0.86937">
        <ele>202.39999389648</ele>
        <time>2016-05-05T15:21:30.000Z</time>
      </trkpt>
      <trkpt lat="48.87314" lon="0.86933">
        <ele>202.39999389648</ele>
        <time>2016-05-05T15:21:33.000Z</time>
      </trkpt>
      <trkpt lat="48.87317" lon="0.86929">
        <ele>202.60000610352</ele>
        <time>2016-05-05T15:21:37.000Z</time>
      </trkpt>
      <trkpt lat="48.87322" lon="0.8692">
        <ele>202.60000610352</ele>
        <time>2016-05-05T15:21:44.000Z</time>
      </trkpt>
      <trkpt lat="48.87328" lon="0.86912">
        <ele>202.80000305176</ele>
        <time>2016-05-05T15:21:50.000Z</time>
      </trkpt>
      <trkpt lat="48.87334" lon="0.869">
        <ele>202.80000305176</ele>
        <time>2016-05-05T15:21:58.000Z</time>
      </trkpt>
      <trkpt lat="48.87342" lon="0.8689">
        <ele>203</ele>
        <time>2016-05-05T15:22:07.000Z</time>
      </trkpt>
      <trkpt lat="48.87349" lon="0.86878">
        <ele>203.39999389648</ele>
        <time>2016-05-05T15:22:16.000Z</time>
      </trkpt>
      <trkpt lat="48.87353" lon="0.86871">
        <ele>203.60000610352</ele>
        <time>2016-05-05T15:22:22.000Z</time>
      </trkpt>
      <trkpt lat="48.87356" lon="0.86866">
        <ele>203.80000305176</ele>
        <time>2016-05-05T15:22:27.000Z</time>
      </trkpt>
      <trkpt lat="48.87357" lon="0.86863">
        <ele>204</ele>
        <time>2016-05-05T15:22:29.000Z</time>
      </trkpt>
      <trkpt lat="48.87358" lon="0.86862">
        <ele>204</ele>
        <time>2016-05-05T15:22:30.000Z</time>
      </trkpt>
      <trkpt lat="48.8736" lon="0.86858">
        <ele>204</ele>
        <time>2016-05-05T15:22:33.000Z</time>
      </trkpt>
      <trkpt lat="48.87362" lon="0.86855">
        <ele>204.19999694824</ele>
        <time>2016-05-05T15:22:36.000Z</time>
      </trkpt>
      <trkpt lat="48.87364" lon="0.86854">
        <ele>204.19999694824</ele>
        <time>2016-05-05T15:22:37.000Z</time>
      </trkpt>
      <trkpt lat="48.8737" lon="0.86847">
        <ele>204.39999389648</ele>
        <time>2016-05-05T15:22:43.000Z</time>
      </trkpt>
      <trkpt lat="48.87378" lon="0.86836">
        <ele>204.60000610352</ele>
        <time>2016-05-05T15:22:51.000Z</time>
      </trkpt>
      <trkpt lat="48.8738" lon="0.86833">
        <ele>204.80000305176</ele>
        <time>2016-05-05T15:22:53.000Z</time>
      </trkpt>
      <trkpt lat="48.87384" lon="0.86829">
        <ele>204.80000305176</ele>
        <time>2016-05-05T15:22:57.000Z</time>
      </trkpt>
      <trkpt lat="48.87389" lon="0.86819">
        <ele>205.19999694824</ele>
        <time>2016-05-05T15:23:04.000Z</time>
      </trkpt>
      <trkpt lat="48.87394" lon="0.86809">
        <ele>205.39999389648</ele>
        <time>2016-05-05T15:23:11.000Z</time>
      </trkpt>
      <trkpt lat="48.87396" lon="0.86805">
        <ele>205.60000610352</ele>
        <time>2016-05-05T15:23:13.000Z</time>
      </trkpt>
      <trkpt lat="48.87397" lon="0.86803">
        <ele>205.60000610352</ele>
        <time>2016-05-05T15:23:15.000Z</time>
      </trkpt>
      <trkpt lat="48.87401" lon="0.86796">
        <ele>205.60000610352</ele>
        <time>2016-05-05T15:23:20.000Z</time>
      </trkpt>
      <trkpt lat="48.87406" lon="0.86787">
        <ele>205.60000610352</ele>
        <time>2016-05-05T15:23:27.000Z</time>
      </trkpt>
      <trkpt lat="48.87411" lon="0.86778">
        <ele>205.60000610352</ele>
        <time>2016-05-05T15:23:33.000Z</time>
      </trkpt>
      <trkpt lat="48.87415" lon="0.86772">
        <ele>205.80000305176</ele>
        <time>2016-05-05T15:23:38.000Z</time>
      </trkpt>
      <trkpt lat="48.87419" lon="0.86766">
        <ele>206</ele>
        <time>2016-05-05T15:23:43.000Z</time>
      </trkpt>
      <trkpt lat="48.8742" lon="0.86765">
        <ele>206</ele>
        <time>2016-05-05T15:23:44.000Z</time>
      </trkpt>
      <trkpt lat="48.87425" lon="0.8676">
        <ele>206.19999694824</ele>
        <time>2016-05-05T15:23:50.000Z</time>
      </trkpt>
      <trkpt lat="48.87428" lon="0.86755">
        <ele>206.19999694824</ele>
        <time>2016-05-05T15:23:53.000Z</time>
      </trkpt>
      <trkpt lat="48.8743" lon="0.86752">
        <ele>206.39999389648</ele>
        <time>2016-05-05T15:23:56.000Z</time>
      </trkpt>
      <trkpt lat="48.8743" lon="0.86751">
        <ele>206.39999389648</ele>
        <time>2016-05-05T15:23:58.000Z</time>
      </trkpt>
      <trkpt lat="48.87406" lon="0.8666">
        <ele>207.39999389648</ele>
        <time>2016-05-05T15:26:13.000Z</time>
      </trkpt>
      <trkpt lat="48.87404" lon="0.86656">
        <ele>207.39999389648</ele>
        <time>2016-05-05T15:26:15.000Z</time>
      </trkpt>
      <trkpt lat="48.874" lon="0.86648">
        <ele>207.39999389648</ele>
        <time>2016-05-05T15:26:20.000Z</time>
      </trkpt>
      <trkpt lat="48.874" lon="0.86646">
        <ele>207.39999389648</ele>
        <time>2016-05-05T15:26:21.000Z</time>
      </trkpt>
      <trkpt lat="48.87399" lon="0.86644">
        <ele>207.39999389648</ele>
        <time>2016-05-05T15:26:22.000Z</time>
      </trkpt>
      <trkpt lat="48.87397" lon="0.86637">
        <ele>207.39999389648</ele>
        <time>2016-05-05T15:26:26.000Z</time>
      </trkpt>
      <trkpt lat="48.87393" lon="0.86633">
        <ele>207.39999389648</ele>
        <time>2016-05-05T15:26:29.000Z</time>
      </trkpt>
      <trkpt lat="48.87392" lon="0.86629">
        <ele>207.39999389648</ele>
        <time>2016-05-05T15:26:32.000Z</time>
      </trkpt>
      <trkpt lat="48.87391" lon="0.86628">
        <ele>207.19999694824</ele>
        <time>2016-05-05T15:26:33.000Z</time>
      </trkpt>
      <trkpt lat="48.87391" lon="0.86626">
        <ele>207.19999694824</ele>
        <time>2016-05-05T15:26:34.000Z</time>
      </trkpt>
      <trkpt lat="48.87389" lon="0.86617">
        <ele>207.19999694824</ele>
        <time>2016-05-05T15:26:39.000Z</time>
      </trkpt>
      <trkpt lat="48.87388" lon="0.86615">
        <ele>207</ele>
        <time>2016-05-05T15:26:41.000Z</time>
      </trkpt>
      <trkpt lat="48.87385" lon="0.86611">
        <ele>207</ele>
        <time>2016-05-05T15:26:45.000Z</time>
      </trkpt>
      <trkpt lat="48.87385" lon="0.86609">
        <ele>207</ele>
        <time>2016-05-05T15:26:47.000Z</time>
      </trkpt>
      <trkpt lat="48.87383" lon="0.86608">
        <ele>207</ele>
        <time>2016-05-05T15:26:48.000Z</time>
      </trkpt>
      <trkpt lat="48.87383" lon="0.86604">
        <ele>206.80000305176</ele>
        <time>2016-05-05T15:26:50.000Z</time>
      </trkpt>
      <trkpt lat="48.8738" lon="0.86601">
        <ele>206.80000305176</ele>
        <time>2016-05-05T15:26:53.000Z</time>
      </trkpt>
      <trkpt lat="48.87379" lon="0.86599">
        <ele>206.80000305176</ele>
        <time>2016-05-05T15:26:55.000Z</time>
      </trkpt>
      <trkpt lat="48.87377" lon="0.86591">
        <ele>206.60000610352</ele>
        <time>2016-05-05T15:27:00.000Z</time>
      </trkpt>
      <trkpt lat="48.87375" lon="0.86587">
        <ele>206.60000610352</ele>
        <time>2016-05-05T15:27:03.000Z</time>
      </trkpt>
      <trkpt lat="48.87372" lon="0.86581">
        <ele>206.39999389648</ele>
        <time>2016-05-05T15:27:06.000Z</time>
      </trkpt>
      <trkpt lat="48.8737" lon="0.86576">
        <ele>206.39999389648</ele>
        <time>2016-05-05T15:27:08.000Z</time>
      </trkpt>
      <trkpt lat="48.87364" lon="0.86568">
        <ele>206.19999694824</ele>
        <time>2016-05-05T15:27:13.000Z</time>
      </trkpt>
      <trkpt lat="48.87361" lon="0.8656">
        <ele>206.19999694824</ele>
        <time>2016-05-05T15:27:17.000Z</time>
      </trkpt>
      <trkpt lat="48.8736" lon="0.86556">
        <ele>206</ele>
        <time>2016-05-05T15:27:19.000Z</time>
      </trkpt>
      <trkpt lat="48.87357" lon="0.86544">
        <ele>205.80000305176</ele>
        <time>2016-05-05T15:27:25.000Z</time>
      </trkpt>
      <trkpt lat="48.87357" lon="0.86542">
        <ele>205.60000610352</ele>
        <time>2016-05-05T15:27:26.000Z</time>
      </trkpt>
      <trkpt lat="48.87355" lon="0.86536">
        <ele>205.60000610352</ele>
        <time>2016-05-05T15:27:29.000Z</time>
      </trkpt>
      <trkpt lat="48.87353" lon="0.86529">
        <ele>205.39999389648</ele>
        <time>2016-05-05T15:27:33.000Z</time>
      </trkpt>
      <trkpt lat="48.87351" lon="0.86521">
        <ele>205.19999694824</ele>
        <time>2016-05-05T15:27:38.000Z</time>
      </trkpt>
      <trkpt lat="48.8735" lon="0.86517">
        <ele>205</ele>
        <time>2016-05-05T15:27:40.000Z</time>
      </trkpt>
      <trkpt lat="48.87349" lon="0.86515">
        <ele>205</ele>
        <time>2016-05-05T15:27:41.000Z</time>
      </trkpt>
      <trkpt lat="48.87346" lon="0.86511">
        <ele>205</ele>
        <time>2016-05-05T15:27:44.000Z</time>
      </trkpt>
      <trkpt lat="48.87343" lon="0.86505">
        <ele>204.80000305176</ele>
        <time>2016-05-05T15:27:49.000Z</time>
      </trkpt>
      <trkpt lat="48.87343" lon="0.86501">
        <ele>204.60000610352</ele>
        <time>2016-05-05T15:27:52.000Z</time>
      </trkpt>
      <trkpt lat="48.87344" lon="0.86498">
        <ele>204.60000610352</ele>
        <time>2016-05-05T15:27:54.000Z</time>
      </trkpt>
      <trkpt lat="48.87345" lon="0.86495">
        <ele>204.60000610352</ele>
        <time>2016-05-05T15:27:57.000Z</time>
      </trkpt>
      <trkpt lat="48.87338" lon="0.8645">
        <ele>204</ele>
        <time>2016-05-05T15:28:39.000Z</time>
      </trkpt>
      <trkpt lat="48.87338" lon="0.86448">
        <ele>204</ele>
        <time>2016-05-05T15:28:40.000Z</time>
      </trkpt>
      <trkpt lat="48.87334" lon="0.86439">
        <ele>203.80000305176</ele>
        <time>2016-05-05T15:28:45.000Z</time>
      </trkpt>
      <trkpt lat="48.87331" lon="0.86432">
        <ele>203.80000305176</ele>
        <time>2016-05-05T15:28:50.000Z</time>
      </trkpt>
      <trkpt lat="48.87332" lon="0.86424">
        <ele>203.60000610352</ele>
        <time>2016-05-05T15:28:54.000Z</time>
      </trkpt>
      <trkpt lat="48.87331" lon="0.86417">
        <ele>203.60000610352</ele>
        <time>2016-05-05T15:28:59.000Z</time>
      </trkpt>
      <trkpt lat="48.87331" lon="0.86409">
        <ele>203.60000610352</ele>
        <time>2016-05-05T15:29:04.000Z</time>
      </trkpt>
      <trkpt lat="48.8733" lon="0.86399">
        <ele>203.39999389648</ele>
        <time>2016-05-05T15:29:09.000Z</time>
      </trkpt>
      <trkpt lat="48.87329" lon="0.86394">
        <ele>203.39999389648</ele>
        <time>2016-05-05T15:29:12.000Z</time>
      </trkpt>
      <trkpt lat="48.87328" lon="0.86389">
        <ele>203.39999389648</ele>
        <time>2016-05-05T15:29:15.000Z</time>
      </trkpt>
      <trkpt lat="48.87328" lon="0.86381">
        <ele>203.19999694824</ele>
        <time>2016-05-05T15:29:19.000Z</time>
      </trkpt>
      <trkpt lat="48.87326" lon="0.86376">
        <ele>203.19999694824</ele>
        <time>2016-05-05T15:29:22.000Z</time>
      </trkpt>
      <trkpt lat="48.87326" lon="0.86375">
        <ele>203.19999694824</ele>
        <time>2016-05-05T15:29:23.000Z</time>
      </trkpt>
      <trkpt lat="48.87324" lon="0.86369">
        <ele>203.19999694824</ele>
        <time>2016-05-05T15:29:26.000Z</time>
      </trkpt>
      <trkpt lat="48.87322" lon="0.86363">
        <ele>203.19999694824</ele>
        <time>2016-05-05T15:29:30.000Z</time>
      </trkpt>
      <trkpt lat="48.8732" lon="0.86361">
        <ele>203</ele>
        <time>2016-05-05T15:29:32.000Z</time>
      </trkpt>
      <trkpt lat="48.87318" lon="0.86355">
        <ele>203</ele>
        <time>2016-05-05T15:29:35.000Z</time>
      </trkpt>
      <trkpt lat="48.87318" lon="0.86354">
        <ele>203</ele>
        <time>2016-05-05T15:29:36.000Z</time>
      </trkpt>
      <trkpt lat="48.87316" lon="0.86351">
        <ele>203</ele>
        <time>2016-05-05T15:29:38.000Z</time>
      </trkpt>
      <trkpt lat="48.87312" lon="0.86346">
        <ele>203</ele>
        <time>2016-05-05T15:29:42.000Z</time>
      </trkpt>
      <trkpt lat="48.87309" lon="0.8634">
        <ele>203</ele>
        <time>2016-05-05T15:29:47.000Z</time>
      </trkpt>
      <trkpt lat="48.87306" lon="0.86333">
        <ele>202.80000305176</ele>
        <time>2016-05-05T15:29:50.000Z</time>
      </trkpt>
      <trkpt lat="48.87303" lon="0.86323">
        <ele>202.60000610352</ele>
        <time>2016-05-05T15:29:55.000Z</time>
      </trkpt>
      <trkpt lat="48.873" lon="0.8632">
        <ele>202.60000610352</ele>
        <time>2016-05-05T15:29:57.000Z</time>
      </trkpt>
      <trkpt lat="48.87299" lon="0.86318">
        <ele>202.60000610352</ele>
        <time>2016-05-05T15:29:58.000Z</time>
      </trkpt>
      <trkpt lat="48.87298" lon="0.86317">
        <ele>202.60000610352</ele>
        <time>2016-05-05T15:29:59.000Z</time>
      </trkpt>
      <trkpt lat="48.87295" lon="0.8631">
        <ele>202.60000610352</ele>
        <time>2016-05-05T15:30:04.000Z</time>
      </trkpt>
      <trkpt lat="48.8729" lon="0.863">
        <ele>202.60000610352</ele>
        <time>2016-05-05T15:30:09.000Z</time>
      </trkpt>
      <trkpt lat="48.87289" lon="0.86298">
        <ele>202.80000305176</ele>
        <time>2016-05-05T15:30:10.000Z</time>
      </trkpt>
      <trkpt lat="48.87286" lon="0.86288">
        <ele>203</ele>
        <time>2016-05-05T15:30:15.000Z</time>
      </trkpt>
      <trkpt lat="48.87286" lon="0.86282">
        <ele>203</ele>
        <time>2016-05-05T15:30:17.000Z</time>
      </trkpt>
      <trkpt lat="48.87285" lon="0.86279">
        <ele>203</ele>
        <time>2016-05-05T15:30:19.000Z</time>
      </trkpt>
      <trkpt lat="48.87285" lon="0.86274">
        <ele>203</ele>
        <time>2016-05-05T15:30:21.000Z</time>
      </trkpt>
      <trkpt lat="48.87284" lon="0.8627">
        <ele>203.19999694824</ele>
        <time>2016-05-05T15:30:23.000Z</time>
      </trkpt>
      <trkpt lat="48.87283" lon="0.86266">
        <ele>203.19999694824</ele>
        <time>2016-05-05T15:30:25.000Z</time>
      </trkpt>
      <trkpt lat="48.87282" lon="0.86264">
        <ele>203.19999694824</ele>
        <time>2016-05-05T15:30:27.000Z</time>
      </trkpt>
      <trkpt lat="48.8728" lon="0.86259">
        <ele>203.39999389648</ele>
        <time>2016-05-05T15:30:30.000Z</time>
      </trkpt>
      <trkpt lat="48.87277" lon="0.8625">
        <ele>203.60000610352</ele>
        <time>2016-05-05T15:30:35.000Z</time>
      </trkpt>
      <trkpt lat="48.87277" lon="0.86248">
        <ele>203.60000610352</ele>
        <time>2016-05-05T15:30:36.000Z</time>
      </trkpt>
      <trkpt lat="48.87273" lon="0.86233">
        <ele>203.80000305176</ele>
        <time>2016-05-05T15:30:43.000Z</time>
      </trkpt>
      <trkpt lat="48.87272" lon="0.8623">
        <ele>204</ele>
        <time>2016-05-05T15:30:46.000Z</time>
      </trkpt>
      <trkpt lat="48.87271" lon="0.86224">
        <ele>204</ele>
        <time>2016-05-05T15:30:49.000Z</time>
      </trkpt>
      <trkpt lat="48.87269" lon="0.86214">
        <ele>203.80000305176</ele>
        <time>2016-05-05T15:30:55.000Z</time>
      </trkpt>
      <trkpt lat="48.87268" lon="0.86211">
        <ele>203.60000610352</ele>
        <time>2016-05-05T15:30:57.000Z</time>
      </trkpt>
      <trkpt lat="48.87266" lon="0.86205">
        <ele>203.60000610352</ele>
        <time>2016-05-05T15:31:01.000Z</time>
      </trkpt>
      <trkpt lat="48.87266" lon="0.86202">
        <ele>203.39999389648</ele>
        <time>2016-05-05T15:31:05.000Z</time>
      </trkpt>
      <trkpt lat="48.87273" lon="0.86222">
        <ele>204</ele>
        <time>2016-05-05T15:32:03.000Z</time>
      </trkpt>
      <trkpt lat="48.87273" lon="0.86224">
        <ele>204</ele>
        <time>2016-05-05T15:32:04.000Z</time>
      </trkpt>
      <trkpt lat="48.87275" lon="0.8623">
        <ele>203.80000305176</ele>
        <time>2016-05-05T15:32:09.000Z</time>
      </trkpt>
      <trkpt lat="48.87277" lon="0.86232">
        <ele>203.80000305176</ele>
        <time>2016-05-05T15:32:11.000Z</time>
      </trkpt>
      <trkpt lat="48.87277" lon="0.86234">
        <ele>203.80000305176</ele>
        <time>2016-05-05T15:32:12.000Z</time>
      </trkpt>
      <trkpt lat="48.87278" lon="0.8624">
        <ele>203.60000610352</ele>
        <time>2016-05-05T15:32:15.000Z</time>
      </trkpt>
      <trkpt lat="48.87282" lon="0.8625">
        <ele>203.39999389648</ele>
        <time>2016-05-05T15:32:21.000Z</time>
      </trkpt>
      <trkpt lat="48.87286" lon="0.86256">
        <ele>203.19999694824</ele>
        <time>2016-05-05T15:32:24.000Z</time>
      </trkpt>
      <trkpt lat="48.87287" lon="0.86259">
        <ele>203.19999694824</ele>
        <time>2016-05-05T15:32:26.000Z</time>
      </trkpt>
      <trkpt lat="48.87291" lon="0.86268">
        <ele>203</ele>
        <time>2016-05-05T15:32:32.000Z</time>
      </trkpt>
      <trkpt lat="48.87293" lon="0.86274">
        <ele>203</ele>
        <time>2016-05-05T15:32:35.000Z</time>
      </trkpt>
      <trkpt lat="48.87296" lon="0.86279">
        <ele>202.80000305176</ele>
        <time>2016-05-05T15:32:38.000Z</time>
      </trkpt>
      <trkpt lat="48.87298" lon="0.86288">
        <ele>202.60000610352</ele>
        <time>2016-05-05T15:32:43.000Z</time>
      </trkpt>
      <trkpt lat="48.87298" lon="0.8629">
        <ele>202.60000610352</ele>
        <time>2016-05-05T15:32:44.000Z</time>
      </trkpt>
      <trkpt lat="48.87298" lon="0.86294">
        <ele>202.60000610352</ele>
        <time>2016-05-05T15:32:47.000Z</time>
      </trkpt>
      <trkpt lat="48.87299" lon="0.86298">
        <ele>202.39999389648</ele>
        <time>2016-05-05T15:32:49.000Z</time>
      </trkpt>
      <trkpt lat="48.873" lon="0.86303">
        <ele>202.39999389648</ele>
        <time>2016-05-05T15:32:52.000Z</time>
      </trkpt>
      <trkpt lat="48.87303" lon="0.86307">
        <ele>202.39999389648</ele>
        <time>2016-05-05T15:32:54.000Z</time>
      </trkpt>
      <trkpt lat="48.87303" lon="0.86313">
        <ele>202.39999389648</ele>
        <time>2016-05-05T15:32:58.000Z</time>
      </trkpt>
      <trkpt lat="48.87303" lon="0.86315">
        <ele>202.39999389648</ele>
        <time>2016-05-05T15:32:59.000Z</time>
      </trkpt>
      <trkpt lat="48.87303" lon="0.86316">
        <ele>202.60000610352</ele>
        <time>2016-05-05T15:33:00.000Z</time>
      </trkpt>
      <trkpt lat="48.87305" lon="0.86325">
        <ele>202.60000610352</ele>
        <time>2016-05-05T15:33:05.000Z</time>
      </trkpt>
      <trkpt lat="48.87307" lon="0.86332">
        <ele>202.80000305176</ele>
        <time>2016-05-05T15:33:09.000Z</time>
      </trkpt>
      <trkpt lat="48.87307" lon="0.86334">
        <ele>202.80000305176</ele>
        <time>2016-05-05T15:33:10.000Z</time>
      </trkpt>
      <trkpt lat="48.87308" lon="0.86335">
        <ele>202.80000305176</ele>
        <time>2016-05-05T15:33:11.000Z</time>
      </trkpt>
      <trkpt lat="48.87307" lon="0.86341">
        <ele>203</ele>
        <time>2016-05-05T15:33:15.000Z</time>
      </trkpt>
      <trkpt lat="48.87307" lon="0.86348">
        <ele>203</ele>
        <time>2016-05-05T15:33:18.000Z</time>
      </trkpt>
      <trkpt lat="48.87308" lon="0.86351">
        <ele>203.19999694824</ele>
        <time>2016-05-05T15:33:20.000Z</time>
      </trkpt>
      <trkpt lat="48.87312" lon="0.86355">
        <ele>203.19999694824</ele>
        <time>2016-05-05T15:33:22.000Z</time>
      </trkpt>
      <trkpt lat="48.87314" lon="0.86357">
        <ele>203.19999694824</ele>
        <time>2016-05-05T15:33:24.000Z</time>
      </trkpt>
      <trkpt lat="48.87315" lon="0.86361">
        <ele>203.19999694824</ele>
        <time>2016-05-05T15:33:26.000Z</time>
      </trkpt>
      <trkpt lat="48.87316" lon="0.86362">
        <ele>203.19999694824</ele>
        <time>2016-05-05T15:33:27.000Z</time>
      </trkpt>
      <trkpt lat="48.87317" lon="0.86364">
        <ele>203.19999694824</ele>
        <time>2016-05-05T15:33:28.000Z</time>
      </trkpt>
      <trkpt lat="48.87322" lon="0.8637">
        <ele>203.19999694824</ele>
        <time>2016-05-05T15:33:32.000Z</time>
      </trkpt>
      <trkpt lat="48.87323" lon="0.86371">
        <ele>203.19999694824</ele>
        <time>2016-05-05T15:33:33.000Z</time>
      </trkpt>
      <trkpt lat="48.87326" lon="0.86379">
        <ele>203.19999694824</ele>
        <time>2016-05-05T15:33:39.000Z</time>
      </trkpt>
      <trkpt lat="48.87326" lon="0.8638">
        <ele>203.19999694824</ele>
        <time>2016-05-05T15:33:40.000Z</time>
      </trkpt>
      <trkpt lat="48.87333" lon="0.86406">
        <ele>203.39999389648</ele>
        <time>2016-05-05T15:34:00.000Z</time>
      </trkpt>
      <trkpt lat="48.87335" lon="0.86412">
        <ele>203.60000610352</ele>
        <time>2016-05-05T15:34:03.000Z</time>
      </trkpt>
      <trkpt lat="48.87338" lon="0.86422">
        <ele>203.60000610352</ele>
        <time>2016-05-05T15:34:08.000Z</time>
      </trkpt>
      <trkpt lat="48.87341" lon="0.8643">
        <ele>203.60000610352</ele>
        <time>2016-05-05T15:34:13.000Z</time>
      </trkpt>
      <trkpt lat="48.87341" lon="0.86438">
        <ele>203.80000305176</ele>
        <time>2016-05-05T15:34:18.000Z</time>
      </trkpt>
      <trkpt lat="48.87344" lon="0.86444">
        <ele>203.80000305176</ele>
        <time>2016-05-05T15:34:22.000Z</time>
      </trkpt>
      <trkpt lat="48.87347" lon="0.86454">
        <ele>203.80000305176</ele>
        <time>2016-05-05T15:34:28.000Z</time>
      </trkpt>
      <trkpt lat="48.8735" lon="0.86462">
        <ele>204</ele>
        <time>2016-05-05T15:34:33.000Z</time>
      </trkpt>
      <trkpt lat="48.87351" lon="0.86465">
        <ele>204</ele>
        <time>2016-05-05T15:34:35.000Z</time>
      </trkpt>
      <trkpt lat="48.87352" lon="0.86468">
        <ele>204</ele>
        <time>2016-05-05T15:34:37.000Z</time>
      </trkpt>
      <trkpt lat="48.87352" lon="0.86469">
        <ele>204</ele>
        <time>2016-05-05T15:34:38.000Z</time>
      </trkpt>
      <trkpt lat="48.87355" lon="0.86474">
        <ele>204</ele>
        <time>2016-05-05T15:34:41.000Z</time>
      </trkpt>
      <trkpt lat="48.87356" lon="0.86475">
        <ele>204</ele>
        <time>2016-05-05T15:34:42.000Z</time>
      </trkpt>
      <trkpt lat="48.87358" lon="0.86477">
        <ele>204.19999694824</ele>
        <time>2016-05-05T15:34:44.000Z</time>
      </trkpt>
      <trkpt lat="48.87362" lon="0.86478">
        <ele>204.19999694824</ele>
        <time>2016-05-05T15:34:48.000Z</time>
      </trkpt>
      <trkpt lat="48.87362" lon="0.86479">
        <ele>204.19999694824</ele>
        <time>2016-05-05T15:34:49.000Z</time>
      </trkpt>
      <trkpt lat="48.87365" lon="0.86568">
        <ele>206.19999694824</ele>
        <time>2016-05-05T15:39:15.000Z</time>
      </trkpt>
      <trkpt lat="48.87369" lon="0.8657">
        <ele>206.39999389648</ele>
        <time>2016-05-05T15:39:19.000Z</time>
      </trkpt>
      <trkpt lat="48.87375" lon="0.86577">
        <ele>206.39999389648</ele>
        <time>2016-05-05T15:39:24.000Z</time>
      </trkpt>
      <trkpt lat="48.87381" lon="0.86589">
        <ele>206.60000610352</ele>
        <time>2016-05-05T15:39:30.000Z</time>
      </trkpt>
      <trkpt lat="48.87382" lon="0.86593">
        <ele>206.80000305176</ele>
        <time>2016-05-05T15:39:33.000Z</time>
      </trkpt>
      <trkpt lat="48.87383" lon="0.86597">
        <ele>206.80000305176</ele>
        <time>2016-05-05T15:39:35.000Z</time>
      </trkpt>
      <trkpt lat="48.87385" lon="0.86605">
        <ele>207</ele>
        <time>2016-05-05T15:39:40.000Z</time>
      </trkpt>
      <trkpt lat="48.87385" lon="0.86605">
        <ele>207</ele>
        <time>2016-05-05T15:39:43.000Z</time>
      </trkpt>
      <trkpt lat="48.87401" lon="0.86649">
        <ele>207.39999389648</ele>
        <time>2016-05-05T15:40:29.000Z</time>
      </trkpt>
      <trkpt lat="48.87403" lon="0.86652">
        <ele>207.39999389648</ele>
        <time>2016-05-05T15:40:31.000Z</time>
      </trkpt>
      <trkpt lat="48.87405" lon="0.86656">
        <ele>207.39999389648</ele>
        <time>2016-05-05T15:40:34.000Z</time>
      </trkpt>
      <trkpt lat="48.87406" lon="0.86658">
        <ele>207.39999389648</ele>
        <time>2016-05-05T15:40:36.000Z</time>
      </trkpt>
      <trkpt lat="48.87409" lon="0.8666">
        <ele>207.39999389648</ele>
        <time>2016-05-05T15:40:41.000Z</time>
      </trkpt>
      <trkpt lat="48.87423" lon="0.86684">
        <ele>207.19999694824</ele>
        <time>2016-05-05T15:41:27.000Z</time>
      </trkpt>
      <trkpt lat="48.87423" lon="0.86686">
        <ele>207.19999694824</ele>
        <time>2016-05-05T15:41:28.000Z</time>
      </trkpt>
      <trkpt lat="48.87424" lon="0.8669">
        <ele>207.19999694824</ele>
        <time>2016-05-05T15:41:30.000Z</time>
      </trkpt>
      <trkpt lat="48.87427" lon="0.86694">
        <ele>207.19999694824</ele>
        <time>2016-05-05T15:41:33.000Z</time>
      </trkpt>
      <trkpt lat="48.87428" lon="0.86699">
        <ele>207.19999694824</ele>
        <time>2016-05-05T15:41:36.000Z</time>
      </trkpt>
      <trkpt lat="48.87429" lon="0.86704">
        <ele>207.19999694824</ele>
        <time>2016-05-05T15:41:39.000Z</time>
      </trkpt>
      <trkpt lat="48.87431" lon="0.86704">
        <ele>207.19999694824</ele>
        <time>2016-05-05T15:41:43.000Z</time>
      </trkpt>
      <trkpt lat="48.87438" lon="0.86723">
        <ele>207</ele>
        <time>2016-05-05T15:41:59.000Z</time>
      </trkpt>
      <trkpt lat="48.87439" lon="0.86731">
        <ele>206.80000305176</ele>
        <time>2016-05-05T15:42:04.000Z</time>
      </trkpt>
      <trkpt lat="48.87442" lon="0.86741">
        <ele>206.39999389648</ele>
        <time>2016-05-05T15:42:10.000Z</time>
      </trkpt>
      <trkpt lat="48.87442" lon="0.86742">
        <ele>206.39999389648</ele>
        <time>2016-05-05T15:42:11.000Z</time>
      </trkpt>
      <trkpt lat="48.87444" lon="0.86747">
        <ele>206.19999694824</ele>
        <time>2016-05-05T15:42:16.000Z</time>
      </trkpt>
      <trkpt lat="48.8747" lon="0.86713">
        <ele>204.60000610352</ele>
        <time>2016-05-05T15:43:34.000Z</time>
      </trkpt>
      <trkpt lat="48.87475" lon="0.86707">
        <ele>204.19999694824</ele>
        <time>2016-05-05T15:43:39.000Z</time>
      </trkpt>
      <trkpt lat="48.87476" lon="0.86705">
        <ele>204.19999694824</ele>
        <time>2016-05-05T15:43:40.000Z</time>
      </trkpt>
      <trkpt lat="48.87481" lon="0.867">
        <ele>203.80000305176</ele>
        <time>2016-05-05T15:43:46.000Z</time>
      </trkpt>
      <trkpt lat="48.87482" lon="0.86699">
        <ele>203.80000305176</ele>
        <time>2016-05-05T15:43:47.000Z</time>
      </trkpt>
      <trkpt lat="48.87483" lon="0.86697">
        <ele>203.60000610352</ele>
        <time>2016-05-05T15:43:49.000Z</time>
      </trkpt>
      <trkpt lat="48.87487" lon="0.86695">
        <ele>203.39999389648</ele>
        <time>2016-05-05T15:43:52.000Z</time>
      </trkpt>
      <trkpt lat="48.87493" lon="0.86689">
        <ele>203</ele>
        <time>2016-05-05T15:43:57.000Z</time>
      </trkpt>
      <trkpt lat="48.87503" lon="0.86681">
        <ele>202.80000305176</ele>
        <time>2016-05-05T15:44:03.000Z</time>
      </trkpt>
      <trkpt lat="48.87504" lon="0.86677">
        <ele>202.80000305176</ele>
        <time>2016-05-05T15:44:05.000Z</time>
      </trkpt>
      <trkpt lat="48.87506" lon="0.86672">
        <ele>202.80000305176</ele>
        <time>2016-05-05T15:44:08.000Z</time>
      </trkpt>
      <trkpt lat="48.87509" lon="0.86669">
        <ele>202.80000305176</ele>
        <time>2016-05-05T15:44:11.000Z</time>
      </trkpt>
      <trkpt lat="48.8751" lon="0.86666">
        <ele>202.80000305176</ele>
        <time>2016-05-05T15:44:13.000Z</time>
      </trkpt>
      <trkpt lat="48.87511" lon="0.86664">
        <ele>202.80000305176</ele>
        <time>2016-05-05T15:44:15.000Z</time>
      </trkpt>
      <trkpt lat="48.87513" lon="0.86658">
        <ele>203</ele>
        <time>2016-05-05T15:44:18.000Z</time>
      </trkpt>
      <trkpt lat="48.87515" lon="0.86654">
        <ele>203</ele>
        <time>2016-05-05T15:44:21.000Z</time>
      </trkpt>
      <trkpt lat="48.87519" lon="0.86648">
        <ele>203</ele>
        <time>2016-05-05T15:44:26.000Z</time>
      </trkpt>
      <trkpt lat="48.87525" lon="0.86638">
        <ele>203</ele>
        <time>2016-05-05T15:44:33.000Z</time>
      </trkpt>
      <trkpt lat="48.87531" lon="0.86632">
        <ele>202.80000305176</ele>
        <time>2016-05-05T15:44:39.000Z</time>
      </trkpt>
      <trkpt lat="48.87534" lon="0.86629">
        <ele>202.80000305176</ele>
        <time>2016-05-05T15:44:41.000Z</time>
      </trkpt>
      <trkpt lat="48.87536" lon="0.86623">
        <ele>202.80000305176</ele>
        <time>2016-05-05T15:44:44.000Z</time>
      </trkpt>
      <trkpt lat="48.87541" lon="0.86615">
        <ele>202.80000305176</ele>
        <time>2016-05-05T15:44:49.000Z</time>
      </trkpt>
      <trkpt lat="48.87545" lon="0.86605">
        <ele>202.80000305176</ele>
        <time>2016-05-05T15:44:55.000Z</time>
      </trkpt>
      <trkpt lat="48.8755" lon="0.86599">
        <ele>202.60000610352</ele>
        <time>2016-05-05T15:45:01.000Z</time>
      </trkpt>
      <trkpt lat="48.87552" lon="0.86597">
        <ele>202.60000610352</ele>
        <time>2016-05-05T15:45:02.000Z</time>
      </trkpt>
      <trkpt lat="48.87554" lon="0.86594">
        <ele>202.60000610352</ele>
        <time>2016-05-05T15:45:04.000Z</time>
      </trkpt>
      <trkpt lat="48.87558" lon="0.86589">
        <ele>202.60000610352</ele>
        <time>2016-05-05T15:45:08.000Z</time>
      </trkpt>
      <trkpt lat="48.87563" lon="0.8658">
        <ele>202.60000610352</ele>
        <time>2016-05-05T15:45:15.000Z</time>
      </trkpt>
      <trkpt lat="48.87568" lon="0.86568">
        <ele>203</ele>
        <time>2016-05-05T15:45:23.000Z</time>
      </trkpt>
      <trkpt lat="48.87575" lon="0.86561">
        <ele>203</ele>
        <time>2016-05-05T15:45:29.000Z</time>
      </trkpt>
      <trkpt lat="48.87581" lon="0.86552">
        <ele>203</ele>
        <time>2016-05-05T15:45:35.000Z</time>
      </trkpt>
      <trkpt lat="48.87584" lon="0.86547">
        <ele>202.80000305176</ele>
        <time>2016-05-05T15:45:39.000Z</time>
      </trkpt>
      <trkpt lat="48.87587" lon="0.86544">
        <ele>202.60000610352</ele>
        <time>2016-05-05T15:45:42.000Z</time>
      </trkpt>
      <trkpt lat="48.87589" lon="0.86539">
        <ele>202.60000610352</ele>
        <time>2016-05-05T15:45:45.000Z</time>
      </trkpt>
      <trkpt lat="48.87591" lon="0.86536">
        <ele>202.60000610352</ele>
        <time>2016-05-05T15:45:47.000Z</time>
      </trkpt>
      <trkpt lat="48.87596" lon="0.86526">
        <ele>202.39999389648</ele>
        <time>2016-05-05T15:45:53.000Z</time>
      </trkpt>
      <trkpt lat="48.87597" lon="0.86521">
        <ele>202.39999389648</ele>
        <time>2016-05-05T15:45:56.000Z</time>
      </trkpt>
      <trkpt lat="48.87598" lon="0.86517">
        <ele>202.19999694824</ele>
        <time>2016-05-05T15:45:59.000Z</time>
      </trkpt>
      <trkpt lat="48.87599" lon="0.86516">
        <ele>202.19999694824</ele>
        <time>2016-05-05T15:46:00.000Z</time>
      </trkpt>
      <trkpt lat="48.87602" lon="0.86511">
        <ele>202.19999694824</ele>
        <time>2016-05-05T15:46:04.000Z</time>
      </trkpt>
      <trkpt lat="48.87603" lon="0.8651">
        <ele>202.19999694824</ele>
        <time>2016-05-05T15:46:05.000Z</time>
      </trkpt>
      <trkpt lat="48.8761" lon="0.86501">
        <ele>201.80000305176</ele>
        <time>2016-05-05T15:46:11.000Z</time>
      </trkpt>
      <trkpt lat="48.87611" lon="0.86498">
        <ele>201.60000610352</ele>
        <time>2016-05-05T15:46:13.000Z</time>
      </trkpt>
      <trkpt lat="48.87613" lon="0.86491">
        <ele>201.60000610352</ele>
        <time>2016-05-05T15:46:17.000Z</time>
      </trkpt>
      <trkpt lat="48.87621" lon="0.86481">
        <ele>201.19999694824</ele>
        <time>2016-05-05T15:46:24.000Z</time>
      </trkpt>
      <trkpt lat="48.87622" lon="0.8648">
        <ele>201</ele>
        <time>2016-05-05T15:46:25.000Z</time>
      </trkpt>
      <trkpt lat="48.87626" lon="0.86471">
        <ele>201</ele>
        <time>2016-05-05T15:46:28.000Z</time>
      </trkpt>
      <trkpt lat="48.87631" lon="0.86464">
        <ele>200.80000305176</ele>
        <time>2016-05-05T15:46:32.000Z</time>
      </trkpt>
      <trkpt lat="48.87632" lon="0.86462">
        <ele>200.60000610352</ele>
        <time>2016-05-05T15:46:34.000Z</time>
      </trkpt>
      <trkpt lat="48.87641" lon="0.86454">
        <ele>200.19999694824</ele>
        <time>2016-05-05T15:46:40.000Z</time>
      </trkpt>
      <trkpt lat="48.87642" lon="0.86452">
        <ele>200</ele>
        <time>2016-05-05T15:46:41.000Z</time>
      </trkpt>
      <trkpt lat="48.87647" lon="0.86445">
        <ele>199.80000305176</ele>
        <time>2016-05-05T15:46:45.000Z</time>
      </trkpt>
      <trkpt lat="48.87649" lon="0.86437">
        <ele>199.60000610352</ele>
        <time>2016-05-05T15:46:50.000Z</time>
      </trkpt>
      <trkpt lat="48.87655" lon="0.86431">
        <ele>199.39999389648</ele>
        <time>2016-05-05T15:46:54.000Z</time>
      </trkpt>
      <trkpt lat="48.87658" lon="0.86427">
        <ele>199.39999389648</ele>
        <time>2016-05-05T15:46:57.000Z</time>
      </trkpt>
      <trkpt lat="48.87659" lon="0.86426">
        <ele>199.19999694824</ele>
        <time>2016-05-05T15:46:58.000Z</time>
      </trkpt>
      <trkpt lat="48.8766" lon="0.86424">
        <ele>199.19999694824</ele>
        <time>2016-05-05T15:46:59.000Z</time>
      </trkpt>
      <trkpt lat="48.87666" lon="0.86418">
        <ele>199.19999694824</ele>
        <time>2016-05-05T15:47:04.000Z</time>
      </trkpt>
      <trkpt lat="48.87672" lon="0.86409">
        <ele>199.19999694824</ele>
        <time>2016-05-05T15:47:09.000Z</time>
      </trkpt>
      <trkpt lat="48.87674" lon="0.86406">
        <ele>199.19999694824</ele>
        <time>2016-05-05T15:47:11.000Z</time>
      </trkpt>
      <trkpt lat="48.87678" lon="0.864">
        <ele>199.19999694824</ele>
        <time>2016-05-05T15:47:15.000Z</time>
      </trkpt>
      <trkpt lat="48.87683" lon="0.86389">
        <ele>199.19999694824</ele>
        <time>2016-05-05T15:47:22.000Z</time>
      </trkpt>
      <trkpt lat="48.87687" lon="0.86383">
        <ele>199.19999694824</ele>
        <time>2016-05-05T15:47:27.000Z</time>
      </trkpt>
      <trkpt lat="48.87689" lon="0.8638">
        <ele>199.39999389648</ele>
        <time>2016-05-05T15:47:29.000Z</time>
      </trkpt>
      <trkpt lat="48.8769" lon="0.86379">
        <ele>199.39999389648</ele>
        <time>2016-05-05T15:47:30.000Z</time>
      </trkpt>
      <trkpt lat="48.87694" lon="0.86374">
        <ele>199.60000610352</ele>
        <time>2016-05-05T15:47:34.000Z</time>
      </trkpt>
      <trkpt lat="48.87699" lon="0.86371">
        <ele>199.60000610352</ele>
        <time>2016-05-05T15:47:39.000Z</time>
      </trkpt>
      <trkpt lat="48.87704" lon="0.86365">
        <ele>199.80000305176</ele>
        <time>2016-05-05T15:47:43.000Z</time>
      </trkpt>
      <trkpt lat="48.8771" lon="0.86361">
        <ele>200</ele>
        <time>2016-05-05T15:47:46.000Z</time>
      </trkpt>
      <trkpt lat="48.87715" lon="0.86359">
        <ele>200.19999694824</ele>
        <time>2016-05-05T15:47:48.000Z</time>
      </trkpt>
      <trkpt lat="48.87722" lon="0.86352">
        <ele>200.39999389648</ele>
        <time>2016-05-05T15:47:53.000Z</time>
      </trkpt>
      <trkpt lat="48.87724" lon="0.86351">
        <ele>200.39999389648</ele>
        <time>2016-05-05T15:47:54.000Z</time>
      </trkpt>
      <trkpt lat="48.8773" lon="0.86345">
        <ele>200.60000610352</ele>
        <time>2016-05-05T15:47:58.000Z</time>
      </trkpt>
      <trkpt lat="48.87733" lon="0.86336">
        <ele>200.39999389648</ele>
        <time>2016-05-05T15:48:05.000Z</time>
      </trkpt>
      <trkpt lat="48.87737" lon="0.8633">
        <ele>200.39999389648</ele>
        <time>2016-05-05T15:48:11.000Z</time>
      </trkpt>
      <trkpt lat="48.87741" lon="0.86322">
        <ele>200.19999694824</ele>
        <time>2016-05-05T15:48:18.000Z</time>
      </trkpt>
      <trkpt lat="48.87744" lon="0.86314">
        <ele>200</ele>
        <time>2016-05-05T15:48:25.000Z</time>
      </trkpt>
      <trkpt lat="48.87749" lon="0.86305">
        <ele>199.80000305176</ele>
        <time>2016-05-05T15:48:31.000Z</time>
      </trkpt>
      <trkpt lat="48.87751" lon="0.86301">
        <ele>199.80000305176</ele>
        <time>2016-05-05T15:48:34.000Z</time>
      </trkpt>
      <trkpt lat="48.87753" lon="0.86298">
        <ele>199.80000305176</ele>
        <time>2016-05-05T15:48:36.000Z</time>
      </trkpt>
      <trkpt lat="48.87759" lon="0.86291">
        <ele>199.60000610352</ele>
        <time>2016-05-05T15:48:41.000Z</time>
      </trkpt>
      <trkpt lat="48.8776" lon="0.8629">
        <ele>199.60000610352</ele>
        <time>2016-05-05T15:48:42.000Z</time>
      </trkpt>
      <trkpt lat="48.87761" lon="0.86288">
        <ele>199.60000610352</ele>
        <time>2016-05-05T15:48:43.000Z</time>
      </trkpt>
      <trkpt lat="48.87764" lon="0.86281">
        <ele>199.80000305176</ele>
        <time>2016-05-05T15:48:47.000Z</time>
      </trkpt>
      <trkpt lat="48.87764" lon="0.86279">
        <ele>199.80000305176</ele>
        <time>2016-05-05T15:48:48.000Z</time>
      </trkpt>
      <trkpt lat="48.87768" lon="0.86273">
        <ele>199.80000305176</ele>
        <time>2016-05-05T15:48:52.000Z</time>
      </trkpt>
      <trkpt lat="48.8777" lon="0.8627">
        <ele>200</ele>
        <time>2016-05-05T15:48:54.000Z</time>
      </trkpt>
      <trkpt lat="48.87771" lon="0.86266">
        <ele>200</ele>
        <time>2016-05-05T15:48:56.000Z</time>
      </trkpt>
      <trkpt lat="48.87774" lon="0.86262">
        <ele>200</ele>
        <time>2016-05-05T15:48:59.000Z</time>
      </trkpt>
      <trkpt lat="48.87776" lon="0.86255">
        <ele>200.19999694824</ele>
        <time>2016-05-05T15:49:03.000Z</time>
      </trkpt>
      <trkpt lat="48.87779" lon="0.86252">
        <ele>200.19999694824</ele>
        <time>2016-05-05T15:49:05.000Z</time>
      </trkpt>
      <trkpt lat="48.87785" lon="0.86246">
        <ele>200.19999694824</ele>
        <time>2016-05-05T15:49:10.000Z</time>
      </trkpt>
      <trkpt lat="48.8779" lon="0.86238">
        <ele>200.39999389648</ele>
        <time>2016-05-05T15:49:15.000Z</time>
      </trkpt>
      <trkpt lat="48.8779" lon="0.86236">
        <ele>200.60000610352</ele>
        <time>2016-05-05T15:49:16.000Z</time>
      </trkpt>
      <trkpt lat="48.87797" lon="0.86228">
        <ele>200.80000305176</ele>
        <time>2016-05-05T15:49:22.000Z</time>
      </trkpt>
      <trkpt lat="48.87803" lon="0.86219">
        <ele>201.19999694824</ele>
        <time>2016-05-05T15:49:28.000Z</time>
      </trkpt>
      <trkpt lat="48.87809" lon="0.8621">
        <ele>201.19999694824</ele>
        <time>2016-05-05T15:49:34.000Z</time>
      </trkpt>
      <trkpt lat="48.87815" lon="0.86201">
        <ele>201.60000610352</ele>
        <time>2016-05-05T15:49:41.000Z</time>
      </trkpt>
      <trkpt lat="48.87818" lon="0.86196">
        <ele>201.60000610352</ele>
        <time>2016-05-05T15:49:44.000Z</time>
      </trkpt>
      <trkpt lat="48.87822" lon="0.86191">
        <ele>201.80000305176</ele>
        <time>2016-05-05T15:49:48.000Z</time>
      </trkpt>
      <trkpt lat="48.87827" lon="0.86185">
        <ele>202</ele>
        <time>2016-05-05T15:49:52.000Z</time>
      </trkpt>
      <trkpt lat="48.87827" lon="0.86183">
        <ele>202</ele>
        <time>2016-05-05T15:49:53.000Z</time>
      </trkpt>
      <trkpt lat="48.87829" lon="0.8618">
        <ele>202</ele>
        <time>2016-05-05T15:49:55.000Z</time>
      </trkpt>
      <trkpt lat="48.87832" lon="0.86176">
        <ele>202.19999694824</ele>
        <time>2016-05-05T15:49:58.000Z</time>
      </trkpt>
      <trkpt lat="48.87833" lon="0.86174">
        <ele>202.19999694824</ele>
        <time>2016-05-05T15:49:59.000Z</time>
      </trkpt>
      <trkpt lat="48.87837" lon="0.86168">
        <ele>202.39999389648</ele>
        <time>2016-05-05T15:50:04.000Z</time>
      </trkpt>
      <trkpt lat="48.87837" lon="0.86166">
        <ele>202.39999389648</ele>
        <time>2016-05-05T15:50:05.000Z</time>
      </trkpt>
      <trkpt lat="48.87842" lon="0.8616">
        <ele>202.60000610352</ele>
        <time>2016-05-05T15:50:09.000Z</time>
      </trkpt>
      <trkpt lat="48.87846" lon="0.86151">
        <ele>202.80000305176</ele>
        <time>2016-05-05T15:50:14.000Z</time>
      </trkpt>
      <trkpt lat="48.87851" lon="0.86141">
        <ele>203</ele>
        <time>2016-05-05T15:50:21.000Z</time>
      </trkpt>
      <trkpt lat="48.87855" lon="0.86136">
        <ele>203</ele>
        <time>2016-05-05T15:50:26.000Z</time>
      </trkpt>
      <trkpt lat="48.87859" lon="0.86129">
        <ele>202.60000610352</ele>
        <time>2016-05-05T15:50:31.000Z</time>
      </trkpt>
      <trkpt lat="48.87862" lon="0.86124">
        <ele>202.39999389648</ele>
        <time>2016-05-05T15:50:34.000Z</time>
      </trkpt>
      <trkpt lat="48.87862" lon="0.86121">
        <ele>202.39999389648</ele>
        <time>2016-05-05T15:50:35.000Z</time>
      </trkpt>
      <trkpt lat="48.87861" lon="0.86114">
        <ele>202.19999694824</ele>
        <time>2016-05-05T15:50:39.000Z</time>
      </trkpt>
      <trkpt lat="48.8786" lon="0.86112">
        <ele>202.19999694824</ele>
        <time>2016-05-05T15:50:40.000Z</time>
      </trkpt>
      <trkpt lat="48.87858" lon="0.8611">
        <ele>202.19999694824</ele>
        <time>2016-05-05T15:50:41.000Z</time>
      </trkpt>
      <trkpt lat="48.87856" lon="0.86104">
        <ele>202.19999694824</ele>
        <time>2016-05-05T15:50:45.000Z</time>
      </trkpt>
      <trkpt lat="48.87855" lon="0.861">
        <ele>202</ele>
        <time>2016-05-05T15:50:47.000Z</time>
      </trkpt>
      <trkpt lat="48.87854" lon="0.86099">
        <ele>202</ele>
        <time>2016-05-05T15:50:48.000Z</time>
      </trkpt>
      <trkpt lat="48.87851" lon="0.86094">
        <ele>201.80000305176</ele>
        <time>2016-05-05T15:50:52.000Z</time>
      </trkpt>
      <trkpt lat="48.87849" lon="0.86091">
        <ele>201.80000305176</ele>
        <time>2016-05-05T15:50:54.000Z</time>
      </trkpt>
      <trkpt lat="48.87847" lon="0.86088">
        <ele>201.80000305176</ele>
        <time>2016-05-05T15:50:57.000Z</time>
      </trkpt>
      <trkpt lat="48.87843" lon="0.86081">
        <ele>201.60000610352</ele>
        <time>2016-05-05T15:51:02.000Z</time>
      </trkpt>
      <trkpt lat="48.87838" lon="0.86075">
        <ele>201.39999389648</ele>
        <time>2016-05-05T15:51:08.000Z</time>
      </trkpt>
      <trkpt lat="48.87832" lon="0.86069">
        <ele>201.39999389648</ele>
        <time>2016-05-05T15:51:13.000Z</time>
      </trkpt>
      <trkpt lat="48.87831" lon="0.86068">
        <ele>201.19999694824</ele>
        <time>2016-05-05T15:51:14.000Z</time>
      </trkpt>
      <trkpt lat="48.87828" lon="0.86064">
        <ele>201.19999694824</ele>
        <time>2016-05-05T15:51:17.000Z</time>
      </trkpt>
      <trkpt lat="48.87826" lon="0.8606">
        <ele>201</ele>
        <time>2016-05-05T15:51:20.000Z</time>
      </trkpt>
      <trkpt lat="48.87827" lon="0.8606">
        <ele>201</ele>
        <time>2016-05-05T15:51:21.000Z</time>
      </trkpt>
      <trkpt lat="48.87827" lon="0.86059">
        <ele>201</ele>
        <time>2016-05-05T15:51:22.000Z</time>
      </trkpt>
      <trkpt lat="48.87807" lon="0.86023">
        <ele>200.19999694824</ele>
        <time>2016-05-05T15:51:50.000Z</time>
      </trkpt>
      <trkpt lat="48.87806" lon="0.86023">
        <ele>200.19999694824</ele>
        <time>2016-05-05T15:51:51.000Z</time>
      </trkpt>
      <trkpt lat="48.87805" lon="0.86022">
        <ele>200.19999694824</ele>
        <time>2016-05-05T15:51:52.000Z</time>
      </trkpt>
      <trkpt lat="48.87805" lon="0.86022">
        <ele>200.19999694824</ele>
        <time>2016-05-05T15:51:54.000Z</time>
      </trkpt>
      <trkpt lat="48.87798" lon="0.86006">
        <ele>199.80000305176</ele>
        <time>2016-05-05T15:52:24.000Z</time>
      </trkpt>
      <trkpt lat="48.87795" lon="0.86003">
        <ele>199.80000305176</ele>
        <time>2016-05-05T15:52:26.000Z</time>
      </trkpt>
      <trkpt lat="48.8779" lon="0.85998">
        <ele>199.60000610352</ele>
        <time>2016-05-05T15:52:30.000Z</time>
      </trkpt>
      <trkpt lat="48.87787" lon="0.85995">
        <ele>199.60000610352</ele>
        <time>2016-05-05T15:52:32.000Z</time>
      </trkpt>
      <trkpt lat="48.87779" lon="0.85983">
        <ele>199.19999694824</ele>
        <time>2016-05-05T15:52:40.000Z</time>
      </trkpt>
      <trkpt lat="48.87777" lon="0.85982">
        <ele>199.19999694824</ele>
        <time>2016-05-05T15:52:41.000Z</time>
      </trkpt>
      <trkpt lat="48.87773" lon="0.85975">
        <ele>199</ele>
        <time>2016-05-05T15:52:46.000Z</time>
      </trkpt>
      <trkpt lat="48.87767" lon="0.85966">
        <ele>199</ele>
        <time>2016-05-05T15:52:52.000Z</time>
      </trkpt>
      <trkpt lat="48.87766" lon="0.85964">
        <ele>199</ele>
        <time>2016-05-05T15:52:53.000Z</time>
      </trkpt>
      <trkpt lat="48.87763" lon="0.85961">
        <ele>199</ele>
        <time>2016-05-05T15:52:56.000Z</time>
      </trkpt>
      <trkpt lat="48.87758" lon="0.85954">
        <ele>199</ele>
        <time>2016-05-05T15:53:01.000Z</time>
      </trkpt>
      <trkpt lat="48.87751" lon="0.85944">
        <ele>199</ele>
        <time>2016-05-05T15:53:09.000Z</time>
      </trkpt>
      <trkpt lat="48.87743" lon="0.85934">
        <ele>198.80000305176</ele>
        <time>2016-05-05T15:53:16.000Z</time>
      </trkpt>
      <trkpt lat="48.87735" lon="0.85924">
        <ele>198.80000305176</ele>
        <time>2016-05-05T15:53:23.000Z</time>
      </trkpt>
      <trkpt lat="48.87727" lon="0.85918">
        <ele>198.80000305176</ele>
        <time>2016-05-05T15:53:29.000Z</time>
      </trkpt>
      <trkpt lat="48.87723" lon="0.85913">
        <ele>198.80000305176</ele>
        <time>2016-05-05T15:53:34.000Z</time>
      </trkpt>
      <trkpt lat="48.87719" lon="0.85907">
        <ele>198.80000305176</ele>
        <time>2016-05-05T15:53:38.000Z</time>
      </trkpt>
      <trkpt lat="48.87716" lon="0.85904">
        <ele>198.80000305176</ele>
        <time>2016-05-05T15:53:41.000Z</time>
      </trkpt>
      <trkpt lat="48.87712" lon="0.859">
        <ele>198.80000305176</ele>
        <time>2016-05-05T15:53:44.000Z</time>
      </trkpt>
      <trkpt lat="48.8771" lon="0.85896">
        <ele>198.80000305176</ele>
        <time>2016-05-05T15:53:47.000Z</time>
      </trkpt>
      <trkpt lat="48.87705" lon="0.85889">
        <ele>198.80000305176</ele>
        <time>2016-05-05T15:53:53.000Z</time>
      </trkpt>
      <trkpt lat="48.87704" lon="0.85888">
        <ele>198.80000305176</ele>
        <time>2016-05-05T15:53:54.000Z</time>
      </trkpt>
      <trkpt lat="48.87703" lon="0.85885">
        <ele>198.80000305176</ele>
        <time>2016-05-05T15:53:56.000Z</time>
      </trkpt>
      <trkpt lat="48.87701" lon="0.85882">
        <ele>199</ele>
        <time>2016-05-05T15:53:58.000Z</time>
      </trkpt>
      <trkpt lat="48.87698" lon="0.8588">
        <ele>199</ele>
        <time>2016-05-05T15:54:00.000Z</time>
      </trkpt>
      <trkpt lat="48.87693" lon="0.85872">
        <ele>199.19999694824</ele>
        <time>2016-05-05T15:54:05.000Z</time>
      </trkpt>
      <trkpt lat="48.87687" lon="0.85866">
        <ele>199.19999694824</ele>
        <time>2016-05-05T15:54:09.000Z</time>
      </trkpt>
      <trkpt lat="48.87686" lon="0.85864">
        <ele>199.19999694824</ele>
        <time>2016-05-05T15:54:10.000Z</time>
      </trkpt>
      <trkpt lat="48.87682" lon="0.85858">
        <ele>199.19999694824</ele>
        <time>2016-05-05T15:54:14.000Z</time>
      </trkpt>
      <trkpt lat="48.87678" lon="0.85855">
        <ele>199.19999694824</ele>
        <time>2016-05-05T15:54:16.000Z</time>
      </trkpt>
      <trkpt lat="48.87671" lon="0.85846">
        <ele>199.19999694824</ele>
        <time>2016-05-05T15:54:22.000Z</time>
      </trkpt>
      <trkpt lat="48.87668" lon="0.85843">
        <ele>199.19999694824</ele>
        <time>2016-05-05T15:54:24.000Z</time>
      </trkpt>
      <trkpt lat="48.87664" lon="0.85837">
        <ele>199.39999389648</ele>
        <time>2016-05-05T15:54:28.000Z</time>
      </trkpt>
      <trkpt lat="48.87663" lon="0.85835">
        <ele>199.39999389648</ele>
        <time>2016-05-05T15:54:29.000Z</time>
      </trkpt>
      <trkpt lat="48.87656" lon="0.85825">
        <ele>199.39999389648</ele>
        <time>2016-05-05T15:54:36.000Z</time>
      </trkpt>
      <trkpt lat="48.87649" lon="0.85813">
        <ele>199.39999389648</ele>
        <time>2016-05-05T15:54:44.000Z</time>
      </trkpt>
      <trkpt lat="48.87647" lon="0.85811">
        <ele>199.39999389648</ele>
        <time>2016-05-05T15:54:46.000Z</time>
      </trkpt>
      <trkpt lat="48.87643" lon="0.85805">
        <ele>199.39999389648</ele>
        <time>2016-05-05T15:54:50.000Z</time>
      </trkpt>
      <trkpt lat="48.8764" lon="0.85801">
        <ele>199.39999389648</ele>
        <time>2016-05-05T15:54:53.000Z</time>
      </trkpt>
      <trkpt lat="48.87637" lon="0.85796">
        <ele>199.19999694824</ele>
        <time>2016-05-05T15:54:56.000Z</time>
      </trkpt>
      <trkpt lat="48.8763" lon="0.85786">
        <ele>199</ele>
        <time>2016-05-05T15:55:04.000Z</time>
      </trkpt>
      <trkpt lat="48.87624" lon="0.8578">
        <ele>198.80000305176</ele>
        <time>2016-05-05T15:55:09.000Z</time>
      </trkpt>
      <trkpt lat="48.87623" lon="0.85778">
        <ele>198.80000305176</ele>
        <time>2016-05-05T15:55:10.000Z</time>
      </trkpt>
      <trkpt lat="48.87617" lon="0.8577">
        <ele>198.60000610352</ele>
        <time>2016-05-05T15:55:16.000Z</time>
      </trkpt>
      <trkpt lat="48.8761" lon="0.85762">
        <ele>198.60000610352</ele>
        <time>2016-05-05T15:55:22.000Z</time>
      </trkpt>
      <trkpt lat="48.87608" lon="0.85759">
        <ele>198.39999389648</ele>
        <time>2016-05-05T15:55:24.000Z</time>
      </trkpt>
      <trkpt lat="48.87604" lon="0.85751">
        <ele>198.39999389648</ele>
        <time>2016-05-05T15:55:29.000Z</time>
      </trkpt>
      <trkpt lat="48.87595" lon="0.85741">
        <ele>198.19999694824</ele>
        <time>2016-05-05T15:55:36.000Z</time>
      </trkpt>
      <trkpt lat="48.87589" lon="0.85734">
        <ele>198.19999694824</ele>
        <time>2016-05-05T15:55:41.000Z</time>
      </trkpt>
      <trkpt lat="48.87586" lon="0.8573">
        <ele>198</ele>
        <time>2016-05-05T15:55:44.000Z</time>
      </trkpt>
      <trkpt lat="48.87584" lon="0.85726">
        <ele>198</ele>
        <time>2016-05-05T15:55:46.000Z</time>
      </trkpt>
      <trkpt lat="48.87577" lon="0.85718">
        <ele>198</ele>
        <time>2016-05-05T15:55:51.000Z</time>
      </trkpt>
      <trkpt lat="48.87576" lon="0.85717">
        <ele>198</ele>
        <time>2016-05-05T15:55:52.000Z</time>
      </trkpt>
      <trkpt lat="48.87567" lon="0.85707">
        <ele>198</ele>
        <time>2016-05-05T15:55:59.000Z</time>
      </trkpt>
      <trkpt lat="48.87566" lon="0.85705">
        <ele>198</ele>
        <time>2016-05-05T15:56:00.000Z</time>
      </trkpt>
      <trkpt lat="48.87562" lon="0.85698">
        <ele>198</ele>
        <time>2016-05-05T15:56:05.000Z</time>
      </trkpt>
      <trkpt lat="48.87561" lon="0.85697">
        <ele>198</ele>
        <time>2016-05-05T15:56:06.000Z</time>
      </trkpt>
      <trkpt lat="48.87552" lon="0.85685">
        <ele>198</ele>
        <time>2016-05-05T15:56:13.000Z</time>
      </trkpt>
      <trkpt lat="48.87543" lon="0.85675">
        <ele>198</ele>
        <time>2016-05-05T15:56:21.000Z</time>
      </trkpt>
      <trkpt lat="48.87542" lon="0.85672">
        <ele>198</ele>
        <time>2016-05-05T15:56:22.000Z</time>
      </trkpt>
      <trkpt lat="48.87538" lon="0.85669">
        <ele>198</ele>
        <time>2016-05-05T15:56:25.000Z</time>
      </trkpt>
      <trkpt lat="48.87533" lon="0.85661">
        <ele>198</ele>
        <time>2016-05-05T15:56:30.000Z</time>
      </trkpt>
      <trkpt lat="48.87531" lon="0.85657">
        <ele>198</ele>
        <time>2016-05-05T15:56:33.000Z</time>
      </trkpt>
      <trkpt lat="48.87528" lon="0.85654">
        <ele>198</ele>
        <time>2016-05-05T15:56:35.000Z</time>
      </trkpt>
      <trkpt lat="48.87525" lon="0.85651">
        <ele>198</ele>
        <time>2016-05-05T15:56:37.000Z</time>
      </trkpt>
      <trkpt lat="48.87522" lon="0.85645">
        <ele>198</ele>
        <time>2016-05-05T15:56:40.000Z</time>
      </trkpt>
      <trkpt lat="48.8752" lon="0.85644">
        <ele>198</ele>
        <time>2016-05-05T15:56:42.000Z</time>
      </trkpt>
      <trkpt lat="48.87515" lon="0.85637">
        <ele>198</ele>
        <time>2016-05-05T15:56:47.000Z</time>
      </trkpt>
      <trkpt lat="48.87511" lon="0.85631">
        <ele>198</ele>
        <time>2016-05-05T15:56:51.000Z</time>
      </trkpt>
      <trkpt lat="48.87507" lon="0.85626">
        <ele>197.80000305176</ele>
        <time>2016-05-05T15:56:54.000Z</time>
      </trkpt>
      <trkpt lat="48.87505" lon="0.85624">
        <ele>197.80000305176</ele>
        <time>2016-05-05T15:56:56.000Z</time>
      </trkpt>
      <trkpt lat="48.87501" lon="0.85619">
        <ele>197.80000305176</ele>
        <time>2016-05-05T15:56:59.000Z</time>
      </trkpt>
      <trkpt lat="48.87492" lon="0.8561">
        <ele>197.60000610352</ele>
        <time>2016-05-05T15:57:06.000Z</time>
      </trkpt>
      <trkpt lat="48.87491" lon="0.85608">
        <ele>197.60000610352</ele>
        <time>2016-05-05T15:57:07.000Z</time>
      </trkpt>
      <trkpt lat="48.87489" lon="0.85606">
        <ele>197.60000610352</ele>
        <time>2016-05-05T15:57:09.000Z</time>
      </trkpt>
      <trkpt lat="48.87485" lon="0.85601">
        <ele>197.60000610352</ele>
        <time>2016-05-05T15:57:12.000Z</time>
      </trkpt>
      <trkpt lat="48.87484" lon="0.856">
        <ele>197.60000610352</ele>
        <time>2016-05-05T15:57:13.000Z</time>
      </trkpt>
      <trkpt lat="48.87477" lon="0.85591">
        <ele>197.39999389648</ele>
        <time>2016-05-05T15:57:19.000Z</time>
      </trkpt>
      <trkpt lat="48.87471" lon="0.85585">
        <ele>197.39999389648</ele>
        <time>2016-05-05T15:57:24.000Z</time>
      </trkpt>
      <trkpt lat="48.87467" lon="0.85575">
        <ele>197.19999694824</ele>
        <time>2016-05-05T15:57:29.000Z</time>
      </trkpt>
      <trkpt lat="48.87466" lon="0.85575">
        <ele>197.19999694824</ele>
        <time>2016-05-05T15:57:30.000Z</time>
      </trkpt>
      <trkpt lat="48.87463" lon="0.85569">
        <ele>197</ele>
        <time>2016-05-05T15:57:33.000Z</time>
      </trkpt>
      <trkpt lat="48.8746" lon="0.85561">
        <ele>196.80000305176</ele>
        <time>2016-05-05T15:57:39.000Z</time>
      </trkpt>
      <trkpt lat="48.87452" lon="0.85548">
        <ele>196.80000305176</ele>
        <time>2016-05-05T15:57:47.000Z</time>
      </trkpt>
      <trkpt lat="48.8745" lon="0.85544">
        <ele>196.80000305176</ele>
        <time>2016-05-05T15:57:50.000Z</time>
      </trkpt>
      <trkpt lat="48.87448" lon="0.85539">
        <ele>196.60000610352</ele>
        <time>2016-05-05T15:57:53.000Z</time>
      </trkpt>
      <trkpt lat="48.87441" lon="0.85533">
        <ele>196.80000305176</ele>
        <time>2016-05-05T15:57:58.000Z</time>
      </trkpt>
      <trkpt lat="48.87433" lon="0.85526">
        <ele>197</ele>
        <time>2016-05-05T15:58:03.000Z</time>
      </trkpt>
      <trkpt lat="48.87428" lon="0.85519">
        <ele>197.19999694824</ele>
        <time>2016-05-05T15:58:07.000Z</time>
      </trkpt>
      <trkpt lat="48.87419" lon="0.8551">
        <ele>197.39999389648</ele>
        <time>2016-05-05T15:58:14.000Z</time>
      </trkpt>
      <trkpt lat="48.87413" lon="0.85501">
        <ele>197.60000610352</ele>
        <time>2016-05-05T15:58:21.000Z</time>
      </trkpt>
      <trkpt lat="48.87407" lon="0.85491">
        <ele>197.80000305176</ele>
        <time>2016-05-05T15:58:28.000Z</time>
      </trkpt>
      <trkpt lat="48.87401" lon="0.85483">
        <ele>198</ele>
        <time>2016-05-05T15:58:34.000Z</time>
      </trkpt>
      <trkpt lat="48.874" lon="0.85482">
        <ele>198</ele>
        <time>2016-05-05T15:58:35.000Z</time>
      </trkpt>
      <trkpt lat="48.87398" lon="0.85478">
        <ele>198</ele>
        <time>2016-05-05T15:58:38.000Z</time>
      </trkpt>
      <trkpt lat="48.87395" lon="0.85472">
        <ele>198.19999694824</ele>
        <time>2016-05-05T15:58:42.000Z</time>
      </trkpt>
      <trkpt lat="48.87395" lon="0.85471">
        <ele>198.19999694824</ele>
        <time>2016-05-05T15:58:43.000Z</time>
      </trkpt>
      <trkpt lat="48.8739" lon="0.85463">
        <ele>198</ele>
        <time>2016-05-05T15:58:49.000Z</time>
      </trkpt>
      <trkpt lat="48.8739" lon="0.85461">
        <ele>198</ele>
        <time>2016-05-05T15:58:50.000Z</time>
      </trkpt>
      <trkpt lat="48.87383" lon="0.85452">
        <ele>198</ele>
        <time>2016-05-05T15:58:55.000Z</time>
      </trkpt>
      <trkpt lat="48.87378" lon="0.85448">
        <ele>198</ele>
        <time>2016-05-05T15:58:59.000Z</time>
      </trkpt>
      <trkpt lat="48.8737" lon="0.8544">
        <ele>198.19999694824</ele>
        <time>2016-05-05T15:59:05.000Z</time>
      </trkpt>
      <trkpt lat="48.87364" lon="0.85436">
        <ele>198.39999389648</ele>
        <time>2016-05-05T15:59:09.000Z</time>
      </trkpt>
      <trkpt lat="48.8736" lon="0.85432">
        <ele>198.39999389648</ele>
        <time>2016-05-05T15:59:12.000Z</time>
      </trkpt>
      <trkpt lat="48.87353" lon="0.85426">
        <ele>198.39999389648</ele>
        <time>2016-05-05T15:59:16.000Z</time>
      </trkpt>
      <trkpt lat="48.87351" lon="0.85425">
        <ele>198.39999389648</ele>
        <time>2016-05-05T15:59:17.000Z</time>
      </trkpt>
      <trkpt lat="48.87346" lon="0.85416">
        <ele>198.19999694824</ele>
        <time>2016-05-05T15:59:23.000Z</time>
      </trkpt>
      <trkpt lat="48.87344" lon="0.85414">
        <ele>198.19999694824</ele>
        <time>2016-05-05T15:59:25.000Z</time>
      </trkpt>
      <trkpt lat="48.87337" lon="0.85407">
        <ele>198</ele>
        <time>2016-05-05T15:59:30.000Z</time>
      </trkpt>
      <trkpt lat="48.87329" lon="0.85397">
        <ele>198</ele>
        <time>2016-05-05T15:59:36.000Z</time>
      </trkpt>
      <trkpt lat="48.87327" lon="0.85396">
        <ele>198</ele>
        <time>2016-05-05T15:59:37.000Z</time>
      </trkpt>
      <trkpt lat="48.87321" lon="0.85389">
        <ele>197.80000305176</ele>
        <time>2016-05-05T15:59:42.000Z</time>
      </trkpt>
      <trkpt lat="48.87319" lon="0.85386">
        <ele>197.80000305176</ele>
        <time>2016-05-05T15:59:44.000Z</time>
      </trkpt>
      <trkpt lat="48.87313" lon="0.85375">
        <ele>197.60000610352</ele>
        <time>2016-05-05T15:59:51.000Z</time>
      </trkpt>
      <trkpt lat="48.87304" lon="0.85361">
        <ele>197.60000610352</ele>
        <time>2016-05-05T15:59:59.000Z</time>
      </trkpt>
      <trkpt lat="48.87299" lon="0.85351">
        <ele>197.39999389648</ele>
        <time>2016-05-05T16:00:06.000Z</time>
      </trkpt>
      <trkpt lat="48.87293" lon="0.85343">
        <ele>197.39999389648</ele>
        <time>2016-05-05T16:00:12.000Z</time>
      </trkpt>
      <trkpt lat="48.87288" lon="0.85333">
        <ele>197.19999694824</ele>
        <time>2016-05-05T16:00:19.000Z</time>
      </trkpt>
      <trkpt lat="48.87283" lon="0.85323">
        <ele>197.19999694824</ele>
        <time>2016-05-05T16:00:25.000Z</time>
      </trkpt>
      <trkpt lat="48.87282" lon="0.85322">
        <ele>197.19999694824</ele>
        <time>2016-05-05T16:00:26.000Z</time>
      </trkpt>
      <trkpt lat="48.87278" lon="0.85317">
        <ele>197.19999694824</ele>
        <time>2016-05-05T16:00:30.000Z</time>
      </trkpt>
      <trkpt lat="48.87275" lon="0.85309">
        <ele>197</ele>
        <time>2016-05-05T16:00:34.000Z</time>
      </trkpt>
      <trkpt lat="48.87274" lon="0.85307">
        <ele>197</ele>
        <time>2016-05-05T16:00:35.000Z</time>
      </trkpt>
      <trkpt lat="48.87269" lon="0.85302">
        <ele>197</ele>
        <time>2016-05-05T16:00:40.000Z</time>
      </trkpt>
      <trkpt lat="48.87268" lon="0.85298">
        <ele>197</ele>
        <time>2016-05-05T16:00:42.000Z</time>
      </trkpt>
      <trkpt lat="48.87267" lon="0.85295">
        <ele>197</ele>
        <time>2016-05-05T16:00:44.000Z</time>
      </trkpt>
      <trkpt lat="48.87265" lon="0.85282">
        <ele>196.80000305176</ele>
        <time>2016-05-05T16:00:50.000Z</time>
      </trkpt>
      <trkpt lat="48.87262" lon="0.8528">
        <ele>196.80000305176</ele>
        <time>2016-05-05T16:00:54.000Z</time>
      </trkpt>
      <trkpt lat="48.87262" lon="0.85279">
        <ele>196.80000305176</ele>
        <time>2016-05-05T16:00:55.000Z</time>
      </trkpt>
      <trkpt lat="48.87254" lon="0.85232">
        <ele>196.39999389648</ele>
        <time>2016-05-05T16:02:45.000Z</time>
      </trkpt>
      <trkpt lat="48.87256" lon="0.85227">
        <ele>196.19999694824</ele>
        <time>2016-05-05T16:02:48.000Z</time>
      </trkpt>
      <trkpt lat="48.87255" lon="0.85214">
        <ele>196.19999694824</ele>
        <time>2016-05-05T16:02:55.000Z</time>
      </trkpt>
      <trkpt lat="48.87256" lon="0.852">
        <ele>195.80000305176</ele>
        <time>2016-05-05T16:03:03.000Z</time>
      </trkpt>
      <trkpt lat="48.87255" lon="0.85199">
        <ele>195.80000305176</ele>
        <time>2016-05-05T16:03:06.000Z</time>
      </trkpt>
      <trkpt lat="48.87263" lon="0.85163">
        <ele>194.80000305176</ele>
        <time>2016-05-05T16:03:47.000Z</time>
      </trkpt>
      <trkpt lat="48.87263" lon="0.85162">
        <ele>194.80000305176</ele>
        <time>2016-05-05T16:03:48.000Z</time>
      </trkpt>
      <trkpt lat="48.87265" lon="0.85153">
        <ele>194.60000610352</ele>
        <time>2016-05-05T16:03:53.000Z</time>
      </trkpt>
      <trkpt lat="48.87266" lon="0.85152">
        <ele>194.39999389648</ele>
        <time>2016-05-05T16:03:54.000Z</time>
      </trkpt>
      <trkpt lat="48.87266" lon="0.85143">
        <ele>194.19999694824</ele>
        <time>2016-05-05T16:03:58.000Z</time>
      </trkpt>
      <trkpt lat="48.87266" lon="0.85142">
        <ele>194.19999694824</ele>
        <time>2016-05-05T16:03:59.000Z</time>
      </trkpt>
      <trkpt lat="48.87268" lon="0.85132">
        <ele>194</ele>
        <time>2016-05-05T16:04:04.000Z</time>
      </trkpt>
      <trkpt lat="48.87268" lon="0.85127">
        <ele>194</ele>
        <time>2016-05-05T16:04:10.000Z</time>
      </trkpt>
      <trkpt lat="48.87261" lon="0.85064">
        <ele>193.19999694824</ele>
        <time>2016-05-05T16:05:56.000Z</time>
      </trkpt>
      <trkpt lat="48.8726" lon="0.85051">
        <ele>193</ele>
        <time>2016-05-05T16:06:03.000Z</time>
      </trkpt>
      <trkpt lat="48.87261" lon="0.85034">
        <ele>192.60000610352</ele>
        <time>2016-05-05T16:06:10.000Z</time>
      </trkpt>
      <trkpt lat="48.87261" lon="0.85032">
        <ele>192.60000610352</ele>
        <time>2016-05-05T16:06:11.000Z</time>
      </trkpt>
      <trkpt lat="48.87261" lon="0.85019">
        <ele>192.39999389648</ele>
        <time>2016-05-05T16:06:17.000Z</time>
      </trkpt>
      <trkpt lat="48.87262" lon="0.85013">
        <ele>192.39999389648</ele>
        <time>2016-05-05T16:06:20.000Z</time>
      </trkpt>
      <trkpt lat="48.87262" lon="0.85005">
        <ele>192.19999694824</ele>
        <time>2016-05-05T16:06:24.000Z</time>
      </trkpt>
      <trkpt lat="48.87263" lon="0.85">
        <ele>192.19999694824</ele>
        <time>2016-05-05T16:06:26.000Z</time>
      </trkpt>
      <trkpt lat="48.87262" lon="0.84995">
        <ele>192.19999694824</ele>
        <time>2016-05-05T16:06:29.000Z</time>
      </trkpt>
      <trkpt lat="48.87262" lon="0.84983">
        <ele>192</ele>
        <time>2016-05-05T16:06:35.000Z</time>
      </trkpt>
      <trkpt lat="48.87261" lon="0.84977">
        <ele>192</ele>
        <time>2016-05-05T16:06:38.000Z</time>
      </trkpt>
      <trkpt lat="48.87261" lon="0.84973">
        <ele>191.80000305176</ele>
        <time>2016-05-05T16:06:40.000Z</time>
      </trkpt>
      <trkpt lat="48.87262" lon="0.84968">
        <ele>191.60000610352</ele>
        <time>2016-05-05T16:06:43.000Z</time>
      </trkpt>
      <trkpt lat="48.87261" lon="0.84964">
        <ele>191.60000610352</ele>
        <time>2016-05-05T16:06:45.000Z</time>
      </trkpt>
      <trkpt lat="48.8726" lon="0.84954">
        <ele>191.19999694824</ele>
        <time>2016-05-05T16:06:50.000Z</time>
      </trkpt>
      <trkpt lat="48.8726" lon="0.84952">
        <ele>191</ele>
        <time>2016-05-05T16:06:51.000Z</time>
      </trkpt>
      <trkpt lat="48.87263" lon="0.84943">
        <ele>190.80000305176</ele>
        <time>2016-05-05T16:06:55.000Z</time>
      </trkpt>
      <trkpt lat="48.87263" lon="0.84941">
        <ele>190.80000305176</ele>
        <time>2016-05-05T16:06:56.000Z</time>
      </trkpt>
      <trkpt lat="48.87264" lon="0.84933">
        <ele>190.39999389648</ele>
        <time>2016-05-05T16:06:59.000Z</time>
      </trkpt>
      <trkpt lat="48.87265" lon="0.84924">
        <ele>190.19999694824</ele>
        <time>2016-05-05T16:07:03.000Z</time>
      </trkpt>
      <trkpt lat="48.87267" lon="0.84908">
        <ele>189.60000610352</ele>
        <time>2016-05-05T16:07:10.000Z</time>
      </trkpt>
      <trkpt lat="48.87267" lon="0.84889">
        <ele>189</ele>
        <time>2016-05-05T16:07:18.000Z</time>
      </trkpt>
      <trkpt lat="48.87267" lon="0.84867">
        <ele>188.19999694824</ele>
        <time>2016-05-05T16:07:27.000Z</time>
      </trkpt>
      <trkpt lat="48.87268" lon="0.84856">
        <ele>187.80000305176</ele>
        <time>2016-05-05T16:07:32.000Z</time>
      </trkpt>
      <trkpt lat="48.87268" lon="0.84855">
        <ele>187.80000305176</ele>
        <time>2016-05-05T16:07:33.000Z</time>
      </trkpt>
      <trkpt lat="48.8727" lon="0.8484">
        <ele>187.19999694824</ele>
        <time>2016-05-05T16:07:40.000Z</time>
      </trkpt>
      <trkpt lat="48.87271" lon="0.84835">
        <ele>187</ele>
        <time>2016-05-05T16:07:42.000Z</time>
      </trkpt>
      <trkpt lat="48.87272" lon="0.84826">
        <ele>186.80000305176</ele>
        <time>2016-05-05T16:07:46.000Z</time>
      </trkpt>
      <trkpt lat="48.87272" lon="0.84824">
        <ele>186.60000610352</ele>
        <time>2016-05-05T16:07:47.000Z</time>
      </trkpt>
      <trkpt lat="48.87273" lon="0.84817">
        <ele>186.39999389648</ele>
        <time>2016-05-05T16:07:51.000Z</time>
      </trkpt>
      <trkpt lat="48.87274" lon="0.84812">
        <ele>186.19999694824</ele>
        <time>2016-05-05T16:07:53.000Z</time>
      </trkpt>
      <trkpt lat="48.87275" lon="0.848">
        <ele>185.60000610352</ele>
        <time>2016-05-05T16:07:59.000Z</time>
      </trkpt>
      <trkpt lat="48.87275" lon="0.84796">
        <ele>185.19999694824</ele>
        <time>2016-05-05T16:08:01.000Z</time>
      </trkpt>
      <trkpt lat="48.87276" lon="0.84787">
        <ele>184.60000610352</ele>
        <time>2016-05-05T16:08:06.000Z</time>
      </trkpt>
      <trkpt lat="48.87277" lon="0.84778">
        <ele>184</ele>
        <time>2016-05-05T16:08:11.000Z</time>
      </trkpt>
      <trkpt lat="48.87278" lon="0.84765">
        <ele>183</ele>
        <time>2016-05-05T16:08:17.000Z</time>
      </trkpt>
      <trkpt lat="48.87278" lon="0.84761">
        <ele>182.80000305176</ele>
        <time>2016-05-05T16:08:19.000Z</time>
      </trkpt>
      <trkpt lat="48.87279" lon="0.84756">
        <ele>182.39999389648</ele>
        <time>2016-05-05T16:08:22.000Z</time>
      </trkpt>
      <trkpt lat="48.8728" lon="0.84748">
        <ele>181.80000305176</ele>
        <time>2016-05-05T16:08:27.000Z</time>
      </trkpt>
      <trkpt lat="48.8728" lon="0.84743">
        <ele>181.39999389648</ele>
        <time>2016-05-05T16:08:29.000Z</time>
      </trkpt>
      <trkpt lat="48.8728" lon="0.84732">
        <ele>180.60000610352</ele>
        <time>2016-05-05T16:08:33.000Z</time>
      </trkpt>
      <trkpt lat="48.87281" lon="0.8473">
        <ele>180.60000610352</ele>
        <time>2016-05-05T16:08:34.000Z</time>
      </trkpt>
      <trkpt lat="48.87282" lon="0.8472">
        <ele>180.60000610352</ele>
        <time>2016-05-05T16:08:39.000Z</time>
      </trkpt>
      <trkpt lat="48.87282" lon="0.84712">
        <ele>180.60000610352</ele>
        <time>2016-05-05T16:08:43.000Z</time>
      </trkpt>
      <trkpt lat="48.87282" lon="0.8471">
        <ele>180.39999389648</ele>
        <time>2016-05-05T16:08:44.000Z</time>
      </trkpt>
      <trkpt lat="48.87283" lon="0.84695">
        <ele>180.39999389648</ele>
        <time>2016-05-05T16:08:51.000Z</time>
      </trkpt>
      <trkpt lat="48.87284" lon="0.84685">
        <ele>180.39999389648</ele>
        <time>2016-05-05T16:08:56.000Z</time>
      </trkpt>
      <trkpt lat="48.87284" lon="0.84681">
        <ele>180.19999694824</ele>
        <time>2016-05-05T16:08:58.000Z</time>
      </trkpt>
      <trkpt lat="48.87285" lon="0.84673">
        <ele>180.19999694824</ele>
        <time>2016-05-05T16:09:02.000Z</time>
      </trkpt>
      <trkpt lat="48.87285" lon="0.84671">
        <ele>180.19999694824</ele>
        <time>2016-05-05T16:09:03.000Z</time>
      </trkpt>
      <trkpt lat="48.87287" lon="0.84656">
        <ele>180.19999694824</ele>
        <time>2016-05-05T16:09:11.000Z</time>
      </trkpt>
      <trkpt lat="48.87287" lon="0.84651">
        <ele>180.19999694824</ele>
        <time>2016-05-05T16:09:13.000Z</time>
      </trkpt>
      <trkpt lat="48.87287" lon="0.84645">
        <ele>180.19999694824</ele>
        <time>2016-05-05T16:09:16.000Z</time>
      </trkpt>
      <trkpt lat="48.87287" lon="0.84631">
        <ele>180.19999694824</ele>
        <time>2016-05-05T16:09:22.000Z</time>
      </trkpt>
      <trkpt lat="48.87287" lon="0.84629">
        <ele>180.19999694824</ele>
        <time>2016-05-05T16:09:23.000Z</time>
      </trkpt>
      <trkpt lat="48.87288" lon="0.84621">
        <ele>180.19999694824</ele>
        <time>2016-05-05T16:09:28.000Z</time>
      </trkpt>
      <trkpt lat="48.87288" lon="0.84617">
        <ele>180.19999694824</ele>
        <time>2016-05-05T16:09:30.000Z</time>
      </trkpt>
      <trkpt lat="48.87288" lon="0.84606">
        <ele>180.19999694824</ele>
        <time>2016-05-05T16:09:35.000Z</time>
      </trkpt>
      <trkpt lat="48.87288" lon="0.84591">
        <ele>180.19999694824</ele>
        <time>2016-05-05T16:09:42.000Z</time>
      </trkpt>
      <trkpt lat="48.87289" lon="0.84577">
        <ele>180.39999389648</ele>
        <time>2016-05-05T16:09:48.000Z</time>
      </trkpt>
      <trkpt lat="48.8729" lon="0.84567">
        <ele>180.39999389648</ele>
        <time>2016-05-05T16:09:53.000Z</time>
      </trkpt>
      <trkpt lat="48.8729" lon="0.84562">
        <ele>180.19999694824</ele>
        <time>2016-05-05T16:09:55.000Z</time>
      </trkpt>
      <trkpt lat="48.8729" lon="0.84557">
        <ele>180</ele>
        <time>2016-05-05T16:09:57.000Z</time>
      </trkpt>
      <trkpt lat="48.8729" lon="0.84547">
        <ele>179.60000610352</ele>
        <time>2016-05-05T16:10:02.000Z</time>
      </trkpt>
      <trkpt lat="48.87289" lon="0.84539">
        <ele>179.39999389648</ele>
        <time>2016-05-05T16:10:06.000Z</time>
      </trkpt>
      <trkpt lat="48.87289" lon="0.84537">
        <ele>179.39999389648</ele>
        <time>2016-05-05T16:10:07.000Z</time>
      </trkpt>
      <trkpt lat="48.87289" lon="0.84535">
        <ele>179.19999694824</ele>
        <time>2016-05-05T16:10:11.000Z</time>
      </trkpt>
      <trkpt lat="48.87291" lon="0.845">
        <ele>178</ele>
        <time>2016-05-05T16:10:46.000Z</time>
      </trkpt>
      <trkpt lat="48.87291" lon="0.84498">
        <ele>178</ele>
        <time>2016-05-05T16:10:47.000Z</time>
      </trkpt>
      <trkpt lat="48.8729" lon="0.84491">
        <ele>177.60000610352</ele>
        <time>2016-05-05T16:10:52.000Z</time>
      </trkpt>
      <trkpt lat="48.8729" lon="0.84484">
        <ele>177.39999389648</ele>
        <time>2016-05-05T16:11:02.000Z</time>
      </trkpt>
      <trkpt lat="48.87284" lon="0.84432">
        <ele>172.19999694824</ele>
        <time>2016-05-05T16:11:49.000Z</time>
      </trkpt>
      <trkpt lat="48.8728" lon="0.84433">
        <ele>172</ele>
        <time>2016-05-05T16:11:52.000Z</time>
      </trkpt>
      <trkpt lat="48.87271" lon="0.84436">
        <ele>172.19999694824</ele>
        <time>2016-05-05T16:11:59.000Z</time>
      </trkpt>
      <trkpt lat="48.87263" lon="0.84439">
        <ele>172.80000305176</ele>
        <time>2016-05-05T16:12:05.000Z</time>
      </trkpt>
      <trkpt lat="48.87255" lon="0.84441">
        <ele>173.39999389648</ele>
        <time>2016-05-05T16:12:12.000Z</time>
      </trkpt>
      <trkpt lat="48.87249" lon="0.84443">
        <ele>173.60000610352</ele>
        <time>2016-05-05T16:12:17.000Z</time>
      </trkpt>
      <trkpt lat="48.87248" lon="0.84444">
        <ele>173.80000305176</ele>
        <time>2016-05-05T16:12:18.000Z</time>
      </trkpt>
      <trkpt lat="48.87243" lon="0.84445">
        <ele>174</ele>
        <time>2016-05-05T16:12:22.000Z</time>
      </trkpt>
      <trkpt lat="48.87236" lon="0.84446">
        <ele>173.80000305176</ele>
        <time>2016-05-05T16:12:28.000Z</time>
      </trkpt>
      <trkpt lat="48.87233" lon="0.84448">
        <ele>173.80000305176</ele>
        <time>2016-05-05T16:12:31.000Z</time>
      </trkpt>
      <trkpt lat="48.87233" lon="0.84448">
        <ele>173.80000305176</ele>
        <time>2016-05-05T16:12:32.000Z</time>
      </trkpt>
      <trkpt lat="48.87217" lon="0.8446">
        <ele>174</ele>
        <time>2016-05-05T16:13:03.000Z</time>
      </trkpt>
      <trkpt lat="48.87207" lon="0.84471">
        <ele>174.39999389648</ele>
        <time>2016-05-05T16:13:07.000Z</time>
      </trkpt>
      <trkpt lat="48.87203" lon="0.84474">
        <ele>174.39999389648</ele>
        <time>2016-05-05T16:13:10.000Z</time>
      </trkpt>
      <trkpt lat="48.87201" lon="0.84475">
        <ele>174.39999389648</ele>
        <time>2016-05-05T16:13:11.000Z</time>
      </trkpt>
      <trkpt lat="48.87197" lon="0.84478">
        <ele>174.39999389648</ele>
        <time>2016-05-05T16:13:16.000Z</time>
      </trkpt>
      <trkpt lat="48.87195" lon="0.84479">
        <ele>174.39999389648</ele>
        <time>2016-05-05T16:13:17.000Z</time>
      </trkpt>
      <trkpt lat="48.8719" lon="0.84482">
        <ele>174.39999389648</ele>
        <time>2016-05-05T16:13:21.000Z</time>
      </trkpt>
      <trkpt lat="48.87184" lon="0.84484">
        <ele>174.39999389648</ele>
        <time>2016-05-05T16:13:25.000Z</time>
      </trkpt>
      <trkpt lat="48.87181" lon="0.84485">
        <ele>174.60000610352</ele>
        <time>2016-05-05T16:13:27.000Z</time>
      </trkpt>
      <trkpt lat="48.87176" lon="0.84489">
        <ele>174.80000305176</ele>
        <time>2016-05-05T16:13:30.000Z</time>
      </trkpt>
      <trkpt lat="48.8717" lon="0.84492">
        <ele>175</ele>
        <time>2016-05-05T16:13:36.000Z</time>
      </trkpt>
      <trkpt lat="48.87169" lon="0.84494">
        <ele>175</ele>
        <time>2016-05-05T16:13:37.000Z</time>
      </trkpt>
      <trkpt lat="48.87163" lon="0.84498">
        <ele>175.19999694824</ele>
        <time>2016-05-05T16:13:43.000Z</time>
      </trkpt>
      <trkpt lat="48.8716" lon="0.845">
        <ele>175.39999389648</ele>
        <time>2016-05-05T16:13:45.000Z</time>
      </trkpt>
      <trkpt lat="48.87155" lon="0.84503">
        <ele>175.60000610352</ele>
        <time>2016-05-05T16:13:49.000Z</time>
      </trkpt>
      <trkpt lat="48.87149" lon="0.84507">
        <ele>175.80000305176</ele>
        <time>2016-05-05T16:13:53.000Z</time>
      </trkpt>
      <trkpt lat="48.87149" lon="0.84507">
        <ele>175.80000305176</ele>
        <time>2016-05-05T16:13:54.000Z</time>
      </trkpt>
      <trkpt lat="48.87144" lon="0.84512">
        <ele>176</ele>
        <time>2016-05-05T16:13:58.000Z</time>
      </trkpt>
      <trkpt lat="48.87142" lon="0.84513">
        <ele>175.80000305176</ele>
        <time>2016-05-05T16:14:00.000Z</time>
      </trkpt>
      <trkpt lat="48.87134" lon="0.84519">
        <ele>175.60000610352</ele>
        <time>2016-05-05T16:14:06.000Z</time>
      </trkpt>
      <trkpt lat="48.87126" lon="0.84527">
        <ele>175.39999389648</ele>
        <time>2016-05-05T16:14:13.000Z</time>
      </trkpt>
      <trkpt lat="48.87118" lon="0.84533">
        <ele>175.19999694824</ele>
        <time>2016-05-05T16:14:21.000Z</time>
      </trkpt>
      <trkpt lat="48.87114" lon="0.84539">
        <ele>175.19999694824</ele>
        <time>2016-05-05T16:14:26.000Z</time>
      </trkpt>
      <trkpt lat="48.8711" lon="0.84543">
        <ele>175</ele>
        <time>2016-05-05T16:14:30.000Z</time>
      </trkpt>
      <trkpt lat="48.87107" lon="0.84545">
        <ele>175</ele>
        <time>2016-05-05T16:14:32.000Z</time>
      </trkpt>
      <trkpt lat="48.871" lon="0.84549">
        <ele>174.80000305176</ele>
        <time>2016-05-05T16:14:37.000Z</time>
      </trkpt>
      <trkpt lat="48.87095" lon="0.84554">
        <ele>174.60000610352</ele>
        <time>2016-05-05T16:14:41.000Z</time>
      </trkpt>
      <trkpt lat="48.87093" lon="0.84555">
        <ele>174.39999389648</ele>
        <time>2016-05-05T16:14:42.000Z</time>
      </trkpt>
      <trkpt lat="48.8709" lon="0.84559">
        <ele>174.39999389648</ele>
        <time>2016-05-05T16:14:45.000Z</time>
      </trkpt>
      <trkpt lat="48.87089" lon="0.84559">
        <ele>174.39999389648</ele>
        <time>2016-05-05T16:14:46.000Z</time>
      </trkpt>
      <trkpt lat="48.87083" lon="0.84563">
        <ele>174.19999694824</ele>
        <time>2016-05-05T16:14:50.000Z</time>
      </trkpt>
      <trkpt lat="48.87076" lon="0.84567">
        <ele>174.19999694824</ele>
        <time>2016-05-05T16:14:55.000Z</time>
      </trkpt>
      <trkpt lat="48.87069" lon="0.84572">
        <ele>174</ele>
        <time>2016-05-05T16:15:00.000Z</time>
      </trkpt>
      <trkpt lat="48.87067" lon="0.84573">
        <ele>174</ele>
        <time>2016-05-05T16:15:01.000Z</time>
      </trkpt>
      <trkpt lat="48.87056" lon="0.8458">
        <ele>173.80000305176</ele>
        <time>2016-05-05T16:15:09.000Z</time>
      </trkpt>
      <trkpt lat="48.87053" lon="0.84582">
        <ele>173.80000305176</ele>
        <time>2016-05-05T16:15:11.000Z</time>
      </trkpt>
      <trkpt lat="48.87049" lon="0.84585">
        <ele>173.60000610352</ele>
        <time>2016-05-05T16:15:14.000Z</time>
      </trkpt>
      <trkpt lat="48.87047" lon="0.84585">
        <ele>173.60000610352</ele>
        <time>2016-05-05T16:15:15.000Z</time>
      </trkpt>
      <trkpt lat="48.8704" lon="0.84591">
        <ele>173.39999389648</ele>
        <time>2016-05-05T16:15:20.000Z</time>
      </trkpt>
      <trkpt lat="48.87034" lon="0.84595">
        <ele>173</ele>
        <time>2016-05-05T16:15:25.000Z</time>
      </trkpt>
      <trkpt lat="48.87031" lon="0.84597">
        <ele>173</ele>
        <time>2016-05-05T16:15:27.000Z</time>
      </trkpt>
      <trkpt lat="48.87024" lon="0.84603">
        <ele>172.80000305176</ele>
        <time>2016-05-05T16:15:32.000Z</time>
      </trkpt>
      <trkpt lat="48.87015" lon="0.8461">
        <ele>173</ele>
        <time>2016-05-05T16:15:38.000Z</time>
      </trkpt>
      <trkpt lat="48.87007" lon="0.84617">
        <ele>173.19999694824</ele>
        <time>2016-05-05T16:15:44.000Z</time>
      </trkpt>
      <trkpt lat="48.87004" lon="0.84619">
        <ele>173.19999694824</ele>
        <time>2016-05-05T16:15:46.000Z</time>
      </trkpt>
      <trkpt lat="48.87002" lon="0.84621">
        <ele>173.39999389648</ele>
        <time>2016-05-05T16:15:47.000Z</time>
      </trkpt>
      <trkpt lat="48.86999" lon="0.84623">
        <ele>173.39999389648</ele>
        <time>2016-05-05T16:15:49.000Z</time>
      </trkpt>
      <trkpt lat="48.8699" lon="0.8463">
        <ele>173.39999389648</ele>
        <time>2016-05-05T16:15:55.000Z</time>
      </trkpt>
      <trkpt lat="48.8699" lon="0.84632">
        <ele>173.39999389648</ele>
        <time>2016-05-05T16:15:56.000Z</time>
      </trkpt>
      <trkpt lat="48.86985" lon="0.84638">
        <ele>173.60000610352</ele>
        <time>2016-05-05T16:16:00.000Z</time>
      </trkpt>
      <trkpt lat="48.86984" lon="0.84638">
        <ele>173.60000610352</ele>
        <time>2016-05-05T16:16:02.000Z</time>
      </trkpt>
      <trkpt lat="48.86983" lon="0.8464">
        <ele>173.60000610352</ele>
        <time>2016-05-05T16:16:06.000Z</time>
      </trkpt>
      <trkpt lat="48.86976" lon="0.84621">
        <ele>173</ele>
        <time>2016-05-05T16:16:25.000Z</time>
      </trkpt>
      <trkpt lat="48.86976" lon="0.84615">
        <ele>172.80000305176</ele>
        <time>2016-05-05T16:16:28.000Z</time>
      </trkpt>
      <trkpt lat="48.86977" lon="0.84613">
        <ele>172.80000305176</ele>
        <time>2016-05-05T16:16:29.000Z</time>
      </trkpt>
      <trkpt lat="48.86979" lon="0.84594">
        <ele>172.39999389648</ele>
        <time>2016-05-05T16:16:38.000Z</time>
      </trkpt>
      <trkpt lat="48.86982" lon="0.8458">
        <ele>171.80000305176</ele>
        <time>2016-05-05T16:16:46.000Z</time>
      </trkpt>
      <trkpt lat="48.86983" lon="0.84574">
        <ele>171.60000610352</ele>
        <time>2016-05-05T16:16:49.000Z</time>
      </trkpt>
      <trkpt lat="48.86984" lon="0.84571">
        <ele>171.60000610352</ele>
        <time>2016-05-05T16:16:52.000Z</time>
      </trkpt>
      <trkpt lat="48.86983" lon="0.84571">
        <ele>171.60000610352</ele>
        <time>2016-05-05T16:16:53.000Z</time>
      </trkpt>
      <trkpt lat="48.86988" lon="0.84541">
        <ele>171.80000305176</ele>
        <time>2016-05-05T16:17:28.000Z</time>
      </trkpt>
      <trkpt lat="48.86989" lon="0.84536">
        <ele>172.19999694824</ele>
        <time>2016-05-05T16:17:31.000Z</time>
      </trkpt>
      <trkpt lat="48.8699" lon="0.84529">
        <ele>172.60000610352</ele>
        <time>2016-05-05T16:17:35.000Z</time>
      </trkpt>
      <trkpt lat="48.8699" lon="0.84522">
        <ele>173</ele>
        <time>2016-05-05T16:17:39.000Z</time>
      </trkpt>
      <trkpt lat="48.86991" lon="0.84516">
        <ele>173.19999694824</ele>
        <time>2016-05-05T16:17:43.000Z</time>
      </trkpt>
      <trkpt lat="48.86992" lon="0.84511">
        <ele>173.19999694824</ele>
        <time>2016-05-05T16:17:46.000Z</time>
      </trkpt>
      <trkpt lat="48.86995" lon="0.84499">
        <ele>173.39999389648</ele>
        <time>2016-05-05T16:17:53.000Z</time>
      </trkpt>
      <trkpt lat="48.86997" lon="0.84487">
        <ele>173.60000610352</ele>
        <time>2016-05-05T16:17:59.000Z</time>
      </trkpt>
      <trkpt lat="48.86998" lon="0.84486">
        <ele>173.60000610352</ele>
        <time>2016-05-05T16:18:00.000Z</time>
      </trkpt>
      <trkpt lat="48.86999" lon="0.84477">
        <ele>173.80000305176</ele>
        <time>2016-05-05T16:18:04.000Z</time>
      </trkpt>
      <trkpt lat="48.87" lon="0.84476">
        <ele>173.80000305176</ele>
        <time>2016-05-05T16:18:05.000Z</time>
      </trkpt>
      <trkpt lat="48.87001" lon="0.84463">
        <ele>174</ele>
        <time>2016-05-05T16:18:11.000Z</time>
      </trkpt>
      <trkpt lat="48.87003" lon="0.84451">
        <ele>174.60000610352</ele>
        <time>2016-05-05T16:18:17.000Z</time>
      </trkpt>
      <trkpt lat="48.87005" lon="0.84434">
        <ele>175</ele>
        <time>2016-05-05T16:18:25.000Z</time>
      </trkpt>
      <trkpt lat="48.87008" lon="0.84414">
        <ele>175.60000610352</ele>
        <time>2016-05-05T16:18:35.000Z</time>
      </trkpt>
      <trkpt lat="48.8701" lon="0.844">
        <ele>176</ele>
        <time>2016-05-05T16:18:42.000Z</time>
      </trkpt>
      <trkpt lat="48.8701" lon="0.84399">
        <ele>176</ele>
        <time>2016-05-05T16:18:43.000Z</time>
      </trkpt>
      <trkpt lat="48.87012" lon="0.84391">
        <ele>176.39999389648</ele>
        <time>2016-05-05T16:18:49.000Z</time>
      </trkpt>
      <trkpt lat="48.87013" lon="0.84384">
        <ele>176.39999389648</ele>
        <time>2016-05-05T16:18:54.000Z</time>
      </trkpt>
      <trkpt lat="48.87013" lon="0.8438">
        <ele>176.60000610352</ele>
        <time>2016-05-05T16:18:56.000Z</time>
      </trkpt>
      <trkpt lat="48.87015" lon="0.84371">
        <ele>176.80000305176</ele>
        <time>2016-05-05T16:19:00.000Z</time>
      </trkpt>
      <trkpt lat="48.87018" lon="0.84362">
        <ele>176.80000305176</ele>
        <time>2016-05-05T16:19:05.000Z</time>
      </trkpt>
      <trkpt lat="48.8702" lon="0.84358">
        <ele>176.80000305176</ele>
        <time>2016-05-05T16:19:07.000Z</time>
      </trkpt>
      <trkpt lat="48.87024" lon="0.84342">
        <ele>177.19999694824</ele>
        <time>2016-05-05T16:19:15.000Z</time>
      </trkpt>
      <trkpt lat="48.87028" lon="0.84326">
        <ele>177.60000610352</ele>
        <time>2016-05-05T16:19:22.000Z</time>
      </trkpt>
      <trkpt lat="48.87031" lon="0.84308">
        <ele>178</ele>
        <time>2016-05-05T16:19:30.000Z</time>
      </trkpt>
      <trkpt lat="48.87032" lon="0.84302">
        <ele>178.19999694824</ele>
        <time>2016-05-05T16:19:33.000Z</time>
      </trkpt>
      <trkpt lat="48.87033" lon="0.84293">
        <ele>178.60000610352</ele>
        <time>2016-05-05T16:19:37.000Z</time>
      </trkpt>
      <trkpt lat="48.87035" lon="0.84283">
        <ele>179</ele>
        <time>2016-05-05T16:19:42.000Z</time>
      </trkpt>
      <trkpt lat="48.87039" lon="0.84271">
        <ele>179.39999389648</ele>
        <time>2016-05-05T16:19:49.000Z</time>
      </trkpt>
      <trkpt lat="48.87041" lon="0.84265">
        <ele>179.60000610352</ele>
        <time>2016-05-05T16:19:52.000Z</time>
      </trkpt>
      <trkpt lat="48.87041" lon="0.84257">
        <ele>180</ele>
        <time>2016-05-05T16:19:55.000Z</time>
      </trkpt>
      <trkpt lat="48.87042" lon="0.84243">
        <ele>180.39999389648</ele>
        <time>2016-05-05T16:20:00.000Z</time>
      </trkpt>
      <trkpt lat="48.87043" lon="0.84234">
        <ele>180.80000305176</ele>
        <time>2016-05-05T16:20:04.000Z</time>
      </trkpt>
      <trkpt lat="48.87046" lon="0.84217">
        <ele>181</ele>
        <time>2016-05-05T16:20:11.000Z</time>
      </trkpt>
      <trkpt lat="48.87047" lon="0.84211">
        <ele>181.19999694824</ele>
        <time>2016-05-05T16:20:16.000Z</time>
      </trkpt>
      <trkpt lat="48.87052" lon="0.8417">
        <ele>181.60000610352</ele>
        <time>2016-05-05T16:21:07.000Z</time>
      </trkpt>
      <trkpt lat="48.87053" lon="0.84165">
        <ele>181.60000610352</ele>
        <time>2016-05-05T16:21:10.000Z</time>
      </trkpt>
      <trkpt lat="48.87056" lon="0.84145">
        <ele>181.19999694824</ele>
        <time>2016-05-05T16:21:20.000Z</time>
      </trkpt>
      <trkpt lat="48.8706" lon="0.84131">
        <ele>181.39999389648</ele>
        <time>2016-05-05T16:21:28.000Z</time>
      </trkpt>
      <trkpt lat="48.87061" lon="0.84123">
        <ele>181.39999389648</ele>
        <time>2016-05-05T16:21:32.000Z</time>
      </trkpt>
      <trkpt lat="48.87061" lon="0.84119">
        <ele>181.60000610352</ele>
        <time>2016-05-05T16:21:34.000Z</time>
      </trkpt>
      <trkpt lat="48.87063" lon="0.84103">
        <ele>181.80000305176</ele>
        <time>2016-05-05T16:21:42.000Z</time>
      </trkpt>
      <trkpt lat="48.87066" lon="0.84082">
        <ele>182</ele>
        <time>2016-05-05T16:21:53.000Z</time>
      </trkpt>
      <trkpt lat="48.87069" lon="0.84067">
        <ele>181.80000305176</ele>
        <time>2016-05-05T16:22:01.000Z</time>
      </trkpt>
      <trkpt lat="48.87071" lon="0.84056">
        <ele>181.60000610352</ele>
        <time>2016-05-05T16:22:07.000Z</time>
      </trkpt>
      <trkpt lat="48.87071" lon="0.84053">
        <ele>181.60000610352</ele>
        <time>2016-05-05T16:22:08.000Z</time>
      </trkpt>
      <trkpt lat="48.87075" lon="0.84034">
        <ele>181.19999694824</ele>
        <time>2016-05-05T16:22:17.000Z</time>
      </trkpt>
      <trkpt lat="48.87074" lon="0.84032">
        <ele>181.19999694824</ele>
        <time>2016-05-05T16:22:18.000Z</time>
      </trkpt>
      <trkpt lat="48.87075" lon="0.84025">
        <ele>181.19999694824</ele>
        <time>2016-05-05T16:22:22.000Z</time>
      </trkpt>
      <trkpt lat="48.87075" lon="0.84024">
        <ele>181</ele>
        <time>2016-05-05T16:22:23.000Z</time>
      </trkpt>
      <trkpt lat="48.87075" lon="0.84023">
        <ele>181</ele>
        <time>2016-05-05T16:22:25.000Z</time>
      </trkpt>
      <trkpt lat="48.87077" lon="0.84013">
        <ele>180.60000610352</ele>
        <time>2016-05-05T16:22:30.000Z</time>
      </trkpt>
      <trkpt lat="48.87078" lon="0.84011">
        <ele>180.39999389648</ele>
        <time>2016-05-05T16:22:31.000Z</time>
      </trkpt>
      <trkpt lat="48.87078" lon="0.84004">
        <ele>180.19999694824</ele>
        <time>2016-05-05T16:22:34.000Z</time>
      </trkpt>
      <trkpt lat="48.8708" lon="0.84">
        <ele>179.80000305176</ele>
        <time>2016-05-05T16:22:37.000Z</time>
      </trkpt>
      <trkpt lat="48.87084" lon="0.83983">
        <ele>179</ele>
        <time>2016-05-05T16:22:46.000Z</time>
      </trkpt>
      <trkpt lat="48.87088" lon="0.83969">
        <ele>178.39999389648</ele>
        <time>2016-05-05T16:22:53.000Z</time>
      </trkpt>
      <trkpt lat="48.87091" lon="0.83954">
        <ele>178.19999694824</ele>
        <time>2016-05-05T16:23:00.000Z</time>
      </trkpt>
      <trkpt lat="48.87097" lon="0.83937">
        <ele>177.80000305176</ele>
        <time>2016-05-05T16:23:09.000Z</time>
      </trkpt>
      <trkpt lat="48.87102" lon="0.83922">
        <ele>177.39999389648</ele>
        <time>2016-05-05T16:23:17.000Z</time>
      </trkpt>
      <trkpt lat="48.87106" lon="0.83912">
        <ele>177</ele>
        <time>2016-05-05T16:23:23.000Z</time>
      </trkpt>
      <trkpt lat="48.87112" lon="0.83893">
        <ele>177</ele>
        <time>2016-05-05T16:23:33.000Z</time>
      </trkpt>
      <trkpt lat="48.87116" lon="0.83878">
        <ele>177.19999694824</ele>
        <time>2016-05-05T16:23:40.000Z</time>
      </trkpt>
      <trkpt lat="48.87117" lon="0.83877">
        <ele>177.19999694824</ele>
        <time>2016-05-05T16:23:41.000Z</time>
      </trkpt>
      <trkpt lat="48.87119" lon="0.83866">
        <ele>177.19999694824</ele>
        <time>2016-05-05T16:23:47.000Z</time>
      </trkpt>
      <trkpt lat="48.87122" lon="0.83858">
        <ele>177.19999694824</ele>
        <time>2016-05-05T16:23:54.000Z</time>
      </trkpt>
      <trkpt lat="48.87123" lon="0.83856">
        <ele>177.19999694824</ele>
        <time>2016-05-05T16:23:55.000Z</time>
      </trkpt>
      <trkpt lat="48.87129" lon="0.8384">
        <ele>177.19999694824</ele>
        <time>2016-05-05T16:24:04.000Z</time>
      </trkpt>
      <trkpt lat="48.87133" lon="0.83827">
        <ele>177.39999389648</ele>
        <time>2016-05-05T16:24:11.000Z</time>
      </trkpt>
      <trkpt lat="48.87137" lon="0.83813">
        <ele>177.39999389648</ele>
        <time>2016-05-05T16:24:19.000Z</time>
      </trkpt>
      <trkpt lat="48.87144" lon="0.83794">
        <ele>177.39999389648</ele>
        <time>2016-05-05T16:24:30.000Z</time>
      </trkpt>
      <trkpt lat="48.87149" lon="0.83778">
        <ele>177.19999694824</ele>
        <time>2016-05-05T16:24:39.000Z</time>
      </trkpt>
      <trkpt lat="48.87157" lon="0.83759">
        <ele>177</ele>
        <time>2016-05-05T16:24:49.000Z</time>
      </trkpt>
      <trkpt lat="48.87161" lon="0.8375">
        <ele>177</ele>
        <time>2016-05-05T16:24:55.000Z</time>
      </trkpt>
      <trkpt lat="48.87171" lon="0.83735">
        <ele>177</ele>
        <time>2016-05-05T16:25:05.000Z</time>
      </trkpt>
      <trkpt lat="48.8718" lon="0.83728">
        <ele>177</ele>
        <time>2016-05-05T16:25:13.000Z</time>
      </trkpt>
      <trkpt lat="48.87194" lon="0.83718">
        <ele>177.19999694824</ele>
        <time>2016-05-05T16:25:24.000Z</time>
      </trkpt>
      <trkpt lat="48.87203" lon="0.83709">
        <ele>177.60000610352</ele>
        <time>2016-05-05T16:25:32.000Z</time>
      </trkpt>
      <trkpt lat="48.87215" lon="0.83701">
        <ele>178.19999694824</ele>
        <time>2016-05-05T16:25:40.000Z</time>
      </trkpt>
      <trkpt lat="48.87226" lon="0.83693">
        <ele>178.80000305176</ele>
        <time>2016-05-05T16:25:49.000Z</time>
      </trkpt>
      <trkpt lat="48.87234" lon="0.83685">
        <ele>179.19999694824</ele>
        <time>2016-05-05T16:25:56.000Z</time>
      </trkpt>
      <trkpt lat="48.87245" lon="0.83672">
        <ele>179.60000610352</ele>
        <time>2016-05-05T16:26:06.000Z</time>
      </trkpt>
      <trkpt lat="48.87253" lon="0.83659">
        <ele>180</ele>
        <time>2016-05-05T16:26:14.000Z</time>
      </trkpt>
      <trkpt lat="48.8726" lon="0.83646">
        <ele>180.39999389648</ele>
        <time>2016-05-05T16:26:22.000Z</time>
      </trkpt>
      <trkpt lat="48.87265" lon="0.83632">
        <ele>180.60000610352</ele>
        <time>2016-05-05T16:26:31.000Z</time>
      </trkpt>
      <trkpt lat="48.87265" lon="0.83631">
        <ele>180.80000305176</ele>
        <time>2016-05-05T16:26:32.000Z</time>
      </trkpt>
      <trkpt lat="48.87267" lon="0.83623">
        <ele>180.80000305176</ele>
        <time>2016-05-05T16:26:36.000Z</time>
      </trkpt>
      <trkpt lat="48.87273" lon="0.83605">
        <ele>181</ele>
        <time>2016-05-05T16:26:46.000Z</time>
      </trkpt>
      <trkpt lat="48.87279" lon="0.83583">
        <ele>181</ele>
        <time>2016-05-05T16:26:57.000Z</time>
      </trkpt>
      <trkpt lat="48.87281" lon="0.83571">
        <ele>180.80000305176</ele>
        <time>2016-05-05T16:27:04.000Z</time>
      </trkpt>
      <trkpt lat="48.87282" lon="0.83569">
        <ele>180.80000305176</ele>
        <time>2016-05-05T16:27:05.000Z</time>
      </trkpt>
      <trkpt lat="48.87283" lon="0.83563">
        <ele>181</ele>
        <time>2016-05-05T16:27:08.000Z</time>
      </trkpt>
      <trkpt lat="48.87286" lon="0.83556">
        <ele>181</ele>
        <time>2016-05-05T16:27:12.000Z</time>
      </trkpt>
      <trkpt lat="48.87291" lon="0.83539">
        <ele>181</ele>
        <time>2016-05-05T16:27:21.000Z</time>
      </trkpt>
      <trkpt lat="48.87293" lon="0.83523">
        <ele>181</ele>
        <time>2016-05-05T16:27:28.000Z</time>
      </trkpt>
      <trkpt lat="48.87297" lon="0.83507">
        <ele>181</ele>
        <time>2016-05-05T16:27:36.000Z</time>
      </trkpt>
      <trkpt lat="48.87302" lon="0.83487">
        <ele>181.19999694824</ele>
        <time>2016-05-05T16:27:46.000Z</time>
      </trkpt>
      <trkpt lat="48.87306" lon="0.83474">
        <ele>181.39999389648</ele>
        <time>2016-05-05T16:27:52.000Z</time>
      </trkpt>
      <trkpt lat="48.8731" lon="0.83455">
        <ele>181.39999389648</ele>
        <time>2016-05-05T16:28:01.000Z</time>
      </trkpt>
      <trkpt lat="48.87316" lon="0.83432">
        <ele>181.60000610352</ele>
        <time>2016-05-05T16:28:12.000Z</time>
      </trkpt>
      <trkpt lat="48.87317" lon="0.83418">
        <ele>181.19999694824</ele>
        <time>2016-05-05T16:28:19.000Z</time>
      </trkpt>
      <trkpt lat="48.87314" lon="0.83408">
        <ele>181</ele>
        <time>2016-05-05T16:28:25.000Z</time>
      </trkpt>
      <trkpt lat="48.87309" lon="0.83397">
        <ele>180.80000305176</ele>
        <time>2016-05-05T16:28:32.000Z</time>
      </trkpt>
      <trkpt lat="48.87307" lon="0.83396">
        <ele>180.80000305176</ele>
        <time>2016-05-05T16:28:34.000Z</time>
      </trkpt>
      <trkpt lat="48.87302" lon="0.83394">
        <ele>180.80000305176</ele>
        <time>2016-05-05T16:28:38.000Z</time>
      </trkpt>
      <trkpt lat="48.8729" lon="0.8339">
        <ele>180.80000305176</ele>
        <time>2016-05-05T16:28:47.000Z</time>
      </trkpt>
      <trkpt lat="48.87278" lon="0.83388">
        <ele>181</ele>
        <time>2016-05-05T16:28:56.000Z</time>
      </trkpt>
      <trkpt lat="48.87267" lon="0.83387">
        <ele>180.80000305176</ele>
        <time>2016-05-05T16:29:04.000Z</time>
      </trkpt>
      <trkpt lat="48.87254" lon="0.83387">
        <ele>180.19999694824</ele>
        <time>2016-05-05T16:29:13.000Z</time>
      </trkpt>
      <trkpt lat="48.87242" lon="0.83384">
        <ele>179.60000610352</ele>
        <time>2016-05-05T16:29:22.000Z</time>
      </trkpt>
      <trkpt lat="48.87232" lon="0.83381">
        <ele>179.19999694824</ele>
        <time>2016-05-05T16:29:29.000Z</time>
      </trkpt>
      <trkpt lat="48.87223" lon="0.8338">
        <ele>178.80000305176</ele>
        <time>2016-05-05T16:29:35.000Z</time>
      </trkpt>
      <trkpt lat="48.87222" lon="0.8338">
        <ele>178.60000610352</ele>
        <time>2016-05-05T16:29:36.000Z</time>
      </trkpt>
      <trkpt lat="48.87209" lon="0.83376">
        <ele>178.19999694824</ele>
        <time>2016-05-05T16:29:45.000Z</time>
      </trkpt>
      <trkpt lat="48.87198" lon="0.83375">
        <ele>177.60000610352</ele>
        <time>2016-05-05T16:29:53.000Z</time>
      </trkpt>
      <trkpt lat="48.87188" lon="0.83372">
        <ele>177.19999694824</ele>
        <time>2016-05-05T16:30:01.000Z</time>
      </trkpt>
      <trkpt lat="48.87179" lon="0.83371">
        <ele>177.39999389648</ele>
        <time>2016-05-05T16:30:08.000Z</time>
      </trkpt>
      <trkpt lat="48.87169" lon="0.83369">
        <ele>177.39999389648</ele>
        <time>2016-05-05T16:30:15.000Z</time>
      </trkpt>
      <trkpt lat="48.87156" lon="0.83367">
        <ele>177.60000610352</ele>
        <time>2016-05-05T16:30:25.000Z</time>
      </trkpt>
      <trkpt lat="48.87145" lon="0.83366">
        <ele>177.80000305176</ele>
        <time>2016-05-05T16:30:33.000Z</time>
      </trkpt>
      <trkpt lat="48.87135" lon="0.83364">
        <ele>178</ele>
        <time>2016-05-05T16:30:40.000Z</time>
      </trkpt>
      <trkpt lat="48.87128" lon="0.83363">
        <ele>178</ele>
        <time>2016-05-05T16:30:46.000Z</time>
      </trkpt>
      <trkpt lat="48.87118" lon="0.83361">
        <ele>178.19999694824</ele>
        <time>2016-05-05T16:30:53.000Z</time>
      </trkpt>
      <trkpt lat="48.87106" lon="0.83359">
        <ele>178.39999389648</ele>
        <time>2016-05-05T16:31:02.000Z</time>
      </trkpt>
      <trkpt lat="48.87094" lon="0.83359">
        <ele>178.60000610352</ele>
        <time>2016-05-05T16:31:11.000Z</time>
      </trkpt>
      <trkpt lat="48.87079" lon="0.83358">
        <ele>179</ele>
        <time>2016-05-05T16:31:22.000Z</time>
      </trkpt>
      <trkpt lat="48.87074" lon="0.83358">
        <ele>179.19999694824</ele>
        <time>2016-05-05T16:31:26.000Z</time>
      </trkpt>
      <trkpt lat="48.87071" lon="0.83358">
        <ele>179.39999389648</ele>
        <time>2016-05-05T16:31:28.000Z</time>
      </trkpt>
      <trkpt lat="48.87062" lon="0.83354">
        <ele>179.80000305176</ele>
        <time>2016-05-05T16:31:35.000Z</time>
      </trkpt>
      <trkpt lat="48.87061" lon="0.83354">
        <ele>179.80000305176</ele>
        <time>2016-05-05T16:31:36.000Z</time>
      </trkpt>
      <trkpt lat="48.87049" lon="0.83353">
        <ele>180.39999389648</ele>
        <time>2016-05-05T16:31:44.000Z</time>
      </trkpt>
      <trkpt lat="48.87047" lon="0.83352">
        <ele>180.39999389648</ele>
        <time>2016-05-05T16:31:45.000Z</time>
      </trkpt>
      <trkpt lat="48.87038" lon="0.83348">
        <ele>180.80000305176</ele>
        <time>2016-05-05T16:31:49.000Z</time>
      </trkpt>
      <trkpt lat="48.87035" lon="0.83347">
        <ele>181</ele>
        <time>2016-05-05T16:31:50.000Z</time>
      </trkpt>
      <trkpt lat="48.87026" lon="0.83347">
        <ele>181.39999389648</ele>
        <time>2016-05-05T16:31:55.000Z</time>
      </trkpt>
      <trkpt lat="48.87022" lon="0.83348">
        <ele>181.60000610352</ele>
        <time>2016-05-05T16:31:58.000Z</time>
      </trkpt>
      <trkpt lat="48.87018" lon="0.83348">
        <ele>181.60000610352</ele>
        <time>2016-05-05T16:32:01.000Z</time>
      </trkpt>
      <trkpt lat="48.87017" lon="0.83347">
        <ele>181.60000610352</ele>
        <time>2016-05-05T16:32:02.000Z</time>
      </trkpt>
      <trkpt lat="48.87011" lon="0.83344">
        <ele>181.39999389648</ele>
        <time>2016-05-05T16:32:06.000Z</time>
      </trkpt>
      <trkpt lat="48.87009" lon="0.83344">
        <ele>181.39999389648</ele>
        <time>2016-05-05T16:32:08.000Z</time>
      </trkpt>
      <trkpt lat="48.87003" lon="0.83343">
        <ele>181.39999389648</ele>
        <time>2016-05-05T16:32:12.000Z</time>
      </trkpt>
      <trkpt lat="48.86993" lon="0.83341">
        <ele>181.39999389648</ele>
        <time>2016-05-05T16:32:19.000Z</time>
      </trkpt>
      <trkpt lat="48.86984" lon="0.8334">
        <ele>181.39999389648</ele>
        <time>2016-05-05T16:32:26.000Z</time>
      </trkpt>
      <trkpt lat="48.86974" lon="0.83338">
        <ele>181.39999389648</ele>
        <time>2016-05-05T16:32:33.000Z</time>
      </trkpt>
      <trkpt lat="48.8696" lon="0.83334">
        <ele>181.39999389648</ele>
        <time>2016-05-05T16:32:43.000Z</time>
      </trkpt>
      <trkpt lat="48.86949" lon="0.83331">
        <ele>181.39999389648</ele>
        <time>2016-05-05T16:32:51.000Z</time>
      </trkpt>
      <trkpt lat="48.86932" lon="0.83332">
        <ele>181.39999389648</ele>
        <time>2016-05-05T16:33:03.000Z</time>
      </trkpt>
      <trkpt lat="48.86921" lon="0.83326">
        <ele>181.39999389648</ele>
        <time>2016-05-05T16:33:11.000Z</time>
      </trkpt>
      <trkpt lat="48.86908" lon="0.83325">
        <ele>181.60000610352</ele>
        <time>2016-05-05T16:33:20.000Z</time>
      </trkpt>
      <trkpt lat="48.86894" lon="0.83322">
        <ele>181.80000305176</ele>
        <time>2016-05-05T16:33:30.000Z</time>
      </trkpt>
      <trkpt lat="48.86878" lon="0.83321">
        <ele>182</ele>
        <time>2016-05-05T16:33:41.000Z</time>
      </trkpt>
      <trkpt lat="48.86871" lon="0.83321">
        <ele>182</ele>
        <time>2016-05-05T16:33:46.000Z</time>
      </trkpt>
      <trkpt lat="48.86868" lon="0.8332">
        <ele>182</ele>
        <time>2016-05-05T16:33:48.000Z</time>
      </trkpt>
      <trkpt lat="48.86854" lon="0.83318">
        <ele>182</ele>
        <time>2016-05-05T16:33:58.000Z</time>
      </trkpt>
      <trkpt lat="48.86845" lon="0.83316">
        <ele>182.19999694824</ele>
        <time>2016-05-05T16:34:05.000Z</time>
      </trkpt>
      <trkpt lat="48.86836" lon="0.83314">
        <ele>182.19999694824</ele>
        <time>2016-05-05T16:34:12.000Z</time>
      </trkpt>
      <trkpt lat="48.86825" lon="0.83312">
        <ele>182.39999389648</ele>
        <time>2016-05-05T16:34:20.000Z</time>
      </trkpt>
      <trkpt lat="48.86809" lon="0.83308">
        <ele>182.60000610352</ele>
        <time>2016-05-05T16:34:32.000Z</time>
      </trkpt>
      <trkpt lat="48.86799" lon="0.83305">
        <ele>182.60000610352</ele>
        <time>2016-05-05T16:34:39.000Z</time>
      </trkpt>
      <trkpt lat="48.86789" lon="0.83302">
        <ele>182.80000305176</ele>
        <time>2016-05-05T16:34:47.000Z</time>
      </trkpt>
      <trkpt lat="48.86782" lon="0.83303">
        <ele>182.80000305176</ele>
        <time>2016-05-05T16:34:53.000Z</time>
      </trkpt>
      <trkpt lat="48.86772" lon="0.83302">
        <ele>183</ele>
        <time>2016-05-05T16:35:00.000Z</time>
      </trkpt>
      <trkpt lat="48.86762" lon="0.83302">
        <ele>183.19999694824</ele>
        <time>2016-05-05T16:35:07.000Z</time>
      </trkpt>
      <trkpt lat="48.86755" lon="0.83303">
        <ele>183</ele>
        <time>2016-05-05T16:35:12.000Z</time>
      </trkpt>
      <trkpt lat="48.86744" lon="0.83302">
        <ele>183.19999694824</ele>
        <time>2016-05-05T16:35:20.000Z</time>
      </trkpt>
      <trkpt lat="48.86726" lon="0.83297">
        <ele>183.19999694824</ele>
        <time>2016-05-05T16:35:32.000Z</time>
      </trkpt>
      <trkpt lat="48.86715" lon="0.83296">
        <ele>183.39999389648</ele>
        <time>2016-05-05T16:35:40.000Z</time>
      </trkpt>
      <trkpt lat="48.86701" lon="0.83292">
        <ele>183.39999389648</ele>
        <time>2016-05-05T16:35:49.000Z</time>
      </trkpt>
      <trkpt lat="48.86689" lon="0.83289">
        <ele>183.60000610352</ele>
        <time>2016-05-05T16:35:57.000Z</time>
      </trkpt>
      <trkpt lat="48.8668" lon="0.83287">
        <ele>184.19999694824</ele>
        <time>2016-05-05T16:36:04.000Z</time>
      </trkpt>
      <trkpt lat="48.86668" lon="0.83283">
        <ele>185.19999694824</ele>
        <time>2016-05-05T16:36:13.000Z</time>
      </trkpt>
      <trkpt lat="48.86655" lon="0.83279">
        <ele>186.19999694824</ele>
        <time>2016-05-05T16:36:21.000Z</time>
      </trkpt>
      <trkpt lat="48.86641" lon="0.83269">
        <ele>187.60000610352</ele>
        <time>2016-05-05T16:36:31.000Z</time>
      </trkpt>
      <trkpt lat="48.86635" lon="0.83261">
        <ele>188</ele>
        <time>2016-05-05T16:36:37.000Z</time>
      </trkpt>
      <trkpt lat="48.86627" lon="0.83246">
        <ele>189</ele>
        <time>2016-05-05T16:36:46.000Z</time>
      </trkpt>
      <trkpt lat="48.86624" lon="0.83227">
        <ele>189.80000305176</ele>
        <time>2016-05-05T16:36:56.000Z</time>
      </trkpt>
      <trkpt lat="48.86621" lon="0.83202">
        <ele>190.80000305176</ele>
        <time>2016-05-05T16:37:07.000Z</time>
      </trkpt>
      <trkpt lat="48.86622" lon="0.83189">
        <ele>191.19999694824</ele>
        <time>2016-05-05T16:37:13.000Z</time>
      </trkpt>
      <trkpt lat="48.86624" lon="0.83172">
        <ele>191.80000305176</ele>
        <time>2016-05-05T16:37:21.000Z</time>
      </trkpt>
      <trkpt lat="48.86628" lon="0.83151">
        <ele>192</ele>
        <time>2016-05-05T16:37:31.000Z</time>
      </trkpt>
      <trkpt lat="48.86632" lon="0.83132">
        <ele>191.80000305176</ele>
        <time>2016-05-05T16:37:40.000Z</time>
      </trkpt>
      <trkpt lat="48.86633" lon="0.83118">
        <ele>191.80000305176</ele>
        <time>2016-05-05T16:37:47.000Z</time>
      </trkpt>
      <trkpt lat="48.86635" lon="0.83104">
        <ele>191.60000610352</ele>
        <time>2016-05-05T16:37:54.000Z</time>
      </trkpt>
      <trkpt lat="48.86638" lon="0.83089">
        <ele>191.39999389648</ele>
        <time>2016-05-05T16:38:02.000Z</time>
      </trkpt>
      <trkpt lat="48.8664" lon="0.83074">
        <ele>191.19999694824</ele>
        <time>2016-05-05T16:38:09.000Z</time>
      </trkpt>
      <trkpt lat="48.8664" lon="0.83063">
        <ele>191.19999694824</ele>
        <time>2016-05-05T16:38:17.000Z</time>
      </trkpt>
      <trkpt lat="48.86639" lon="0.83048">
        <ele>191.19999694824</ele>
        <time>2016-05-05T16:38:28.000Z</time>
      </trkpt>
      <trkpt lat="48.8664" lon="0.83042">
        <ele>191</ele>
        <time>2016-05-05T16:38:31.000Z</time>
      </trkpt>
      <trkpt lat="48.86642" lon="0.83021">
        <ele>190.60000610352</ele>
        <time>2016-05-05T16:38:41.000Z</time>
      </trkpt>
      <trkpt lat="48.86644" lon="0.83005">
        <ele>190</ele>
        <time>2016-05-05T16:38:49.000Z</time>
      </trkpt>
      <trkpt lat="48.86646" lon="0.82984">
        <ele>189.19999694824</ele>
        <time>2016-05-05T16:38:59.000Z</time>
      </trkpt>
      <trkpt lat="48.86648" lon="0.82961">
        <ele>188.80000305176</ele>
        <time>2016-05-05T16:39:10.000Z</time>
      </trkpt>
      <trkpt lat="48.86652" lon="0.82942">
        <ele>188.80000305176</ele>
        <time>2016-05-05T16:39:20.000Z</time>
      </trkpt>
      <trkpt lat="48.86654" lon="0.8292">
        <ele>189</ele>
        <time>2016-05-05T16:39:31.000Z</time>
      </trkpt>
      <trkpt lat="48.86657" lon="0.82902">
        <ele>189.19999694824</ele>
        <time>2016-05-05T16:39:40.000Z</time>
      </trkpt>
      <trkpt lat="48.86658" lon="0.8289">
        <ele>189.39999389648</ele>
        <time>2016-05-05T16:39:47.000Z</time>
      </trkpt>
      <trkpt lat="48.86658" lon="0.82886">
        <ele>189.19999694824</ele>
        <time>2016-05-05T16:39:49.000Z</time>
      </trkpt>
      <trkpt lat="48.86661" lon="0.82869">
        <ele>188.60000610352</ele>
        <time>2016-05-05T16:39:58.000Z</time>
      </trkpt>
      <trkpt lat="48.86664" lon="0.82855">
        <ele>188.39999389648</ele>
        <time>2016-05-05T16:40:07.000Z</time>
      </trkpt>
      <trkpt lat="48.86668" lon="0.82837">
        <ele>188.60000610352</ele>
        <time>2016-05-05T16:40:16.000Z</time>
      </trkpt>
      <trkpt lat="48.86669" lon="0.82824">
        <ele>188.80000305176</ele>
        <time>2016-05-05T16:40:23.000Z</time>
      </trkpt>
      <trkpt lat="48.86673" lon="0.82803">
        <ele>189</ele>
        <time>2016-05-05T16:40:33.000Z</time>
      </trkpt>
      <trkpt lat="48.86676" lon="0.82782">
        <ele>188.60000610352</ele>
        <time>2016-05-05T16:40:43.000Z</time>
      </trkpt>
      <trkpt lat="48.86677" lon="0.82767">
        <ele>188.60000610352</ele>
        <time>2016-05-05T16:40:51.000Z</time>
      </trkpt>
      <trkpt lat="48.86676" lon="0.82764">
        <ele>188.60000610352</ele>
        <time>2016-05-05T16:40:53.000Z</time>
      </trkpt>
      <trkpt lat="48.86676" lon="0.8276">
        <ele>188.60000610352</ele>
        <time>2016-05-05T16:40:55.000Z</time>
      </trkpt>
      <trkpt lat="48.86672" lon="0.82747">
        <ele>188.80000305176</ele>
        <time>2016-05-05T16:41:02.000Z</time>
      </trkpt>
      <trkpt lat="48.8667" lon="0.82729">
        <ele>189</ele>
        <time>2016-05-05T16:41:11.000Z</time>
      </trkpt>
      <trkpt lat="48.86671" lon="0.82714">
        <ele>188.80000305176</ele>
        <time>2016-05-05T16:41:18.000Z</time>
      </trkpt>
      <trkpt lat="48.86673" lon="0.82698">
        <ele>188.39999389648</ele>
        <time>2016-05-05T16:41:26.000Z</time>
      </trkpt>
      <trkpt lat="48.86672" lon="0.82679">
        <ele>188</ele>
        <time>2016-05-05T16:41:34.000Z</time>
      </trkpt>
      <trkpt lat="48.86673" lon="0.82659">
        <ele>187.39999389648</ele>
        <time>2016-05-05T16:41:44.000Z</time>
      </trkpt>
      <trkpt lat="48.86673" lon="0.82631">
        <ele>186.39999389648</ele>
        <time>2016-05-05T16:41:57.000Z</time>
      </trkpt>
      <trkpt lat="48.86673" lon="0.82614">
        <ele>185.60000610352</ele>
        <time>2016-05-05T16:42:06.000Z</time>
      </trkpt>
      <trkpt lat="48.86673" lon="0.8259">
        <ele>185</ele>
        <time>2016-05-05T16:42:19.000Z</time>
      </trkpt>
      <trkpt lat="48.86673" lon="0.82569">
        <ele>184.60000610352</ele>
        <time>2016-05-05T16:42:30.000Z</time>
      </trkpt>
      <trkpt lat="48.86675" lon="0.82545">
        <ele>184</ele>
        <time>2016-05-05T16:42:42.000Z</time>
      </trkpt>
      <trkpt lat="48.86677" lon="0.82525">
        <ele>184.19999694824</ele>
        <time>2016-05-05T16:42:52.000Z</time>
      </trkpt>
      <trkpt lat="48.86681" lon="0.82505">
        <ele>184.39999389648</ele>
        <time>2016-05-05T16:43:02.000Z</time>
      </trkpt>
      <trkpt lat="48.86685" lon="0.82484">
        <ele>184.80000305176</ele>
        <time>2016-05-05T16:43:13.000Z</time>
      </trkpt>
      <trkpt lat="48.8669" lon="0.82464">
        <ele>185</ele>
        <time>2016-05-05T16:43:23.000Z</time>
      </trkpt>
      <trkpt lat="48.86695" lon="0.82438">
        <ele>185</ele>
        <time>2016-05-05T16:43:36.000Z</time>
      </trkpt>
      <trkpt lat="48.867" lon="0.82416">
        <ele>184.80000305176</ele>
        <time>2016-05-05T16:43:47.000Z</time>
      </trkpt>
      <trkpt lat="48.86704" lon="0.82392">
        <ele>184.80000305176</ele>
        <time>2016-05-05T16:43:59.000Z</time>
      </trkpt>
      <trkpt lat="48.86709" lon="0.82369">
        <ele>184.60000610352</ele>
        <time>2016-05-05T16:44:11.000Z</time>
      </trkpt>
      <trkpt lat="48.86714" lon="0.82344">
        <ele>184.19999694824</ele>
        <time>2016-05-05T16:44:23.000Z</time>
      </trkpt>
      <trkpt lat="48.86717" lon="0.82329">
        <ele>184</ele>
        <time>2016-05-05T16:44:31.000Z</time>
      </trkpt>
      <trkpt lat="48.86722" lon="0.82305">
        <ele>184</ele>
        <time>2016-05-05T16:44:44.000Z</time>
      </trkpt>
      <trkpt lat="48.86727" lon="0.82286">
        <ele>184</ele>
        <time>2016-05-05T16:44:54.000Z</time>
      </trkpt>
      <trkpt lat="48.86731" lon="0.82262">
        <ele>184</ele>
        <time>2016-05-05T16:45:05.000Z</time>
      </trkpt>
      <trkpt lat="48.86737" lon="0.82235">
        <ele>183.60000610352</ele>
        <time>2016-05-05T16:45:16.000Z</time>
      </trkpt>
      <trkpt lat="48.86745" lon="0.82198">
        <ele>184.19999694824</ele>
        <time>2016-05-05T16:45:33.000Z</time>
      </trkpt>
      <trkpt lat="48.8675" lon="0.8218">
        <ele>184.60000610352</ele>
        <time>2016-05-05T16:45:43.000Z</time>
      </trkpt>
      <trkpt lat="48.86757" lon="0.8216">
        <ele>184.80000305176</ele>
        <time>2016-05-05T16:45:54.000Z</time>
      </trkpt>
      <trkpt lat="48.86766" lon="0.82138">
        <ele>185.19999694824</ele>
        <time>2016-05-05T16:46:06.000Z</time>
      </trkpt>
      <trkpt lat="48.86774" lon="0.82117">
        <ele>186</ele>
        <time>2016-05-05T16:46:18.000Z</time>
      </trkpt>
      <trkpt lat="48.86778" lon="0.82095">
        <ele>187</ele>
        <time>2016-05-05T16:46:29.000Z</time>
      </trkpt>
      <trkpt lat="48.86775" lon="0.82078">
        <ele>187.80000305176</ele>
        <time>2016-05-05T16:46:37.000Z</time>
      </trkpt>
      <trkpt lat="48.86769" lon="0.82055">
        <ele>189</ele>
        <time>2016-05-05T16:46:48.000Z</time>
      </trkpt>
      <trkpt lat="48.86768" lon="0.82041">
        <ele>190.19999694824</ele>
        <time>2016-05-05T16:46:55.000Z</time>
      </trkpt>
      <trkpt lat="48.86769" lon="0.82024">
        <ele>191.39999389648</ele>
        <time>2016-05-05T16:47:03.000Z</time>
      </trkpt>
      <trkpt lat="48.86773" lon="0.82008">
        <ele>192.39999389648</ele>
        <time>2016-05-05T16:47:11.000Z</time>
      </trkpt>
      <trkpt lat="48.86778" lon="0.81992">
        <ele>193.39999389648</ele>
        <time>2016-05-05T16:47:20.000Z</time>
      </trkpt>
      <trkpt lat="48.86783" lon="0.81977">
        <ele>193.80000305176</ele>
        <time>2016-05-05T16:47:28.000Z</time>
      </trkpt>
      <trkpt lat="48.86789" lon="0.81957">
        <ele>193.80000305176</ele>
        <time>2016-05-05T16:47:39.000Z</time>
      </trkpt>
      <trkpt lat="48.86793" lon="0.81945">
        <ele>193.80000305176</ele>
        <time>2016-05-05T16:47:46.000Z</time>
      </trkpt>
      <trkpt lat="48.86795" lon="0.81942">
        <ele>193.80000305176</ele>
        <time>2016-05-05T16:47:48.000Z</time>
      </trkpt>
      <trkpt lat="48.86796" lon="0.81938">
        <ele>193.80000305176</ele>
        <time>2016-05-05T16:47:50.000Z</time>
      </trkpt>
      <trkpt lat="48.86801" lon="0.81928">
        <ele>193.80000305176</ele>
        <time>2016-05-05T16:47:56.000Z</time>
      </trkpt>
      <trkpt lat="48.86807" lon="0.81911">
        <ele>193.80000305176</ele>
        <time>2016-05-05T16:48:04.000Z</time>
      </trkpt>
      <trkpt lat="48.86813" lon="0.81893">
        <ele>193.60000610352</ele>
        <time>2016-05-05T16:48:13.000Z</time>
      </trkpt>
      <trkpt lat="48.86815" lon="0.81887">
        <ele>193.39999389648</ele>
        <time>2016-05-05T16:48:16.000Z</time>
      </trkpt>
      <trkpt lat="48.86817" lon="0.8188">
        <ele>193.19999694824</ele>
        <time>2016-05-05T16:48:20.000Z</time>
      </trkpt>
      <trkpt lat="48.86823" lon="0.81867">
        <ele>192.60000610352</ele>
        <time>2016-05-05T16:48:27.000Z</time>
      </trkpt>
      <trkpt lat="48.86827" lon="0.81854">
        <ele>192.80000305176</ele>
        <time>2016-05-05T16:48:34.000Z</time>
      </trkpt>
      <trkpt lat="48.86832" lon="0.81839">
        <ele>194</ele>
        <time>2016-05-05T16:48:42.000Z</time>
      </trkpt>
      <trkpt lat="48.86835" lon="0.81829">
        <ele>194.60000610352</ele>
        <time>2016-05-05T16:48:47.000Z</time>
      </trkpt>
      <trkpt lat="48.86837" lon="0.81826">
        <ele>195</ele>
        <time>2016-05-05T16:48:49.000Z</time>
      </trkpt>
      <trkpt lat="48.86842" lon="0.81813">
        <ele>196</ele>
        <time>2016-05-05T16:48:57.000Z</time>
      </trkpt>
      <trkpt lat="48.86847" lon="0.818">
        <ele>196.39999389648</ele>
        <time>2016-05-05T16:49:04.000Z</time>
      </trkpt>
      <trkpt lat="48.86851" lon="0.81788">
        <ele>196.19999694824</ele>
        <time>2016-05-05T16:49:11.000Z</time>
      </trkpt>
      <trkpt lat="48.86852" lon="0.81781">
        <ele>196.19999694824</ele>
        <time>2016-05-05T16:49:15.000Z</time>
      </trkpt>
      <trkpt lat="48.86854" lon="0.81775">
        <ele>196.19999694824</ele>
        <time>2016-05-05T16:49:18.000Z</time>
      </trkpt>
      <trkpt lat="48.86855" lon="0.81772">
        <ele>196</ele>
        <time>2016-05-05T16:49:20.000Z</time>
      </trkpt>
      <trkpt lat="48.86855" lon="0.81769">
        <ele>196</ele>
        <time>2016-05-05T16:49:21.000Z</time>
      </trkpt>
      <trkpt lat="48.86856" lon="0.81766">
        <ele>196</ele>
        <time>2016-05-05T16:49:23.000Z</time>
      </trkpt>
      <trkpt lat="48.86857" lon="0.81762">
        <ele>195.80000305176</ele>
        <time>2016-05-05T16:49:25.000Z</time>
      </trkpt>
      <trkpt lat="48.86861" lon="0.8175">
        <ele>195.60000610352</ele>
        <time>2016-05-05T16:49:31.000Z</time>
      </trkpt>
      <trkpt lat="48.86865" lon="0.8174">
        <ele>195.19999694824</ele>
        <time>2016-05-05T16:49:37.000Z</time>
      </trkpt>
      <trkpt lat="48.86867" lon="0.81731">
        <ele>195</ele>
        <time>2016-05-05T16:49:43.000Z</time>
      </trkpt>
      <trkpt lat="48.86869" lon="0.81723">
        <ele>195.39999389648</ele>
        <time>2016-05-05T16:49:47.000Z</time>
      </trkpt>
      <trkpt lat="48.8687" lon="0.81719">
        <ele>195.39999389648</ele>
        <time>2016-05-05T16:49:49.000Z</time>
      </trkpt>
      <trkpt lat="48.86872" lon="0.81715">
        <ele>195.39999389648</ele>
        <time>2016-05-05T16:49:51.000Z</time>
      </trkpt>
      <trkpt lat="48.86874" lon="0.81706">
        <ele>195.39999389648</ele>
        <time>2016-05-05T16:49:55.000Z</time>
      </trkpt>
      <trkpt lat="48.86879" lon="0.81693">
        <ele>195.19999694824</ele>
        <time>2016-05-05T16:50:01.000Z</time>
      </trkpt>
      <trkpt lat="48.86883" lon="0.8169">
        <ele>195.19999694824</ele>
        <time>2016-05-05T16:50:06.000Z</time>
      </trkpt>
      <trkpt lat="48.86904" lon="0.81684">
        <ele>194.39999389648</ele>
        <time>2016-05-05T16:51:02.000Z</time>
      </trkpt>
      <trkpt lat="48.86907" lon="0.81684">
        <ele>194.39999389648</ele>
        <time>2016-05-05T16:51:05.000Z</time>
      </trkpt>
      <trkpt lat="48.86909" lon="0.81685">
        <ele>194.39999389648</ele>
        <time>2016-05-05T16:51:07.000Z</time>
      </trkpt>
      <trkpt lat="48.86914" lon="0.81686">
        <ele>194.39999389648</ele>
        <time>2016-05-05T16:51:10.000Z</time>
      </trkpt>
      <trkpt lat="48.86915" lon="0.81687">
        <ele>194.39999389648</ele>
        <time>2016-05-05T16:51:11.000Z</time>
      </trkpt>
      <trkpt lat="48.86917" lon="0.81687">
        <ele>194.39999389648</ele>
        <time>2016-05-05T16:51:13.000Z</time>
      </trkpt>
      <trkpt lat="48.86918" lon="0.81687">
        <ele>194.39999389648</ele>
        <time>2016-05-05T16:51:14.000Z</time>
      </trkpt>
      <trkpt lat="48.86924" lon="0.81689">
        <ele>194.39999389648</ele>
        <time>2016-05-05T16:51:17.000Z</time>
      </trkpt>
      <trkpt lat="48.86925" lon="0.81689">
        <ele>194.39999389648</ele>
        <time>2016-05-05T16:51:18.000Z</time>
      </trkpt>
      <trkpt lat="48.86929" lon="0.8169">
        <ele>194.39999389648</ele>
        <time>2016-05-05T16:51:22.000Z</time>
      </trkpt>
      <trkpt lat="48.8693" lon="0.81691">
        <ele>194.39999389648</ele>
        <time>2016-05-05T16:51:23.000Z</time>
      </trkpt>
      <trkpt lat="48.86931" lon="0.81691">
        <ele>194.39999389648</ele>
        <time>2016-05-05T16:51:25.000Z</time>
      </trkpt>
      <trkpt lat="48.86933" lon="0.81691">
        <ele>194.39999389648</ele>
        <time>2016-05-05T16:51:27.000Z</time>
      </trkpt>
      <trkpt lat="48.86937" lon="0.81691">
        <ele>194.60000610352</ele>
        <time>2016-05-05T16:51:31.000Z</time>
      </trkpt>
      <trkpt lat="48.86938" lon="0.81691">
        <ele>194.60000610352</ele>
        <time>2016-05-05T16:51:32.000Z</time>
      </trkpt>
      <trkpt lat="48.86942" lon="0.81691">
        <ele>194.60000610352</ele>
        <time>2016-05-05T16:51:35.000Z</time>
      </trkpt>
      <trkpt lat="48.86944" lon="0.81691">
        <ele>194.39999389648</ele>
        <time>2016-05-05T16:51:37.000Z</time>
      </trkpt>
      <trkpt lat="48.8695" lon="0.81692">
        <ele>194.39999389648</ele>
        <time>2016-05-05T16:51:43.000Z</time>
      </trkpt>
      <trkpt lat="48.86953" lon="0.81692">
        <ele>194.19999694824</ele>
        <time>2016-05-05T16:51:47.000Z</time>
      </trkpt>
      <trkpt lat="48.8696" lon="0.81693">
        <ele>194</ele>
        <time>2016-05-05T16:51:53.000Z</time>
      </trkpt>
      <trkpt lat="48.86966" lon="0.81691">
        <ele>194</ele>
        <time>2016-05-05T16:51:59.000Z</time>
      </trkpt>
      <trkpt lat="48.86967" lon="0.81692">
        <ele>194</ele>
        <time>2016-05-05T16:52:00.000Z</time>
      </trkpt>
      <trkpt lat="48.86973" lon="0.81691">
        <ele>193.80000305176</ele>
        <time>2016-05-05T16:52:04.000Z</time>
      </trkpt>
      <trkpt lat="48.86979" lon="0.81692">
        <ele>193.60000610352</ele>
        <time>2016-05-05T16:52:09.000Z</time>
      </trkpt>
      <trkpt lat="48.8698" lon="0.81692">
        <ele>193.60000610352</ele>
        <time>2016-05-05T16:52:10.000Z</time>
      </trkpt>
      <trkpt lat="48.86984" lon="0.81692">
        <ele>193.39999389648</ele>
        <time>2016-05-05T16:52:13.000Z</time>
      </trkpt>
      <trkpt lat="48.86993" lon="0.81694">
        <ele>193</ele>
        <time>2016-05-05T16:52:20.000Z</time>
      </trkpt>
      <trkpt lat="48.86999" lon="0.81696">
        <ele>192.60000610352</ele>
        <time>2016-05-05T16:52:26.000Z</time>
      </trkpt>
      <trkpt lat="48.87003" lon="0.81698">
        <ele>192.39999389648</ele>
        <time>2016-05-05T16:52:30.000Z</time>
      </trkpt>
      <trkpt lat="48.87007" lon="0.81699">
        <ele>192.19999694824</ele>
        <time>2016-05-05T16:52:33.000Z</time>
      </trkpt>
      <trkpt lat="48.87009" lon="0.817">
        <ele>192</ele>
        <time>2016-05-05T16:52:35.000Z</time>
      </trkpt>
      <trkpt lat="48.87014" lon="0.81702">
        <ele>191.60000610352</ele>
        <time>2016-05-05T16:52:39.000Z</time>
      </trkpt>
      <trkpt lat="48.87019" lon="0.81703">
        <ele>191.39999389648</ele>
        <time>2016-05-05T16:52:46.000Z</time>
      </trkpt>
      <trkpt lat="48.87027" lon="0.81704">
        <ele>191</ele>
        <time>2016-05-05T16:52:52.000Z</time>
      </trkpt>
      <trkpt lat="48.87034" lon="0.81707">
        <ele>190.60000610352</ele>
        <time>2016-05-05T16:52:58.000Z</time>
      </trkpt>
      <trkpt lat="48.87037" lon="0.81708">
        <ele>190.39999389648</ele>
        <time>2016-05-05T16:53:00.000Z</time>
      </trkpt>
      <trkpt lat="48.87047" lon="0.81713">
        <ele>190</ele>
        <time>2016-05-05T16:53:08.000Z</time>
      </trkpt>
      <trkpt lat="48.87057" lon="0.81715">
        <ele>189.60000610352</ele>
        <time>2016-05-05T16:53:16.000Z</time>
      </trkpt>
      <trkpt lat="48.87062" lon="0.81716">
        <ele>189.39999389648</ele>
        <time>2016-05-05T16:53:20.000Z</time>
      </trkpt>
      <trkpt lat="48.87063" lon="0.81717">
        <ele>189.39999389648</ele>
        <time>2016-05-05T16:53:21.000Z</time>
      </trkpt>
      <trkpt lat="48.87064" lon="0.81718">
        <ele>189.19999694824</ele>
        <time>2016-05-05T16:53:22.000Z</time>
      </trkpt>
      <trkpt lat="48.87066" lon="0.81723">
        <ele>189</ele>
        <time>2016-05-05T16:53:26.000Z</time>
      </trkpt>
      <trkpt lat="48.87071" lon="0.81723">
        <ele>188.80000305176</ele>
        <time>2016-05-05T16:53:29.000Z</time>
      </trkpt>
      <trkpt lat="48.87072" lon="0.81724">
        <ele>188.80000305176</ele>
        <time>2016-05-05T16:53:30.000Z</time>
      </trkpt>
      <trkpt lat="48.87072" lon="0.81723">
        <ele>188.80000305176</ele>
        <time>2016-05-05T16:53:33.000Z</time>
      </trkpt>
      <trkpt lat="48.87242" lon="0.81631">
        <ele>186</ele>
        <time>2016-05-05T16:58:27.000Z</time>
      </trkpt>
      <trkpt lat="48.87243" lon="0.81614">
        <ele>186.19999694824</ele>
        <time>2016-05-05T16:58:35.000Z</time>
      </trkpt>
      <trkpt lat="48.87245" lon="0.816">
        <ele>186.39999389648</ele>
        <time>2016-05-05T16:58:43.000Z</time>
      </trkpt>
      <trkpt lat="48.87246" lon="0.81588">
        <ele>186.60000610352</ele>
        <time>2016-05-05T16:58:50.000Z</time>
      </trkpt>
      <trkpt lat="48.87246" lon="0.81585">
        <ele>186.60000610352</ele>
        <time>2016-05-05T16:58:51.000Z</time>
      </trkpt>
      <trkpt lat="48.87246" lon="0.81579">
        <ele>186.80000305176</ele>
        <time>2016-05-05T16:58:55.000Z</time>
      </trkpt>
      <trkpt lat="48.87247" lon="0.81569">
        <ele>186.80000305176</ele>
        <time>2016-05-05T16:59:00.000Z</time>
      </trkpt>
      <trkpt lat="48.87247" lon="0.81555">
        <ele>187</ele>
        <time>2016-05-05T16:59:07.000Z</time>
      </trkpt>
      <trkpt lat="48.87248" lon="0.8155">
        <ele>187</ele>
        <time>2016-05-05T16:59:10.000Z</time>
      </trkpt>
      <trkpt lat="48.87248" lon="0.81543">
        <ele>187</ele>
        <time>2016-05-05T16:59:14.000Z</time>
      </trkpt>
      <trkpt lat="48.8725" lon="0.81525">
        <ele>187</ele>
        <time>2016-05-05T16:59:24.000Z</time>
      </trkpt>
      <trkpt lat="48.87252" lon="0.81507">
        <ele>187</ele>
        <time>2016-05-05T16:59:34.000Z</time>
      </trkpt>
      <trkpt lat="48.87253" lon="0.81496">
        <ele>187</ele>
        <time>2016-05-05T16:59:40.000Z</time>
      </trkpt>
      <trkpt lat="48.87254" lon="0.81488">
        <ele>187</ele>
        <time>2016-05-05T16:59:45.000Z</time>
      </trkpt>
      <trkpt lat="48.87254" lon="0.81487">
        <ele>187</ele>
        <time>2016-05-05T16:59:46.000Z</time>
      </trkpt>
      <trkpt lat="48.87258" lon="0.81434">
        <ele>187</ele>
        <time>2016-05-05T17:00:26.000Z</time>
      </trkpt>
      <trkpt lat="48.87259" lon="0.8143">
        <ele>187</ele>
        <time>2016-05-05T17:00:28.000Z</time>
      </trkpt>
      <trkpt lat="48.8726" lon="0.81417">
        <ele>187</ele>
        <time>2016-05-05T17:00:35.000Z</time>
      </trkpt>
      <trkpt lat="48.87261" lon="0.81407">
        <ele>187</ele>
        <time>2016-05-05T17:00:42.000Z</time>
      </trkpt>
      <trkpt lat="48.87261" lon="0.81406">
        <ele>187</ele>
        <time>2016-05-05T17:00:43.000Z</time>
      </trkpt>
      <trkpt lat="48.87261" lon="0.81397">
        <ele>187</ele>
        <time>2016-05-05T17:00:48.000Z</time>
      </trkpt>
      <trkpt lat="48.87262" lon="0.8139">
        <ele>187</ele>
        <time>2016-05-05T17:00:52.000Z</time>
      </trkpt>
      <trkpt lat="48.87262" lon="0.81388">
        <ele>187</ele>
        <time>2016-05-05T17:00:53.000Z</time>
      </trkpt>
      <trkpt lat="48.87262" lon="0.81387">
        <ele>187</ele>
        <time>2016-05-05T17:00:54.000Z</time>
      </trkpt>
      <trkpt lat="48.87263" lon="0.81376">
        <ele>187</ele>
        <time>2016-05-05T17:01:00.000Z</time>
      </trkpt>
      <trkpt lat="48.87264" lon="0.81361">
        <ele>187</ele>
        <time>2016-05-05T17:01:09.000Z</time>
      </trkpt>
      <trkpt lat="48.87265" lon="0.81348">
        <ele>187</ele>
        <time>2016-05-05T17:01:16.000Z</time>
      </trkpt>
      <trkpt lat="48.87266" lon="0.81334">
        <ele>187</ele>
        <time>2016-05-05T17:01:24.000Z</time>
      </trkpt>
      <trkpt lat="48.87267" lon="0.8132">
        <ele>187</ele>
        <time>2016-05-05T17:01:32.000Z</time>
      </trkpt>
      <trkpt lat="48.87269" lon="0.81307">
        <ele>187</ele>
        <time>2016-05-05T17:01:39.000Z</time>
      </trkpt>
      <trkpt lat="48.87271" lon="0.81292">
        <ele>187</ele>
        <time>2016-05-05T17:01:48.000Z</time>
      </trkpt>
      <trkpt lat="48.87271" lon="0.81288">
        <ele>187</ele>
        <time>2016-05-05T17:01:50.000Z</time>
      </trkpt>
      <trkpt lat="48.87271" lon="0.81283">
        <ele>187</ele>
        <time>2016-05-05T17:01:53.000Z</time>
      </trkpt>
      <trkpt lat="48.87273" lon="0.81273">
        <ele>187</ele>
        <time>2016-05-05T17:01:59.000Z</time>
      </trkpt>
      <trkpt lat="48.87274" lon="0.81266">
        <ele>187</ele>
        <time>2016-05-05T17:02:03.000Z</time>
      </trkpt>
      <trkpt lat="48.87275" lon="0.81257">
        <ele>187</ele>
        <time>2016-05-05T17:02:08.000Z</time>
      </trkpt>
      <trkpt lat="48.87275" lon="0.81254">
        <ele>187</ele>
        <time>2016-05-05T17:02:10.000Z</time>
      </trkpt>
      <trkpt lat="48.87276" lon="0.81237">
        <ele>187</ele>
        <time>2016-05-05T17:02:20.000Z</time>
      </trkpt>
      <trkpt lat="48.87277" lon="0.81224">
        <ele>187</ele>
        <time>2016-05-05T17:02:28.000Z</time>
      </trkpt>
      <trkpt lat="48.87278" lon="0.81211">
        <ele>186.60000610352</ele>
        <time>2016-05-05T17:02:35.000Z</time>
      </trkpt>
      <trkpt lat="48.87279" lon="0.81202">
        <ele>186.39999389648</ele>
        <time>2016-05-05T17:02:40.000Z</time>
      </trkpt>
      <trkpt lat="48.8728" lon="0.81192">
        <ele>186.19999694824</ele>
        <time>2016-05-05T17:02:46.000Z</time>
      </trkpt>
      <trkpt lat="48.8728" lon="0.81187">
        <ele>186</ele>
        <time>2016-05-05T17:02:49.000Z</time>
      </trkpt>
      <trkpt lat="48.8728" lon="0.81182">
        <ele>185.80000305176</ele>
        <time>2016-05-05T17:02:52.000Z</time>
      </trkpt>
      <trkpt lat="48.87282" lon="0.81167">
        <ele>185.39999389648</ele>
        <time>2016-05-05T17:03:00.000Z</time>
      </trkpt>
      <trkpt lat="48.87284" lon="0.81156">
        <ele>185.19999694824</ele>
        <time>2016-05-05T17:03:07.000Z</time>
      </trkpt>
      <trkpt lat="48.87286" lon="0.81153">
        <ele>185</ele>
        <time>2016-05-05T17:03:10.000Z</time>
      </trkpt>
      <trkpt lat="48.87287" lon="0.81153">
        <ele>185</ele>
        <time>2016-05-05T17:03:12.000Z</time>
      </trkpt>
      <trkpt lat="48.87336" lon="0.81135">
        <ele>185</ele>
        <time>2016-05-05T17:05:12.000Z</time>
      </trkpt>
      <trkpt lat="48.87327" lon="0.81128">
        <ele>184.80000305176</ele>
        <time>2016-05-05T17:05:20.000Z</time>
      </trkpt>
      <trkpt lat="48.8732" lon="0.81121">
        <ele>184.80000305176</ele>
        <time>2016-05-05T17:05:26.000Z</time>
      </trkpt>
      <trkpt lat="48.87316" lon="0.81117">
        <ele>184.80000305176</ele>
        <time>2016-05-05T17:05:31.000Z</time>
      </trkpt>
      <trkpt lat="48.87315" lon="0.81115">
        <ele>184.80000305176</ele>
        <time>2016-05-05T17:05:33.000Z</time>
      </trkpt>
      <trkpt lat="48.87313" lon="0.81115">
        <ele>184.80000305176</ele>
        <time>2016-05-05T17:05:35.000Z</time>
      </trkpt>
      <trkpt lat="48.87311" lon="0.81114">
        <ele>184.80000305176</ele>
        <time>2016-05-05T17:05:38.000Z</time>
      </trkpt>
      <trkpt lat="48.87298" lon="0.81093">
        <ele>184.39999389648</ele>
        <time>2016-05-05T17:05:54.000Z</time>
      </trkpt>
      <trkpt lat="48.87298" lon="0.81092">
        <ele>184.39999389648</ele>
        <time>2016-05-05T17:05:55.000Z</time>
      </trkpt>
      <trkpt lat="48.87296" lon="0.81079">
        <ele>184.19999694824</ele>
        <time>2016-05-05T17:06:02.000Z</time>
      </trkpt>
      <trkpt lat="48.87297" lon="0.81061">
        <ele>184.19999694824</ele>
        <time>2016-05-05T17:06:11.000Z</time>
      </trkpt>
      <trkpt lat="48.87304" lon="0.81055">
        <ele>184.39999389648</ele>
        <time>2016-05-05T17:06:18.000Z</time>
      </trkpt>
      <trkpt lat="48.87307" lon="0.81053">
        <ele>184.39999389648</ele>
        <time>2016-05-05T17:06:23.000Z</time>
      </trkpt>
      <trkpt lat="48.87308" lon="0.81053">
        <ele>184.39999389648</ele>
        <time>2016-05-05T17:06:24.000Z</time>
      </trkpt>
    </trkseg>
  </trk>
</gpx>